<?xml version="1.0"?>
<gpx
 version="1.1"
 creator="Satmap Active 20"
 xmlns:xsi="http://www.w3.org/2001/XMLSchema-instance"
 xmlns="http://www.topografix.com/GPX/1/1"
 xmlns:satmap="http://www.satmap.com/updates/xmlschemas/GpxExtensions/v2/GpxExtensions_v2.xsd"
 xsi:schemaLocation="http://www.topografix.com/GPX/1/1 http://www.topografix.com/GPX/1/1/gpx.xsd">
<metadata>
<time>2023-08-09T09:15:07Z</time>
<extensions>
<satmap:platform>43</satmap:platform>
<satmap:software version="3.12.831">SM15.exe</satmap:software>
<satmap:username>Jim Grant</satmap:username>
<satmap:network_ids>
<satmap:network_id type="wifi">00-23-A7-EC-D5-78</satmap:network_id>
<satmap:network_id type="bluetooth">80-BB-EB-D7-5B-7C</satmap:network_id>
</satmap:network_ids>
<satmap:snap_type>simple</satmap:snap_type>
</extensions>
</metadata>
<trk>
<name>2023-08-09_0915</name>
<desc>Track 1</desc>
<number>1</number>
<trkseg>
<trkpt lat="54.542511" lon="-3.057191"><ele>223</ele><time>2023-08-09T09:15:07Z</time><name>PT1</name></trkpt>
<trkpt lat="54.542496" lon="-3.057174"><ele>223</ele><time>2023-08-09T09:15:21Z</time><name>PT2</name></trkpt>
<trkpt lat="54.542478" lon="-3.057133"><ele>226</ele><time>2023-08-09T09:15:25Z</time><name>PT3</name></trkpt>
<trkpt lat="54.542471" lon="-3.057105"><ele>225</ele><time>2023-08-09T09:15:28Z</time><name>PT4</name></trkpt>
<trkpt lat="54.542468" lon="-3.057097"><ele>225</ele><time>2023-08-09T09:15:32Z</time><name>PT5</name></trkpt>
<trkpt lat="54.542452" lon="-3.057057"><ele>225</ele><time>2023-08-09T09:15:35Z</time><name>PT6</name></trkpt>
<trkpt lat="54.542449" lon="-3.057018"><ele>226</ele><time>2023-08-09T09:15:38Z</time><name>PT7</name></trkpt>
<trkpt lat="54.542464" lon="-3.056971"><ele>226</ele><time>2023-08-09T09:15:42Z</time><name>PT8</name></trkpt>
<trkpt lat="54.542461" lon="-3.056921"><ele>227</ele><time>2023-08-09T09:15:45Z</time><name>PT9</name></trkpt>
<trkpt lat="54.542502" lon="-3.056908"><ele>226</ele><time>2023-08-09T09:15:49Z</time><name>PT10</name></trkpt>
<trkpt lat="54.542521" lon="-3.056890"><ele>225</ele><time>2023-08-09T09:15:52Z</time><name>PT11</name></trkpt>
<trkpt lat="54.542548" lon="-3.056865"><ele>224</ele><time>2023-08-09T09:15:55Z</time><name>PT12</name></trkpt>
<trkpt lat="54.542587" lon="-3.056816"><ele>226</ele><time>2023-08-09T09:15:59Z</time><name>PT13</name></trkpt>
<trkpt lat="54.542609" lon="-3.056762"><ele>226</ele><time>2023-08-09T09:16:03Z</time><name>PT14</name></trkpt>
<trkpt lat="54.542612" lon="-3.056749"><ele>226</ele><time>2023-08-09T09:16:06Z</time><name>PT15</name></trkpt>
<trkpt lat="54.542622" lon="-3.056721"><ele>226</ele><time>2023-08-09T09:16:09Z</time><name>PT16</name></trkpt>
<trkpt lat="54.542619" lon="-3.056642"><ele>226</ele><time>2023-08-09T09:16:13Z</time><name>PT17</name></trkpt>
<trkpt lat="54.542620" lon="-3.056562"><ele>227</ele><time>2023-08-09T09:16:17Z</time><name>PT18</name></trkpt>
<trkpt lat="54.542623" lon="-3.056523"><ele>228</ele><time>2023-08-09T09:16:20Z</time><name>PT19</name></trkpt>
<trkpt lat="54.542611" lon="-3.056449"><ele>229</ele><time>2023-08-09T09:16:23Z</time><name>PT20</name></trkpt>
<trkpt lat="54.542608" lon="-3.056408"><ele>229</ele><time>2023-08-09T09:16:26Z</time><name>PT21</name></trkpt>
<trkpt lat="54.542604" lon="-3.056334"><ele>229</ele><time>2023-08-09T09:16:30Z</time><name>PT22</name></trkpt>
<trkpt lat="54.542601" lon="-3.056311"><ele>229</ele><time>2023-08-09T09:16:34Z</time><name>PT23</name></trkpt>
<trkpt lat="54.542595" lon="-3.056276"><ele>229</ele><time>2023-08-09T09:16:37Z</time><name>PT24</name></trkpt>
<trkpt lat="54.542580" lon="-3.056200"><ele>228</ele><time>2023-08-09T09:16:41Z</time><name>PT25</name></trkpt>
<trkpt lat="54.542571" lon="-3.056138"><ele>230</ele><time>2023-08-09T09:16:45Z</time><name>PT26</name></trkpt>
<trkpt lat="54.542554" lon="-3.056094"><ele>230</ele><time>2023-08-09T09:16:48Z</time><name>PT27</name></trkpt>
<trkpt lat="54.542530" lon="-3.056042"><ele>231</ele><time>2023-08-09T09:16:52Z</time><name>PT28</name></trkpt>
<trkpt lat="54.542510" lon="-3.055989"><ele>232</ele><time>2023-08-09T09:16:55Z</time><name>PT29</name></trkpt>
<trkpt lat="54.542488" lon="-3.055943"><ele>232</ele><time>2023-08-09T09:16:59Z</time><name>PT30</name></trkpt>
<trkpt lat="54.542471" lon="-3.055911"><ele>233</ele><time>2023-08-09T09:17:02Z</time><name>PT31</name></trkpt>
<trkpt lat="54.542453" lon="-3.055866"><ele>234</ele><time>2023-08-09T09:17:05Z</time><name>PT32</name></trkpt>
<trkpt lat="54.542436" lon="-3.055822"><ele>234</ele><time>2023-08-09T09:17:08Z</time><name>PT33</name></trkpt>
<trkpt lat="54.542430" lon="-3.055765"><ele>233</ele><time>2023-08-09T09:17:12Z</time><name>PT34</name></trkpt>
<trkpt lat="54.542438" lon="-3.055735"><ele>234</ele><time>2023-08-09T09:17:16Z</time><name>PT35</name></trkpt>
<trkpt lat="54.542433" lon="-3.055678"><ele>234</ele><time>2023-08-09T09:17:20Z</time><name>PT36</name></trkpt>
<trkpt lat="54.542436" lon="-3.055614"><ele>234</ele><time>2023-08-09T09:17:24Z</time><name>PT37</name></trkpt>
<trkpt lat="54.542427" lon="-3.055567"><ele>236</ele><time>2023-08-09T09:17:27Z</time><name>PT38</name></trkpt>
<trkpt lat="54.542412" lon="-3.055524"><ele>236</ele><time>2023-08-09T09:17:31Z</time><name>PT39</name></trkpt>
<trkpt lat="54.542395" lon="-3.055479"><ele>236</ele><time>2023-08-09T09:17:35Z</time><name>PT40</name></trkpt>
<trkpt lat="54.542389" lon="-3.055440"><ele>235</ele><time>2023-08-09T09:17:38Z</time><name>PT41</name></trkpt>
<trkpt lat="54.542393" lon="-3.055396"><ele>234</ele><time>2023-08-09T09:17:41Z</time><name>PT42</name></trkpt>
<trkpt lat="54.542389" lon="-3.055372"><ele>233</ele><time>2023-08-09T09:17:44Z</time><name>PT43</name></trkpt>
<trkpt lat="54.542381" lon="-3.055333"><ele>233</ele><time>2023-08-09T09:17:47Z</time><name>PT44</name></trkpt>
<trkpt lat="54.542374" lon="-3.055302"><ele>235</ele><time>2023-08-09T09:17:51Z</time><name>PT45</name></trkpt>
<trkpt lat="54.542372" lon="-3.055276"><ele>234</ele><time>2023-08-09T09:17:55Z</time><name>PT46</name></trkpt>
<trkpt lat="54.542377" lon="-3.055237"><ele>236</ele><time>2023-08-09T09:17:59Z</time><name>PT47</name></trkpt>
<trkpt lat="54.542388" lon="-3.055216"><ele>237</ele><time>2023-08-09T09:18:03Z</time><name>PT48</name></trkpt>
<trkpt lat="54.542390" lon="-3.055215"><ele>237</ele><time>2023-08-09T09:18:06Z</time><name>PT49</name></trkpt>
<trkpt lat="54.542393" lon="-3.055198"><ele>237</ele><time>2023-08-09T09:18:24Z</time><name>PT50</name></trkpt>
<trkpt lat="54.542402" lon="-3.055134"><ele>238</ele><time>2023-08-09T09:18:28Z</time><name>PT51</name></trkpt>
<trkpt lat="54.542386" lon="-3.055085"><ele>238</ele><time>2023-08-09T09:18:32Z</time><name>PT52</name></trkpt>
<trkpt lat="54.542387" lon="-3.055038"><ele>237</ele><time>2023-08-09T09:18:35Z</time><name>PT53</name></trkpt>
<trkpt lat="54.542382" lon="-3.054973"><ele>239</ele><time>2023-08-09T09:18:39Z</time><name>PT54</name></trkpt>
<trkpt lat="54.542377" lon="-3.054946"><ele>239</ele><time>2023-08-09T09:18:42Z</time><name>PT55</name></trkpt>
<trkpt lat="54.542367" lon="-3.054917"><ele>240</ele><time>2023-08-09T09:18:45Z</time><name>PT56</name></trkpt>
<trkpt lat="54.542352" lon="-3.054876"><ele>241</ele><time>2023-08-09T09:18:49Z</time><name>PT57</name></trkpt>
<trkpt lat="54.542343" lon="-3.054843"><ele>243</ele><time>2023-08-09T09:18:53Z</time><name>PT58</name></trkpt>
<trkpt lat="54.542332" lon="-3.054788"><ele>243</ele><time>2023-08-09T09:18:57Z</time><name>PT59</name></trkpt>
<trkpt lat="54.542328" lon="-3.054750"><ele>244</ele><time>2023-08-09T09:19:00Z</time><name>PT60</name></trkpt>
<trkpt lat="54.542331" lon="-3.054699"><ele>245</ele><time>2023-08-09T09:19:03Z</time><name>PT61</name></trkpt>
<trkpt lat="54.542324" lon="-3.054659"><ele>245</ele><time>2023-08-09T09:19:07Z</time><name>PT62</name></trkpt>
<trkpt lat="54.542291" lon="-3.054648"><ele>246</ele><time>2023-08-09T09:19:11Z</time><name>PT63</name></trkpt>
<trkpt lat="54.542273" lon="-3.054631"><ele>247</ele><time>2023-08-09T09:19:14Z</time><name>PT64</name></trkpt>
<trkpt lat="54.542258" lon="-3.054581"><ele>248</ele><time>2023-08-09T09:19:18Z</time><name>PT65</name></trkpt>
<trkpt lat="54.542245" lon="-3.054535"><ele>249</ele><time>2023-08-09T09:19:22Z</time><name>PT66</name></trkpt>
<trkpt lat="54.542229" lon="-3.054506"><ele>249</ele><time>2023-08-09T09:19:25Z</time><name>PT67</name></trkpt>
<trkpt lat="54.542221" lon="-3.054474"><ele>250</ele><time>2023-08-09T09:19:28Z</time><name>PT68</name></trkpt>
<trkpt lat="54.542204" lon="-3.054435"><ele>251</ele><time>2023-08-09T09:19:32Z</time><name>PT69</name></trkpt>
<trkpt lat="54.542196" lon="-3.054401"><ele>252</ele><time>2023-08-09T09:19:35Z</time><name>PT70</name></trkpt>
<trkpt lat="54.542178" lon="-3.054352"><ele>252</ele><time>2023-08-09T09:19:39Z</time><name>PT71</name></trkpt>
<trkpt lat="54.542152" lon="-3.054319"><ele>253</ele><time>2023-08-09T09:19:43Z</time><name>PT72</name></trkpt>
<trkpt lat="54.542126" lon="-3.054284"><ele>254</ele><time>2023-08-09T09:19:47Z</time><name>PT73</name></trkpt>
<trkpt lat="54.542096" lon="-3.054271"><ele>253</ele><time>2023-08-09T09:19:50Z</time><name>PT74</name></trkpt>
<trkpt lat="54.542072" lon="-3.054240"><ele>253</ele><time>2023-08-09T09:19:54Z</time><name>PT75</name></trkpt>
<trkpt lat="54.542058" lon="-3.054206"><ele>253</ele><time>2023-08-09T09:19:57Z</time><name>PT76</name></trkpt>
<trkpt lat="54.542035" lon="-3.054180"><ele>255</ele><time>2023-08-09T09:20:01Z</time><name>PT77</name></trkpt>
<trkpt lat="54.542024" lon="-3.054148"><ele>255</ele><time>2023-08-09T09:20:04Z</time><name>PT78</name></trkpt>
<trkpt lat="54.542011" lon="-3.054115"><ele>255</ele><time>2023-08-09T09:20:08Z</time><name>PT79</name></trkpt>
<trkpt lat="54.541990" lon="-3.054107"><ele>255</ele><time>2023-08-09T09:20:11Z</time><name>PT80</name></trkpt>
<trkpt lat="54.541956" lon="-3.054092"><ele>256</ele><time>2023-08-09T09:20:15Z</time><name>PT81</name></trkpt>
<trkpt lat="54.541945" lon="-3.054065"><ele>257</ele><time>2023-08-09T09:20:18Z</time><name>PT82</name></trkpt>
<trkpt lat="54.541915" lon="-3.054036"><ele>257</ele><time>2023-08-09T09:20:22Z</time><name>PT83</name></trkpt>
<trkpt lat="54.541888" lon="-3.054017"><ele>258</ele><time>2023-08-09T09:20:25Z</time><name>PT84</name></trkpt>
<trkpt lat="54.541857" lon="-3.054012"><ele>259</ele><time>2023-08-09T09:20:29Z</time><name>PT85</name></trkpt>
<trkpt lat="54.541833" lon="-3.054001"><ele>259</ele><time>2023-08-09T09:20:32Z</time><name>PT86</name></trkpt>
<trkpt lat="54.541796" lon="-3.053996"><ele>260</ele><time>2023-08-09T09:20:36Z</time><name>PT87</name></trkpt>
<trkpt lat="54.541763" lon="-3.053985"><ele>260</ele><time>2023-08-09T09:20:40Z</time><name>PT88</name></trkpt>
<trkpt lat="54.541734" lon="-3.053957"><ele>261</ele><time>2023-08-09T09:20:44Z</time><name>PT89</name></trkpt>
<trkpt lat="54.541715" lon="-3.053920"><ele>261</ele><time>2023-08-09T09:20:47Z</time><name>PT90</name></trkpt>
<trkpt lat="54.541685" lon="-3.053887"><ele>261</ele><time>2023-08-09T09:20:51Z</time><name>PT91</name></trkpt>
<trkpt lat="54.541668" lon="-3.053862"><ele>262</ele><time>2023-08-09T09:20:54Z</time><name>PT92</name></trkpt>
<trkpt lat="54.541640" lon="-3.053822"><ele>262</ele><time>2023-08-09T09:20:58Z</time><name>PT93</name></trkpt>
<trkpt lat="54.541616" lon="-3.053793"><ele>262</ele><time>2023-08-09T09:21:02Z</time><name>PT94</name></trkpt>
<trkpt lat="54.541595" lon="-3.053770"><ele>262</ele><time>2023-08-09T09:21:05Z</time><name>PT95</name></trkpt>
<trkpt lat="54.541583" lon="-3.053736"><ele>263</ele><time>2023-08-09T09:21:08Z</time><name>PT96</name></trkpt>
<trkpt lat="54.541557" lon="-3.053707"><ele>265</ele><time>2023-08-09T09:21:12Z</time><name>PT97</name></trkpt>
<trkpt lat="54.541533" lon="-3.053681"><ele>265</ele><time>2023-08-09T09:21:15Z</time><name>PT98</name></trkpt>
<trkpt lat="54.541511" lon="-3.053654"><ele>267</ele><time>2023-08-09T09:21:18Z</time><name>PT99</name></trkpt>
<trkpt lat="54.541494" lon="-3.053631"><ele>268</ele><time>2023-08-09T09:21:21Z</time><name>PT100</name></trkpt>
<trkpt lat="54.541476" lon="-3.053587"><ele>269</ele><time>2023-08-09T09:21:25Z</time><name>PT101</name></trkpt>
<trkpt lat="54.541461" lon="-3.053540"><ele>270</ele><time>2023-08-09T09:21:29Z</time><name>PT102</name></trkpt>
<trkpt lat="54.541449" lon="-3.053513"><ele>271</ele><time>2023-08-09T09:21:32Z</time><name>PT103</name></trkpt>
<trkpt lat="54.541419" lon="-3.053484"><ele>272</ele><time>2023-08-09T09:21:36Z</time><name>PT104</name></trkpt>
<trkpt lat="54.541391" lon="-3.053467"><ele>272</ele><time>2023-08-09T09:21:40Z</time><name>PT105</name></trkpt>
<trkpt lat="54.541361" lon="-3.053449"><ele>272</ele><time>2023-08-09T09:21:44Z</time><name>PT106</name></trkpt>
<trkpt lat="54.541325" lon="-3.053433"><ele>272</ele><time>2023-08-09T09:21:48Z</time><name>PT107</name></trkpt>
<trkpt lat="54.541286" lon="-3.053418"><ele>271</ele><time>2023-08-09T09:21:52Z</time><name>PT108</name></trkpt>
<trkpt lat="54.541249" lon="-3.053395"><ele>271</ele><time>2023-08-09T09:21:56Z</time><name>PT109</name></trkpt>
<trkpt lat="54.541220" lon="-3.053372"><ele>272</ele><time>2023-08-09T09:21:59Z</time><name>PT110</name></trkpt>
<trkpt lat="54.541198" lon="-3.053318"><ele>272</ele><time>2023-08-09T09:22:03Z</time><name>PT111</name></trkpt>
<trkpt lat="54.541184" lon="-3.053277"><ele>272</ele><time>2023-08-09T09:22:06Z</time><name>PT112</name></trkpt>
<trkpt lat="54.541176" lon="-3.053235"><ele>274</ele><time>2023-08-09T09:22:09Z</time><name>PT113</name></trkpt>
<trkpt lat="54.541168" lon="-3.053184"><ele>274</ele><time>2023-08-09T09:22:12Z</time><name>PT114</name></trkpt>
<trkpt lat="54.541157" lon="-3.053121"><ele>274</ele><time>2023-08-09T09:22:16Z</time><name>PT115</name></trkpt>
<trkpt lat="54.541140" lon="-3.053054"><ele>274</ele><time>2023-08-09T09:22:19Z</time><name>PT116</name></trkpt>
<trkpt lat="54.541125" lon="-3.053003"><ele>275</ele><time>2023-08-09T09:22:23Z</time><name>PT117</name></trkpt>
<trkpt lat="54.541092" lon="-3.052986"><ele>274</ele><time>2023-08-09T09:22:27Z</time><name>PT118</name></trkpt>
<trkpt lat="54.541048" lon="-3.052980"><ele>274</ele><time>2023-08-09T09:22:31Z</time><name>PT119</name></trkpt>
<trkpt lat="54.541003" lon="-3.052983"><ele>275</ele><time>2023-08-09T09:22:35Z</time><name>PT120</name></trkpt>
<trkpt lat="54.540977" lon="-3.053003"><ele>275</ele><time>2023-08-09T09:22:38Z</time><name>PT121</name></trkpt>
<trkpt lat="54.540940" lon="-3.053030"><ele>276</ele><time>2023-08-09T09:22:42Z</time><name>PT122</name></trkpt>
<trkpt lat="54.540912" lon="-3.053036"><ele>275</ele><time>2023-08-09T09:22:45Z</time><name>PT123</name></trkpt>
<trkpt lat="54.540887" lon="-3.053041"><ele>276</ele><time>2023-08-09T09:22:48Z</time><name>PT124</name></trkpt>
<trkpt lat="54.540865" lon="-3.053032"><ele>275</ele><time>2023-08-09T09:22:52Z</time><name>PT125</name></trkpt>
<trkpt lat="54.540839" lon="-3.053031"><ele>276</ele><time>2023-08-09T09:22:56Z</time><name>PT126</name></trkpt>
<trkpt lat="54.540815" lon="-3.053034"><ele>276</ele><time>2023-08-09T09:23:00Z</time><name>PT127</name></trkpt>
<trkpt lat="54.540796" lon="-3.053030"><ele>276</ele><time>2023-08-09T09:23:03Z</time><name>PT128</name></trkpt>
<trkpt lat="54.540772" lon="-3.053018"><ele>277</ele><time>2023-08-09T09:23:07Z</time><name>PT129</name></trkpt>
<trkpt lat="54.540761" lon="-3.052991"><ele>278</ele><time>2023-08-09T09:23:10Z</time><name>PT130</name></trkpt>
<trkpt lat="54.540756" lon="-3.052953"><ele>277</ele><time>2023-08-09T09:23:13Z</time><name>PT131</name></trkpt>
<trkpt lat="54.540766" lon="-3.052912"><ele>279</ele><time>2023-08-09T09:23:16Z</time><name>PT132</name></trkpt>
<trkpt lat="54.540773" lon="-3.052843"><ele>277</ele><time>2023-08-09T09:23:20Z</time><name>PT133</name></trkpt>
<trkpt lat="54.540773" lon="-3.052794"><ele>278</ele><time>2023-08-09T09:23:24Z</time><name>PT134</name></trkpt>
<trkpt lat="54.540782" lon="-3.052762"><ele>279</ele><time>2023-08-09T09:23:27Z</time><name>PT135</name></trkpt>
<trkpt lat="54.540794" lon="-3.052703"><ele>278</ele><time>2023-08-09T09:23:31Z</time><name>PT136</name></trkpt>
<trkpt lat="54.540811" lon="-3.052656"><ele>279</ele><time>2023-08-09T09:23:35Z</time><name>PT137</name></trkpt>
<trkpt lat="54.540814" lon="-3.052626"><ele>278</ele><time>2023-08-09T09:23:38Z</time><name>PT138</name></trkpt>
<trkpt lat="54.540811" lon="-3.052596"><ele>278</ele><time>2023-08-09T09:23:41Z</time><name>PT139</name></trkpt>
<trkpt lat="54.540811" lon="-3.052555"><ele>280</ele><time>2023-08-09T09:23:44Z</time><name>PT140</name></trkpt>
<trkpt lat="54.540792" lon="-3.052518"><ele>282</ele><time>2023-08-09T09:23:48Z</time><name>PT141</name></trkpt>
<trkpt lat="54.540786" lon="-3.052489"><ele>282</ele><time>2023-08-09T09:23:51Z</time><name>PT142</name></trkpt>
<trkpt lat="54.540781" lon="-3.052448"><ele>283</ele><time>2023-08-09T09:23:55Z</time><name>PT143</name></trkpt>
<trkpt lat="54.540780" lon="-3.052425"><ele>284</ele><time>2023-08-09T09:23:58Z</time><name>PT144</name></trkpt>
<trkpt lat="54.540775" lon="-3.052430"><ele>284</ele><time>2023-08-09T09:24:02Z</time><name>PT145</name></trkpt>
<trkpt lat="54.540750" lon="-3.052415"><ele>284</ele><time>2023-08-09T09:24:06Z</time><name>PT146</name></trkpt>
<trkpt lat="54.540740" lon="-3.052397"><ele>284</ele><time>2023-08-09T09:24:09Z</time><name>PT147</name></trkpt>
<trkpt lat="54.540727" lon="-3.052395"><ele>285</ele><time>2023-08-09T09:24:12Z</time><name>PT148</name></trkpt>
<trkpt lat="54.540704" lon="-3.052402"><ele>286</ele><time>2023-08-09T09:24:16Z</time><name>PT149</name></trkpt>
<trkpt lat="54.540685" lon="-3.052391"><ele>286</ele><time>2023-08-09T09:24:19Z</time><name>PT150</name></trkpt>
<trkpt lat="54.540668" lon="-3.052361"><ele>287</ele><time>2023-08-09T09:24:23Z</time><name>PT151</name></trkpt>
<trkpt lat="54.540654" lon="-3.052330"><ele>288</ele><time>2023-08-09T09:24:27Z</time><name>PT152</name></trkpt>
<trkpt lat="54.540643" lon="-3.052302"><ele>290</ele><time>2023-08-09T09:24:30Z</time><name>PT153</name></trkpt>
<trkpt lat="54.540626" lon="-3.052258"><ele>292</ele><time>2023-08-09T09:24:34Z</time><name>PT154</name></trkpt>
<trkpt lat="54.540608" lon="-3.052217"><ele>293</ele><time>2023-08-09T09:24:38Z</time><name>PT155</name></trkpt>
<trkpt lat="54.540586" lon="-3.052177"><ele>294</ele><time>2023-08-09T09:24:42Z</time><name>PT156</name></trkpt>
<trkpt lat="54.540565" lon="-3.052146"><ele>294</ele><time>2023-08-09T09:24:46Z</time><name>PT157</name></trkpt>
<trkpt lat="54.540537" lon="-3.052122"><ele>295</ele><time>2023-08-09T09:24:50Z</time><name>PT158</name></trkpt>
<trkpt lat="54.540512" lon="-3.052100"><ele>295</ele><time>2023-08-09T09:24:54Z</time><name>PT159</name></trkpt>
<trkpt lat="54.540496" lon="-3.052067"><ele>296</ele><time>2023-08-09T09:24:58Z</time><name>PT160</name></trkpt>
<trkpt lat="54.540478" lon="-3.052040"><ele>295</ele><time>2023-08-09T09:25:01Z</time><name>PT161</name></trkpt>
<trkpt lat="54.540465" lon="-3.052027"><ele>295</ele><time>2023-08-09T09:25:04Z</time><name>PT162</name></trkpt>
<trkpt lat="54.540445" lon="-3.052008"><ele>296</ele><time>2023-08-09T09:25:07Z</time><name>PT163</name></trkpt>
<trkpt lat="54.540422" lon="-3.051986"><ele>297</ele><time>2023-08-09T09:25:11Z</time><name>PT164</name></trkpt>
<trkpt lat="54.540395" lon="-3.051975"><ele>298</ele><time>2023-08-09T09:25:15Z</time><name>PT165</name></trkpt>
<trkpt lat="54.540372" lon="-3.051962"><ele>299</ele><time>2023-08-09T09:25:19Z</time><name>PT166</name></trkpt>
<trkpt lat="54.540352" lon="-3.051941"><ele>300</ele><time>2023-08-09T09:25:23Z</time><name>PT167</name></trkpt>
<trkpt lat="54.540333" lon="-3.051908"><ele>300</ele><time>2023-08-09T09:25:27Z</time><name>PT168</name></trkpt>
<trkpt lat="54.540313" lon="-3.051899"><ele>301</ele><time>2023-08-09T09:25:30Z</time><name>PT169</name></trkpt>
<trkpt lat="54.540299" lon="-3.051888"><ele>302</ele><time>2023-08-09T09:25:33Z</time><name>PT170</name></trkpt>
<trkpt lat="54.540283" lon="-3.051869"><ele>303</ele><time>2023-08-09T09:25:37Z</time><name>PT171</name></trkpt>
<trkpt lat="54.540270" lon="-3.051830"><ele>304</ele><time>2023-08-09T09:25:41Z</time><name>PT172</name></trkpt>
<trkpt lat="54.540250" lon="-3.051812"><ele>305</ele><time>2023-08-09T09:25:44Z</time><name>PT173</name></trkpt>
<trkpt lat="54.540234" lon="-3.051792"><ele>304</ele><time>2023-08-09T09:25:47Z</time><name>PT174</name></trkpt>
<trkpt lat="54.540213" lon="-3.051776"><ele>305</ele><time>2023-08-09T09:25:51Z</time><name>PT175</name></trkpt>
<trkpt lat="54.540204" lon="-3.051758"><ele>305</ele><time>2023-08-09T09:25:54Z</time><name>PT176</name></trkpt>
<trkpt lat="54.540188" lon="-3.051738"><ele>305</ele><time>2023-08-09T09:25:57Z</time><name>PT177</name></trkpt>
<trkpt lat="54.540178" lon="-3.051707"><ele>306</ele><time>2023-08-09T09:26:01Z</time><name>PT178</name></trkpt>
<trkpt lat="54.540165" lon="-3.051682"><ele>306</ele><time>2023-08-09T09:26:05Z</time><name>PT179</name></trkpt>
<trkpt lat="54.540148" lon="-3.051666"><ele>308</ele><time>2023-08-09T09:26:08Z</time><name>PT180</name></trkpt>
<trkpt lat="54.540131" lon="-3.051648"><ele>308</ele><time>2023-08-09T09:26:11Z</time><name>PT181</name></trkpt>
<trkpt lat="54.540123" lon="-3.051623"><ele>308</ele><time>2023-08-09T09:26:14Z</time><name>PT182</name></trkpt>
<trkpt lat="54.540108" lon="-3.051599"><ele>308</ele><time>2023-08-09T09:26:18Z</time><name>PT183</name></trkpt>
<trkpt lat="54.540092" lon="-3.051589"><ele>309</ele><time>2023-08-09T09:26:21Z</time><name>PT184</name></trkpt>
<trkpt lat="54.540080" lon="-3.051577"><ele>310</ele><time>2023-08-09T09:26:24Z</time><name>PT185</name></trkpt>
<trkpt lat="54.540062" lon="-3.051561"><ele>309</ele><time>2023-08-09T09:26:28Z</time><name>PT186</name></trkpt>
<trkpt lat="54.540049" lon="-3.051549"><ele>310</ele><time>2023-08-09T09:26:31Z</time><name>PT187</name></trkpt>
<trkpt lat="54.540037" lon="-3.051527"><ele>311</ele><time>2023-08-09T09:26:35Z</time><name>PT188</name></trkpt>
<trkpt lat="54.540021" lon="-3.051501"><ele>312</ele><time>2023-08-09T09:26:39Z</time><name>PT189</name></trkpt>
<trkpt lat="54.540004" lon="-3.051487"><ele>312</ele><time>2023-08-09T09:26:42Z</time><name>PT190</name></trkpt>
<trkpt lat="54.539994" lon="-3.051464"><ele>313</ele><time>2023-08-09T09:26:45Z</time><name>PT191</name></trkpt>
<trkpt lat="54.539977" lon="-3.051438"><ele>314</ele><time>2023-08-09T09:26:49Z</time><name>PT192</name></trkpt>
<trkpt lat="54.539958" lon="-3.051424"><ele>315</ele><time>2023-08-09T09:26:53Z</time><name>PT193</name></trkpt>
<trkpt lat="54.539944" lon="-3.051399"><ele>315</ele><time>2023-08-09T09:26:56Z</time><name>PT194</name></trkpt>
<trkpt lat="54.539937" lon="-3.051378"><ele>315</ele><time>2023-08-09T09:26:59Z</time><name>PT195</name></trkpt>
<trkpt lat="54.539921" lon="-3.051361"><ele>316</ele><time>2023-08-09T09:27:03Z</time><name>PT196</name></trkpt>
<trkpt lat="54.539899" lon="-3.051349"><ele>317</ele><time>2023-08-09T09:27:06Z</time><name>PT197</name></trkpt>
<trkpt lat="54.539890" lon="-3.051334"><ele>318</ele><time>2023-08-09T09:27:09Z</time><name>PT198</name></trkpt>
<trkpt lat="54.539881" lon="-3.051319"><ele>319</ele><time>2023-08-09T09:27:13Z</time><name>PT199</name></trkpt>
<trkpt lat="54.539867" lon="-3.051303"><ele>319</ele><time>2023-08-09T09:27:16Z</time><name>PT200</name></trkpt>
<trkpt lat="54.539846" lon="-3.051279"><ele>320</ele><time>2023-08-09T09:27:20Z</time><name>PT201</name></trkpt>
<trkpt lat="54.539826" lon="-3.051255"><ele>321</ele><time>2023-08-09T09:27:24Z</time><name>PT202</name></trkpt>
<trkpt lat="54.539816" lon="-3.051238"><ele>322</ele><time>2023-08-09T09:27:27Z</time><name>PT203</name></trkpt>
<trkpt lat="54.539800" lon="-3.051210"><ele>323</ele><time>2023-08-09T09:27:31Z</time><name>PT204</name></trkpt>
<trkpt lat="54.539800" lon="-3.051169"><ele>324</ele><time>2023-08-09T09:27:35Z</time><name>PT205</name></trkpt>
<trkpt lat="54.539796" lon="-3.051149"><ele>325</ele><time>2023-08-09T09:27:38Z</time><name>PT206</name></trkpt>
<trkpt lat="54.539791" lon="-3.051123"><ele>325</ele><time>2023-08-09T09:27:42Z</time><name>PT207</name></trkpt>
<trkpt lat="54.539786" lon="-3.051074"><ele>327</ele><time>2023-08-09T09:27:46Z</time><name>PT208</name></trkpt>
<trkpt lat="54.539794" lon="-3.051035"><ele>328</ele><time>2023-08-09T09:27:50Z</time><name>PT209</name></trkpt>
<trkpt lat="54.539803" lon="-3.051013"><ele>327</ele><time>2023-08-09T09:27:53Z</time><name>PT210</name></trkpt>
<trkpt lat="54.539810" lon="-3.050983"><ele>328</ele><time>2023-08-09T09:27:56Z</time><name>PT211</name></trkpt>
<trkpt lat="54.539816" lon="-3.050954"><ele>327</ele><time>2023-08-09T09:27:59Z</time><name>PT212</name></trkpt>
<trkpt lat="54.539823" lon="-3.050902"><ele>327</ele><time>2023-08-09T09:28:03Z</time><name>PT213</name></trkpt>
<trkpt lat="54.539839" lon="-3.050862"><ele>327</ele><time>2023-08-09T09:28:07Z</time><name>PT214</name></trkpt>
<trkpt lat="54.539852" lon="-3.050837"><ele>328</ele><time>2023-08-09T09:28:11Z</time><name>PT215</name></trkpt>
<trkpt lat="54.539860" lon="-3.050816"><ele>329</ele><time>2023-08-09T09:28:15Z</time><name>PT216</name></trkpt>
<trkpt lat="54.539879" lon="-3.050799"><ele>328</ele><time>2023-08-09T09:28:18Z</time><name>PT217</name></trkpt>
<trkpt lat="54.539883" lon="-3.050777"><ele>330</ele><time>2023-08-09T09:28:22Z</time><name>PT218</name></trkpt>
<trkpt lat="54.539894" lon="-3.050759"><ele>330</ele><time>2023-08-09T09:28:25Z</time><name>PT219</name></trkpt>
<trkpt lat="54.539912" lon="-3.050746"><ele>328</ele><time>2023-08-09T09:28:29Z</time><name>PT220</name></trkpt>
<trkpt lat="54.539927" lon="-3.050728"><ele>331</ele><time>2023-08-09T09:28:33Z</time><name>PT221</name></trkpt>
<trkpt lat="54.539940" lon="-3.050704"><ele>331</ele><time>2023-08-09T09:28:36Z</time><name>PT222</name></trkpt>
<trkpt lat="54.539958" lon="-3.050678"><ele>330</ele><time>2023-08-09T09:28:40Z</time><name>PT223</name></trkpt>
<trkpt lat="54.539988" lon="-3.050666"><ele>330</ele><time>2023-08-09T09:28:44Z</time><name>PT224</name></trkpt>
<trkpt lat="54.540008" lon="-3.050637"><ele>331</ele><time>2023-08-09T09:28:47Z</time><name>PT225</name></trkpt>
<trkpt lat="54.540025" lon="-3.050611"><ele>333</ele><time>2023-08-09T09:28:51Z</time><name>PT226</name></trkpt>
<trkpt lat="54.540037" lon="-3.050595"><ele>333</ele><time>2023-08-09T09:28:54Z</time><name>PT227</name></trkpt>
<trkpt lat="54.540056" lon="-3.050578"><ele>334</ele><time>2023-08-09T09:28:58Z</time><name>PT228</name></trkpt>
<trkpt lat="54.540067" lon="-3.050557"><ele>333</ele><time>2023-08-09T09:29:01Z</time><name>PT229</name></trkpt>
<trkpt lat="54.540085" lon="-3.050526"><ele>335</ele><time>2023-08-09T09:29:05Z</time><name>PT230</name></trkpt>
<trkpt lat="54.540095" lon="-3.050509"><ele>335</ele><time>2023-08-09T09:29:08Z</time><name>PT231</name></trkpt>
<trkpt lat="54.540107" lon="-3.050484"><ele>335</ele><time>2023-08-09T09:29:11Z</time><name>PT232</name></trkpt>
<trkpt lat="54.540119" lon="-3.050458"><ele>335</ele><time>2023-08-09T09:29:14Z</time><name>PT233</name></trkpt>
<trkpt lat="54.540123" lon="-3.050442"><ele>336</ele><time>2023-08-09T09:29:17Z</time><name>PT234</name></trkpt>
<trkpt lat="54.540130" lon="-3.050413"><ele>337</ele><time>2023-08-09T09:29:21Z</time><name>PT235</name></trkpt>
<trkpt lat="54.540125" lon="-3.050397"><ele>339</ele><time>2023-08-09T09:29:24Z</time><name>PT236</name></trkpt>
<trkpt lat="54.540109" lon="-3.050375"><ele>340</ele><time>2023-08-09T09:29:28Z</time><name>PT237</name></trkpt>
<trkpt lat="54.540102" lon="-3.050365"><ele>342</ele><time>2023-08-09T09:29:32Z</time><name>PT238</name></trkpt>
<trkpt lat="54.540098" lon="-3.050345"><ele>343</ele><time>2023-08-09T09:29:36Z</time><name>PT239</name></trkpt>
<trkpt lat="54.540089" lon="-3.050328"><ele>343</ele><time>2023-08-09T09:29:39Z</time><name>PT240</name></trkpt>
<trkpt lat="54.540082" lon="-3.050304"><ele>344</ele><time>2023-08-09T09:29:42Z</time><name>PT241</name></trkpt>
<trkpt lat="54.540067" lon="-3.050284"><ele>345</ele><time>2023-08-09T09:29:45Z</time><name>PT242</name></trkpt>
<trkpt lat="54.540052" lon="-3.050260"><ele>347</ele><time>2023-08-09T09:29:49Z</time><name>PT243</name></trkpt>
<trkpt lat="54.540037" lon="-3.050245"><ele>349</ele><time>2023-08-09T09:29:53Z</time><name>PT244</name></trkpt>
<trkpt lat="54.540028" lon="-3.050223"><ele>349</ele><time>2023-08-09T09:29:56Z</time><name>PT245</name></trkpt>
<trkpt lat="54.540017" lon="-3.050215"><ele>349</ele><time>2023-08-09T09:29:59Z</time><name>PT246</name></trkpt>
<trkpt lat="54.540004" lon="-3.050190"><ele>350</ele><time>2023-08-09T09:30:03Z</time><name>PT247</name></trkpt>
<trkpt lat="54.539994" lon="-3.050170"><ele>351</ele><time>2023-08-09T09:30:06Z</time><name>PT248</name></trkpt>
<trkpt lat="54.539981" lon="-3.050148"><ele>352</ele><time>2023-08-09T09:30:09Z</time><name>PT249</name></trkpt>
<trkpt lat="54.539969" lon="-3.050116"><ele>352</ele><time>2023-08-09T09:30:13Z</time><name>PT250</name></trkpt>
<trkpt lat="54.539959" lon="-3.050090"><ele>352</ele><time>2023-08-09T09:30:17Z</time><name>PT251</name></trkpt>
<trkpt lat="54.539951" lon="-3.050074"><ele>353</ele><time>2023-08-09T09:30:20Z</time><name>PT252</name></trkpt>
<trkpt lat="54.539935" lon="-3.050042"><ele>354</ele><time>2023-08-09T09:30:24Z</time><name>PT253</name></trkpt>
<trkpt lat="54.539927" lon="-3.050012"><ele>355</ele><time>2023-08-09T09:30:27Z</time><name>PT254</name></trkpt>
<trkpt lat="54.539919" lon="-3.049989"><ele>356</ele><time>2023-08-09T09:30:30Z</time><name>PT255</name></trkpt>
<trkpt lat="54.539916" lon="-3.049963"><ele>355</ele><time>2023-08-09T09:30:33Z</time><name>PT256</name></trkpt>
<trkpt lat="54.539909" lon="-3.049939"><ele>355</ele><time>2023-08-09T09:30:36Z</time><name>PT257</name></trkpt>
<trkpt lat="54.539891" lon="-3.049902"><ele>355</ele><time>2023-08-09T09:30:40Z</time><name>PT258</name></trkpt>
<trkpt lat="54.539880" lon="-3.049876"><ele>355</ele><time>2023-08-09T09:30:43Z</time><name>PT259</name></trkpt>
<trkpt lat="54.539867" lon="-3.049842"><ele>356</ele><time>2023-08-09T09:30:47Z</time><name>PT260</name></trkpt>
<trkpt lat="54.539861" lon="-3.049809"><ele>356</ele><time>2023-08-09T09:30:51Z</time><name>PT261</name></trkpt>
<trkpt lat="54.539848" lon="-3.049764"><ele>356</ele><time>2023-08-09T09:30:55Z</time><name>PT262</name></trkpt>
<trkpt lat="54.539850" lon="-3.049735"><ele>357</ele><time>2023-08-09T09:30:59Z</time><name>PT263</name></trkpt>
<trkpt lat="54.539860" lon="-3.049703"><ele>357</ele><time>2023-08-09T09:31:03Z</time><name>PT264</name></trkpt>
<trkpt lat="54.539866" lon="-3.049683"><ele>358</ele><time>2023-08-09T09:31:06Z</time><name>PT265</name></trkpt>
<trkpt lat="54.539880" lon="-3.049660"><ele>359</ele><time>2023-08-09T09:31:10Z</time><name>PT266</name></trkpt>
<trkpt lat="54.539899" lon="-3.049635"><ele>359</ele><time>2023-08-09T09:31:14Z</time><name>PT267</name></trkpt>
<trkpt lat="54.539910" lon="-3.049616"><ele>359</ele><time>2023-08-09T09:31:17Z</time><name>PT268</name></trkpt>
<trkpt lat="54.539928" lon="-3.049591"><ele>359</ele><time>2023-08-09T09:31:20Z</time><name>PT269</name></trkpt>
<trkpt lat="54.539952" lon="-3.049578"><ele>360</ele><time>2023-08-09T09:31:24Z</time><name>PT270</name></trkpt>
<trkpt lat="54.539965" lon="-3.049556"><ele>361</ele><time>2023-08-09T09:31:28Z</time><name>PT271</name></trkpt>
<trkpt lat="54.539991" lon="-3.049548"><ele>361</ele><time>2023-08-09T09:31:32Z</time><name>PT272</name></trkpt>
<trkpt lat="54.539998" lon="-3.049535"><ele>361</ele><time>2023-08-09T09:31:35Z</time><name>PT273</name></trkpt>
<trkpt lat="54.540017" lon="-3.049521"><ele>363</ele><time>2023-08-09T09:31:38Z</time><name>PT274</name></trkpt>
<trkpt lat="54.540036" lon="-3.049504"><ele>362</ele><time>2023-08-09T09:31:42Z</time><name>PT275</name></trkpt>
<trkpt lat="54.540054" lon="-3.049483"><ele>363</ele><time>2023-08-09T09:31:46Z</time><name>PT276</name></trkpt>
<trkpt lat="54.540057" lon="-3.049456"><ele>363</ele><time>2023-08-09T09:31:49Z</time><name>PT277</name></trkpt>
<trkpt lat="54.540063" lon="-3.049422"><ele>364</ele><time>2023-08-09T09:31:53Z</time><name>PT278</name></trkpt>
<trkpt lat="54.540076" lon="-3.049404"><ele>364</ele><time>2023-08-09T09:31:57Z</time><name>PT279</name></trkpt>
<trkpt lat="54.540079" lon="-3.049383"><ele>365</ele><time>2023-08-09T09:32:00Z</time><name>PT280</name></trkpt>
<trkpt lat="54.540082" lon="-3.049364"><ele>365</ele><time>2023-08-09T09:32:03Z</time><name>PT281</name></trkpt>
<trkpt lat="54.540077" lon="-3.049334"><ele>366</ele><time>2023-08-09T09:32:07Z</time><name>PT282</name></trkpt>
<trkpt lat="54.540078" lon="-3.049305"><ele>366</ele><time>2023-08-09T09:32:11Z</time><name>PT283</name></trkpt>
<trkpt lat="54.540062" lon="-3.049282"><ele>368</ele><time>2023-08-09T09:32:15Z</time><name>PT284</name></trkpt>
<trkpt lat="54.540049" lon="-3.049254"><ele>368</ele><time>2023-08-09T09:32:19Z</time><name>PT285</name></trkpt>
<trkpt lat="54.540039" lon="-3.049234"><ele>369</ele><time>2023-08-09T09:32:23Z</time><name>PT286</name></trkpt>
<trkpt lat="54.540030" lon="-3.049221"><ele>370</ele><time>2023-08-09T09:32:26Z</time><name>PT287</name></trkpt>
<trkpt lat="54.540018" lon="-3.049200"><ele>370</ele><time>2023-08-09T09:32:30Z</time><name>PT288</name></trkpt>
<trkpt lat="54.540004" lon="-3.049182"><ele>371</ele><time>2023-08-09T09:32:33Z</time><name>PT289</name></trkpt>
<trkpt lat="54.539992" lon="-3.049162"><ele>373</ele><time>2023-08-09T09:32:37Z</time><name>PT290</name></trkpt>
<trkpt lat="54.539975" lon="-3.049137"><ele>374</ele><time>2023-08-09T09:32:41Z</time><name>PT291</name></trkpt>
<trkpt lat="54.539966" lon="-3.049127"><ele>374</ele><time>2023-08-09T09:32:45Z</time><name>PT292</name></trkpt>
<trkpt lat="54.539954" lon="-3.049102"><ele>375</ele><time>2023-08-09T09:32:49Z</time><name>PT293</name></trkpt>
<trkpt lat="54.539939" lon="-3.049076"><ele>375</ele><time>2023-08-09T09:32:52Z</time><name>PT294</name></trkpt>
<trkpt lat="54.539924" lon="-3.049050"><ele>376</ele><time>2023-08-09T09:32:56Z</time><name>PT295</name></trkpt>
<trkpt lat="54.539914" lon="-3.049020"><ele>377</ele><time>2023-08-09T09:33:00Z</time><name>PT296</name></trkpt>
<trkpt lat="54.539902" lon="-3.049010"><ele>377</ele><time>2023-08-09T09:33:03Z</time><name>PT297</name></trkpt>
<trkpt lat="54.539891" lon="-3.048987"><ele>377</ele><time>2023-08-09T09:33:06Z</time><name>PT298</name></trkpt>
<trkpt lat="54.539879" lon="-3.048971"><ele>378</ele><time>2023-08-09T09:33:10Z</time><name>PT299</name></trkpt>
<trkpt lat="54.539869" lon="-3.048950"><ele>379</ele><time>2023-08-09T09:33:13Z</time><name>PT300</name></trkpt>
<trkpt lat="54.539863" lon="-3.048930"><ele>379</ele><time>2023-08-09T09:33:16Z</time><name>PT301</name></trkpt>
<trkpt lat="54.539852" lon="-3.048916"><ele>380</ele><time>2023-08-09T09:33:19Z</time><name>PT302</name></trkpt>
<trkpt lat="54.539837" lon="-3.048897"><ele>381</ele><time>2023-08-09T09:33:23Z</time><name>PT303</name></trkpt>
<trkpt lat="54.539814" lon="-3.048878"><ele>381</ele><time>2023-08-09T09:33:27Z</time><name>PT304</name></trkpt>
<trkpt lat="54.539804" lon="-3.048866"><ele>382</ele><time>2023-08-09T09:33:30Z</time><name>PT305</name></trkpt>
<trkpt lat="54.539790" lon="-3.048840"><ele>384</ele><time>2023-08-09T09:33:34Z</time><name>PT306</name></trkpt>
<trkpt lat="54.539775" lon="-3.048817"><ele>385</ele><time>2023-08-09T09:33:38Z</time><name>PT307</name></trkpt>
<trkpt lat="54.539766" lon="-3.048792"><ele>386</ele><time>2023-08-09T09:33:41Z</time><name>PT308</name></trkpt>
<trkpt lat="54.539759" lon="-3.048778"><ele>386</ele><time>2023-08-09T09:33:44Z</time><name>PT309</name></trkpt>
<trkpt lat="54.539745" lon="-3.048756"><ele>387</ele><time>2023-08-09T09:33:48Z</time><name>PT310</name></trkpt>
<trkpt lat="54.539731" lon="-3.048740"><ele>388</ele><time>2023-08-09T09:33:52Z</time><name>PT311</name></trkpt>
<trkpt lat="54.539719" lon="-3.048728"><ele>389</ele><time>2023-08-09T09:33:55Z</time><name>PT312</name></trkpt>
<trkpt lat="54.539703" lon="-3.048719"><ele>390</ele><time>2023-08-09T09:33:58Z</time><name>PT313</name></trkpt>
<trkpt lat="54.539688" lon="-3.048703"><ele>391</ele><time>2023-08-09T09:34:02Z</time><name>PT314</name></trkpt>
<trkpt lat="54.539675" lon="-3.048681"><ele>392</ele><time>2023-08-09T09:34:05Z</time><name>PT315</name></trkpt>
<trkpt lat="54.539660" lon="-3.048657"><ele>392</ele><time>2023-08-09T09:34:08Z</time><name>PT316</name></trkpt>
<trkpt lat="54.539644" lon="-3.048627"><ele>393</ele><time>2023-08-09T09:34:12Z</time><name>PT317</name></trkpt>
<trkpt lat="54.539634" lon="-3.048604"><ele>394</ele><time>2023-08-09T09:34:15Z</time><name>PT318</name></trkpt>
<trkpt lat="54.539613" lon="-3.048584"><ele>394</ele><time>2023-08-09T09:34:19Z</time><name>PT319</name></trkpt>
<trkpt lat="54.539602" lon="-3.048574"><ele>395</ele><time>2023-08-09T09:34:23Z</time><name>PT320</name></trkpt>
<trkpt lat="54.539599" lon="-3.048570"><ele>395</ele><time>2023-08-09T09:34:26Z</time><name>PT321</name></trkpt>
<trkpt lat="54.539587" lon="-3.048538"><ele>396</ele><time>2023-08-09T09:34:30Z</time><name>PT322</name></trkpt>
<trkpt lat="54.539567" lon="-3.048517"><ele>396</ele><time>2023-08-09T09:34:34Z</time><name>PT323</name></trkpt>
<trkpt lat="54.539550" lon="-3.048479"><ele>397</ele><time>2023-08-09T09:34:38Z</time><name>PT324</name></trkpt>
<trkpt lat="54.539539" lon="-3.048450"><ele>399</ele><time>2023-08-09T09:34:42Z</time><name>PT325</name></trkpt>
<trkpt lat="54.539539" lon="-3.048417"><ele>400</ele><time>2023-08-09T09:34:46Z</time><name>PT326</name></trkpt>
<trkpt lat="54.539546" lon="-3.048385"><ele>401</ele><time>2023-08-09T09:34:49Z</time><name>PT327</name></trkpt>
<trkpt lat="54.539566" lon="-3.048367"><ele>402</ele><time>2023-08-09T09:34:53Z</time><name>PT328</name></trkpt>
<trkpt lat="54.539577" lon="-3.048337"><ele>402</ele><time>2023-08-09T09:34:56Z</time><name>PT329</name></trkpt>
<trkpt lat="54.539599" lon="-3.048309"><ele>402</ele><time>2023-08-09T09:35:00Z</time><name>PT330</name></trkpt>
<trkpt lat="54.539618" lon="-3.048289"><ele>402</ele><time>2023-08-09T09:35:04Z</time><name>PT331</name></trkpt>
<trkpt lat="54.539628" lon="-3.048275"><ele>402</ele><time>2023-08-09T09:35:07Z</time><name>PT332</name></trkpt>
<trkpt lat="54.539643" lon="-3.048260"><ele>403</ele><time>2023-08-09T09:35:11Z</time><name>PT333</name></trkpt>
<trkpt lat="54.539659" lon="-3.048244"><ele>403</ele><time>2023-08-09T09:35:14Z</time><name>PT334</name></trkpt>
<trkpt lat="54.539676" lon="-3.048221"><ele>404</ele><time>2023-08-09T09:35:18Z</time><name>PT335</name></trkpt>
<trkpt lat="54.539694" lon="-3.048185"><ele>404</ele><time>2023-08-09T09:35:22Z</time><name>PT336</name></trkpt>
<trkpt lat="54.539710" lon="-3.048155"><ele>404</ele><time>2023-08-09T09:35:26Z</time><name>PT337</name></trkpt>
<trkpt lat="54.539720" lon="-3.048134"><ele>404</ele><time>2023-08-09T09:35:29Z</time><name>PT338</name></trkpt>
<trkpt lat="54.539731" lon="-3.048110"><ele>405</ele><time>2023-08-09T09:35:33Z</time><name>PT339</name></trkpt>
<trkpt lat="54.539744" lon="-3.048082"><ele>406</ele><time>2023-08-09T09:35:37Z</time><name>PT340</name></trkpt>
<trkpt lat="54.539753" lon="-3.048057"><ele>407</ele><time>2023-08-09T09:35:41Z</time><name>PT341</name></trkpt>
<trkpt lat="54.539760" lon="-3.048038"><ele>408</ele><time>2023-08-09T09:35:44Z</time><name>PT342</name></trkpt>
<trkpt lat="54.539771" lon="-3.048006"><ele>409</ele><time>2023-08-09T09:35:48Z</time><name>PT343</name></trkpt>
<trkpt lat="54.539780" lon="-3.047990"><ele>410</ele><time>2023-08-09T09:35:51Z</time><name>PT344</name></trkpt>
<trkpt lat="54.539788" lon="-3.047959"><ele>411</ele><time>2023-08-09T09:35:55Z</time><name>PT345</name></trkpt>
<trkpt lat="54.539796" lon="-3.047932"><ele>411</ele><time>2023-08-09T09:35:59Z</time><name>PT346</name></trkpt>
<trkpt lat="54.539799" lon="-3.047900"><ele>412</ele><time>2023-08-09T09:36:02Z</time><name>PT347</name></trkpt>
<trkpt lat="54.539807" lon="-3.047864"><ele>412</ele><time>2023-08-09T09:36:06Z</time><name>PT348</name></trkpt>
<trkpt lat="54.539804" lon="-3.047833"><ele>412</ele><time>2023-08-09T09:36:09Z</time><name>PT349</name></trkpt>
<trkpt lat="54.539789" lon="-3.047806"><ele>413</ele><time>2023-08-09T09:36:13Z</time><name>PT350</name></trkpt>
<trkpt lat="54.539775" lon="-3.047793"><ele>414</ele><time>2023-08-09T09:36:16Z</time><name>PT351</name></trkpt>
<trkpt lat="54.539762" lon="-3.047783"><ele>415</ele><time>2023-08-09T09:36:20Z</time><name>PT352</name></trkpt>
<trkpt lat="54.539747" lon="-3.047775"><ele>415</ele><time>2023-08-09T09:36:23Z</time><name>PT353</name></trkpt>
<trkpt lat="54.539732" lon="-3.047765"><ele>416</ele><time>2023-08-09T09:36:26Z</time><name>PT354</name></trkpt>
<trkpt lat="54.539711" lon="-3.047761"><ele>417</ele><time>2023-08-09T09:36:30Z</time><name>PT355</name></trkpt>
<trkpt lat="54.539697" lon="-3.047755"><ele>417</ele><time>2023-08-09T09:36:33Z</time><name>PT356</name></trkpt>
<trkpt lat="54.539683" lon="-3.047750"><ele>417</ele><time>2023-08-09T09:36:37Z</time><name>PT357</name></trkpt>
<trkpt lat="54.539668" lon="-3.047738"><ele>418</ele><time>2023-08-09T09:36:40Z</time><name>PT358</name></trkpt>
<trkpt lat="54.539664" lon="-3.047734"><ele>418</ele><time>2023-08-09T09:36:44Z</time><name>PT359</name></trkpt>
<trkpt lat="54.539655" lon="-3.047711"><ele>419</ele><time>2023-08-09T09:36:47Z</time><name>PT360</name></trkpt>
<trkpt lat="54.539639" lon="-3.047694"><ele>420</ele><time>2023-08-09T09:36:50Z</time><name>PT361</name></trkpt>
<trkpt lat="54.539623" lon="-3.047675"><ele>420</ele><time>2023-08-09T09:36:53Z</time><name>PT362</name></trkpt>
<trkpt lat="54.539612" lon="-3.047655"><ele>421</ele><time>2023-08-09T09:36:57Z</time><name>PT363</name></trkpt>
<trkpt lat="54.539591" lon="-3.047635"><ele>422</ele><time>2023-08-09T09:37:01Z</time><name>PT364</name></trkpt>
<trkpt lat="54.539579" lon="-3.047614"><ele>422</ele><time>2023-08-09T09:37:04Z</time><name>PT365</name></trkpt>
<trkpt lat="54.539581" lon="-3.047580"><ele>424</ele><time>2023-08-09T09:37:08Z</time><name>PT366</name></trkpt>
<trkpt lat="54.539580" lon="-3.047553"><ele>425</ele><time>2023-08-09T09:37:11Z</time><name>PT367</name></trkpt>
<trkpt lat="54.539578" lon="-3.047535"><ele>425</ele><time>2023-08-09T09:37:14Z</time><name>PT368</name></trkpt>
<trkpt lat="54.539565" lon="-3.047520"><ele>426</ele><time>2023-08-09T09:37:18Z</time><name>PT369</name></trkpt>
<trkpt lat="54.539545" lon="-3.047506"><ele>426</ele><time>2023-08-09T09:37:22Z</time><name>PT370</name></trkpt>
<trkpt lat="54.539527" lon="-3.047486"><ele>426</ele><time>2023-08-09T09:37:26Z</time><name>PT371</name></trkpt>
<trkpt lat="54.539523" lon="-3.047480"><ele>427</ele><time>2023-08-09T09:37:29Z</time><name>PT372</name></trkpt>
<trkpt lat="54.539513" lon="-3.047473"><ele>427</ele><time>2023-08-09T09:37:32Z</time><name>PT373</name></trkpt>
<trkpt lat="54.539495" lon="-3.047471"><ele>427</ele><time>2023-08-09T09:37:35Z</time><name>PT374</name></trkpt>
<trkpt lat="54.539478" lon="-3.047455"><ele>427</ele><time>2023-08-09T09:37:39Z</time><name>PT375</name></trkpt>
<trkpt lat="54.539476" lon="-3.047416"><ele>428</ele><time>2023-08-09T09:37:42Z</time><name>PT376</name></trkpt>
<trkpt lat="54.539478" lon="-3.047395"><ele>429</ele><time>2023-08-09T09:37:46Z</time><name>PT377</name></trkpt>
<trkpt lat="54.539482" lon="-3.047376"><ele>429</ele><time>2023-08-09T09:37:49Z</time><name>PT378</name></trkpt>
<trkpt lat="54.539479" lon="-3.047349"><ele>429</ele><time>2023-08-09T09:37:53Z</time><name>PT379</name></trkpt>
<trkpt lat="54.539467" lon="-3.047337"><ele>429</ele><time>2023-08-09T09:37:56Z</time><name>PT380</name></trkpt>
<trkpt lat="54.539450" lon="-3.047323"><ele>429</ele><time>2023-08-09T09:38:00Z</time><name>PT381</name></trkpt>
<trkpt lat="54.539449" lon="-3.047295"><ele>429</ele><time>2023-08-09T09:38:03Z</time><name>PT382</name></trkpt>
<trkpt lat="54.539455" lon="-3.047275"><ele>429</ele><time>2023-08-09T09:38:06Z</time><name>PT383</name></trkpt>
<trkpt lat="54.539456" lon="-3.047273"><ele>429</ele><time>2023-08-09T09:38:09Z</time><name>PT384</name></trkpt>
<trkpt lat="54.539456" lon="-3.047267"><ele>429</ele><time>2023-08-09T09:38:13Z</time><name>PT385</name></trkpt>
<trkpt lat="54.539457" lon="-3.047268"><ele>429</ele><time>2023-08-09T09:38:16Z</time><name>PT386</name></trkpt>
<trkpt lat="54.539451" lon="-3.047241"><ele>430</ele><time>2023-08-09T09:38:19Z</time><name>PT387</name></trkpt>
<trkpt lat="54.539455" lon="-3.047210"><ele>429</ele><time>2023-08-09T09:38:27Z</time><name>PT388</name></trkpt>
<trkpt lat="54.539449" lon="-3.047187"><ele>429</ele><time>2023-08-09T09:38:30Z</time><name>PT389</name></trkpt>
<trkpt lat="54.539447" lon="-3.047179"><ele>430</ele><time>2023-08-09T09:38:33Z</time><name>PT390</name></trkpt>
<trkpt lat="54.539447" lon="-3.047143"><ele>431</ele><time>2023-08-09T09:38:40Z</time><name>PT391</name></trkpt>
<trkpt lat="54.539446" lon="-3.047109"><ele>432</ele><time>2023-08-09T09:38:43Z</time><name>PT392</name></trkpt>
<trkpt lat="54.539440" lon="-3.047080"><ele>432</ele><time>2023-08-09T09:38:46Z</time><name>PT393</name></trkpt>
<trkpt lat="54.539431" lon="-3.047058"><ele>433</ele><time>2023-08-09T09:38:49Z</time><name>PT394</name></trkpt>
<trkpt lat="54.539418" lon="-3.047029"><ele>433</ele><time>2023-08-09T09:38:53Z</time><name>PT395</name></trkpt>
<trkpt lat="54.539409" lon="-3.046999"><ele>434</ele><time>2023-08-09T09:38:57Z</time><name>PT396</name></trkpt>
<trkpt lat="54.539402" lon="-3.046980"><ele>434</ele><time>2023-08-09T09:39:01Z</time><name>PT397</name></trkpt>
<trkpt lat="54.539388" lon="-3.046966"><ele>435</ele><time>2023-08-09T09:39:04Z</time><name>PT398</name></trkpt>
<trkpt lat="54.539368" lon="-3.046955"><ele>436</ele><time>2023-08-09T09:39:08Z</time><name>PT399</name></trkpt>
<trkpt lat="54.539349" lon="-3.046940"><ele>437</ele><time>2023-08-09T09:39:11Z</time><name>PT400</name></trkpt>
<trkpt lat="54.539331" lon="-3.046927"><ele>437</ele><time>2023-08-09T09:39:15Z</time><name>PT401</name></trkpt>
<trkpt lat="54.539316" lon="-3.046909"><ele>438</ele><time>2023-08-09T09:39:19Z</time><name>PT402</name></trkpt>
<trkpt lat="54.539305" lon="-3.046882"><ele>439</ele><time>2023-08-09T09:39:23Z</time><name>PT403</name></trkpt>
<trkpt lat="54.539283" lon="-3.046870"><ele>440</ele><time>2023-08-09T09:39:27Z</time><name>PT404</name></trkpt>
<trkpt lat="54.539260" lon="-3.046860"><ele>440</ele><time>2023-08-09T09:39:31Z</time><name>PT405</name></trkpt>
<trkpt lat="54.539245" lon="-3.046839"><ele>441</ele><time>2023-08-09T09:39:35Z</time><name>PT406</name></trkpt>
<trkpt lat="54.539239" lon="-3.046817"><ele>442</ele><time>2023-08-09T09:39:38Z</time><name>PT407</name></trkpt>
<trkpt lat="54.539232" lon="-3.046801"><ele>443</ele><time>2023-08-09T09:39:42Z</time><name>PT408</name></trkpt>
<trkpt lat="54.539229" lon="-3.046784"><ele>444</ele><time>2023-08-09T09:39:46Z</time><name>PT409</name></trkpt>
<trkpt lat="54.539217" lon="-3.046761"><ele>444</ele><time>2023-08-09T09:39:49Z</time><name>PT410</name></trkpt>
<trkpt lat="54.539210" lon="-3.046728"><ele>445</ele><time>2023-08-09T09:39:53Z</time><name>PT411</name></trkpt>
<trkpt lat="54.539200" lon="-3.046708"><ele>446</ele><time>2023-08-09T09:39:57Z</time><name>PT412</name></trkpt>
<trkpt lat="54.539194" lon="-3.046679"><ele>447</ele><time>2023-08-09T09:40:01Z</time><name>PT413</name></trkpt>
<trkpt lat="54.539185" lon="-3.046660"><ele>447</ele><time>2023-08-09T09:40:04Z</time><name>PT414</name></trkpt>
<trkpt lat="54.539177" lon="-3.046626"><ele>448</ele><time>2023-08-09T09:40:08Z</time><name>PT415</name></trkpt>
<trkpt lat="54.539184" lon="-3.046599"><ele>448</ele><time>2023-08-09T09:40:11Z</time><name>PT416</name></trkpt>
<trkpt lat="54.539184" lon="-3.046571"><ele>449</ele><time>2023-08-09T09:40:14Z</time><name>PT417</name></trkpt>
<trkpt lat="54.539187" lon="-3.046548"><ele>450</ele><time>2023-08-09T09:40:18Z</time><name>PT418</name></trkpt>
<trkpt lat="54.539189" lon="-3.046529"><ele>451</ele><time>2023-08-09T09:40:21Z</time><name>PT419</name></trkpt>
<trkpt lat="54.539195" lon="-3.046503"><ele>452</ele><time>2023-08-09T09:40:25Z</time><name>PT420</name></trkpt>
<trkpt lat="54.539193" lon="-3.046475"><ele>453</ele><time>2023-08-09T09:40:29Z</time><name>PT421</name></trkpt>
<trkpt lat="54.539191" lon="-3.046453"><ele>453</ele><time>2023-08-09T09:40:32Z</time><name>PT422</name></trkpt>
<trkpt lat="54.539186" lon="-3.046424"><ele>454</ele><time>2023-08-09T09:40:36Z</time><name>PT423</name></trkpt>
<trkpt lat="54.539183" lon="-3.046414"><ele>455</ele><time>2023-08-09T09:40:39Z</time><name>PT424</name></trkpt>
<trkpt lat="54.539181" lon="-3.046386"><ele>455</ele><time>2023-08-09T09:40:43Z</time><name>PT425</name></trkpt>
<trkpt lat="54.539176" lon="-3.046352"><ele>456</ele><time>2023-08-09T09:40:47Z</time><name>PT426</name></trkpt>
<trkpt lat="54.539175" lon="-3.046321"><ele>457</ele><time>2023-08-09T09:40:51Z</time><name>PT427</name></trkpt>
<trkpt lat="54.539175" lon="-3.046314"><ele>458</ele><time>2023-08-09T09:40:54Z</time><name>PT428</name></trkpt>
<trkpt lat="54.539172" lon="-3.046311"><ele>458</ele><time>2023-08-09T09:40:57Z</time><name>PT429</name></trkpt>
<trkpt lat="54.539162" lon="-3.046268"><ele>459</ele><time>2023-08-09T09:41:01Z</time><name>PT430</name></trkpt>
<trkpt lat="54.539148" lon="-3.046237"><ele>460</ele><time>2023-08-09T09:41:05Z</time><name>PT431</name></trkpt>
<trkpt lat="54.539145" lon="-3.046212"><ele>460</ele><time>2023-08-09T09:41:09Z</time><name>PT432</name></trkpt>
<trkpt lat="54.539133" lon="-3.046179"><ele>462</ele><time>2023-08-09T09:41:13Z</time><name>PT433</name></trkpt>
<trkpt lat="54.539122" lon="-3.046154"><ele>464</ele><time>2023-08-09T09:41:17Z</time><name>PT434</name></trkpt>
<trkpt lat="54.539108" lon="-3.046131"><ele>464</ele><time>2023-08-09T09:41:20Z</time><name>PT435</name></trkpt>
<trkpt lat="54.539092" lon="-3.046105"><ele>465</ele><time>2023-08-09T09:41:24Z</time><name>PT436</name></trkpt>
<trkpt lat="54.539079" lon="-3.046082"><ele>465</ele><time>2023-08-09T09:41:27Z</time><name>PT437</name></trkpt>
<trkpt lat="54.539069" lon="-3.046061"><ele>465</ele><time>2023-08-09T09:41:30Z</time><name>PT438</name></trkpt>
<trkpt lat="54.539057" lon="-3.046042"><ele>468</ele><time>2023-08-09T09:41:34Z</time><name>PT439</name></trkpt>
<trkpt lat="54.539052" lon="-3.046017"><ele>468</ele><time>2023-08-09T09:41:37Z</time><name>PT440</name></trkpt>
<trkpt lat="54.539044" lon="-3.045988"><ele>469</ele><time>2023-08-09T09:41:41Z</time><name>PT441</name></trkpt>
<trkpt lat="54.539041" lon="-3.045971"><ele>470</ele><time>2023-08-09T09:41:44Z</time><name>PT442</name></trkpt>
<trkpt lat="54.539038" lon="-3.045942"><ele>471</ele><time>2023-08-09T09:41:48Z</time><name>PT443</name></trkpt>
<trkpt lat="54.539030" lon="-3.045912"><ele>472</ele><time>2023-08-09T09:41:52Z</time><name>PT444</name></trkpt>
<trkpt lat="54.539036" lon="-3.045874"><ele>472</ele><time>2023-08-09T09:41:56Z</time><name>PT445</name></trkpt>
<trkpt lat="54.539024" lon="-3.045847"><ele>473</ele><time>2023-08-09T09:42:00Z</time><name>PT446</name></trkpt>
<trkpt lat="54.539015" lon="-3.045834"><ele>474</ele><time>2023-08-09T09:42:03Z</time><name>PT447</name></trkpt>
<trkpt lat="54.539002" lon="-3.045821"><ele>474</ele><time>2023-08-09T09:42:06Z</time><name>PT448</name></trkpt>
<trkpt lat="54.538982" lon="-3.045811"><ele>474</ele><time>2023-08-09T09:42:09Z</time><name>PT449</name></trkpt>
<trkpt lat="54.538958" lon="-3.045784"><ele>475</ele><time>2023-08-09T09:42:13Z</time><name>PT450</name></trkpt>
<trkpt lat="54.538944" lon="-3.045775"><ele>475</ele><time>2023-08-09T09:42:16Z</time><name>PT451</name></trkpt>
<trkpt lat="54.538926" lon="-3.045760"><ele>475</ele><time>2023-08-09T09:42:20Z</time><name>PT452</name></trkpt>
<trkpt lat="54.538910" lon="-3.045751"><ele>476</ele><time>2023-08-09T09:42:24Z</time><name>PT453</name></trkpt>
<trkpt lat="54.538899" lon="-3.045741"><ele>477</ele><time>2023-08-09T09:42:27Z</time><name>PT454</name></trkpt>
<trkpt lat="54.538887" lon="-3.045730"><ele>478</ele><time>2023-08-09T09:42:30Z</time><name>PT455</name></trkpt>
<trkpt lat="54.538877" lon="-3.045713"><ele>477</ele><time>2023-08-09T09:42:33Z</time><name>PT456</name></trkpt>
<trkpt lat="54.538867" lon="-3.045681"><ele>477</ele><time>2023-08-09T09:42:37Z</time><name>PT457</name></trkpt>
<trkpt lat="54.538865" lon="-3.045655"><ele>478</ele><time>2023-08-09T09:42:41Z</time><name>PT458</name></trkpt>
<trkpt lat="54.538859" lon="-3.045626"><ele>479</ele><time>2023-08-09T09:42:45Z</time><name>PT459</name></trkpt>
<trkpt lat="54.538844" lon="-3.045604"><ele>480</ele><time>2023-08-09T09:42:49Z</time><name>PT460</name></trkpt>
<trkpt lat="54.538827" lon="-3.045584"><ele>481</ele><time>2023-08-09T09:42:53Z</time><name>PT461</name></trkpt>
<trkpt lat="54.538823" lon="-3.045557"><ele>483</ele><time>2023-08-09T09:42:57Z</time><name>PT462</name></trkpt>
<trkpt lat="54.538825" lon="-3.045530"><ele>483</ele><time>2023-08-09T09:43:00Z</time><name>PT463</name></trkpt>
<trkpt lat="54.538825" lon="-3.045500"><ele>483</ele><time>2023-08-09T09:43:03Z</time><name>PT464</name></trkpt>
<trkpt lat="54.538823" lon="-3.045467"><ele>484</ele><time>2023-08-09T09:43:07Z</time><name>PT465</name></trkpt>
<trkpt lat="54.538826" lon="-3.045437"><ele>484</ele><time>2023-08-09T09:43:11Z</time><name>PT466</name></trkpt>
<trkpt lat="54.538818" lon="-3.045417"><ele>485</ele><time>2023-08-09T09:43:15Z</time><name>PT467</name></trkpt>
<trkpt lat="54.538809" lon="-3.045380"><ele>486</ele><time>2023-08-09T09:43:19Z</time><name>PT468</name></trkpt>
<trkpt lat="54.538800" lon="-3.045350"><ele>487</ele><time>2023-08-09T09:43:23Z</time><name>PT469</name></trkpt>
<trkpt lat="54.538795" lon="-3.045324"><ele>488</ele><time>2023-08-09T09:43:27Z</time><name>PT470</name></trkpt>
<trkpt lat="54.538797" lon="-3.045287"><ele>488</ele><time>2023-08-09T09:43:31Z</time><name>PT471</name></trkpt>
<trkpt lat="54.538800" lon="-3.045263"><ele>489</ele><time>2023-08-09T09:43:34Z</time><name>PT472</name></trkpt>
<trkpt lat="54.538806" lon="-3.045232"><ele>489</ele><time>2023-08-09T09:43:37Z</time><name>PT473</name></trkpt>
<trkpt lat="54.538800" lon="-3.045207"><ele>490</ele><time>2023-08-09T09:43:41Z</time><name>PT474</name></trkpt>
<trkpt lat="54.538796" lon="-3.045176"><ele>490</ele><time>2023-08-09T09:43:44Z</time><name>PT475</name></trkpt>
<trkpt lat="54.538794" lon="-3.045148"><ele>491</ele><time>2023-08-09T09:43:47Z</time><name>PT476</name></trkpt>
<trkpt lat="54.538786" lon="-3.045115"><ele>491</ele><time>2023-08-09T09:43:51Z</time><name>PT477</name></trkpt>
<trkpt lat="54.538774" lon="-3.045090"><ele>492</ele><time>2023-08-09T09:43:55Z</time><name>PT478</name></trkpt>
<trkpt lat="54.538764" lon="-3.045045"><ele>492</ele><time>2023-08-09T09:43:59Z</time><name>PT479</name></trkpt>
<trkpt lat="54.538757" lon="-3.045010"><ele>493</ele><time>2023-08-09T09:44:03Z</time><name>PT480</name></trkpt>
<trkpt lat="54.538745" lon="-3.044977"><ele>494</ele><time>2023-08-09T09:44:07Z</time><name>PT481</name></trkpt>
<trkpt lat="54.538729" lon="-3.044951"><ele>496</ele><time>2023-08-09T09:44:11Z</time><name>PT482</name></trkpt>
<trkpt lat="54.538714" lon="-3.044940"><ele>496</ele><time>2023-08-09T09:44:14Z</time><name>PT483</name></trkpt>
<trkpt lat="54.538696" lon="-3.044904"><ele>496</ele><time>2023-08-09T09:44:18Z</time><name>PT484</name></trkpt>
<trkpt lat="54.538686" lon="-3.044891"><ele>497</ele><time>2023-08-09T09:44:21Z</time><name>PT485</name></trkpt>
<trkpt lat="54.538673" lon="-3.044861"><ele>498</ele><time>2023-08-09T09:44:25Z</time><name>PT486</name></trkpt>
<trkpt lat="54.538678" lon="-3.044829"><ele>498</ele><time>2023-08-09T09:44:29Z</time><name>PT487</name></trkpt>
<trkpt lat="54.538676" lon="-3.044802"><ele>498</ele><time>2023-08-09T09:44:32Z</time><name>PT488</name></trkpt>
<trkpt lat="54.538666" lon="-3.044774"><ele>499</ele><time>2023-08-09T09:44:36Z</time><name>PT489</name></trkpt>
<trkpt lat="54.538660" lon="-3.044758"><ele>498</ele><time>2023-08-09T09:44:39Z</time><name>PT490</name></trkpt>
<trkpt lat="54.538644" lon="-3.044733"><ele>499</ele><time>2023-08-09T09:44:43Z</time><name>PT491</name></trkpt>
<trkpt lat="54.538624" lon="-3.044718"><ele>500</ele><time>2023-08-09T09:44:47Z</time><name>PT492</name></trkpt>
<trkpt lat="54.538602" lon="-3.044700"><ele>500</ele><time>2023-08-09T09:44:51Z</time><name>PT493</name></trkpt>
<trkpt lat="54.538587" lon="-3.044680"><ele>502</ele><time>2023-08-09T09:44:55Z</time><name>PT494</name></trkpt>
<trkpt lat="54.538573" lon="-3.044666"><ele>503</ele><time>2023-08-09T09:44:58Z</time><name>PT495</name></trkpt>
<trkpt lat="54.538568" lon="-3.044637"><ele>505</ele><time>2023-08-09T09:45:02Z</time><name>PT496</name></trkpt>
<trkpt lat="54.538563" lon="-3.044618"><ele>505</ele><time>2023-08-09T09:45:05Z</time><name>PT497</name></trkpt>
<trkpt lat="54.538553" lon="-3.044594"><ele>506</ele><time>2023-08-09T09:45:09Z</time><name>PT498</name></trkpt>
<trkpt lat="54.538547" lon="-3.044573"><ele>506</ele><time>2023-08-09T09:45:12Z</time><name>PT499</name></trkpt>
<trkpt lat="54.538542" lon="-3.044545"><ele>506</ele><time>2023-08-09T09:45:15Z</time><name>PT500</name></trkpt>
<trkpt lat="54.538535" lon="-3.044525"><ele>507</ele><time>2023-08-09T09:45:18Z</time><name>PT501</name></trkpt>
<trkpt lat="54.538523" lon="-3.044494"><ele>507</ele><time>2023-08-09T09:45:22Z</time><name>PT502</name></trkpt>
<trkpt lat="54.538520" lon="-3.044483"><ele>506</ele><time>2023-08-09T09:45:25Z</time><name>PT503</name></trkpt>
<trkpt lat="54.538499" lon="-3.044454"><ele>507</ele><time>2023-08-09T09:45:29Z</time><name>PT504</name></trkpt>
<trkpt lat="54.538490" lon="-3.044427"><ele>507</ele><time>2023-08-09T09:45:33Z</time><name>PT505</name></trkpt>
<trkpt lat="54.538491" lon="-3.044379"><ele>508</ele><time>2023-08-09T09:45:37Z</time><name>PT506</name></trkpt>
<trkpt lat="54.538491" lon="-3.044343"><ele>508</ele><time>2023-08-09T09:45:41Z</time><name>PT507</name></trkpt>
<trkpt lat="54.538490" lon="-3.044308"><ele>509</ele><time>2023-08-09T09:45:44Z</time><name>PT508</name></trkpt>
<trkpt lat="54.538484" lon="-3.044281"><ele>509</ele><time>2023-08-09T09:45:47Z</time><name>PT509</name></trkpt>
<trkpt lat="54.538469" lon="-3.044246"><ele>509</ele><time>2023-08-09T09:45:51Z</time><name>PT510</name></trkpt>
<trkpt lat="54.538460" lon="-3.044219"><ele>509</ele><time>2023-08-09T09:45:54Z</time><name>PT511</name></trkpt>
<trkpt lat="54.538448" lon="-3.044190"><ele>510</ele><time>2023-08-09T09:45:58Z</time><name>PT512</name></trkpt>
<trkpt lat="54.538437" lon="-3.044160"><ele>511</ele><time>2023-08-09T09:46:02Z</time><name>PT513</name></trkpt>
<trkpt lat="54.538414" lon="-3.044143"><ele>512</ele><time>2023-08-09T09:46:06Z</time><name>PT514</name></trkpt>
<trkpt lat="54.538400" lon="-3.044127"><ele>513</ele><time>2023-08-09T09:46:09Z</time><name>PT515</name></trkpt>
<trkpt lat="54.538386" lon="-3.044112"><ele>514</ele><time>2023-08-09T09:46:12Z</time><name>PT516</name></trkpt>
<trkpt lat="54.538371" lon="-3.044087"><ele>515</ele><time>2023-08-09T09:46:16Z</time><name>PT517</name></trkpt>
<trkpt lat="54.538357" lon="-3.044063"><ele>516</ele><time>2023-08-09T09:46:19Z</time><name>PT518</name></trkpt>
<trkpt lat="54.538340" lon="-3.044041"><ele>516</ele><time>2023-08-09T09:46:23Z</time><name>PT519</name></trkpt>
<trkpt lat="54.538327" lon="-3.044024"><ele>516</ele><time>2023-08-09T09:46:26Z</time><name>PT520</name></trkpt>
<trkpt lat="54.538310" lon="-3.043996"><ele>517</ele><time>2023-08-09T09:46:30Z</time><name>PT521</name></trkpt>
<trkpt lat="54.538300" lon="-3.043971"><ele>517</ele><time>2023-08-09T09:46:33Z</time><name>PT522</name></trkpt>
<trkpt lat="54.538304" lon="-3.043935"><ele>518</ele><time>2023-08-09T09:46:37Z</time><name>PT523</name></trkpt>
<trkpt lat="54.538302" lon="-3.043899"><ele>518</ele><time>2023-08-09T09:46:41Z</time><name>PT524</name></trkpt>
<trkpt lat="54.538300" lon="-3.043887"><ele>518</ele><time>2023-08-09T09:46:44Z</time><name>PT525</name></trkpt>
<trkpt lat="54.538282" lon="-3.043870"><ele>520</ele><time>2023-08-09T09:46:48Z</time><name>PT526</name></trkpt>
<trkpt lat="54.538254" lon="-3.043879"><ele>521</ele><time>2023-08-09T09:46:52Z</time><name>PT527</name></trkpt>
<trkpt lat="54.538235" lon="-3.043876"><ele>522</ele><time>2023-08-09T09:46:55Z</time><name>PT528</name></trkpt>
<trkpt lat="54.538213" lon="-3.043841"><ele>522</ele><time>2023-08-09T09:46:59Z</time><name>PT529</name></trkpt>
<trkpt lat="54.538194" lon="-3.043822"><ele>522</ele><time>2023-08-09T09:47:02Z</time><name>PT530</name></trkpt>
<trkpt lat="54.538188" lon="-3.043792"><ele>523</ele><time>2023-08-09T09:47:05Z</time><name>PT531</name></trkpt>
<trkpt lat="54.538188" lon="-3.043761"><ele>523</ele><time>2023-08-09T09:47:08Z</time><name>PT532</name></trkpt>
<trkpt lat="54.538185" lon="-3.043735"><ele>524</ele><time>2023-08-09T09:47:11Z</time><name>PT533</name></trkpt>
<trkpt lat="54.538183" lon="-3.043709"><ele>525</ele><time>2023-08-09T09:47:14Z</time><name>PT534</name></trkpt>
<trkpt lat="54.538176" lon="-3.043669"><ele>525</ele><time>2023-08-09T09:47:18Z</time><name>PT535</name></trkpt>
<trkpt lat="54.538177" lon="-3.043635"><ele>525</ele><time>2023-08-09T09:47:22Z</time><name>PT536</name></trkpt>
<trkpt lat="54.538177" lon="-3.043603"><ele>525</ele><time>2023-08-09T09:47:25Z</time><name>PT537</name></trkpt>
<trkpt lat="54.538174" lon="-3.043571"><ele>525</ele><time>2023-08-09T09:47:29Z</time><name>PT538</name></trkpt>
<trkpt lat="54.538176" lon="-3.043527"><ele>526</ele><time>2023-08-09T09:47:33Z</time><name>PT539</name></trkpt>
<trkpt lat="54.538174" lon="-3.043500"><ele>526</ele><time>2023-08-09T09:47:36Z</time><name>PT540</name></trkpt>
<trkpt lat="54.538169" lon="-3.043466"><ele>527</ele><time>2023-08-09T09:47:40Z</time><name>PT541</name></trkpt>
<trkpt lat="54.538164" lon="-3.043442"><ele>528</ele><time>2023-08-09T09:47:44Z</time><name>PT542</name></trkpt>
<trkpt lat="54.538154" lon="-3.043414"><ele>529</ele><time>2023-08-09T09:47:48Z</time><name>PT543</name></trkpt>
<trkpt lat="54.538142" lon="-3.043381"><ele>530</ele><time>2023-08-09T09:47:52Z</time><name>PT544</name></trkpt>
<trkpt lat="54.538142" lon="-3.043358"><ele>530</ele><time>2023-08-09T09:47:55Z</time><name>PT545</name></trkpt>
<trkpt lat="54.538128" lon="-3.043343"><ele>532</ele><time>2023-08-09T09:47:58Z</time><name>PT546</name></trkpt>
<trkpt lat="54.538121" lon="-3.043316"><ele>532</ele><time>2023-08-09T09:48:01Z</time><name>PT547</name></trkpt>
<trkpt lat="54.538115" lon="-3.043281"><ele>533</ele><time>2023-08-09T09:48:05Z</time><name>PT548</name></trkpt>
<trkpt lat="54.538110" lon="-3.043237"><ele>533</ele><time>2023-08-09T09:48:09Z</time><name>PT549</name></trkpt>
<trkpt lat="54.538105" lon="-3.043190"><ele>534</ele><time>2023-08-09T09:48:13Z</time><name>PT550</name></trkpt>
<trkpt lat="54.538101" lon="-3.043165"><ele>534</ele><time>2023-08-09T09:48:16Z</time><name>PT551</name></trkpt>
<trkpt lat="54.538102" lon="-3.043119"><ele>534</ele><time>2023-08-09T09:48:20Z</time><name>PT552</name></trkpt>
<trkpt lat="54.538096" lon="-3.043086"><ele>535</ele><time>2023-08-09T09:48:23Z</time><name>PT553</name></trkpt>
<trkpt lat="54.538095" lon="-3.043056"><ele>535</ele><time>2023-08-09T09:48:26Z</time><name>PT554</name></trkpt>
<trkpt lat="54.538090" lon="-3.043012"><ele>536</ele><time>2023-08-09T09:48:30Z</time><name>PT555</name></trkpt>
<trkpt lat="54.538089" lon="-3.042983"><ele>536</ele><time>2023-08-09T09:48:33Z</time><name>PT556</name></trkpt>
<trkpt lat="54.538087" lon="-3.042960"><ele>537</ele><time>2023-08-09T09:48:36Z</time><name>PT557</name></trkpt>
<trkpt lat="54.538090" lon="-3.042910"><ele>537</ele><time>2023-08-09T09:48:40Z</time><name>PT558</name></trkpt>
<trkpt lat="54.538092" lon="-3.042876"><ele>537</ele><time>2023-08-09T09:48:43Z</time><name>PT559</name></trkpt>
<trkpt lat="54.538091" lon="-3.042855"><ele>538</ele><time>2023-08-09T09:48:47Z</time><name>PT560</name></trkpt>
<trkpt lat="54.538082" lon="-3.042830"><ele>540</ele><time>2023-08-09T09:48:50Z</time><name>PT561</name></trkpt>
<trkpt lat="54.538066" lon="-3.042794"><ele>540</ele><time>2023-08-09T09:48:54Z</time><name>PT562</name></trkpt>
<trkpt lat="54.538054" lon="-3.042759"><ele>542</ele><time>2023-08-09T09:48:58Z</time><name>PT563</name></trkpt>
<trkpt lat="54.538049" lon="-3.042722"><ele>543</ele><time>2023-08-09T09:49:02Z</time><name>PT564</name></trkpt>
<trkpt lat="54.538052" lon="-3.042688"><ele>544</ele><time>2023-08-09T09:49:05Z</time><name>PT565</name></trkpt>
<trkpt lat="54.538058" lon="-3.042647"><ele>544</ele><time>2023-08-09T09:49:08Z</time><name>PT566</name></trkpt>
<trkpt lat="54.538052" lon="-3.042601"><ele>543</ele><time>2023-08-09T09:49:11Z</time><name>PT567</name></trkpt>
<trkpt lat="54.538051" lon="-3.042567"><ele>544</ele><time>2023-08-09T09:49:14Z</time><name>PT568</name></trkpt>
<trkpt lat="54.538051" lon="-3.042525"><ele>546</ele><time>2023-08-09T09:49:18Z</time><name>PT569</name></trkpt>
<trkpt lat="54.538039" lon="-3.042494"><ele>547</ele><time>2023-08-09T09:49:21Z</time><name>PT570</name></trkpt>
<trkpt lat="54.538046" lon="-3.042459"><ele>547</ele><time>2023-08-09T09:49:24Z</time><name>PT571</name></trkpt>
<trkpt lat="54.538060" lon="-3.042403"><ele>547</ele><time>2023-08-09T09:49:28Z</time><name>PT572</name></trkpt>
<trkpt lat="54.538068" lon="-3.042346"><ele>549</ele><time>2023-08-09T09:49:32Z</time><name>PT573</name></trkpt>
<trkpt lat="54.538077" lon="-3.042301"><ele>549</ele><time>2023-08-09T09:49:35Z</time><name>PT574</name></trkpt>
<trkpt lat="54.538085" lon="-3.042245"><ele>550</ele><time>2023-08-09T09:49:39Z</time><name>PT575</name></trkpt>
<trkpt lat="54.538089" lon="-3.042196"><ele>550</ele><time>2023-08-09T09:49:42Z</time><name>PT576</name></trkpt>
<trkpt lat="54.538095" lon="-3.042147"><ele>551</ele><time>2023-08-09T09:49:46Z</time><name>PT577</name></trkpt>
<trkpt lat="54.538098" lon="-3.042102"><ele>551</ele><time>2023-08-09T09:49:50Z</time><name>PT578</name></trkpt>
<trkpt lat="54.538103" lon="-3.042043"><ele>551</ele><time>2023-08-09T09:49:54Z</time><name>PT579</name></trkpt>
<trkpt lat="54.538094" lon="-3.042001"><ele>551</ele><time>2023-08-09T09:49:58Z</time><name>PT580</name></trkpt>
<trkpt lat="54.538089" lon="-3.041972"><ele>551</ele><time>2023-08-09T09:50:01Z</time><name>PT581</name></trkpt>
<trkpt lat="54.538072" lon="-3.041945"><ele>552</ele><time>2023-08-09T09:50:05Z</time><name>PT582</name></trkpt>
<trkpt lat="54.538057" lon="-3.041929"><ele>553</ele><time>2023-08-09T09:50:09Z</time><name>PT583</name></trkpt>
<trkpt lat="54.538042" lon="-3.041922"><ele>553</ele><time>2023-08-09T09:50:12Z</time><name>PT584</name></trkpt>
<trkpt lat="54.538017" lon="-3.041915"><ele>554</ele><time>2023-08-09T09:50:16Z</time><name>PT585</name></trkpt>
<trkpt lat="54.537999" lon="-3.041906"><ele>555</ele><time>2023-08-09T09:50:19Z</time><name>PT586</name></trkpt>
<trkpt lat="54.537976" lon="-3.041891"><ele>555</ele><time>2023-08-09T09:50:23Z</time><name>PT587</name></trkpt>
<trkpt lat="54.537954" lon="-3.041871"><ele>555</ele><time>2023-08-09T09:50:26Z</time><name>PT588</name></trkpt>
<trkpt lat="54.537938" lon="-3.041852"><ele>555</ele><time>2023-08-09T09:50:30Z</time><name>PT589</name></trkpt>
<trkpt lat="54.537917" lon="-3.041845"><ele>555</ele><time>2023-08-09T09:50:33Z</time><name>PT590</name></trkpt>
<trkpt lat="54.537895" lon="-3.041839"><ele>556</ele><time>2023-08-09T09:50:37Z</time><name>PT591</name></trkpt>
<trkpt lat="54.537874" lon="-3.041838"><ele>557</ele><time>2023-08-09T09:50:40Z</time><name>PT592</name></trkpt>
<trkpt lat="54.537851" lon="-3.041819"><ele>557</ele><time>2023-08-09T09:50:44Z</time><name>PT593</name></trkpt>
<trkpt lat="54.537832" lon="-3.041806"><ele>558</ele><time>2023-08-09T09:50:48Z</time><name>PT594</name></trkpt>
<trkpt lat="54.537826" lon="-3.041793"><ele>559</ele><time>2023-08-09T09:50:51Z</time><name>PT595</name></trkpt>
<trkpt lat="54.537815" lon="-3.041793"><ele>560</ele><time>2023-08-09T09:50:54Z</time><name>PT596</name></trkpt>
<trkpt lat="54.537797" lon="-3.041782"><ele>560</ele><time>2023-08-09T09:50:57Z</time><name>PT597</name></trkpt>
<trkpt lat="54.537776" lon="-3.041764"><ele>562</ele><time>2023-08-09T09:51:01Z</time><name>PT598</name></trkpt>
<trkpt lat="54.537764" lon="-3.041740"><ele>563</ele><time>2023-08-09T09:51:04Z</time><name>PT599</name></trkpt>
<trkpt lat="54.537752" lon="-3.041713"><ele>564</ele><time>2023-08-09T09:51:08Z</time><name>PT600</name></trkpt>
<trkpt lat="54.537736" lon="-3.041695"><ele>566</ele><time>2023-08-09T09:51:12Z</time><name>PT601</name></trkpt>
<trkpt lat="54.537722" lon="-3.041677"><ele>567</ele><time>2023-08-09T09:51:16Z</time><name>PT602</name></trkpt>
<trkpt lat="54.537704" lon="-3.041662"><ele>568</ele><time>2023-08-09T09:51:20Z</time><name>PT603</name></trkpt>
<trkpt lat="54.537688" lon="-3.041659"><ele>567</ele><time>2023-08-09T09:51:23Z</time><name>PT604</name></trkpt>
<trkpt lat="54.537670" lon="-3.041653"><ele>567</ele><time>2023-08-09T09:51:27Z</time><name>PT605</name></trkpt>
<trkpt lat="54.537667" lon="-3.041650"><ele>567</ele><time>2023-08-09T09:51:30Z</time><name>PT606</name></trkpt>
<trkpt lat="54.537655" lon="-3.041648"><ele>567</ele><time>2023-08-09T09:51:33Z</time><name>PT607</name></trkpt>
<trkpt lat="54.537645" lon="-3.041627"><ele>568</ele><time>2023-08-09T09:51:36Z</time><name>PT608</name></trkpt>
<trkpt lat="54.537628" lon="-3.041603"><ele>567</ele><time>2023-08-09T09:51:40Z</time><name>PT609</name></trkpt>
<trkpt lat="54.537610" lon="-3.041595"><ele>567</ele><time>2023-08-09T09:51:44Z</time><name>PT610</name></trkpt>
<trkpt lat="54.537597" lon="-3.041582"><ele>568</ele><time>2023-08-09T09:51:47Z</time><name>PT611</name></trkpt>
<trkpt lat="54.537584" lon="-3.041565"><ele>568</ele><time>2023-08-09T09:51:51Z</time><name>PT612</name></trkpt>
<trkpt lat="54.537574" lon="-3.041547"><ele>569</ele><time>2023-08-09T09:51:54Z</time><name>PT613</name></trkpt>
<trkpt lat="54.537563" lon="-3.041527"><ele>570</ele><time>2023-08-09T09:51:58Z</time><name>PT614</name></trkpt>
<trkpt lat="54.537544" lon="-3.041512"><ele>570</ele><time>2023-08-09T09:52:02Z</time><name>PT615</name></trkpt>
<trkpt lat="54.537528" lon="-3.041488"><ele>571</ele><time>2023-08-09T09:52:06Z</time><name>PT616</name></trkpt>
<trkpt lat="54.537522" lon="-3.041481"><ele>571</ele><time>2023-08-09T09:52:09Z</time><name>PT617</name></trkpt>
<trkpt lat="54.537517" lon="-3.041465"><ele>572</ele><time>2023-08-09T09:52:12Z</time><name>PT618</name></trkpt>
<trkpt lat="54.537499" lon="-3.041442"><ele>573</ele><time>2023-08-09T09:52:16Z</time><name>PT619</name></trkpt>
<trkpt lat="54.537488" lon="-3.041429"><ele>575</ele><time>2023-08-09T09:52:20Z</time><name>PT620</name></trkpt>
<trkpt lat="54.537474" lon="-3.041401"><ele>576</ele><time>2023-08-09T09:52:24Z</time><name>PT621</name></trkpt>
<trkpt lat="54.537449" lon="-3.041388"><ele>576</ele><time>2023-08-09T09:52:28Z</time><name>PT622</name></trkpt>
<trkpt lat="54.537441" lon="-3.041364"><ele>577</ele><time>2023-08-09T09:52:31Z</time><name>PT623</name></trkpt>
<trkpt lat="54.537429" lon="-3.041327"><ele>578</ele><time>2023-08-09T09:52:35Z</time><name>PT624</name></trkpt>
<trkpt lat="54.537422" lon="-3.041297"><ele>578</ele><time>2023-08-09T09:52:38Z</time><name>PT625</name></trkpt>
<trkpt lat="54.537412" lon="-3.041273"><ele>578</ele><time>2023-08-09T09:52:42Z</time><name>PT626</name></trkpt>
<trkpt lat="54.537402" lon="-3.041252"><ele>579</ele><time>2023-08-09T09:52:45Z</time><name>PT627</name></trkpt>
<trkpt lat="54.537385" lon="-3.041237"><ele>580</ele><time>2023-08-09T09:52:49Z</time><name>PT628</name></trkpt>
<trkpt lat="54.537374" lon="-3.041214"><ele>581</ele><time>2023-08-09T09:52:53Z</time><name>PT629</name></trkpt>
<trkpt lat="54.537358" lon="-3.041189"><ele>580</ele><time>2023-08-09T09:52:57Z</time><name>PT630</name></trkpt>
<trkpt lat="54.537337" lon="-3.041188"><ele>584</ele><time>2023-08-09T09:53:01Z</time><name>PT631</name></trkpt>
<trkpt lat="54.537328" lon="-3.041184"><ele>584</ele><time>2023-08-09T09:53:04Z</time><name>PT632</name></trkpt>
<trkpt lat="54.537311" lon="-3.041179"><ele>584</ele><time>2023-08-09T09:53:08Z</time><name>PT633</name></trkpt>
<trkpt lat="54.537301" lon="-3.041178"><ele>584</ele><time>2023-08-09T09:53:11Z</time><name>PT634</name></trkpt>
<trkpt lat="54.537277" lon="-3.041166"><ele>584</ele><time>2023-08-09T09:53:15Z</time><name>PT635</name></trkpt>
<trkpt lat="54.537254" lon="-3.041140"><ele>585</ele><time>2023-08-09T09:53:19Z</time><name>PT636</name></trkpt>
<trkpt lat="54.537235" lon="-3.041120"><ele>586</ele><time>2023-08-09T09:53:23Z</time><name>PT637</name></trkpt>
<trkpt lat="54.537220" lon="-3.041103"><ele>587</ele><time>2023-08-09T09:53:26Z</time><name>PT638</name></trkpt>
<trkpt lat="54.537207" lon="-3.041089"><ele>588</ele><time>2023-08-09T09:53:29Z</time><name>PT639</name></trkpt>
<trkpt lat="54.537194" lon="-3.041063"><ele>588</ele><time>2023-08-09T09:53:32Z</time><name>PT640</name></trkpt>
<trkpt lat="54.537185" lon="-3.041045"><ele>589</ele><time>2023-08-09T09:53:35Z</time><name>PT641</name></trkpt>
<trkpt lat="54.537167" lon="-3.041027"><ele>590</ele><time>2023-08-09T09:53:39Z</time><name>PT642</name></trkpt>
<trkpt lat="54.537152" lon="-3.041012"><ele>590</ele><time>2023-08-09T09:53:42Z</time><name>PT643</name></trkpt>
<trkpt lat="54.537133" lon="-3.041004"><ele>590</ele><time>2023-08-09T09:53:46Z</time><name>PT644</name></trkpt>
<trkpt lat="54.537112" lon="-3.041004"><ele>590</ele><time>2023-08-09T09:53:49Z</time><name>PT645</name></trkpt>
<trkpt lat="54.537088" lon="-3.041010"><ele>592</ele><time>2023-08-09T09:53:53Z</time><name>PT646</name></trkpt>
<trkpt lat="54.537067" lon="-3.040997"><ele>592</ele><time>2023-08-09T09:53:57Z</time><name>PT647</name></trkpt>
<trkpt lat="54.537045" lon="-3.040987"><ele>593</ele><time>2023-08-09T09:54:01Z</time><name>PT648</name></trkpt>
<trkpt lat="54.537027" lon="-3.040988"><ele>595</ele><time>2023-08-09T09:54:05Z</time><name>PT649</name></trkpt>
<trkpt lat="54.537015" lon="-3.040974"><ele>596</ele><time>2023-08-09T09:54:08Z</time><name>PT650</name></trkpt>
<trkpt lat="54.537001" lon="-3.040964"><ele>596</ele><time>2023-08-09T09:54:12Z</time><name>PT651</name></trkpt>
<trkpt lat="54.536976" lon="-3.040953"><ele>597</ele><time>2023-08-09T09:54:16Z</time><name>PT652</name></trkpt>
<trkpt lat="54.536955" lon="-3.040933"><ele>597</ele><time>2023-08-09T09:54:20Z</time><name>PT653</name></trkpt>
<trkpt lat="54.536937" lon="-3.040912"><ele>599</ele><time>2023-08-09T09:54:24Z</time><name>PT654</name></trkpt>
<trkpt lat="54.536929" lon="-3.040883"><ele>599</ele><time>2023-08-09T09:54:27Z</time><name>PT655</name></trkpt>
<trkpt lat="54.536914" lon="-3.040855"><ele>599</ele><time>2023-08-09T09:54:31Z</time><name>PT656</name></trkpt>
<trkpt lat="54.536902" lon="-3.040842"><ele>598</ele><time>2023-08-09T09:54:35Z</time><name>PT657</name></trkpt>
<trkpt lat="54.536883" lon="-3.040815"><ele>599</ele><time>2023-08-09T09:54:39Z</time><name>PT658</name></trkpt>
<trkpt lat="54.536867" lon="-3.040801"><ele>599</ele><time>2023-08-09T09:54:42Z</time><name>PT659</name></trkpt>
<trkpt lat="54.536855" lon="-3.040778"><ele>598</ele><time>2023-08-09T09:54:45Z</time><name>PT660</name></trkpt>
<trkpt lat="54.536838" lon="-3.040746"><ele>598</ele><time>2023-08-09T09:54:49Z</time><name>PT661</name></trkpt>
<trkpt lat="54.536824" lon="-3.040728"><ele>599</ele><time>2023-08-09T09:54:52Z</time><name>PT662</name></trkpt>
<trkpt lat="54.536807" lon="-3.040709"><ele>600</ele><time>2023-08-09T09:54:56Z</time><name>PT663</name></trkpt>
<trkpt lat="54.536787" lon="-3.040709"><ele>602</ele><time>2023-08-09T09:54:59Z</time><name>PT664</name></trkpt>
<trkpt lat="54.536769" lon="-3.040706"><ele>603</ele><time>2023-08-09T09:55:02Z</time><name>PT665</name></trkpt>
<trkpt lat="54.536755" lon="-3.040695"><ele>602</ele><time>2023-08-09T09:55:05Z</time><name>PT666</name></trkpt>
<trkpt lat="54.536725" lon="-3.040681"><ele>602</ele><time>2023-08-09T09:55:09Z</time><name>PT667</name></trkpt>
<trkpt lat="54.536708" lon="-3.040665"><ele>603</ele><time>2023-08-09T09:55:13Z</time><name>PT668</name></trkpt>
<trkpt lat="54.536696" lon="-3.040650"><ele>604</ele><time>2023-08-09T09:55:16Z</time><name>PT669</name></trkpt>
<trkpt lat="54.536681" lon="-3.040618"><ele>605</ele><time>2023-08-09T09:55:20Z</time><name>PT670</name></trkpt>
<trkpt lat="54.536671" lon="-3.040595"><ele>606</ele><time>2023-08-09T09:55:23Z</time><name>PT671</name></trkpt>
<trkpt lat="54.536654" lon="-3.040572"><ele>607</ele><time>2023-08-09T09:55:27Z</time><name>PT672</name></trkpt>
<trkpt lat="54.536639" lon="-3.040558"><ele>608</ele><time>2023-08-09T09:55:30Z</time><name>PT673</name></trkpt>
<trkpt lat="54.536620" lon="-3.040534"><ele>607</ele><time>2023-08-09T09:55:34Z</time><name>PT674</name></trkpt>
<trkpt lat="54.536596" lon="-3.040522"><ele>608</ele><time>2023-08-09T09:55:38Z</time><name>PT675</name></trkpt>
<trkpt lat="54.536574" lon="-3.040507"><ele>608</ele><time>2023-08-09T09:55:42Z</time><name>PT676</name></trkpt>
<trkpt lat="54.536554" lon="-3.040494"><ele>609</ele><time>2023-08-09T09:55:46Z</time><name>PT677</name></trkpt>
<trkpt lat="54.536535" lon="-3.040490"><ele>611</ele><time>2023-08-09T09:55:50Z</time><name>PT678</name></trkpt>
<trkpt lat="54.536521" lon="-3.040470"><ele>611</ele><time>2023-08-09T09:55:53Z</time><name>PT679</name></trkpt>
<trkpt lat="54.536500" lon="-3.040463"><ele>613</ele><time>2023-08-09T09:55:57Z</time><name>PT680</name></trkpt>
<trkpt lat="54.536482" lon="-3.040455"><ele>614</ele><time>2023-08-09T09:56:00Z</time><name>PT681</name></trkpt>
<trkpt lat="54.536461" lon="-3.040442"><ele>614</ele><time>2023-08-09T09:56:04Z</time><name>PT682</name></trkpt>
<trkpt lat="54.536447" lon="-3.040434"><ele>615</ele><time>2023-08-09T09:56:07Z</time><name>PT683</name></trkpt>
<trkpt lat="54.536424" lon="-3.040445"><ele>615</ele><time>2023-08-09T09:56:11Z</time><name>PT684</name></trkpt>
<trkpt lat="54.536407" lon="-3.040449"><ele>616</ele><time>2023-08-09T09:56:14Z</time><name>PT685</name></trkpt>
<trkpt lat="54.536391" lon="-3.040444"><ele>616</ele><time>2023-08-09T09:56:17Z</time><name>PT686</name></trkpt>
<trkpt lat="54.536377" lon="-3.040421"><ele>617</ele><time>2023-08-09T09:56:21Z</time><name>PT687</name></trkpt>
<trkpt lat="54.536370" lon="-3.040401"><ele>617</ele><time>2023-08-09T09:56:24Z</time><name>PT688</name></trkpt>
<trkpt lat="54.536359" lon="-3.040373"><ele>618</ele><time>2023-08-09T09:56:27Z</time><name>PT689</name></trkpt>
<trkpt lat="54.536348" lon="-3.040351"><ele>619</ele><time>2023-08-09T09:56:31Z</time><name>PT690</name></trkpt>
<trkpt lat="54.536355" lon="-3.040351"><ele>619</ele><time>2023-08-09T09:56:35Z</time><name>PT691</name></trkpt>
<trkpt lat="54.536329" lon="-3.040321"><ele>619</ele><time>2023-08-09T09:56:39Z</time><name>PT692</name></trkpt>
<trkpt lat="54.536311" lon="-3.040311"><ele>620</ele><time>2023-08-09T09:56:42Z</time><name>PT693</name></trkpt>
<trkpt lat="54.536291" lon="-3.040287"><ele>620</ele><time>2023-08-09T09:56:46Z</time><name>PT694</name></trkpt>
<trkpt lat="54.536277" lon="-3.040248"><ele>620</ele><time>2023-08-09T09:56:50Z</time><name>PT695</name></trkpt>
<trkpt lat="54.536261" lon="-3.040217"><ele>622</ele><time>2023-08-09T09:56:54Z</time><name>PT696</name></trkpt>
<trkpt lat="54.536254" lon="-3.040185"><ele>623</ele><time>2023-08-09T09:56:58Z</time><name>PT697</name></trkpt>
<trkpt lat="54.536243" lon="-3.040160"><ele>623</ele><time>2023-08-09T09:57:02Z</time><name>PT698</name></trkpt>
<trkpt lat="54.536236" lon="-3.040132"><ele>624</ele><time>2023-08-09T09:57:06Z</time><name>PT699</name></trkpt>
<trkpt lat="54.536226" lon="-3.040106"><ele>626</ele><time>2023-08-09T09:57:10Z</time><name>PT700</name></trkpt>
<trkpt lat="54.536209" lon="-3.040093"><ele>628</ele><time>2023-08-09T09:57:14Z</time><name>PT701</name></trkpt>
<trkpt lat="54.536203" lon="-3.040077"><ele>628</ele><time>2023-08-09T09:57:17Z</time><name>PT702</name></trkpt>
<trkpt lat="54.536189" lon="-3.040062"><ele>628</ele><time>2023-08-09T09:57:21Z</time><name>PT703</name></trkpt>
<trkpt lat="54.536175" lon="-3.040066"><ele>628</ele><time>2023-08-09T09:57:24Z</time><name>PT704</name></trkpt>
<trkpt lat="54.536161" lon="-3.040073"><ele>628</ele><time>2023-08-09T09:57:27Z</time><name>PT705</name></trkpt>
<trkpt lat="54.536141" lon="-3.040074"><ele>629</ele><time>2023-08-09T09:57:31Z</time><name>PT706</name></trkpt>
<trkpt lat="54.536124" lon="-3.040036"><ele>631</ele><time>2023-08-09T09:57:35Z</time><name>PT707</name></trkpt>
<trkpt lat="54.536120" lon="-3.040010"><ele>631</ele><time>2023-08-09T09:57:39Z</time><name>PT708</name></trkpt>
<trkpt lat="54.536116" lon="-3.039999"><ele>632</ele><time>2023-08-09T09:57:42Z</time><name>PT709</name></trkpt>
<trkpt lat="54.536106" lon="-3.039979"><ele>632</ele><time>2023-08-09T09:57:45Z</time><name>PT710</name></trkpt>
<trkpt lat="54.536102" lon="-3.039953"><ele>633</ele><time>2023-08-09T09:57:48Z</time><name>PT711</name></trkpt>
<trkpt lat="54.536096" lon="-3.039940"><ele>633</ele><time>2023-08-09T09:57:52Z</time><name>PT712</name></trkpt>
<trkpt lat="54.536067" lon="-3.039919"><ele>632</ele><time>2023-08-09T09:57:56Z</time><name>PT713</name></trkpt>
<trkpt lat="54.536054" lon="-3.039918"><ele>634</ele><time>2023-08-09T09:57:59Z</time><name>PT714</name></trkpt>
<trkpt lat="54.536038" lon="-3.039920"><ele>634</ele><time>2023-08-09T09:58:03Z</time><name>PT715</name></trkpt>
<trkpt lat="54.536027" lon="-3.039912"><ele>635</ele><time>2023-08-09T09:58:07Z</time><name>PT716</name></trkpt>
<trkpt lat="54.536005" lon="-3.039897"><ele>636</ele><time>2023-08-09T09:58:11Z</time><name>PT717</name></trkpt>
<trkpt lat="54.535993" lon="-3.039885"><ele>636</ele><time>2023-08-09T09:58:14Z</time><name>PT718</name></trkpt>
<trkpt lat="54.535986" lon="-3.039869"><ele>637</ele><time>2023-08-09T09:58:17Z</time><name>PT719</name></trkpt>
<trkpt lat="54.535969" lon="-3.039849"><ele>638</ele><time>2023-08-09T09:58:20Z</time><name>PT720</name></trkpt>
<trkpt lat="54.535960" lon="-3.039834"><ele>638</ele><time>2023-08-09T09:58:23Z</time><name>PT721</name></trkpt>
<trkpt lat="54.535943" lon="-3.039811"><ele>639</ele><time>2023-08-09T09:58:27Z</time><name>PT722</name></trkpt>
<trkpt lat="54.535923" lon="-3.039792"><ele>640</ele><time>2023-08-09T09:58:31Z</time><name>PT723</name></trkpt>
<trkpt lat="54.535911" lon="-3.039785"><ele>641</ele><time>2023-08-09T09:58:34Z</time><name>PT724</name></trkpt>
<trkpt lat="54.535910" lon="-3.039784"><ele>641</ele><time>2023-08-09T09:58:38Z</time><name>PT725</name></trkpt>
<trkpt lat="54.535907" lon="-3.039757"><ele>642</ele><time>2023-08-09T09:58:41Z</time><name>PT726</name></trkpt>
<trkpt lat="54.535898" lon="-3.039734"><ele>643</ele><time>2023-08-09T09:58:44Z</time><name>PT727</name></trkpt>
<trkpt lat="54.535885" lon="-3.039715"><ele>644</ele><time>2023-08-09T09:58:48Z</time><name>PT728</name></trkpt>
<trkpt lat="54.535872" lon="-3.039708"><ele>643</ele><time>2023-08-09T09:58:51Z</time><name>PT729</name></trkpt>
<trkpt lat="54.535855" lon="-3.039705"><ele>644</ele><time>2023-08-09T09:58:54Z</time><name>PT730</name></trkpt>
<trkpt lat="54.535838" lon="-3.039692"><ele>644</ele><time>2023-08-09T09:58:57Z</time><name>PT731</name></trkpt>
<trkpt lat="54.535828" lon="-3.039691"><ele>644</ele><time>2023-08-09T09:59:00Z</time><name>PT732</name></trkpt>
<trkpt lat="54.535804" lon="-3.039708"><ele>645</ele><time>2023-08-09T09:59:04Z</time><name>PT733</name></trkpt>
<trkpt lat="54.535792" lon="-3.039727"><ele>646</ele><time>2023-08-09T09:59:07Z</time><name>PT734</name></trkpt>
<trkpt lat="54.535768" lon="-3.039763"><ele>647</ele><time>2023-08-09T09:59:11Z</time><name>PT735</name></trkpt>
<trkpt lat="54.535747" lon="-3.039773"><ele>648</ele><time>2023-08-09T09:59:15Z</time><name>PT736</name></trkpt>
<trkpt lat="54.535729" lon="-3.039762"><ele>649</ele><time>2023-08-09T09:59:18Z</time><name>PT737</name></trkpt>
<trkpt lat="54.535707" lon="-3.039739"><ele>651</ele><time>2023-08-09T09:59:21Z</time><name>PT738</name></trkpt>
<trkpt lat="54.535697" lon="-3.039717"><ele>651</ele><time>2023-08-09T09:59:25Z</time><name>PT739</name></trkpt>
<trkpt lat="54.535689" lon="-3.039704"><ele>652</ele><time>2023-08-09T09:59:28Z</time><name>PT740</name></trkpt>
<trkpt lat="54.535678" lon="-3.039682"><ele>652</ele><time>2023-08-09T09:59:32Z</time><name>PT741</name></trkpt>
<trkpt lat="54.535675" lon="-3.039640"><ele>650</ele><time>2023-08-09T09:59:36Z</time><name>PT742</name></trkpt>
<trkpt lat="54.535674" lon="-3.039606"><ele>650</ele><time>2023-08-09T09:59:39Z</time><name>PT743</name></trkpt>
<trkpt lat="54.535667" lon="-3.039570"><ele>649</ele><time>2023-08-09T09:59:43Z</time><name>PT744</name></trkpt>
<trkpt lat="54.535658" lon="-3.039555"><ele>650</ele><time>2023-08-09T09:59:46Z</time><name>PT745</name></trkpt>
<trkpt lat="54.535641" lon="-3.039539"><ele>651</ele><time>2023-08-09T09:59:50Z</time><name>PT746</name></trkpt>
<trkpt lat="54.535621" lon="-3.039530"><ele>651</ele><time>2023-08-09T09:59:54Z</time><name>PT747</name></trkpt>
<trkpt lat="54.535606" lon="-3.039528"><ele>652</ele><time>2023-08-09T09:59:57Z</time><name>PT748</name></trkpt>
<trkpt lat="54.535587" lon="-3.039525"><ele>653</ele><time>2023-08-09T10:00:00Z</time><name>PT749</name></trkpt>
<trkpt lat="54.535563" lon="-3.039507"><ele>653</ele><time>2023-08-09T10:00:04Z</time><name>PT750</name></trkpt>
<trkpt lat="54.535545" lon="-3.039475"><ele>655</ele><time>2023-08-09T10:00:08Z</time><name>PT751</name></trkpt>
<trkpt lat="54.535538" lon="-3.039460"><ele>655</ele><time>2023-08-09T10:00:11Z</time><name>PT752</name></trkpt>
<trkpt lat="54.535530" lon="-3.039429"><ele>655</ele><time>2023-08-09T10:00:15Z</time><name>PT753</name></trkpt>
<trkpt lat="54.535520" lon="-3.039421"><ele>656</ele><time>2023-08-09T10:00:19Z</time><name>PT754</name></trkpt>
<trkpt lat="54.535508" lon="-3.039414"><ele>656</ele><time>2023-08-09T10:00:22Z</time><name>PT755</name></trkpt>
<trkpt lat="54.535496" lon="-3.039407"><ele>658</ele><time>2023-08-09T10:00:25Z</time><name>PT756</name></trkpt>
<trkpt lat="54.535477" lon="-3.039405"><ele>660</ele><time>2023-08-09T10:00:29Z</time><name>PT757</name></trkpt>
<trkpt lat="54.535458" lon="-3.039396"><ele>660</ele><time>2023-08-09T10:00:33Z</time><name>PT758</name></trkpt>
<trkpt lat="54.535446" lon="-3.039391"><ele>660</ele><time>2023-08-09T10:00:36Z</time><name>PT759</name></trkpt>
<trkpt lat="54.535431" lon="-3.039368"><ele>661</ele><time>2023-08-09T10:00:40Z</time><name>PT760</name></trkpt>
<trkpt lat="54.535426" lon="-3.039348"><ele>662</ele><time>2023-08-09T10:00:43Z</time><name>PT761</name></trkpt>
<trkpt lat="54.535420" lon="-3.039334"><ele>663</ele><time>2023-08-09T10:00:47Z</time><name>PT762</name></trkpt>
<trkpt lat="54.535414" lon="-3.039319"><ele>662</ele><time>2023-08-09T10:00:50Z</time><name>PT763</name></trkpt>
<trkpt lat="54.535404" lon="-3.039302"><ele>663</ele><time>2023-08-09T10:00:54Z</time><name>PT764</name></trkpt>
<trkpt lat="54.535389" lon="-3.039290"><ele>664</ele><time>2023-08-09T10:00:58Z</time><name>PT765</name></trkpt>
<trkpt lat="54.535379" lon="-3.039291"><ele>665</ele><time>2023-08-09T10:01:02Z</time><name>PT766</name></trkpt>
<trkpt lat="54.535352" lon="-3.039274"><ele>666</ele><time>2023-08-09T10:01:06Z</time><name>PT767</name></trkpt>
<trkpt lat="54.535334" lon="-3.039260"><ele>668</ele><time>2023-08-09T10:01:09Z</time><name>PT768</name></trkpt>
<trkpt lat="54.535308" lon="-3.039257"><ele>670</ele><time>2023-08-09T10:01:13Z</time><name>PT769</name></trkpt>
<trkpt lat="54.535293" lon="-3.039254"><ele>670</ele><time>2023-08-09T10:01:16Z</time><name>PT770</name></trkpt>
<trkpt lat="54.535277" lon="-3.039232"><ele>671</ele><time>2023-08-09T10:01:19Z</time><name>PT771</name></trkpt>
<trkpt lat="54.535268" lon="-3.039185"><ele>670</ele><time>2023-08-09T10:01:23Z</time><name>PT772</name></trkpt>
<trkpt lat="54.535260" lon="-3.039167"><ele>670</ele><time>2023-08-09T10:01:26Z</time><name>PT773</name></trkpt>
<trkpt lat="54.535246" lon="-3.039143"><ele>671</ele><time>2023-08-09T10:01:30Z</time><name>PT774</name></trkpt>
<trkpt lat="54.535234" lon="-3.039129"><ele>672</ele><time>2023-08-09T10:01:33Z</time><name>PT775</name></trkpt>
<trkpt lat="54.535216" lon="-3.039112"><ele>672</ele><time>2023-08-09T10:01:37Z</time><name>PT776</name></trkpt>
<trkpt lat="54.535206" lon="-3.039101"><ele>673</ele><time>2023-08-09T10:01:40Z</time><name>PT777</name></trkpt>
<trkpt lat="54.535185" lon="-3.039094"><ele>674</ele><time>2023-08-09T10:01:44Z</time><name>PT778</name></trkpt>
<trkpt lat="54.535175" lon="-3.039088"><ele>674</ele><time>2023-08-09T10:01:47Z</time><name>PT779</name></trkpt>
<trkpt lat="54.535163" lon="-3.039075"><ele>675</ele><time>2023-08-09T10:01:50Z</time><name>PT780</name></trkpt>
<trkpt lat="54.535149" lon="-3.039065"><ele>676</ele><time>2023-08-09T10:01:54Z</time><name>PT781</name></trkpt>
<trkpt lat="54.535138" lon="-3.039050"><ele>676</ele><time>2023-08-09T10:01:58Z</time><name>PT782</name></trkpt>
<trkpt lat="54.535118" lon="-3.039058"><ele>677</ele><time>2023-08-09T10:02:02Z</time><name>PT783</name></trkpt>
<trkpt lat="54.535103" lon="-3.039056"><ele>677</ele><time>2023-08-09T10:02:05Z</time><name>PT784</name></trkpt>
<trkpt lat="54.535083" lon="-3.039050"><ele>678</ele><time>2023-08-09T10:02:09Z</time><name>PT785</name></trkpt>
<trkpt lat="54.535064" lon="-3.039046"><ele>679</ele><time>2023-08-09T10:02:13Z</time><name>PT786</name></trkpt>
<trkpt lat="54.535047" lon="-3.039032"><ele>679</ele><time>2023-08-09T10:02:20Z</time><name>PT787</name></trkpt>
<trkpt lat="54.535034" lon="-3.039044"><ele>680</ele><time>2023-08-09T10:02:24Z</time><name>PT788</name></trkpt>
<trkpt lat="54.535023" lon="-3.039047"><ele>680</ele><time>2023-08-09T10:02:27Z</time><name>PT789</name></trkpt>
<trkpt lat="54.535013" lon="-3.039076"><ele>680</ele><time>2023-08-09T10:02:30Z</time><name>PT790</name></trkpt>
<trkpt lat="54.535004" lon="-3.039086"><ele>680</ele><time>2023-08-09T10:02:33Z</time><name>PT791</name></trkpt>
<trkpt lat="54.534987" lon="-3.039093"><ele>681</ele><time>2023-08-09T10:02:37Z</time><name>PT792</name></trkpt>
<trkpt lat="54.534974" lon="-3.039091"><ele>681</ele><time>2023-08-09T10:02:41Z</time><name>PT793</name></trkpt>
<trkpt lat="54.534962" lon="-3.039092"><ele>682</ele><time>2023-08-09T10:02:44Z</time><name>PT794</name></trkpt>
<trkpt lat="54.534946" lon="-3.039076"><ele>683</ele><time>2023-08-09T10:02:48Z</time><name>PT795</name></trkpt>
<trkpt lat="54.534925" lon="-3.039056"><ele>683</ele><time>2023-08-09T10:02:52Z</time><name>PT796</name></trkpt>
<trkpt lat="54.534898" lon="-3.039050"><ele>684</ele><time>2023-08-09T10:02:56Z</time><name>PT797</name></trkpt>
<trkpt lat="54.534883" lon="-3.039031"><ele>685</ele><time>2023-08-09T10:03:00Z</time><name>PT798</name></trkpt>
<trkpt lat="54.534867" lon="-3.039031"><ele>685</ele><time>2023-08-09T10:03:03Z</time><name>PT799</name></trkpt>
<trkpt lat="54.534844" lon="-3.039025"><ele>686</ele><time>2023-08-09T10:03:07Z</time><name>PT800</name></trkpt>
<trkpt lat="54.534823" lon="-3.039031"><ele>688</ele><time>2023-08-09T10:03:11Z</time><name>PT801</name></trkpt>
<trkpt lat="54.534805" lon="-3.039031"><ele>688</ele><time>2023-08-09T10:03:15Z</time><name>PT802</name></trkpt>
<trkpt lat="54.534794" lon="-3.039023"><ele>688</ele><time>2023-08-09T10:03:18Z</time><name>PT803</name></trkpt>
<trkpt lat="54.534780" lon="-3.039023"><ele>689</ele><time>2023-08-09T10:03:21Z</time><name>PT804</name></trkpt>
<trkpt lat="54.534761" lon="-3.039005"><ele>689</ele><time>2023-08-09T10:03:25Z</time><name>PT805</name></trkpt>
<trkpt lat="54.534746" lon="-3.038998"><ele>690</ele><time>2023-08-09T10:03:29Z</time><name>PT806</name></trkpt>
<trkpt lat="54.534731" lon="-3.038991"><ele>691</ele><time>2023-08-09T10:03:32Z</time><name>PT807</name></trkpt>
<trkpt lat="54.534714" lon="-3.038984"><ele>692</ele><time>2023-08-09T10:03:35Z</time><name>PT808</name></trkpt>
<trkpt lat="54.534697" lon="-3.038985"><ele>693</ele><time>2023-08-09T10:03:39Z</time><name>PT809</name></trkpt>
<trkpt lat="54.534689" lon="-3.038993"><ele>693</ele><time>2023-08-09T10:03:42Z</time><name>PT810</name></trkpt>
<trkpt lat="54.534682" lon="-3.038997"><ele>693</ele><time>2023-08-09T10:03:45Z</time><name>PT811</name></trkpt>
<trkpt lat="54.534665" lon="-3.039005"><ele>694</ele><time>2023-08-09T10:03:49Z</time><name>PT812</name></trkpt>
<trkpt lat="54.534658" lon="-3.039014"><ele>695</ele><time>2023-08-09T10:03:53Z</time><name>PT813</name></trkpt>
<trkpt lat="54.534630" lon="-3.039026"><ele>696</ele><time>2023-08-09T10:03:57Z</time><name>PT814</name></trkpt>
<trkpt lat="54.534607" lon="-3.039042"><ele>696</ele><time>2023-08-09T10:04:01Z</time><name>PT815</name></trkpt>
<trkpt lat="54.534594" lon="-3.039042"><ele>697</ele><time>2023-08-09T10:04:04Z</time><name>PT816</name></trkpt>
<trkpt lat="54.534577" lon="-3.039035"><ele>698</ele><time>2023-08-09T10:04:08Z</time><name>PT817</name></trkpt>
<trkpt lat="54.534564" lon="-3.039033"><ele>698</ele><time>2023-08-09T10:04:11Z</time><name>PT818</name></trkpt>
<trkpt lat="54.534547" lon="-3.039034"><ele>698</ele><time>2023-08-09T10:04:15Z</time><name>PT819</name></trkpt>
<trkpt lat="54.534533" lon="-3.039045"><ele>699</ele><time>2023-08-09T10:04:18Z</time><name>PT820</name></trkpt>
<trkpt lat="54.534514" lon="-3.039054"><ele>699</ele><time>2023-08-09T10:04:22Z</time><name>PT821</name></trkpt>
<trkpt lat="54.534495" lon="-3.039064"><ele>700</ele><time>2023-08-09T10:04:25Z</time><name>PT822</name></trkpt>
<trkpt lat="54.534469" lon="-3.039071"><ele>700</ele><time>2023-08-09T10:04:29Z</time><name>PT823</name></trkpt>
<trkpt lat="54.534457" lon="-3.039069"><ele>700</ele><time>2023-08-09T10:04:32Z</time><name>PT824</name></trkpt>
<trkpt lat="54.534441" lon="-3.039074"><ele>701</ele><time>2023-08-09T10:04:35Z</time><name>PT825</name></trkpt>
<trkpt lat="54.534427" lon="-3.039085"><ele>702</ele><time>2023-08-09T10:04:39Z</time><name>PT826</name></trkpt>
<trkpt lat="54.534411" lon="-3.039087"><ele>703</ele><time>2023-08-09T10:04:42Z</time><name>PT827</name></trkpt>
<trkpt lat="54.534399" lon="-3.039100"><ele>703</ele><time>2023-08-09T10:04:45Z</time><name>PT828</name></trkpt>
<trkpt lat="54.534389" lon="-3.039098"><ele>703</ele><time>2023-08-09T10:04:48Z</time><name>PT829</name></trkpt>
<trkpt lat="54.534368" lon="-3.039082"><ele>705</ele><time>2023-08-09T10:04:52Z</time><name>PT830</name></trkpt>
<trkpt lat="54.534365" lon="-3.039061"><ele>705</ele><time>2023-08-09T10:04:55Z</time><name>PT831</name></trkpt>
<trkpt lat="54.534371" lon="-3.039028"><ele>705</ele><time>2023-08-09T10:04:59Z</time><name>PT832</name></trkpt>
<trkpt lat="54.534371" lon="-3.039000"><ele>706</ele><time>2023-08-09T10:05:02Z</time><name>PT833</name></trkpt>
<trkpt lat="54.534371" lon="-3.038968"><ele>708</ele><time>2023-08-09T10:05:06Z</time><name>PT834</name></trkpt>
<trkpt lat="54.534365" lon="-3.038943"><ele>708</ele><time>2023-08-09T10:05:09Z</time><name>PT835</name></trkpt>
<trkpt lat="54.534357" lon="-3.038927"><ele>709</ele><time>2023-08-09T10:05:12Z</time><name>PT836</name></trkpt>
<trkpt lat="54.534343" lon="-3.038905"><ele>709</ele><time>2023-08-09T10:05:16Z</time><name>PT837</name></trkpt>
<trkpt lat="54.534333" lon="-3.038895"><ele>710</ele><time>2023-08-09T10:05:19Z</time><name>PT838</name></trkpt>
<trkpt lat="54.534324" lon="-3.038893"><ele>710</ele><time>2023-08-09T10:05:23Z</time><name>PT839</name></trkpt>
<trkpt lat="54.534315" lon="-3.038893"><ele>710</ele><time>2023-08-09T10:05:26Z</time><name>PT840</name></trkpt>
<trkpt lat="54.534293" lon="-3.038879"><ele>711</ele><time>2023-08-09T10:05:30Z</time><name>PT841</name></trkpt>
<trkpt lat="54.534284" lon="-3.038867"><ele>710</ele><time>2023-08-09T10:05:34Z</time><name>PT842</name></trkpt>
<trkpt lat="54.534266" lon="-3.038856"><ele>710</ele><time>2023-08-09T10:05:38Z</time><name>PT843</name></trkpt>
<trkpt lat="54.534252" lon="-3.038848"><ele>710</ele><time>2023-08-09T10:05:41Z</time><name>PT844</name></trkpt>
<trkpt lat="54.534236" lon="-3.038840"><ele>712</ele><time>2023-08-09T10:05:45Z</time><name>PT845</name></trkpt>
<trkpt lat="54.534220" lon="-3.038834"><ele>712</ele><time>2023-08-09T10:05:48Z</time><name>PT846</name></trkpt>
<trkpt lat="54.534205" lon="-3.038838"><ele>714</ele><time>2023-08-09T10:05:51Z</time><name>PT847</name></trkpt>
<trkpt lat="54.534189" lon="-3.038830"><ele>715</ele><time>2023-08-09T10:05:55Z</time><name>PT848</name></trkpt>
<trkpt lat="54.534173" lon="-3.038825"><ele>716</ele><time>2023-08-09T10:05:59Z</time><name>PT849</name></trkpt>
<trkpt lat="54.534155" lon="-3.038804"><ele>718</ele><time>2023-08-09T10:06:03Z</time><name>PT850</name></trkpt>
<trkpt lat="54.534151" lon="-3.038790"><ele>719</ele><time>2023-08-09T10:06:06Z</time><name>PT851</name></trkpt>
<trkpt lat="54.534150" lon="-3.038788"><ele>719</ele><time>2023-08-09T10:06:09Z</time><name>PT852</name></trkpt>
<trkpt lat="54.534139" lon="-3.038767"><ele>720</ele><time>2023-08-09T10:06:13Z</time><name>PT853</name></trkpt>
<trkpt lat="54.534127" lon="-3.038753"><ele>720</ele><time>2023-08-09T10:06:16Z</time><name>PT854</name></trkpt>
<trkpt lat="54.534123" lon="-3.038744"><ele>720</ele><time>2023-08-09T10:06:20Z</time><name>PT855</name></trkpt>
<trkpt lat="54.534104" lon="-3.038720"><ele>721</ele><time>2023-08-09T10:06:24Z</time><name>PT856</name></trkpt>
<trkpt lat="54.534090" lon="-3.038712"><ele>722</ele><time>2023-08-09T10:06:27Z</time><name>PT857</name></trkpt>
<trkpt lat="54.534078" lon="-3.038706"><ele>722</ele><time>2023-08-09T10:06:30Z</time><name>PT858</name></trkpt>
<trkpt lat="54.534053" lon="-3.038708"><ele>723</ele><time>2023-08-09T10:06:34Z</time><name>PT859</name></trkpt>
<trkpt lat="54.534033" lon="-3.038712"><ele>724</ele><time>2023-08-09T10:06:38Z</time><name>PT860</name></trkpt>
<trkpt lat="54.534012" lon="-3.038702"><ele>725</ele><time>2023-08-09T10:06:42Z</time><name>PT861</name></trkpt>
<trkpt lat="54.533995" lon="-3.038689"><ele>726</ele><time>2023-08-09T10:06:46Z</time><name>PT862</name></trkpt>
<trkpt lat="54.533980" lon="-3.038679"><ele>726</ele><time>2023-08-09T10:06:50Z</time><name>PT863</name></trkpt>
<trkpt lat="54.533963" lon="-3.038676"><ele>727</ele><time>2023-08-09T10:06:54Z</time><name>PT864</name></trkpt>
<trkpt lat="54.533950" lon="-3.038663"><ele>728</ele><time>2023-08-09T10:06:58Z</time><name>PT865</name></trkpt>
<trkpt lat="54.533934" lon="-3.038655"><ele>728</ele><time>2023-08-09T10:07:02Z</time><name>PT866</name></trkpt>
<trkpt lat="54.533921" lon="-3.038651"><ele>729</ele><time>2023-08-09T10:07:05Z</time><name>PT867</name></trkpt>
<trkpt lat="54.533907" lon="-3.038652"><ele>730</ele><time>2023-08-09T10:07:09Z</time><name>PT868</name></trkpt>
<trkpt lat="54.533904" lon="-3.038649"><ele>730</ele><time>2023-08-09T10:07:12Z</time><name>PT869</name></trkpt>
<trkpt lat="54.533906" lon="-3.038649"><ele>730</ele><time>2023-08-09T10:07:16Z</time><name>PT870</name></trkpt>
<trkpt lat="54.533894" lon="-3.038638"><ele>730</ele><time>2023-08-09T10:07:20Z</time><name>PT871</name></trkpt>
<trkpt lat="54.533877" lon="-3.038645"><ele>730</ele><time>2023-08-09T10:07:24Z</time><name>PT872</name></trkpt>
<trkpt lat="54.533858" lon="-3.038641"><ele>730</ele><time>2023-08-09T10:07:28Z</time><name>PT873</name></trkpt>
<trkpt lat="54.533835" lon="-3.038630"><ele>732</ele><time>2023-08-09T10:07:32Z</time><name>PT874</name></trkpt>
<trkpt lat="54.533833" lon="-3.038630"><ele>732</ele><time>2023-08-09T10:07:36Z</time><name>PT875</name></trkpt>
<trkpt lat="54.533824" lon="-3.038631"><ele>732</ele><time>2023-08-09T10:07:43Z</time><name>PT876</name></trkpt>
<trkpt lat="54.533816" lon="-3.038625"><ele>732</ele><time>2023-08-09T10:07:46Z</time><name>PT877</name></trkpt>
<trkpt lat="54.533796" lon="-3.038606"><ele>733</ele><time>2023-08-09T10:07:50Z</time><name>PT878</name></trkpt>
<trkpt lat="54.533784" lon="-3.038590"><ele>734</ele><time>2023-08-09T10:07:53Z</time><name>PT879</name></trkpt>
<trkpt lat="54.533782" lon="-3.038563"><ele>735</ele><time>2023-08-09T10:07:57Z</time><name>PT880</name></trkpt>
<trkpt lat="54.533777" lon="-3.038558"><ele>735</ele><time>2023-08-09T10:08:01Z</time><name>PT881</name></trkpt>
<trkpt lat="54.533762" lon="-3.038556"><ele>737</ele><time>2023-08-09T10:08:05Z</time><name>PT882</name></trkpt>
<trkpt lat="54.533755" lon="-3.038553"><ele>740</ele><time>2023-08-09T10:08:09Z</time><name>PT883</name></trkpt>
<trkpt lat="54.533748" lon="-3.038532"><ele>741</ele><time>2023-08-09T10:08:12Z</time><name>PT884</name></trkpt>
<trkpt lat="54.533753" lon="-3.038516"><ele>742</ele><time>2023-08-09T10:08:16Z</time><name>PT885</name></trkpt>
<trkpt lat="54.533755" lon="-3.038512"><ele>742</ele><time>2023-08-09T10:08:19Z</time><name>PT886</name></trkpt>
<trkpt lat="54.533742" lon="-3.038483"><ele>744</ele><time>2023-08-09T10:08:22Z</time><name>PT887</name></trkpt>
<trkpt lat="54.533733" lon="-3.038468"><ele>745</ele><time>2023-08-09T10:08:25Z</time><name>PT888</name></trkpt>
<trkpt lat="54.533730" lon="-3.038448"><ele>745</ele><time>2023-08-09T10:08:29Z</time><name>PT889</name></trkpt>
<trkpt lat="54.533722" lon="-3.038429"><ele>745</ele><time>2023-08-09T10:08:32Z</time><name>PT890</name></trkpt>
<trkpt lat="54.533719" lon="-3.038425"><ele>746</ele><time>2023-08-09T10:08:35Z</time><name>PT891</name></trkpt>
<trkpt lat="54.533717" lon="-3.038394"><ele>748</ele><time>2023-08-09T10:08:43Z</time><name>PT892</name></trkpt>
<trkpt lat="54.533696" lon="-3.038366"><ele>748</ele><time>2023-08-09T10:08:46Z</time><name>PT893</name></trkpt>
<trkpt lat="54.533697" lon="-3.038338"><ele>748</ele><time>2023-08-09T10:08:50Z</time><name>PT894</name></trkpt>
<trkpt lat="54.533690" lon="-3.038327"><ele>749</ele><time>2023-08-09T10:08:53Z</time><name>PT895</name></trkpt>
<trkpt lat="54.533687" lon="-3.038304"><ele>749</ele><time>2023-08-09T10:08:56Z</time><name>PT896</name></trkpt>
<trkpt lat="54.533686" lon="-3.038304"><ele>749</ele><time>2023-08-09T10:08:59Z</time><name>PT897</name></trkpt>
<trkpt lat="54.533668" lon="-3.038300"><ele>752</ele><time>2023-08-09T10:09:03Z</time><name>PT898</name></trkpt>
<trkpt lat="54.533659" lon="-3.038297"><ele>753</ele><time>2023-08-09T10:09:06Z</time><name>PT899</name></trkpt>
<trkpt lat="54.533649" lon="-3.038289"><ele>754</ele><time>2023-08-09T10:09:10Z</time><name>PT900</name></trkpt>
<trkpt lat="54.533636" lon="-3.038279"><ele>754</ele><time>2023-08-09T10:09:14Z</time><name>PT901</name></trkpt>
<trkpt lat="54.533623" lon="-3.038273"><ele>755</ele><time>2023-08-09T10:09:18Z</time><name>PT902</name></trkpt>
<trkpt lat="54.533613" lon="-3.038256"><ele>755</ele><time>2023-08-09T10:09:21Z</time><name>PT903</name></trkpt>
<trkpt lat="54.533597" lon="-3.038248"><ele>755</ele><time>2023-08-09T10:09:24Z</time><name>PT904</name></trkpt>
<trkpt lat="54.533587" lon="-3.038252"><ele>756</ele><time>2023-08-09T10:09:27Z</time><name>PT905</name></trkpt>
<trkpt lat="54.533578" lon="-3.038230"><ele>757</ele><time>2023-08-09T10:09:31Z</time><name>PT906</name></trkpt>
<trkpt lat="54.533576" lon="-3.038204"><ele>757</ele><time>2023-08-09T10:09:35Z</time><name>PT907</name></trkpt>
<trkpt lat="54.533581" lon="-3.038177"><ele>758</ele><time>2023-08-09T10:09:38Z</time><name>PT908</name></trkpt>
<trkpt lat="54.533581" lon="-3.038156"><ele>759</ele><time>2023-08-09T10:09:42Z</time><name>PT909</name></trkpt>
<trkpt lat="54.533586" lon="-3.038135"><ele>759</ele><time>2023-08-09T10:09:45Z</time><name>PT910</name></trkpt>
<trkpt lat="54.533593" lon="-3.038115"><ele>761</ele><time>2023-08-09T10:09:48Z</time><name>PT911</name></trkpt>
<trkpt lat="54.533596" lon="-3.038101"><ele>762</ele><time>2023-08-09T10:09:51Z</time><name>PT912</name></trkpt>
<trkpt lat="54.533580" lon="-3.038103"><ele>763</ele><time>2023-08-09T10:09:55Z</time><name>PT913</name></trkpt>
<trkpt lat="54.533577" lon="-3.038098"><ele>763</ele><time>2023-08-09T10:09:58Z</time><name>PT914</name></trkpt>
<trkpt lat="54.533574" lon="-3.038088"><ele>763</ele><time>2023-08-09T10:10:01Z</time><name>PT915</name></trkpt>
<trkpt lat="54.533574" lon="-3.038077"><ele>763</ele><time>2023-08-09T10:10:05Z</time><name>PT916</name></trkpt>
<trkpt lat="54.533564" lon="-3.038050"><ele>762</ele><time>2023-08-09T10:10:09Z</time><name>PT917</name></trkpt>
<trkpt lat="54.533553" lon="-3.038033"><ele>763</ele><time>2023-08-09T10:10:12Z</time><name>PT918</name></trkpt>
<trkpt lat="54.533538" lon="-3.038022"><ele>765</ele><time>2023-08-09T10:10:16Z</time><name>PT919</name></trkpt>
<trkpt lat="54.533528" lon="-3.038012"><ele>766</ele><time>2023-08-09T10:10:19Z</time><name>PT920</name></trkpt>
<trkpt lat="54.533522" lon="-3.037996"><ele>767</ele><time>2023-08-09T10:10:23Z</time><name>PT921</name></trkpt>
<trkpt lat="54.533514" lon="-3.037980"><ele>768</ele><time>2023-08-09T10:10:27Z</time><name>PT922</name></trkpt>
<trkpt lat="54.533510" lon="-3.037975"><ele>767</ele><time>2023-08-09T10:10:30Z</time><name>PT923</name></trkpt>
<trkpt lat="54.533500" lon="-3.037968"><ele>768</ele><time>2023-08-09T10:10:34Z</time><name>PT924</name></trkpt>
<trkpt lat="54.533498" lon="-3.037971"><ele>768</ele><time>2023-08-09T10:10:37Z</time><name>PT925</name></trkpt>
<trkpt lat="54.533487" lon="-3.037978"><ele>768</ele><time>2023-08-09T10:10:41Z</time><name>PT926</name></trkpt>
<trkpt lat="54.533462" lon="-3.037985"><ele>768</ele><time>2023-08-09T10:10:44Z</time><name>PT927</name></trkpt>
<trkpt lat="54.533438" lon="-3.037979"><ele>768</ele><time>2023-08-09T10:10:48Z</time><name>PT928</name></trkpt>
<trkpt lat="54.533420" lon="-3.037990"><ele>768</ele><time>2023-08-09T10:10:52Z</time><name>PT929</name></trkpt>
<trkpt lat="54.533398" lon="-3.037994"><ele>770</ele><time>2023-08-09T10:10:56Z</time><name>PT930</name></trkpt>
<trkpt lat="54.533384" lon="-3.037975"><ele>770</ele><time>2023-08-09T10:10:59Z</time><name>PT931</name></trkpt>
<trkpt lat="54.533382" lon="-3.037958"><ele>771</ele><time>2023-08-09T10:11:02Z</time><name>PT932</name></trkpt>
<trkpt lat="54.533398" lon="-3.037935"><ele>771</ele><time>2023-08-09T10:11:05Z</time><name>PT933</name></trkpt>
<trkpt lat="54.533399" lon="-3.037922"><ele>772</ele><time>2023-08-09T10:11:08Z</time><name>PT934</name></trkpt>
<trkpt lat="54.533392" lon="-3.037910"><ele>772</ele><time>2023-08-09T10:11:12Z</time><name>PT935</name></trkpt>
<trkpt lat="54.533392" lon="-3.037891"><ele>772</ele><time>2023-08-09T10:11:15Z</time><name>PT936</name></trkpt>
<trkpt lat="54.533405" lon="-3.037844"><ele>773</ele><time>2023-08-09T10:11:19Z</time><name>PT937</name></trkpt>
<trkpt lat="54.533418" lon="-3.037799"><ele>774</ele><time>2023-08-09T10:11:23Z</time><name>PT938</name></trkpt>
<trkpt lat="54.533424" lon="-3.037765"><ele>774</ele><time>2023-08-09T10:11:26Z</time><name>PT939</name></trkpt>
<trkpt lat="54.533431" lon="-3.037731"><ele>775</ele><time>2023-08-09T10:11:30Z</time><name>PT940</name></trkpt>
<trkpt lat="54.533439" lon="-3.037703"><ele>775</ele><time>2023-08-09T10:11:33Z</time><name>PT941</name></trkpt>
<trkpt lat="54.533441" lon="-3.037667"><ele>776</ele><time>2023-08-09T10:11:37Z</time><name>PT942</name></trkpt>
<trkpt lat="54.533440" lon="-3.037643"><ele>777</ele><time>2023-08-09T10:11:40Z</time><name>PT943</name></trkpt>
<trkpt lat="54.533441" lon="-3.037617"><ele>777</ele><time>2023-08-09T10:11:44Z</time><name>PT944</name></trkpt>
<trkpt lat="54.533438" lon="-3.037592"><ele>778</ele><time>2023-08-09T10:11:48Z</time><name>PT945</name></trkpt>
<trkpt lat="54.533430" lon="-3.037565"><ele>779</ele><time>2023-08-09T10:11:52Z</time><name>PT946</name></trkpt>
<trkpt lat="54.533422" lon="-3.037541"><ele>780</ele><time>2023-08-09T10:11:56Z</time><name>PT947</name></trkpt>
<trkpt lat="54.533420" lon="-3.037530"><ele>780</ele><time>2023-08-09T10:12:00Z</time><name>PT948</name></trkpt>
<trkpt lat="54.533419" lon="-3.037515"><ele>780</ele><time>2023-08-09T10:12:04Z</time><name>PT949</name></trkpt>
<trkpt lat="54.533421" lon="-3.037509"><ele>780</ele><time>2023-08-09T10:12:08Z</time><name>PT950</name></trkpt>
<trkpt lat="54.533410" lon="-3.037483"><ele>780</ele><time>2023-08-09T10:12:11Z</time><name>PT951</name></trkpt>
<trkpt lat="54.533403" lon="-3.037455"><ele>781</ele><time>2023-08-09T10:12:15Z</time><name>PT952</name></trkpt>
<trkpt lat="54.533399" lon="-3.037419"><ele>782</ele><time>2023-08-09T10:12:19Z</time><name>PT953</name></trkpt>
<trkpt lat="54.533398" lon="-3.037397"><ele>782</ele><time>2023-08-09T10:12:22Z</time><name>PT954</name></trkpt>
<trkpt lat="54.533394" lon="-3.037370"><ele>783</ele><time>2023-08-09T10:12:26Z</time><name>PT955</name></trkpt>
<trkpt lat="54.533396" lon="-3.037355"><ele>783</ele><time>2023-08-09T10:12:29Z</time><name>PT956</name></trkpt>
<trkpt lat="54.533382" lon="-3.037350"><ele>784</ele><time>2023-08-09T10:12:33Z</time><name>PT957</name></trkpt>
<trkpt lat="54.533373" lon="-3.037337"><ele>784</ele><time>2023-08-09T10:12:36Z</time><name>PT958</name></trkpt>
<trkpt lat="54.533355" lon="-3.037309"><ele>785</ele><time>2023-08-09T10:12:40Z</time><name>PT959</name></trkpt>
<trkpt lat="54.533348" lon="-3.037278"><ele>785</ele><time>2023-08-09T10:12:44Z</time><name>PT960</name></trkpt>
<trkpt lat="54.533338" lon="-3.037261"><ele>787</ele><time>2023-08-09T10:12:47Z</time><name>PT961</name></trkpt>
<trkpt lat="54.533325" lon="-3.037242"><ele>788</ele><time>2023-08-09T10:12:51Z</time><name>PT962</name></trkpt>
<trkpt lat="54.533313" lon="-3.037222"><ele>789</ele><time>2023-08-09T10:12:54Z</time><name>PT963</name></trkpt>
<trkpt lat="54.533309" lon="-3.037201"><ele>789</ele><time>2023-08-09T10:12:57Z</time><name>PT964</name></trkpt>
<trkpt lat="54.533301" lon="-3.037181"><ele>789</ele><time>2023-08-09T10:13:00Z</time><name>PT965</name></trkpt>
<trkpt lat="54.533290" lon="-3.037149"><ele>790</ele><time>2023-08-09T10:13:04Z</time><name>PT966</name></trkpt>
<trkpt lat="54.533278" lon="-3.037111"><ele>791</ele><time>2023-08-09T10:13:08Z</time><name>PT967</name></trkpt>
<trkpt lat="54.533268" lon="-3.037078"><ele>791</ele><time>2023-08-09T10:13:12Z</time><name>PT968</name></trkpt>
<trkpt lat="54.533242" lon="-3.037051"><ele>792</ele><time>2023-08-09T10:13:16Z</time><name>PT969</name></trkpt>
<trkpt lat="54.533230" lon="-3.037014"><ele>793</ele><time>2023-08-09T10:13:20Z</time><name>PT970</name></trkpt>
<trkpt lat="54.533217" lon="-3.036985"><ele>793</ele><time>2023-08-09T10:13:24Z</time><name>PT971</name></trkpt>
<trkpt lat="54.533205" lon="-3.036948"><ele>794</ele><time>2023-08-09T10:13:27Z</time><name>PT972</name></trkpt>
<trkpt lat="54.533190" lon="-3.036907"><ele>795</ele><time>2023-08-09T10:13:31Z</time><name>PT973</name></trkpt>
<trkpt lat="54.533176" lon="-3.036870"><ele>797</ele><time>2023-08-09T10:13:35Z</time><name>PT974</name></trkpt>
<trkpt lat="54.533145" lon="-3.036840"><ele>798</ele><time>2023-08-09T10:13:39Z</time><name>PT975</name></trkpt>
<trkpt lat="54.533124" lon="-3.036811"><ele>799</ele><time>2023-08-09T10:13:43Z</time><name>PT976</name></trkpt>
<trkpt lat="54.533111" lon="-3.036799"><ele>799</ele><time>2023-08-09T10:13:46Z</time><name>PT977</name></trkpt>
<trkpt lat="54.533088" lon="-3.036783"><ele>800</ele><time>2023-08-09T10:13:49Z</time><name>PT978</name></trkpt>
<trkpt lat="54.533070" lon="-3.036761"><ele>800</ele><time>2023-08-09T10:13:53Z</time><name>PT979</name></trkpt>
<trkpt lat="54.533060" lon="-3.036730"><ele>801</ele><time>2023-08-09T10:13:56Z</time><name>PT980</name></trkpt>
<trkpt lat="54.533050" lon="-3.036704"><ele>801</ele><time>2023-08-09T10:13:59Z</time><name>PT981</name></trkpt>
<trkpt lat="54.533034" lon="-3.036689"><ele>801</ele><time>2023-08-09T10:14:03Z</time><name>PT982</name></trkpt>
<trkpt lat="54.533015" lon="-3.036664"><ele>802</ele><time>2023-08-09T10:14:07Z</time><name>PT983</name></trkpt>
<trkpt lat="54.533005" lon="-3.036645"><ele>803</ele><time>2023-08-09T10:14:10Z</time><name>PT984</name></trkpt>
<trkpt lat="54.533005" lon="-3.036604"><ele>803</ele><time>2023-08-09T10:14:14Z</time><name>PT985</name></trkpt>
<trkpt lat="54.532999" lon="-3.036584"><ele>804</ele><time>2023-08-09T10:14:17Z</time><name>PT986</name></trkpt>
<trkpt lat="54.532978" lon="-3.036571"><ele>805</ele><time>2023-08-09T10:14:21Z</time><name>PT987</name></trkpt>
<trkpt lat="54.532965" lon="-3.036557"><ele>805</ele><time>2023-08-09T10:14:24Z</time><name>PT988</name></trkpt>
<trkpt lat="54.532957" lon="-3.036518"><ele>806</ele><time>2023-08-09T10:14:28Z</time><name>PT989</name></trkpt>
<trkpt lat="54.532970" lon="-3.036488"><ele>807</ele><time>2023-08-09T10:14:32Z</time><name>PT990</name></trkpt>
<trkpt lat="54.532980" lon="-3.036452"><ele>808</ele><time>2023-08-09T10:14:36Z</time><name>PT991</name></trkpt>
<trkpt lat="54.532976" lon="-3.036452"><ele>808</ele><time>2023-08-09T10:14:39Z</time><name>PT992</name></trkpt>
<trkpt lat="54.532976" lon="-3.036430"><ele>809</ele><time>2023-08-09T10:14:42Z</time><name>PT993</name></trkpt>
<trkpt lat="54.532975" lon="-3.036390"><ele>810</ele><time>2023-08-09T10:14:46Z</time><name>PT994</name></trkpt>
<trkpt lat="54.532968" lon="-3.036372"><ele>810</ele><time>2023-08-09T10:14:49Z</time><name>PT995</name></trkpt>
<trkpt lat="54.532980" lon="-3.036337"><ele>811</ele><time>2023-08-09T10:14:53Z</time><name>PT996</name></trkpt>
<trkpt lat="54.532979" lon="-3.036305"><ele>812</ele><time>2023-08-09T10:14:57Z</time><name>PT997</name></trkpt>
<trkpt lat="54.532963" lon="-3.036277"><ele>815</ele><time>2023-08-09T10:15:01Z</time><name>PT998</name></trkpt>
<trkpt lat="54.532954" lon="-3.036256"><ele>815</ele><time>2023-08-09T10:15:04Z</time><name>PT999</name></trkpt>
<trkpt lat="54.532942" lon="-3.036239"><ele>816</ele><time>2023-08-09T10:15:07Z</time><name>PT1000</name></trkpt>
<trkpt lat="54.532933" lon="-3.036213"><ele>817</ele><time>2023-08-09T10:15:11Z</time><name>PT1001</name></trkpt>
<trkpt lat="54.532914" lon="-3.036189"><ele>818</ele><time>2023-08-09T10:15:15Z</time><name>PT1002</name></trkpt>
<trkpt lat="54.532902" lon="-3.036169"><ele>819</ele><time>2023-08-09T10:15:18Z</time><name>PT1003</name></trkpt>
<trkpt lat="54.532886" lon="-3.036132"><ele>819</ele><time>2023-08-09T10:15:22Z</time><name>PT1004</name></trkpt>
<trkpt lat="54.532880" lon="-3.036087"><ele>819</ele><time>2023-08-09T10:15:26Z</time><name>PT1005</name></trkpt>
<trkpt lat="54.532873" lon="-3.036056"><ele>819</ele><time>2023-08-09T10:15:29Z</time><name>PT1006</name></trkpt>
<trkpt lat="54.532860" lon="-3.036041"><ele>820</ele><time>2023-08-09T10:15:32Z</time><name>PT1007</name></trkpt>
<trkpt lat="54.532848" lon="-3.036030"><ele>819</ele><time>2023-08-09T10:15:35Z</time><name>PT1008</name></trkpt>
<trkpt lat="54.532836" lon="-3.036016"><ele>820</ele><time>2023-08-09T10:15:38Z</time><name>PT1009</name></trkpt>
<trkpt lat="54.532831" lon="-3.035985"><ele>821</ele><time>2023-08-09T10:15:42Z</time><name>PT1010</name></trkpt>
<trkpt lat="54.532827" lon="-3.035953"><ele>821</ele><time>2023-08-09T10:15:45Z</time><name>PT1011</name></trkpt>
<trkpt lat="54.532828" lon="-3.035915"><ele>822</ele><time>2023-08-09T10:15:49Z</time><name>PT1012</name></trkpt>
<trkpt lat="54.532826" lon="-3.035878"><ele>823</ele><time>2023-08-09T10:15:53Z</time><name>PT1013</name></trkpt>
<trkpt lat="54.532818" lon="-3.035853"><ele>824</ele><time>2023-08-09T10:15:56Z</time><name>PT1014</name></trkpt>
<trkpt lat="54.532796" lon="-3.035830"><ele>825</ele><time>2023-08-09T10:16:00Z</time><name>PT1015</name></trkpt>
<trkpt lat="54.532777" lon="-3.035826"><ele>826</ele><time>2023-08-09T10:16:03Z</time><name>PT1016</name></trkpt>
<trkpt lat="54.532768" lon="-3.035794"><ele>826</ele><time>2023-08-09T10:16:06Z</time><name>PT1017</name></trkpt>
<trkpt lat="54.532773" lon="-3.035766"><ele>826</ele><time>2023-08-09T10:16:09Z</time><name>PT1018</name></trkpt>
<trkpt lat="54.532776" lon="-3.035734"><ele>827</ele><time>2023-08-09T10:16:13Z</time><name>PT1019</name></trkpt>
<trkpt lat="54.532774" lon="-3.035711"><ele>828</ele><time>2023-08-09T10:16:17Z</time><name>PT1020</name></trkpt>
<trkpt lat="54.532770" lon="-3.035671"><ele>828</ele><time>2023-08-09T10:16:21Z</time><name>PT1021</name></trkpt>
<trkpt lat="54.532761" lon="-3.035628"><ele>829</ele><time>2023-08-09T10:16:25Z</time><name>PT1022</name></trkpt>
<trkpt lat="54.532762" lon="-3.035599"><ele>830</ele><time>2023-08-09T10:16:28Z</time><name>PT1023</name></trkpt>
<trkpt lat="54.532753" lon="-3.035575"><ele>830</ele><time>2023-08-09T10:16:32Z</time><name>PT1024</name></trkpt>
<trkpt lat="54.532738" lon="-3.035555"><ele>832</ele><time>2023-08-09T10:16:36Z</time><name>PT1025</name></trkpt>
<trkpt lat="54.532721" lon="-3.035536"><ele>833</ele><time>2023-08-09T10:16:39Z</time><name>PT1026</name></trkpt>
<trkpt lat="54.532703" lon="-3.035507"><ele>834</ele><time>2023-08-09T10:16:42Z</time><name>PT1027</name></trkpt>
<trkpt lat="54.532673" lon="-3.035456"><ele>834</ele><time>2023-08-09T10:16:46Z</time><name>PT1028</name></trkpt>
<trkpt lat="54.532647" lon="-3.035415"><ele>836</ele><time>2023-08-09T10:16:50Z</time><name>PT1029</name></trkpt>
<trkpt lat="54.532624" lon="-3.035374"><ele>837</ele><time>2023-08-09T10:16:54Z</time><name>PT1030</name></trkpt>
<trkpt lat="54.532602" lon="-3.035340"><ele>838</ele><time>2023-08-09T10:16:57Z</time><name>PT1031</name></trkpt>
<trkpt lat="54.532584" lon="-3.035307"><ele>838</ele><time>2023-08-09T10:17:00Z</time><name>PT1032</name></trkpt>
<trkpt lat="54.532564" lon="-3.035268"><ele>838</ele><time>2023-08-09T10:17:03Z</time><name>PT1033</name></trkpt>
<trkpt lat="54.532552" lon="-3.035222"><ele>839</ele><time>2023-08-09T10:17:06Z</time><name>PT1034</name></trkpt>
<trkpt lat="54.532536" lon="-3.035168"><ele>839</ele><time>2023-08-09T10:17:10Z</time><name>PT1035</name></trkpt>
<trkpt lat="54.532513" lon="-3.035116"><ele>841</ele><time>2023-08-09T10:17:13Z</time><name>PT1036</name></trkpt>
<trkpt lat="54.532489" lon="-3.035074"><ele>843</ele><time>2023-08-09T10:17:17Z</time><name>PT1037</name></trkpt>
<trkpt lat="54.532475" lon="-3.035024"><ele>842</ele><time>2023-08-09T10:17:20Z</time><name>PT1038</name></trkpt>
<trkpt lat="54.532465" lon="-3.034988"><ele>842</ele><time>2023-08-09T10:17:23Z</time><name>PT1039</name></trkpt>
<trkpt lat="54.532458" lon="-3.034931"><ele>843</ele><time>2023-08-09T10:17:27Z</time><name>PT1040</name></trkpt>
<trkpt lat="54.532461" lon="-3.034879"><ele>844</ele><time>2023-08-09T10:17:30Z</time><name>PT1041</name></trkpt>
<trkpt lat="54.532459" lon="-3.034846"><ele>844</ele><time>2023-08-09T10:17:33Z</time><name>PT1042</name></trkpt>
<trkpt lat="54.532451" lon="-3.034782"><ele>844</ele><time>2023-08-09T10:17:37Z</time><name>PT1043</name></trkpt>
<trkpt lat="54.532441" lon="-3.034727"><ele>844</ele><time>2023-08-09T10:17:41Z</time><name>PT1044</name></trkpt>
<trkpt lat="54.532432" lon="-3.034678"><ele>845</ele><time>2023-08-09T10:17:45Z</time><name>PT1045</name></trkpt>
<trkpt lat="54.532415" lon="-3.034614"><ele>846</ele><time>2023-08-09T10:17:49Z</time><name>PT1046</name></trkpt>
<trkpt lat="54.532392" lon="-3.034577"><ele>847</ele><time>2023-08-09T10:17:52Z</time><name>PT1047</name></trkpt>
<trkpt lat="54.532362" lon="-3.034524"><ele>848</ele><time>2023-08-09T10:17:56Z</time><name>PT1048</name></trkpt>
<trkpt lat="54.532337" lon="-3.034491"><ele>848</ele><time>2023-08-09T10:17:59Z</time><name>PT1049</name></trkpt>
<trkpt lat="54.532312" lon="-3.034468"><ele>848</ele><time>2023-08-09T10:18:02Z</time><name>PT1050</name></trkpt>
<trkpt lat="54.532281" lon="-3.034443"><ele>849</ele><time>2023-08-09T10:18:06Z</time><name>PT1051</name></trkpt>
<trkpt lat="54.532262" lon="-3.034410"><ele>850</ele><time>2023-08-09T10:18:10Z</time><name>PT1052</name></trkpt>
<trkpt lat="54.532250" lon="-3.034382"><ele>850</ele><time>2023-08-09T10:18:13Z</time><name>PT1053</name></trkpt>
<trkpt lat="54.532228" lon="-3.034335"><ele>850</ele><time>2023-08-09T10:18:17Z</time><name>PT1054</name></trkpt>
<trkpt lat="54.532202" lon="-3.034295"><ele>852</ele><time>2023-08-09T10:18:21Z</time><name>PT1055</name></trkpt>
<trkpt lat="54.532176" lon="-3.034250"><ele>852</ele><time>2023-08-09T10:18:25Z</time><name>PT1056</name></trkpt>
<trkpt lat="54.532146" lon="-3.034213"><ele>852</ele><time>2023-08-09T10:18:29Z</time><name>PT1057</name></trkpt>
<trkpt lat="54.532127" lon="-3.034186"><ele>853</ele><time>2023-08-09T10:18:32Z</time><name>PT1058</name></trkpt>
<trkpt lat="54.532102" lon="-3.034133"><ele>853</ele><time>2023-08-09T10:18:36Z</time><name>PT1059</name></trkpt>
<trkpt lat="54.532081" lon="-3.034105"><ele>854</ele><time>2023-08-09T10:18:39Z</time><name>PT1060</name></trkpt>
<trkpt lat="54.532061" lon="-3.034072"><ele>855</ele><time>2023-08-09T10:18:42Z</time><name>PT1061</name></trkpt>
<trkpt lat="54.532037" lon="-3.034024"><ele>856</ele><time>2023-08-09T10:18:46Z</time><name>PT1062</name></trkpt>
<trkpt lat="54.532023" lon="-3.033985"><ele>856</ele><time>2023-08-09T10:18:49Z</time><name>PT1063</name></trkpt>
<trkpt lat="54.532012" lon="-3.033946"><ele>856</ele><time>2023-08-09T10:18:52Z</time><name>PT1064</name></trkpt>
<trkpt lat="54.532001" lon="-3.033895"><ele>857</ele><time>2023-08-09T10:18:56Z</time><name>PT1065</name></trkpt>
<trkpt lat="54.531989" lon="-3.033855"><ele>858</ele><time>2023-08-09T10:18:59Z</time><name>PT1066</name></trkpt>
<trkpt lat="54.531974" lon="-3.033805"><ele>857</ele><time>2023-08-09T10:19:03Z</time><name>PT1067</name></trkpt>
<trkpt lat="54.531955" lon="-3.033763"><ele>857</ele><time>2023-08-09T10:19:06Z</time><name>PT1068</name></trkpt>
<trkpt lat="54.531940" lon="-3.033689"><ele>857</ele><time>2023-08-09T10:19:10Z</time><name>PT1069</name></trkpt>
<trkpt lat="54.531944" lon="-3.033647"><ele>858</ele><time>2023-08-09T10:19:14Z</time><name>PT1070</name></trkpt>
<trkpt lat="54.531944" lon="-3.033647"><ele>858</ele><time>2023-08-09T10:19:18Z</time><name>PT1071</name></trkpt>
<trkpt lat="54.531933" lon="-3.033623"><ele>858</ele><time>2023-08-09T10:19:56Z</time><name>PT1072</name></trkpt>
<trkpt lat="54.531907" lon="-3.033544"><ele>858</ele><time>2023-08-09T10:20:00Z</time><name>PT1073</name></trkpt>
<trkpt lat="54.531898" lon="-3.033488"><ele>857</ele><time>2023-08-09T10:20:03Z</time><name>PT1074</name></trkpt>
<trkpt lat="54.531885" lon="-3.033435"><ele>857</ele><time>2023-08-09T10:20:06Z</time><name>PT1075</name></trkpt>
<trkpt lat="54.531874" lon="-3.033374"><ele>857</ele><time>2023-08-09T10:20:10Z</time><name>PT1076</name></trkpt>
<trkpt lat="54.531859" lon="-3.033305"><ele>857</ele><time>2023-08-09T10:20:13Z</time><name>PT1077</name></trkpt>
<trkpt lat="54.531829" lon="-3.033219"><ele>857</ele><time>2023-08-09T10:20:17Z</time><name>PT1078</name></trkpt>
<trkpt lat="54.531812" lon="-3.033117"><ele>857</ele><time>2023-08-09T10:20:21Z</time><name>PT1079</name></trkpt>
<trkpt lat="54.531801" lon="-3.033064"><ele>857</ele><time>2023-08-09T10:20:25Z</time><name>PT1080</name></trkpt>
<trkpt lat="54.531791" lon="-3.033003"><ele>857</ele><time>2023-08-09T10:20:28Z</time><name>PT1081</name></trkpt>
<trkpt lat="54.531773" lon="-3.032930"><ele>857</ele><time>2023-08-09T10:20:31Z</time><name>PT1082</name></trkpt>
<trkpt lat="54.531743" lon="-3.032829"><ele>857</ele><time>2023-08-09T10:20:35Z</time><name>PT1083</name></trkpt>
<trkpt lat="54.531725" lon="-3.032764"><ele>857</ele><time>2023-08-09T10:20:39Z</time><name>PT1084</name></trkpt>
<trkpt lat="54.531711" lon="-3.032712"><ele>856</ele><time>2023-08-09T10:20:42Z</time><name>PT1085</name></trkpt>
<trkpt lat="54.531688" lon="-3.032612"><ele>856</ele><time>2023-08-09T10:20:46Z</time><name>PT1086</name></trkpt>
<trkpt lat="54.531679" lon="-3.032532"><ele>856</ele><time>2023-08-09T10:20:49Z</time><name>PT1087</name></trkpt>
<trkpt lat="54.531655" lon="-3.032462"><ele>856</ele><time>2023-08-09T10:20:53Z</time><name>PT1088</name></trkpt>
<trkpt lat="54.531643" lon="-3.032423"><ele>854</ele><time>2023-08-09T10:20:56Z</time><name>PT1089</name></trkpt>
<trkpt lat="54.531629" lon="-3.032374"><ele>853</ele><time>2023-08-09T10:20:59Z</time><name>PT1090</name></trkpt>
<trkpt lat="54.531613" lon="-3.032282"><ele>853</ele><time>2023-08-09T10:21:03Z</time><name>PT1091</name></trkpt>
<trkpt lat="54.531597" lon="-3.032206"><ele>852</ele><time>2023-08-09T10:21:07Z</time><name>PT1092</name></trkpt>
<trkpt lat="54.531578" lon="-3.032180"><ele>852</ele><time>2023-08-09T10:21:10Z</time><name>PT1093</name></trkpt>
<trkpt lat="54.531553" lon="-3.032093"><ele>853</ele><time>2023-08-09T10:21:14Z</time><name>PT1094</name></trkpt>
<trkpt lat="54.531537" lon="-3.032022"><ele>853</ele><time>2023-08-09T10:21:17Z</time><name>PT1095</name></trkpt>
<trkpt lat="54.531527" lon="-3.031987"><ele>853</ele><time>2023-08-09T10:21:20Z</time><name>PT1096</name></trkpt>
<trkpt lat="54.531503" lon="-3.031932"><ele>852</ele><time>2023-08-09T10:21:24Z</time><name>PT1097</name></trkpt>
<trkpt lat="54.531481" lon="-3.031871"><ele>853</ele><time>2023-08-09T10:21:28Z</time><name>PT1098</name></trkpt>
<trkpt lat="54.531461" lon="-3.031792"><ele>852</ele><time>2023-08-09T10:21:32Z</time><name>PT1099</name></trkpt>
<trkpt lat="54.531449" lon="-3.031724"><ele>852</ele><time>2023-08-09T10:21:36Z</time><name>PT1100</name></trkpt>
<trkpt lat="54.531443" lon="-3.031644"><ele>851</ele><time>2023-08-09T10:21:40Z</time><name>PT1101</name></trkpt>
<trkpt lat="54.531433" lon="-3.031562"><ele>852</ele><time>2023-08-09T10:21:43Z</time><name>PT1102</name></trkpt>
<trkpt lat="54.531404" lon="-3.031490"><ele>853</ele><time>2023-08-09T10:21:47Z</time><name>PT1103</name></trkpt>
<trkpt lat="54.531383" lon="-3.031439"><ele>854</ele><time>2023-08-09T10:21:51Z</time><name>PT1104</name></trkpt>
<trkpt lat="54.531367" lon="-3.031374"><ele>854</ele><time>2023-08-09T10:21:54Z</time><name>PT1105</name></trkpt>
<trkpt lat="54.531351" lon="-3.031303"><ele>854</ele><time>2023-08-09T10:21:57Z</time><name>PT1106</name></trkpt>
<trkpt lat="54.531331" lon="-3.031252"><ele>856</ele><time>2023-08-09T10:22:01Z</time><name>PT1107</name></trkpt>
<trkpt lat="54.531318" lon="-3.031182"><ele>856</ele><time>2023-08-09T10:22:05Z</time><name>PT1108</name></trkpt>
<trkpt lat="54.531302" lon="-3.031098"><ele>855</ele><time>2023-08-09T10:22:09Z</time><name>PT1109</name></trkpt>
<trkpt lat="54.531293" lon="-3.031070"><ele>857</ele><time>2023-08-09T10:22:12Z</time><name>PT1110</name></trkpt>
<trkpt lat="54.531274" lon="-3.031015"><ele>857</ele><time>2023-08-09T10:22:15Z</time><name>PT1111</name></trkpt>
<trkpt lat="54.531253" lon="-3.030960"><ele>858</ele><time>2023-08-09T10:22:19Z</time><name>PT1112</name></trkpt>
<trkpt lat="54.531231" lon="-3.030901"><ele>860</ele><time>2023-08-09T10:22:23Z</time><name>PT1113</name></trkpt>
<trkpt lat="54.531211" lon="-3.030837"><ele>861</ele><time>2023-08-09T10:22:26Z</time><name>PT1114</name></trkpt>
<trkpt lat="54.531189" lon="-3.030779"><ele>861</ele><time>2023-08-09T10:22:30Z</time><name>PT1115</name></trkpt>
<trkpt lat="54.531166" lon="-3.030739"><ele>862</ele><time>2023-08-09T10:22:33Z</time><name>PT1116</name></trkpt>
<trkpt lat="54.531144" lon="-3.030676"><ele>863</ele><time>2023-08-09T10:22:37Z</time><name>PT1117</name></trkpt>
<trkpt lat="54.531133" lon="-3.030637"><ele>863</ele><time>2023-08-09T10:22:40Z</time><name>PT1118</name></trkpt>
<trkpt lat="54.531114" lon="-3.030575"><ele>862</ele><time>2023-08-09T10:22:44Z</time><name>PT1119</name></trkpt>
<trkpt lat="54.531086" lon="-3.030526"><ele>862</ele><time>2023-08-09T10:22:48Z</time><name>PT1120</name></trkpt>
<trkpt lat="54.531065" lon="-3.030492"><ele>863</ele><time>2023-08-09T10:22:51Z</time><name>PT1121</name></trkpt>
<trkpt lat="54.531046" lon="-3.030456"><ele>864</ele><time>2023-08-09T10:22:54Z</time><name>PT1122</name></trkpt>
<trkpt lat="54.531022" lon="-3.030396"><ele>865</ele><time>2023-08-09T10:22:58Z</time><name>PT1123</name></trkpt>
<trkpt lat="54.531003" lon="-3.030326"><ele>865</ele><time>2023-08-09T10:23:02Z</time><name>PT1124</name></trkpt>
<trkpt lat="54.530989" lon="-3.030271"><ele>866</ele><time>2023-08-09T10:23:05Z</time><name>PT1125</name></trkpt>
<trkpt lat="54.530972" lon="-3.030208"><ele>866</ele><time>2023-08-09T10:23:09Z</time><name>PT1126</name></trkpt>
<trkpt lat="54.530960" lon="-3.030132"><ele>866</ele><time>2023-08-09T10:23:12Z</time><name>PT1127</name></trkpt>
<trkpt lat="54.530952" lon="-3.030092"><ele>867</ele><time>2023-08-09T10:23:15Z</time><name>PT1128</name></trkpt>
<trkpt lat="54.530942" lon="-3.030030"><ele>867</ele><time>2023-08-09T10:23:18Z</time><name>PT1129</name></trkpt>
<trkpt lat="54.530934" lon="-3.029974"><ele>868</ele><time>2023-08-09T10:23:22Z</time><name>PT1130</name></trkpt>
<trkpt lat="54.530919" lon="-3.029910"><ele>868</ele><time>2023-08-09T10:23:26Z</time><name>PT1131</name></trkpt>
<trkpt lat="54.530912" lon="-3.029867"><ele>869</ele><time>2023-08-09T10:23:29Z</time><name>PT1132</name></trkpt>
<trkpt lat="54.530903" lon="-3.029821"><ele>870</ele><time>2023-08-09T10:23:32Z</time><name>PT1133</name></trkpt>
<trkpt lat="54.530890" lon="-3.029757"><ele>870</ele><time>2023-08-09T10:23:36Z</time><name>PT1134</name></trkpt>
<trkpt lat="54.530883" lon="-3.029707"><ele>870</ele><time>2023-08-09T10:23:40Z</time><name>PT1135</name></trkpt>
<trkpt lat="54.530865" lon="-3.029652"><ele>872</ele><time>2023-08-09T10:23:43Z</time><name>PT1136</name></trkpt>
<trkpt lat="54.530860" lon="-3.029593"><ele>873</ele><time>2023-08-09T10:23:47Z</time><name>PT1137</name></trkpt>
<trkpt lat="54.530834" lon="-3.029542"><ele>876</ele><time>2023-08-09T10:23:50Z</time><name>PT1138</name></trkpt>
<trkpt lat="54.530810" lon="-3.029496"><ele>876</ele><time>2023-08-09T10:23:54Z</time><name>PT1139</name></trkpt>
<trkpt lat="54.530793" lon="-3.029419"><ele>877</ele><time>2023-08-09T10:23:58Z</time><name>PT1140</name></trkpt>
<trkpt lat="54.530782" lon="-3.029386"><ele>878</ele><time>2023-08-09T10:24:01Z</time><name>PT1141</name></trkpt>
<trkpt lat="54.530765" lon="-3.029317"><ele>877</ele><time>2023-08-09T10:24:05Z</time><name>PT1142</name></trkpt>
<trkpt lat="54.530761" lon="-3.029271"><ele>876</ele><time>2023-08-09T10:24:08Z</time><name>PT1143</name></trkpt>
<trkpt lat="54.530748" lon="-3.029220"><ele>875</ele><time>2023-08-09T10:24:12Z</time><name>PT1144</name></trkpt>
<trkpt lat="54.530739" lon="-3.029149"><ele>876</ele><time>2023-08-09T10:24:16Z</time><name>PT1145</name></trkpt>
<trkpt lat="54.530723" lon="-3.029072"><ele>877</ele><time>2023-08-09T10:24:20Z</time><name>PT1146</name></trkpt>
<trkpt lat="54.530711" lon="-3.029010"><ele>878</ele><time>2023-08-09T10:24:24Z</time><name>PT1147</name></trkpt>
<trkpt lat="54.530701" lon="-3.028932"><ele>879</ele><time>2023-08-09T10:24:28Z</time><name>PT1148</name></trkpt>
<trkpt lat="54.530694" lon="-3.028891"><ele>879</ele><time>2023-08-09T10:24:31Z</time><name>PT1149</name></trkpt>
<trkpt lat="54.530688" lon="-3.028810"><ele>880</ele><time>2023-08-09T10:24:35Z</time><name>PT1150</name></trkpt>
<trkpt lat="54.530679" lon="-3.028762"><ele>879</ele><time>2023-08-09T10:24:38Z</time><name>PT1151</name></trkpt>
<trkpt lat="54.530666" lon="-3.028683"><ele>879</ele><time>2023-08-09T10:24:42Z</time><name>PT1152</name></trkpt>
<trkpt lat="54.530659" lon="-3.028649"><ele>880</ele><time>2023-08-09T10:24:45Z</time><name>PT1153</name></trkpt>
<trkpt lat="54.530638" lon="-3.028597"><ele>881</ele><time>2023-08-09T10:24:49Z</time><name>PT1154</name></trkpt>
<trkpt lat="54.530610" lon="-3.028545"><ele>882</ele><time>2023-08-09T10:24:53Z</time><name>PT1155</name></trkpt>
<trkpt lat="54.530591" lon="-3.028515"><ele>883</ele><time>2023-08-09T10:24:57Z</time><name>PT1156</name></trkpt>
<trkpt lat="54.530567" lon="-3.028478"><ele>883</ele><time>2023-08-09T10:25:00Z</time><name>PT1157</name></trkpt>
<trkpt lat="54.530539" lon="-3.028435"><ele>884</ele><time>2023-08-09T10:25:04Z</time><name>PT1158</name></trkpt>
<trkpt lat="54.530519" lon="-3.028395"><ele>885</ele><time>2023-08-09T10:25:07Z</time><name>PT1159</name></trkpt>
<trkpt lat="54.530505" lon="-3.028328"><ele>885</ele><time>2023-08-09T10:25:11Z</time><name>PT1160</name></trkpt>
<trkpt lat="54.530486" lon="-3.028282"><ele>886</ele><time>2023-08-09T10:25:15Z</time><name>PT1161</name></trkpt>
<trkpt lat="54.530456" lon="-3.028231"><ele>887</ele><time>2023-08-09T10:25:18Z</time><name>PT1162</name></trkpt>
<trkpt lat="54.530435" lon="-3.028188"><ele>887</ele><time>2023-08-09T10:25:22Z</time><name>PT1163</name></trkpt>
<trkpt lat="54.530413" lon="-3.028142"><ele>888</ele><time>2023-08-09T10:25:25Z</time><name>PT1164</name></trkpt>
<trkpt lat="54.530397" lon="-3.028080"><ele>888</ele><time>2023-08-09T10:25:29Z</time><name>PT1165</name></trkpt>
<trkpt lat="54.530386" lon="-3.027996"><ele>888</ele><time>2023-08-09T10:25:33Z</time><name>PT1166</name></trkpt>
<trkpt lat="54.530380" lon="-3.027967"><ele>887</ele><time>2023-08-09T10:25:36Z</time><name>PT1167</name></trkpt>
<trkpt lat="54.530364" lon="-3.027910"><ele>887</ele><time>2023-08-09T10:25:40Z</time><name>PT1168</name></trkpt>
<trkpt lat="54.530345" lon="-3.027850"><ele>888</ele><time>2023-08-09T10:25:44Z</time><name>PT1169</name></trkpt>
<trkpt lat="54.530333" lon="-3.027799"><ele>888</ele><time>2023-08-09T10:25:48Z</time><name>PT1170</name></trkpt>
<trkpt lat="54.530325" lon="-3.027727"><ele>889</ele><time>2023-08-09T10:25:52Z</time><name>PT1171</name></trkpt>
<trkpt lat="54.530308" lon="-3.027673"><ele>889</ele><time>2023-08-09T10:25:56Z</time><name>PT1172</name></trkpt>
<trkpt lat="54.530299" lon="-3.027625"><ele>889</ele><time>2023-08-09T10:25:59Z</time><name>PT1173</name></trkpt>
<trkpt lat="54.530282" lon="-3.027567"><ele>890</ele><time>2023-08-09T10:26:03Z</time><name>PT1174</name></trkpt>
<trkpt lat="54.530263" lon="-3.027534"><ele>891</ele><time>2023-08-09T10:26:06Z</time><name>PT1175</name></trkpt>
<trkpt lat="54.530236" lon="-3.027490"><ele>892</ele><time>2023-08-09T10:26:10Z</time><name>PT1176</name></trkpt>
<trkpt lat="54.530214" lon="-3.027455"><ele>892</ele><time>2023-08-09T10:26:13Z</time><name>PT1177</name></trkpt>
<trkpt lat="54.530193" lon="-3.027400"><ele>892</ele><time>2023-08-09T10:26:17Z</time><name>PT1178</name></trkpt>
<trkpt lat="54.530174" lon="-3.027374"><ele>893</ele><time>2023-08-09T10:26:20Z</time><name>PT1179</name></trkpt>
<trkpt lat="54.530148" lon="-3.027333"><ele>893</ele><time>2023-08-09T10:26:23Z</time><name>PT1180</name></trkpt>
<trkpt lat="54.530135" lon="-3.027303"><ele>893</ele><time>2023-08-09T10:26:26Z</time><name>PT1181</name></trkpt>
<trkpt lat="54.530112" lon="-3.027225"><ele>892</ele><time>2023-08-09T10:26:30Z</time><name>PT1182</name></trkpt>
<trkpt lat="54.530104" lon="-3.027196"><ele>892</ele><time>2023-08-09T10:26:33Z</time><name>PT1183</name></trkpt>
<trkpt lat="54.530093" lon="-3.027115"><ele>892</ele><time>2023-08-09T10:26:37Z</time><name>PT1184</name></trkpt>
<trkpt lat="54.530084" lon="-3.027085"><ele>894</ele><time>2023-08-09T10:26:40Z</time><name>PT1185</name></trkpt>
<trkpt lat="54.530080" lon="-3.027010"><ele>894</ele><time>2023-08-09T10:26:44Z</time><name>PT1186</name></trkpt>
<trkpt lat="54.530073" lon="-3.026985"><ele>895</ele><time>2023-08-09T10:26:47Z</time><name>PT1187</name></trkpt>
<trkpt lat="54.530052" lon="-3.026917"><ele>895</ele><time>2023-08-09T10:26:51Z</time><name>PT1188</name></trkpt>
<trkpt lat="54.530031" lon="-3.026887"><ele>896</ele><time>2023-08-09T10:26:55Z</time><name>PT1189</name></trkpt>
<trkpt lat="54.530006" lon="-3.026848"><ele>896</ele><time>2023-08-09T10:26:58Z</time><name>PT1190</name></trkpt>
<trkpt lat="54.529982" lon="-3.026819"><ele>896</ele><time>2023-08-09T10:27:02Z</time><name>PT1191</name></trkpt>
<trkpt lat="54.529949" lon="-3.026774"><ele>898</ele><time>2023-08-09T10:27:06Z</time><name>PT1192</name></trkpt>
<trkpt lat="54.529914" lon="-3.026726"><ele>898</ele><time>2023-08-09T10:27:10Z</time><name>PT1193</name></trkpt>
<trkpt lat="54.529896" lon="-3.026686"><ele>898</ele><time>2023-08-09T10:27:13Z</time><name>PT1194</name></trkpt>
<trkpt lat="54.529882" lon="-3.026648"><ele>898</ele><time>2023-08-09T10:27:16Z</time><name>PT1195</name></trkpt>
<trkpt lat="54.529870" lon="-3.026594"><ele>898</ele><time>2023-08-09T10:27:19Z</time><name>PT1196</name></trkpt>
<trkpt lat="54.529852" lon="-3.026546"><ele>900</ele><time>2023-08-09T10:27:23Z</time><name>PT1197</name></trkpt>
<trkpt lat="54.529838" lon="-3.026513"><ele>900</ele><time>2023-08-09T10:27:26Z</time><name>PT1198</name></trkpt>
<trkpt lat="54.529809" lon="-3.026462"><ele>900</ele><time>2023-08-09T10:27:30Z</time><name>PT1199</name></trkpt>
<trkpt lat="54.529784" lon="-3.026397"><ele>900</ele><time>2023-08-09T10:27:34Z</time><name>PT1200</name></trkpt>
<trkpt lat="54.529756" lon="-3.026335"><ele>901</ele><time>2023-08-09T10:27:38Z</time><name>PT1201</name></trkpt>
<trkpt lat="54.529746" lon="-3.026286"><ele>901</ele><time>2023-08-09T10:27:41Z</time><name>PT1202</name></trkpt>
<trkpt lat="54.529718" lon="-3.026230"><ele>901</ele><time>2023-08-09T10:27:45Z</time><name>PT1203</name></trkpt>
<trkpt lat="54.529701" lon="-3.026191"><ele>901</ele><time>2023-08-09T10:27:48Z</time><name>PT1204</name></trkpt>
<trkpt lat="54.529682" lon="-3.026136"><ele>901</ele><time>2023-08-09T10:27:51Z</time><name>PT1205</name></trkpt>
<trkpt lat="54.529662" lon="-3.026081"><ele>902</ele><time>2023-08-09T10:27:54Z</time><name>PT1206</name></trkpt>
<trkpt lat="54.529639" lon="-3.026017"><ele>901</ele><time>2023-08-09T10:27:58Z</time><name>PT1207</name></trkpt>
<trkpt lat="54.529610" lon="-3.025951"><ele>901</ele><time>2023-08-09T10:28:02Z</time><name>PT1208</name></trkpt>
<trkpt lat="54.529588" lon="-3.025907"><ele>902</ele><time>2023-08-09T10:28:05Z</time><name>PT1209</name></trkpt>
<trkpt lat="54.529566" lon="-3.025852"><ele>902</ele><time>2023-08-09T10:28:08Z</time><name>PT1210</name></trkpt>
<trkpt lat="54.529534" lon="-3.025762"><ele>902</ele><time>2023-08-09T10:28:12Z</time><name>PT1211</name></trkpt>
<trkpt lat="54.529519" lon="-3.025701"><ele>902</ele><time>2023-08-09T10:28:15Z</time><name>PT1212</name></trkpt>
<trkpt lat="54.529501" lon="-3.025639"><ele>902</ele><time>2023-08-09T10:28:18Z</time><name>PT1213</name></trkpt>
<trkpt lat="54.529478" lon="-3.025575"><ele>901</ele><time>2023-08-09T10:28:21Z</time><name>PT1214</name></trkpt>
<trkpt lat="54.529452" lon="-3.025496"><ele>902</ele><time>2023-08-09T10:28:25Z</time><name>PT1215</name></trkpt>
<trkpt lat="54.529435" lon="-3.025434"><ele>902</ele><time>2023-08-09T10:28:28Z</time><name>PT1216</name></trkpt>
<trkpt lat="54.529414" lon="-3.025378"><ele>902</ele><time>2023-08-09T10:28:31Z</time><name>PT1217</name></trkpt>
<trkpt lat="54.529398" lon="-3.025301"><ele>902</ele><time>2023-08-09T10:28:35Z</time><name>PT1218</name></trkpt>
<trkpt lat="54.529374" lon="-3.025258"><ele>903</ele><time>2023-08-09T10:28:38Z</time><name>PT1219</name></trkpt>
<trkpt lat="54.529360" lon="-3.025207"><ele>903</ele><time>2023-08-09T10:28:41Z</time><name>PT1220</name></trkpt>
<trkpt lat="54.529335" lon="-3.025135"><ele>904</ele><time>2023-08-09T10:28:45Z</time><name>PT1221</name></trkpt>
<trkpt lat="54.529312" lon="-3.025071"><ele>904</ele><time>2023-08-09T10:28:49Z</time><name>PT1222</name></trkpt>
<trkpt lat="54.529286" lon="-3.025003"><ele>904</ele><time>2023-08-09T10:28:53Z</time><name>PT1223</name></trkpt>
<trkpt lat="54.529253" lon="-3.024940"><ele>904</ele><time>2023-08-09T10:28:57Z</time><name>PT1224</name></trkpt>
<trkpt lat="54.529228" lon="-3.024872"><ele>905</ele><time>2023-08-09T10:29:01Z</time><name>PT1225</name></trkpt>
<trkpt lat="54.529207" lon="-3.024816"><ele>907</ele><time>2023-08-09T10:29:04Z</time><name>PT1226</name></trkpt>
<trkpt lat="54.529182" lon="-3.024744"><ele>907</ele><time>2023-08-09T10:29:08Z</time><name>PT1227</name></trkpt>
<trkpt lat="54.529166" lon="-3.024685"><ele>906</ele><time>2023-08-09T10:29:11Z</time><name>PT1228</name></trkpt>
<trkpt lat="54.529146" lon="-3.024599"><ele>906</ele><time>2023-08-09T10:29:15Z</time><name>PT1229</name></trkpt>
<trkpt lat="54.529130" lon="-3.024550"><ele>905</ele><time>2023-08-09T10:29:18Z</time><name>PT1230</name></trkpt>
<trkpt lat="54.529105" lon="-3.024476"><ele>905</ele><time>2023-08-09T10:29:22Z</time><name>PT1231</name></trkpt>
<trkpt lat="54.529095" lon="-3.024398"><ele>905</ele><time>2023-08-09T10:29:26Z</time><name>PT1232</name></trkpt>
<trkpt lat="54.529086" lon="-3.024338"><ele>906</ele><time>2023-08-09T10:29:29Z</time><name>PT1233</name></trkpt>
<trkpt lat="54.529080" lon="-3.024293"><ele>906</ele><time>2023-08-09T10:29:32Z</time><name>PT1234</name></trkpt>
<trkpt lat="54.529075" lon="-3.024246"><ele>907</ele><time>2023-08-09T10:29:35Z</time><name>PT1235</name></trkpt>
<trkpt lat="54.529070" lon="-3.024188"><ele>909</ele><time>2023-08-09T10:29:39Z</time><name>PT1236</name></trkpt>
<trkpt lat="54.529061" lon="-3.024145"><ele>911</ele><time>2023-08-09T10:29:42Z</time><name>PT1237</name></trkpt>
<trkpt lat="54.529052" lon="-3.024103"><ele>911</ele><time>2023-08-09T10:29:45Z</time><name>PT1238</name></trkpt>
<trkpt lat="54.529040" lon="-3.024030"><ele>912</ele><time>2023-08-09T10:29:49Z</time><name>PT1239</name></trkpt>
<trkpt lat="54.529032" lon="-3.023957"><ele>913</ele><time>2023-08-09T10:29:53Z</time><name>PT1240</name></trkpt>
<trkpt lat="54.529032" lon="-3.023903"><ele>913</ele><time>2023-08-09T10:29:56Z</time><name>PT1241</name></trkpt>
<trkpt lat="54.529026" lon="-3.023839"><ele>915</ele><time>2023-08-09T10:30:00Z</time><name>PT1242</name></trkpt>
<trkpt lat="54.529013" lon="-3.023773"><ele>915</ele><time>2023-08-09T10:30:04Z</time><name>PT1243</name></trkpt>
<trkpt lat="54.529008" lon="-3.023694"><ele>914</ele><time>2023-08-09T10:30:08Z</time><name>PT1244</name></trkpt>
<trkpt lat="54.528999" lon="-3.023639"><ele>914</ele><time>2023-08-09T10:30:11Z</time><name>PT1245</name></trkpt>
<trkpt lat="54.528989" lon="-3.023578"><ele>914</ele><time>2023-08-09T10:30:14Z</time><name>PT1246</name></trkpt>
<trkpt lat="54.528975" lon="-3.023500"><ele>914</ele><time>2023-08-09T10:30:18Z</time><name>PT1247</name></trkpt>
<trkpt lat="54.528963" lon="-3.023447"><ele>913</ele><time>2023-08-09T10:30:21Z</time><name>PT1248</name></trkpt>
<trkpt lat="54.528951" lon="-3.023374"><ele>914</ele><time>2023-08-09T10:30:25Z</time><name>PT1249</name></trkpt>
<trkpt lat="54.528941" lon="-3.023320"><ele>914</ele><time>2023-08-09T10:30:28Z</time><name>PT1250</name></trkpt>
<trkpt lat="54.528931" lon="-3.023243"><ele>916</ele><time>2023-08-09T10:30:32Z</time><name>PT1251</name></trkpt>
<trkpt lat="54.528912" lon="-3.023184"><ele>917</ele><time>2023-08-09T10:30:36Z</time><name>PT1252</name></trkpt>
<trkpt lat="54.528904" lon="-3.023137"><ele>918</ele><time>2023-08-09T10:30:39Z</time><name>PT1253</name></trkpt>
<trkpt lat="54.528889" lon="-3.023070"><ele>919</ele><time>2023-08-09T10:30:43Z</time><name>PT1254</name></trkpt>
<trkpt lat="54.528876" lon="-3.023022"><ele>920</ele><time>2023-08-09T10:30:46Z</time><name>PT1255</name></trkpt>
<trkpt lat="54.528868" lon="-3.022965"><ele>920</ele><time>2023-08-09T10:30:50Z</time><name>PT1256</name></trkpt>
<trkpt lat="54.528847" lon="-3.022900"><ele>921</ele><time>2023-08-09T10:30:54Z</time><name>PT1257</name></trkpt>
<trkpt lat="54.528825" lon="-3.022860"><ele>923</ele><time>2023-08-09T10:30:57Z</time><name>PT1258</name></trkpt>
<trkpt lat="54.528810" lon="-3.022827"><ele>923</ele><time>2023-08-09T10:31:00Z</time><name>PT1259</name></trkpt>
<trkpt lat="54.528807" lon="-3.022787"><ele>923</ele><time>2023-08-09T10:31:03Z</time><name>PT1260</name></trkpt>
<trkpt lat="54.528797" lon="-3.022733"><ele>925</ele><time>2023-08-09T10:31:07Z</time><name>PT1261</name></trkpt>
<trkpt lat="54.528784" lon="-3.022688"><ele>925</ele><time>2023-08-09T10:31:10Z</time><name>PT1262</name></trkpt>
<trkpt lat="54.528768" lon="-3.022640"><ele>926</ele><time>2023-08-09T10:31:14Z</time><name>PT1263</name></trkpt>
<trkpt lat="54.528765" lon="-3.022597"><ele>926</ele><time>2023-08-09T10:31:17Z</time><name>PT1264</name></trkpt>
<trkpt lat="54.528760" lon="-3.022548"><ele>926</ele><time>2023-08-09T10:31:20Z</time><name>PT1265</name></trkpt>
<trkpt lat="54.528748" lon="-3.022504"><ele>926</ele><time>2023-08-09T10:31:23Z</time><name>PT1266</name></trkpt>
<trkpt lat="54.528744" lon="-3.022438"><ele>926</ele><time>2023-08-09T10:31:27Z</time><name>PT1267</name></trkpt>
<trkpt lat="54.528732" lon="-3.022390"><ele>927</ele><time>2023-08-09T10:31:30Z</time><name>PT1268</name></trkpt>
<trkpt lat="54.528720" lon="-3.022319"><ele>927</ele><time>2023-08-09T10:31:34Z</time><name>PT1269</name></trkpt>
<trkpt lat="54.528706" lon="-3.022270"><ele>927</ele><time>2023-08-09T10:31:37Z</time><name>PT1270</name></trkpt>
<trkpt lat="54.528690" lon="-3.022194"><ele>927</ele><time>2023-08-09T10:31:41Z</time><name>PT1271</name></trkpt>
<trkpt lat="54.528677" lon="-3.022133"><ele>928</ele><time>2023-08-09T10:31:45Z</time><name>PT1272</name></trkpt>
<trkpt lat="54.528663" lon="-3.022066"><ele>929</ele><time>2023-08-09T10:31:49Z</time><name>PT1273</name></trkpt>
<trkpt lat="54.528649" lon="-3.022017"><ele>929</ele><time>2023-08-09T10:31:52Z</time><name>PT1274</name></trkpt>
<trkpt lat="54.528638" lon="-3.021949"><ele>929</ele><time>2023-08-09T10:31:56Z</time><name>PT1275</name></trkpt>
<trkpt lat="54.528622" lon="-3.021894"><ele>930</ele><time>2023-08-09T10:32:00Z</time><name>PT1276</name></trkpt>
<trkpt lat="54.528611" lon="-3.021851"><ele>931</ele><time>2023-08-09T10:32:03Z</time><name>PT1277</name></trkpt>
<trkpt lat="54.528596" lon="-3.021800"><ele>931</ele><time>2023-08-09T10:32:06Z</time><name>PT1278</name></trkpt>
<trkpt lat="54.528589" lon="-3.021728"><ele>931</ele><time>2023-08-09T10:32:10Z</time><name>PT1279</name></trkpt>
<trkpt lat="54.528581" lon="-3.021648"><ele>931</ele><time>2023-08-09T10:32:14Z</time><name>PT1280</name></trkpt>
<trkpt lat="54.528577" lon="-3.021590"><ele>931</ele><time>2023-08-09T10:32:17Z</time><name>PT1281</name></trkpt>
<trkpt lat="54.528573" lon="-3.021538"><ele>932</ele><time>2023-08-09T10:32:20Z</time><name>PT1282</name></trkpt>
<trkpt lat="54.528566" lon="-3.021481"><ele>932</ele><time>2023-08-09T10:32:23Z</time><name>PT1283</name></trkpt>
<trkpt lat="54.528557" lon="-3.021412"><ele>932</ele><time>2023-08-09T10:32:27Z</time><name>PT1284</name></trkpt>
<trkpt lat="54.528550" lon="-3.021338"><ele>932</ele><time>2023-08-09T10:32:31Z</time><name>PT1285</name></trkpt>
<trkpt lat="54.528547" lon="-3.021284"><ele>932</ele><time>2023-08-09T10:32:34Z</time><name>PT1286</name></trkpt>
<trkpt lat="54.528542" lon="-3.021207"><ele>932</ele><time>2023-08-09T10:32:38Z</time><name>PT1287</name></trkpt>
<trkpt lat="54.528538" lon="-3.021152"><ele>932</ele><time>2023-08-09T10:32:41Z</time><name>PT1288</name></trkpt>
<trkpt lat="54.528537" lon="-3.021086"><ele>932</ele><time>2023-08-09T10:32:44Z</time><name>PT1289</name></trkpt>
<trkpt lat="54.528529" lon="-3.021020"><ele>932</ele><time>2023-08-09T10:32:48Z</time><name>PT1290</name></trkpt>
<trkpt lat="54.528526" lon="-3.020952"><ele>933</ele><time>2023-08-09T10:32:52Z</time><name>PT1291</name></trkpt>
<trkpt lat="54.528524" lon="-3.020886"><ele>934</ele><time>2023-08-09T10:32:56Z</time><name>PT1292</name></trkpt>
<trkpt lat="54.528516" lon="-3.020817"><ele>934</ele><time>2023-08-09T10:33:00Z</time><name>PT1293</name></trkpt>
<trkpt lat="54.528511" lon="-3.020745"><ele>935</ele><time>2023-08-09T10:33:04Z</time><name>PT1294</name></trkpt>
<trkpt lat="54.528507" lon="-3.020686"><ele>936</ele><time>2023-08-09T10:33:07Z</time><name>PT1295</name></trkpt>
<trkpt lat="54.528506" lon="-3.020633"><ele>938</ele><time>2023-08-09T10:33:10Z</time><name>PT1296</name></trkpt>
<trkpt lat="54.528505" lon="-3.020551"><ele>938</ele><time>2023-08-09T10:33:14Z</time><name>PT1297</name></trkpt>
<trkpt lat="54.528505" lon="-3.020498"><ele>939</ele><time>2023-08-09T10:33:17Z</time><name>PT1298</name></trkpt>
<trkpt lat="54.528502" lon="-3.020428"><ele>940</ele><time>2023-08-09T10:33:21Z</time><name>PT1299</name></trkpt>
<trkpt lat="54.528500" lon="-3.020375"><ele>940</ele><time>2023-08-09T10:33:24Z</time><name>PT1300</name></trkpt>
<trkpt lat="54.528497" lon="-3.020302"><ele>941</ele><time>2023-08-09T10:33:28Z</time><name>PT1301</name></trkpt>
<trkpt lat="54.528495" lon="-3.020235"><ele>942</ele><time>2023-08-09T10:33:32Z</time><name>PT1302</name></trkpt>
<trkpt lat="54.528499" lon="-3.020177"><ele>942</ele><time>2023-08-09T10:33:35Z</time><name>PT1303</name></trkpt>
<trkpt lat="54.528500" lon="-3.020103"><ele>944</ele><time>2023-08-09T10:33:39Z</time><name>PT1304</name></trkpt>
<trkpt lat="54.528494" lon="-3.020031"><ele>944</ele><time>2023-08-09T10:33:43Z</time><name>PT1305</name></trkpt>
<trkpt lat="54.528492" lon="-3.019969"><ele>945</ele><time>2023-08-09T10:33:46Z</time><name>PT1306</name></trkpt>
<trkpt lat="54.528489" lon="-3.019879"><ele>944</ele><time>2023-08-09T10:33:50Z</time><name>PT1307</name></trkpt>
<trkpt lat="54.528478" lon="-3.019824"><ele>944</ele><time>2023-08-09T10:33:53Z</time><name>PT1308</name></trkpt>
<trkpt lat="54.528462" lon="-3.019760"><ele>943</ele><time>2023-08-09T10:33:57Z</time><name>PT1309</name></trkpt>
<trkpt lat="54.528459" lon="-3.019707"><ele>944</ele><time>2023-08-09T10:34:00Z</time><name>PT1310</name></trkpt>
<trkpt lat="54.528462" lon="-3.019636"><ele>945</ele><time>2023-08-09T10:34:04Z</time><name>PT1311</name></trkpt>
<trkpt lat="54.528463" lon="-3.019569"><ele>946</ele><time>2023-08-09T10:34:08Z</time><name>PT1312</name></trkpt>
<trkpt lat="54.528464" lon="-3.019516"><ele>947</ele><time>2023-08-09T10:34:11Z</time><name>PT1313</name></trkpt>
<trkpt lat="54.528453" lon="-3.019456"><ele>948</ele><time>2023-08-09T10:34:15Z</time><name>PT1314</name></trkpt>
<trkpt lat="54.528432" lon="-3.019399"><ele>948</ele><time>2023-08-09T10:34:19Z</time><name>PT1315</name></trkpt>
<trkpt lat="54.528406" lon="-3.019362"><ele>948</ele><time>2023-08-09T10:34:22Z</time><name>PT1316</name></trkpt>
<trkpt lat="54.528379" lon="-3.019320"><ele>948</ele><time>2023-08-09T10:34:25Z</time><name>PT1317</name></trkpt>
<trkpt lat="54.528347" lon="-3.019293"><ele>949</ele><time>2023-08-09T10:34:28Z</time><name>PT1318</name></trkpt>
<trkpt lat="54.528318" lon="-3.019274"><ele>949</ele><time>2023-08-09T10:34:31Z</time><name>PT1319</name></trkpt>
<trkpt lat="54.528272" lon="-3.019250"><ele>950</ele><time>2023-08-09T10:34:35Z</time><name>PT1320</name></trkpt>
<trkpt lat="54.528236" lon="-3.019231"><ele>950</ele><time>2023-08-09T10:34:38Z</time><name>PT1321</name></trkpt>
<trkpt lat="54.528190" lon="-3.019203"><ele>951</ele><time>2023-08-09T10:34:42Z</time><name>PT1322</name></trkpt>
<trkpt lat="54.528153" lon="-3.019175"><ele>952</ele><time>2023-08-09T10:34:45Z</time><name>PT1323</name></trkpt>
<trkpt lat="54.528120" lon="-3.019158"><ele>952</ele><time>2023-08-09T10:34:48Z</time><name>PT1324</name></trkpt>
<trkpt lat="54.528089" lon="-3.019139"><ele>952</ele><time>2023-08-09T10:34:51Z</time><name>PT1325</name></trkpt>
<trkpt lat="54.528055" lon="-3.019097"><ele>952</ele><time>2023-08-09T10:34:55Z</time><name>PT1326</name></trkpt>
<trkpt lat="54.528041" lon="-3.019073"><ele>952</ele><time>2023-08-09T10:34:58Z</time><name>PT1327</name></trkpt>
<trkpt lat="54.528033" lon="-3.019063"><ele>952</ele><time>2023-08-09T10:35:02Z</time><name>PT1328</name></trkpt>
<trkpt lat="54.528027" lon="-3.019061"><ele>952</ele><time>2023-08-09T10:35:09Z</time><name>PT1329</name></trkpt>
<trkpt lat="54.527991" lon="-3.019074"><ele>952</ele><time>2023-08-09T10:35:12Z</time><name>PT1330</name></trkpt>
<trkpt lat="54.527954" lon="-3.019080"><ele>951</ele><time>2023-08-09T10:35:15Z</time><name>PT1331</name></trkpt>
<trkpt lat="54.527905" lon="-3.019069"><ele>951</ele><time>2023-08-09T10:35:19Z</time><name>PT1332</name></trkpt>
<trkpt lat="54.527857" lon="-3.019048"><ele>951</ele><time>2023-08-09T10:35:23Z</time><name>PT1333</name></trkpt>
<trkpt lat="54.527814" lon="-3.019032"><ele>952</ele><time>2023-08-09T10:35:27Z</time><name>PT1334</name></trkpt>
<trkpt lat="54.527779" lon="-3.019010"><ele>952</ele><time>2023-08-09T10:35:30Z</time><name>PT1335</name></trkpt>
<trkpt lat="54.527746" lon="-3.018985"><ele>952</ele><time>2023-08-09T10:35:33Z</time><name>PT1336</name></trkpt>
<trkpt lat="54.527705" lon="-3.018956"><ele>952</ele><time>2023-08-09T10:35:37Z</time><name>PT1337</name></trkpt>
<trkpt lat="54.527660" lon="-3.018925"><ele>952</ele><time>2023-08-09T10:35:41Z</time><name>PT1338</name></trkpt>
<trkpt lat="54.527621" lon="-3.018889"><ele>952</ele><time>2023-08-09T10:35:45Z</time><name>PT1339</name></trkpt>
<trkpt lat="54.527593" lon="-3.018861"><ele>952</ele><time>2023-08-09T10:35:48Z</time><name>PT1340</name></trkpt>
<trkpt lat="54.527551" lon="-3.018822"><ele>953</ele><time>2023-08-09T10:35:52Z</time><name>PT1341</name></trkpt>
<trkpt lat="54.527523" lon="-3.018804"><ele>953</ele><time>2023-08-09T10:35:55Z</time><name>PT1342</name></trkpt>
<trkpt lat="54.527500" lon="-3.018783"><ele>953</ele><time>2023-08-09T10:35:58Z</time><name>PT1343</name></trkpt>
<trkpt lat="54.527469" lon="-3.018753"><ele>954</ele><time>2023-08-09T10:36:02Z</time><name>PT1344</name></trkpt>
<trkpt lat="54.527451" lon="-3.018727"><ele>953</ele><time>2023-08-09T10:36:05Z</time><name>PT1345</name></trkpt>
<trkpt lat="54.527436" lon="-3.018703"><ele>953</ele><time>2023-08-09T10:36:09Z</time><name>PT1346</name></trkpt>
<trkpt lat="54.527434" lon="-3.018696"><ele>953</ele><time>2023-08-09T10:36:12Z</time><name>PT1347</name></trkpt>
<trkpt lat="54.527433" lon="-3.018693"><ele>953</ele><time>2023-08-09T10:36:16Z</time><name>PT1348</name></trkpt>
<trkpt lat="54.527430" lon="-3.018681"><ele>953</ele><time>2023-08-09T10:36:27Z</time><name>PT1349</name></trkpt>
<trkpt lat="54.527429" lon="-3.018681"><ele>953</ele><time>2023-08-09T10:36:30Z</time><name>PT1350</name></trkpt>
<trkpt lat="54.527432" lon="-3.018676"><ele>953</ele><time>2023-08-09T10:36:33Z</time><name>PT1351</name></trkpt>
<trkpt lat="54.527436" lon="-3.018673"><ele>953</ele><time>2023-08-09T10:36:37Z</time><name>PT1352</name></trkpt>
<trkpt lat="54.527418" lon="-3.018668"><ele>953</ele><time>2023-08-09T10:36:43Z</time><name>PT1353</name></trkpt>
<trkpt lat="54.527399" lon="-3.018660"><ele>953</ele><time>2023-08-09T10:36:47Z</time><name>PT1354</name></trkpt>
<trkpt lat="54.527384" lon="-3.018649"><ele>954</ele><time>2023-08-09T10:36:50Z</time><name>PT1355</name></trkpt>
<trkpt lat="54.527349" lon="-3.018620"><ele>954</ele><time>2023-08-09T10:36:54Z</time><name>PT1356</name></trkpt>
<trkpt lat="54.527322" lon="-3.018605"><ele>954</ele><time>2023-08-09T10:36:57Z</time><name>PT1357</name></trkpt>
<trkpt lat="54.527282" lon="-3.018576"><ele>954</ele><time>2023-08-09T10:37:01Z</time><name>PT1358</name></trkpt>
<trkpt lat="54.527259" lon="-3.018546"><ele>954</ele><time>2023-08-09T10:37:04Z</time><name>PT1359</name></trkpt>
<trkpt lat="54.527240" lon="-3.018518"><ele>954</ele><time>2023-08-09T10:37:07Z</time><name>PT1360</name></trkpt>
<trkpt lat="54.527209" lon="-3.018472"><ele>954</ele><time>2023-08-09T10:37:11Z</time><name>PT1361</name></trkpt>
<trkpt lat="54.527174" lon="-3.018431"><ele>956</ele><time>2023-08-09T10:37:15Z</time><name>PT1362</name></trkpt>
<trkpt lat="54.527151" lon="-3.018403"><ele>955</ele><time>2023-08-09T10:37:18Z</time><name>PT1363</name></trkpt>
<trkpt lat="54.527126" lon="-3.018362"><ele>955</ele><time>2023-08-09T10:37:21Z</time><name>PT1364</name></trkpt>
<trkpt lat="54.527104" lon="-3.018320"><ele>955</ele><time>2023-08-09T10:37:25Z</time><name>PT1365</name></trkpt>
<trkpt lat="54.527091" lon="-3.018285"><ele>955</ele><time>2023-08-09T10:37:28Z</time><name>PT1366</name></trkpt>
<trkpt lat="54.527098" lon="-3.018243"><ele>954</ele><time>2023-08-09T10:37:32Z</time><name>PT1367</name></trkpt>
<trkpt lat="54.527115" lon="-3.018197"><ele>953</ele><time>2023-08-09T10:37:36Z</time><name>PT1368</name></trkpt>
<trkpt lat="54.527120" lon="-3.018179"><ele>952</ele><time>2023-08-09T10:37:39Z</time><name>PT1369</name></trkpt>
<trkpt lat="54.527122" lon="-3.018163"><ele>952</ele><time>2023-08-09T10:37:42Z</time><name>PT1370</name></trkpt>
<trkpt lat="54.527123" lon="-3.018158"><ele>952</ele><time>2023-08-09T10:37:49Z</time><name>PT1371</name></trkpt>
<trkpt lat="54.527123" lon="-3.018152"><ele>952</ele><time>2023-08-09T10:37:52Z</time><name>PT1372</name></trkpt>
<trkpt lat="54.527118" lon="-3.018140"><ele>952</ele><time>2023-08-09T10:37:56Z</time><name>PT1373</name></trkpt>
<trkpt lat="54.527086" lon="-3.018092"><ele>953</ele><time>2023-08-09T10:38:00Z</time><name>PT1374</name></trkpt>
<trkpt lat="54.527056" lon="-3.018054"><ele>953</ele><time>2023-08-09T10:38:04Z</time><name>PT1375</name></trkpt>
<trkpt lat="54.527031" lon="-3.018028"><ele>953</ele><time>2023-08-09T10:38:08Z</time><name>PT1376</name></trkpt>
<trkpt lat="54.527021" lon="-3.017997"><ele>953</ele><time>2023-08-09T10:38:11Z</time><name>PT1377</name></trkpt>
<trkpt lat="54.527006" lon="-3.017952"><ele>953</ele><time>2023-08-09T10:38:15Z</time><name>PT1378</name></trkpt>
<trkpt lat="54.526991" lon="-3.017905"><ele>952</ele><time>2023-08-09T10:38:18Z</time><name>PT1379</name></trkpt>
<trkpt lat="54.526958" lon="-3.017854"><ele>952</ele><time>2023-08-09T10:38:22Z</time><name>PT1380</name></trkpt>
<trkpt lat="54.526920" lon="-3.017834"><ele>952</ele><time>2023-08-09T10:38:26Z</time><name>PT1381</name></trkpt>
<trkpt lat="54.526895" lon="-3.017795"><ele>952</ele><time>2023-08-09T10:38:30Z</time><name>PT1382</name></trkpt>
<trkpt lat="54.526876" lon="-3.017753"><ele>952</ele><time>2023-08-09T10:38:33Z</time><name>PT1383</name></trkpt>
<trkpt lat="54.526867" lon="-3.017678"><ele>951</ele><time>2023-08-09T10:38:37Z</time><name>PT1384</name></trkpt>
<trkpt lat="54.526862" lon="-3.017603"><ele>950</ele><time>2023-08-09T10:38:41Z</time><name>PT1385</name></trkpt>
<trkpt lat="54.526859" lon="-3.017545"><ele>949</ele><time>2023-08-09T10:38:44Z</time><name>PT1386</name></trkpt>
<trkpt lat="54.526857" lon="-3.017494"><ele>949</ele><time>2023-08-09T10:38:47Z</time><name>PT1387</name></trkpt>
<trkpt lat="54.526853" lon="-3.017447"><ele>949</ele><time>2023-08-09T10:38:50Z</time><name>PT1388</name></trkpt>
<trkpt lat="54.526857" lon="-3.017383"><ele>948</ele><time>2023-08-09T10:38:54Z</time><name>PT1389</name></trkpt>
<trkpt lat="54.526858" lon="-3.017329"><ele>947</ele><time>2023-08-09T10:38:58Z</time><name>PT1390</name></trkpt>
<trkpt lat="54.526848" lon="-3.017308"><ele>946</ele><time>2023-08-09T10:39:01Z</time><name>PT1391</name></trkpt>
<trkpt lat="54.526848" lon="-3.017305"><ele>946</ele><time>2023-08-09T10:39:04Z</time><name>PT1392</name></trkpt>
<trkpt lat="54.526846" lon="-3.017305"><ele>945</ele><time>2023-08-09T10:39:08Z</time><name>PT1393</name></trkpt>
<trkpt lat="54.526845" lon="-3.017306"><ele>944</ele><time>2023-08-09T10:39:11Z</time><name>PT1394</name></trkpt>
<trkpt lat="54.526839" lon="-3.017306"><ele>944</ele><time>2023-08-09T10:41:09Z</time><name>PT1395</name></trkpt>
<trkpt lat="54.526837" lon="-3.017296"><ele>943</ele><time>2023-08-09T10:41:13Z</time><name>PT1396</name></trkpt>
<trkpt lat="54.526829" lon="-3.017299"><ele>942</ele><time>2023-08-09T10:41:38Z</time><name>PT1397</name></trkpt>
<trkpt lat="54.526828" lon="-3.017291"><ele>942</ele><time>2023-08-09T10:41:41Z</time><name>PT1398</name></trkpt>
<trkpt lat="54.526826" lon="-3.017290"><ele>942</ele><time>2023-08-09T10:41:51Z</time><name>PT1399</name></trkpt>
<trkpt lat="54.526823" lon="-3.017318"><ele>942</ele><time>2023-08-09T10:41:55Z</time><name>PT1400</name></trkpt>
<trkpt lat="54.526803" lon="-3.017335"><ele>942</ele><time>2023-08-09T10:41:58Z</time><name>PT1401</name></trkpt>
<trkpt lat="54.526765" lon="-3.017341"><ele>944</ele><time>2023-08-09T10:42:02Z</time><name>PT1402</name></trkpt>
<trkpt lat="54.526740" lon="-3.017356"><ele>944</ele><time>2023-08-09T10:42:05Z</time><name>PT1403</name></trkpt>
<trkpt lat="54.526706" lon="-3.017351"><ele>943</ele><time>2023-08-09T10:42:09Z</time><name>PT1404</name></trkpt>
<trkpt lat="54.526684" lon="-3.017335"><ele>943</ele><time>2023-08-09T10:42:12Z</time><name>PT1405</name></trkpt>
<trkpt lat="54.526653" lon="-3.017294"><ele>942</ele><time>2023-08-09T10:42:16Z</time><name>PT1406</name></trkpt>
<trkpt lat="54.526624" lon="-3.017285"><ele>942</ele><time>2023-08-09T10:42:20Z</time><name>PT1407</name></trkpt>
<trkpt lat="54.526597" lon="-3.017278"><ele>942</ele><time>2023-08-09T10:42:23Z</time><name>PT1408</name></trkpt>
<trkpt lat="54.526566" lon="-3.017273"><ele>943</ele><time>2023-08-09T10:42:26Z</time><name>PT1409</name></trkpt>
<trkpt lat="54.526526" lon="-3.017252"><ele>944</ele><time>2023-08-09T10:42:30Z</time><name>PT1410</name></trkpt>
<trkpt lat="54.526493" lon="-3.017242"><ele>943</ele><time>2023-08-09T10:42:33Z</time><name>PT1411</name></trkpt>
<trkpt lat="54.526461" lon="-3.017223"><ele>943</ele><time>2023-08-09T10:42:36Z</time><name>PT1412</name></trkpt>
<trkpt lat="54.526424" lon="-3.017197"><ele>943</ele><time>2023-08-09T10:42:40Z</time><name>PT1413</name></trkpt>
<trkpt lat="54.526392" lon="-3.017182"><ele>942</ele><time>2023-08-09T10:42:43Z</time><name>PT1414</name></trkpt>
<trkpt lat="54.526354" lon="-3.017165"><ele>941</ele><time>2023-08-09T10:42:47Z</time><name>PT1415</name></trkpt>
<trkpt lat="54.526322" lon="-3.017153"><ele>941</ele><time>2023-08-09T10:42:50Z</time><name>PT1416</name></trkpt>
<trkpt lat="54.526285" lon="-3.017137"><ele>940</ele><time>2023-08-09T10:42:54Z</time><name>PT1417</name></trkpt>
<trkpt lat="54.526252" lon="-3.017127"><ele>940</ele><time>2023-08-09T10:42:57Z</time><name>PT1418</name></trkpt>
<trkpt lat="54.526212" lon="-3.017123"><ele>939</ele><time>2023-08-09T10:43:01Z</time><name>PT1419</name></trkpt>
<trkpt lat="54.526170" lon="-3.017113"><ele>938</ele><time>2023-08-09T10:43:04Z</time><name>PT1420</name></trkpt>
<trkpt lat="54.526140" lon="-3.017101"><ele>937</ele><time>2023-08-09T10:43:07Z</time><name>PT1421</name></trkpt>
<trkpt lat="54.526113" lon="-3.017078"><ele>936</ele><time>2023-08-09T10:43:10Z</time><name>PT1422</name></trkpt>
<trkpt lat="54.526074" lon="-3.017063"><ele>935</ele><time>2023-08-09T10:43:14Z</time><name>PT1423</name></trkpt>
<trkpt lat="54.526031" lon="-3.017055"><ele>935</ele><time>2023-08-09T10:43:18Z</time><name>PT1424</name></trkpt>
<trkpt lat="54.525984" lon="-3.017035"><ele>935</ele><time>2023-08-09T10:43:22Z</time><name>PT1425</name></trkpt>
<trkpt lat="54.525948" lon="-3.017018"><ele>935</ele><time>2023-08-09T10:43:25Z</time><name>PT1426</name></trkpt>
<trkpt lat="54.525901" lon="-3.016997"><ele>935</ele><time>2023-08-09T10:43:29Z</time><name>PT1427</name></trkpt>
<trkpt lat="54.525867" lon="-3.016974"><ele>934</ele><time>2023-08-09T10:43:32Z</time><name>PT1428</name></trkpt>
<trkpt lat="54.525823" lon="-3.016953"><ele>934</ele><time>2023-08-09T10:43:36Z</time><name>PT1429</name></trkpt>
<trkpt lat="54.525786" lon="-3.016937"><ele>933</ele><time>2023-08-09T10:43:39Z</time><name>PT1430</name></trkpt>
<trkpt lat="54.525744" lon="-3.016915"><ele>933</ele><time>2023-08-09T10:43:43Z</time><name>PT1431</name></trkpt>
<trkpt lat="54.525702" lon="-3.016902"><ele>932</ele><time>2023-08-09T10:43:47Z</time><name>PT1432</name></trkpt>
<trkpt lat="54.525666" lon="-3.016872"><ele>931</ele><time>2023-08-09T10:43:51Z</time><name>PT1433</name></trkpt>
<trkpt lat="54.525633" lon="-3.016851"><ele>931</ele><time>2023-08-09T10:43:54Z</time><name>PT1434</name></trkpt>
<trkpt lat="54.525600" lon="-3.016840"><ele>931</ele><time>2023-08-09T10:43:57Z</time><name>PT1435</name></trkpt>
<trkpt lat="54.525562" lon="-3.016804"><ele>931</ele><time>2023-08-09T10:44:01Z</time><name>PT1436</name></trkpt>
<trkpt lat="54.525528" lon="-3.016787"><ele>931</ele><time>2023-08-09T10:44:04Z</time><name>PT1437</name></trkpt>
<trkpt lat="54.525487" lon="-3.016784"><ele>932</ele><time>2023-08-09T10:44:08Z</time><name>PT1438</name></trkpt>
<trkpt lat="54.525456" lon="-3.016772"><ele>930</ele><time>2023-08-09T10:44:11Z</time><name>PT1439</name></trkpt>
<trkpt lat="54.525423" lon="-3.016769"><ele>930</ele><time>2023-08-09T10:44:14Z</time><name>PT1440</name></trkpt>
<trkpt lat="54.525390" lon="-3.016754"><ele>930</ele><time>2023-08-09T10:44:17Z</time><name>PT1441</name></trkpt>
<trkpt lat="54.525346" lon="-3.016737"><ele>929</ele><time>2023-08-09T10:44:21Z</time><name>PT1442</name></trkpt>
<trkpt lat="54.525301" lon="-3.016710"><ele>929</ele><time>2023-08-09T10:44:25Z</time><name>PT1443</name></trkpt>
<trkpt lat="54.525270" lon="-3.016685"><ele>929</ele><time>2023-08-09T10:44:29Z</time><name>PT1444</name></trkpt>
<trkpt lat="54.525237" lon="-3.016652"><ele>928</ele><time>2023-08-09T10:44:33Z</time><name>PT1445</name></trkpt>
<trkpt lat="54.525207" lon="-3.016634"><ele>927</ele><time>2023-08-09T10:44:37Z</time><name>PT1446</name></trkpt>
<trkpt lat="54.525168" lon="-3.016638"><ele>927</ele><time>2023-08-09T10:44:41Z</time><name>PT1447</name></trkpt>
<trkpt lat="54.525124" lon="-3.016645"><ele>925</ele><time>2023-08-09T10:44:45Z</time><name>PT1448</name></trkpt>
<trkpt lat="54.525091" lon="-3.016632"><ele>925</ele><time>2023-08-09T10:44:49Z</time><name>PT1449</name></trkpt>
<trkpt lat="54.525066" lon="-3.016625"><ele>924</ele><time>2023-08-09T10:44:52Z</time><name>PT1450</name></trkpt>
<trkpt lat="54.525035" lon="-3.016619"><ele>924</ele><time>2023-08-09T10:44:55Z</time><name>PT1451</name></trkpt>
<trkpt lat="54.524987" lon="-3.016611"><ele>923</ele><time>2023-08-09T10:44:59Z</time><name>PT1452</name></trkpt>
<trkpt lat="54.524957" lon="-3.016597"><ele>923</ele><time>2023-08-09T10:45:02Z</time><name>PT1453</name></trkpt>
<trkpt lat="54.524911" lon="-3.016587"><ele>922</ele><time>2023-08-09T10:45:06Z</time><name>PT1454</name></trkpt>
<trkpt lat="54.524877" lon="-3.016584"><ele>921</ele><time>2023-08-09T10:45:09Z</time><name>PT1455</name></trkpt>
<trkpt lat="54.524830" lon="-3.016560"><ele>920</ele><time>2023-08-09T10:45:13Z</time><name>PT1456</name></trkpt>
<trkpt lat="54.524803" lon="-3.016546"><ele>919</ele><time>2023-08-09T10:45:16Z</time><name>PT1457</name></trkpt>
<trkpt lat="54.524765" lon="-3.016527"><ele>918</ele><time>2023-08-09T10:45:20Z</time><name>PT1458</name></trkpt>
<trkpt lat="54.524728" lon="-3.016499"><ele>917</ele><time>2023-08-09T10:45:24Z</time><name>PT1459</name></trkpt>
<trkpt lat="54.524687" lon="-3.016487"><ele>915</ele><time>2023-08-09T10:45:28Z</time><name>PT1460</name></trkpt>
<trkpt lat="54.524656" lon="-3.016472"><ele>914</ele><time>2023-08-09T10:45:31Z</time><name>PT1461</name></trkpt>
<trkpt lat="54.524611" lon="-3.016457"><ele>914</ele><time>2023-08-09T10:45:35Z</time><name>PT1462</name></trkpt>
<trkpt lat="54.524569" lon="-3.016453"><ele>913</ele><time>2023-08-09T10:45:39Z</time><name>PT1463</name></trkpt>
<trkpt lat="54.524541" lon="-3.016457"><ele>912</ele><time>2023-08-09T10:45:42Z</time><name>PT1464</name></trkpt>
<trkpt lat="54.524513" lon="-3.016448"><ele>912</ele><time>2023-08-09T10:45:45Z</time><name>PT1465</name></trkpt>
<trkpt lat="54.524478" lon="-3.016429"><ele>910</ele><time>2023-08-09T10:45:49Z</time><name>PT1466</name></trkpt>
<trkpt lat="54.524449" lon="-3.016414"><ele>910</ele><time>2023-08-09T10:45:52Z</time><name>PT1467</name></trkpt>
<trkpt lat="54.524422" lon="-3.016399"><ele>909</ele><time>2023-08-09T10:45:55Z</time><name>PT1468</name></trkpt>
<trkpt lat="54.524380" lon="-3.016388"><ele>909</ele><time>2023-08-09T10:45:59Z</time><name>PT1469</name></trkpt>
<trkpt lat="54.524343" lon="-3.016378"><ele>909</ele><time>2023-08-09T10:46:02Z</time><name>PT1470</name></trkpt>
<trkpt lat="54.524306" lon="-3.016381"><ele>909</ele><time>2023-08-09T10:46:06Z</time><name>PT1471</name></trkpt>
<trkpt lat="54.524271" lon="-3.016388"><ele>910</ele><time>2023-08-09T10:46:09Z</time><name>PT1472</name></trkpt>
<trkpt lat="54.524237" lon="-3.016393"><ele>910</ele><time>2023-08-09T10:46:12Z</time><name>PT1473</name></trkpt>
<trkpt lat="54.524195" lon="-3.016384"><ele>908</ele><time>2023-08-09T10:46:16Z</time><name>PT1474</name></trkpt>
<trkpt lat="54.524148" lon="-3.016385"><ele>908</ele><time>2023-08-09T10:46:20Z</time><name>PT1475</name></trkpt>
<trkpt lat="54.524110" lon="-3.016379"><ele>907</ele><time>2023-08-09T10:46:23Z</time><name>PT1476</name></trkpt>
<trkpt lat="54.524067" lon="-3.016359"><ele>907</ele><time>2023-08-09T10:46:27Z</time><name>PT1477</name></trkpt>
<trkpt lat="54.524039" lon="-3.016334"><ele>906</ele><time>2023-08-09T10:46:30Z</time><name>PT1478</name></trkpt>
<trkpt lat="54.523995" lon="-3.016324"><ele>906</ele><time>2023-08-09T10:46:34Z</time><name>PT1479</name></trkpt>
<trkpt lat="54.523950" lon="-3.016314"><ele>905</ele><time>2023-08-09T10:46:38Z</time><name>PT1480</name></trkpt>
<trkpt lat="54.523920" lon="-3.016304"><ele>906</ele><time>2023-08-09T10:46:41Z</time><name>PT1481</name></trkpt>
<trkpt lat="54.523872" lon="-3.016306"><ele>906</ele><time>2023-08-09T10:46:45Z</time><name>PT1482</name></trkpt>
<trkpt lat="54.523839" lon="-3.016289"><ele>904</ele><time>2023-08-09T10:46:48Z</time><name>PT1483</name></trkpt>
<trkpt lat="54.523796" lon="-3.016280"><ele>902</ele><time>2023-08-09T10:46:52Z</time><name>PT1484</name></trkpt>
<trkpt lat="54.523759" lon="-3.016283"><ele>902</ele><time>2023-08-09T10:46:55Z</time><name>PT1485</name></trkpt>
<trkpt lat="54.523713" lon="-3.016293"><ele>903</ele><time>2023-08-09T10:46:59Z</time><name>PT1486</name></trkpt>
<trkpt lat="54.523681" lon="-3.016268"><ele>903</ele><time>2023-08-09T10:47:02Z</time><name>PT1487</name></trkpt>
<trkpt lat="54.523651" lon="-3.016253"><ele>903</ele><time>2023-08-09T10:47:05Z</time><name>PT1488</name></trkpt>
<trkpt lat="54.523620" lon="-3.016232"><ele>902</ele><time>2023-08-09T10:47:08Z</time><name>PT1489</name></trkpt>
<trkpt lat="54.523578" lon="-3.016237"><ele>900</ele><time>2023-08-09T10:47:12Z</time><name>PT1490</name></trkpt>
<trkpt lat="54.523554" lon="-3.016226"><ele>899</ele><time>2023-08-09T10:47:15Z</time><name>PT1491</name></trkpt>
<trkpt lat="54.523520" lon="-3.016221"><ele>898</ele><time>2023-08-09T10:47:19Z</time><name>PT1492</name></trkpt>
<trkpt lat="54.523499" lon="-3.016221"><ele>898</ele><time>2023-08-09T10:47:22Z</time><name>PT1493</name></trkpt>
<trkpt lat="54.523483" lon="-3.016211"><ele>898</ele><time>2023-08-09T10:47:26Z</time><name>PT1494</name></trkpt>
<trkpt lat="54.523483" lon="-3.016211"><ele>898</ele><time>2023-08-09T10:47:30Z</time><name>PT1495</name></trkpt>
<trkpt lat="54.523470" lon="-3.016210"><ele>898</ele><time>2023-08-09T10:47:33Z</time><name>PT1496</name></trkpt>
<trkpt lat="54.523422" lon="-3.016212"><ele>897</ele><time>2023-08-09T10:47:37Z</time><name>PT1497</name></trkpt>
<trkpt lat="54.523383" lon="-3.016218"><ele>897</ele><time>2023-08-09T10:47:40Z</time><name>PT1498</name></trkpt>
<trkpt lat="54.523336" lon="-3.016225"><ele>897</ele><time>2023-08-09T10:47:44Z</time><name>PT1499</name></trkpt>
<trkpt lat="54.523302" lon="-3.016228"><ele>897</ele><time>2023-08-09T10:47:47Z</time><name>PT1500</name></trkpt>
<trkpt lat="54.523256" lon="-3.016246"><ele>896</ele><time>2023-08-09T10:47:51Z</time><name>PT1501</name></trkpt>
<trkpt lat="54.523214" lon="-3.016255"><ele>895</ele><time>2023-08-09T10:47:55Z</time><name>PT1502</name></trkpt>
<trkpt lat="54.523178" lon="-3.016260"><ele>895</ele><time>2023-08-09T10:47:58Z</time><name>PT1503</name></trkpt>
<trkpt lat="54.523131" lon="-3.016281"><ele>894</ele><time>2023-08-09T10:48:02Z</time><name>PT1504</name></trkpt>
<trkpt lat="54.523097" lon="-3.016289"><ele>893</ele><time>2023-08-09T10:48:05Z</time><name>PT1505</name></trkpt>
<trkpt lat="54.523062" lon="-3.016280"><ele>892</ele><time>2023-08-09T10:48:09Z</time><name>PT1506</name></trkpt>
<trkpt lat="54.523022" lon="-3.016297"><ele>891</ele><time>2023-08-09T10:48:13Z</time><name>PT1507</name></trkpt>
<trkpt lat="54.522982" lon="-3.016319"><ele>890</ele><time>2023-08-09T10:48:17Z</time><name>PT1508</name></trkpt>
<trkpt lat="54.522943" lon="-3.016327"><ele>890</ele><time>2023-08-09T10:48:21Z</time><name>PT1509</name></trkpt>
<trkpt lat="54.522910" lon="-3.016329"><ele>889</ele><time>2023-08-09T10:48:24Z</time><name>PT1510</name></trkpt>
<trkpt lat="54.522884" lon="-3.016336"><ele>888</ele><time>2023-08-09T10:48:27Z</time><name>PT1511</name></trkpt>
<trkpt lat="54.522856" lon="-3.016340"><ele>888</ele><time>2023-08-09T10:48:30Z</time><name>PT1512</name></trkpt>
<trkpt lat="54.522822" lon="-3.016363"><ele>887</ele><time>2023-08-09T10:48:34Z</time><name>PT1513</name></trkpt>
<trkpt lat="54.522793" lon="-3.016374"><ele>886</ele><time>2023-08-09T10:48:37Z</time><name>PT1514</name></trkpt>
<trkpt lat="54.522760" lon="-3.016376"><ele>886</ele><time>2023-08-09T10:48:40Z</time><name>PT1515</name></trkpt>
<trkpt lat="54.522722" lon="-3.016395"><ele>885</ele><time>2023-08-09T10:48:44Z</time><name>PT1516</name></trkpt>
<trkpt lat="54.522693" lon="-3.016406"><ele>884</ele><time>2023-08-09T10:48:47Z</time><name>PT1517</name></trkpt>
<trkpt lat="54.522661" lon="-3.016416"><ele>884</ele><time>2023-08-09T10:48:50Z</time><name>PT1518</name></trkpt>
<trkpt lat="54.522626" lon="-3.016428"><ele>885</ele><time>2023-08-09T10:48:53Z</time><name>PT1519</name></trkpt>
<trkpt lat="54.522573" lon="-3.016432"><ele>885</ele><time>2023-08-09T10:48:57Z</time><name>PT1520</name></trkpt>
<trkpt lat="54.522540" lon="-3.016437"><ele>885</ele><time>2023-08-09T10:49:00Z</time><name>PT1521</name></trkpt>
<trkpt lat="54.522504" lon="-3.016444"><ele>884</ele><time>2023-08-09T10:49:03Z</time><name>PT1522</name></trkpt>
<trkpt lat="54.522458" lon="-3.016445"><ele>884</ele><time>2023-08-09T10:49:07Z</time><name>PT1523</name></trkpt>
<trkpt lat="54.522427" lon="-3.016464"><ele>884</ele><time>2023-08-09T10:49:10Z</time><name>PT1524</name></trkpt>
<trkpt lat="54.522398" lon="-3.016481"><ele>883</ele><time>2023-08-09T10:49:13Z</time><name>PT1525</name></trkpt>
<trkpt lat="54.522356" lon="-3.016498"><ele>882</ele><time>2023-08-09T10:49:17Z</time><name>PT1526</name></trkpt>
<trkpt lat="54.522328" lon="-3.016513"><ele>882</ele><time>2023-08-09T10:49:20Z</time><name>PT1527</name></trkpt>
<trkpt lat="54.522285" lon="-3.016534"><ele>881</ele><time>2023-08-09T10:49:24Z</time><name>PT1528</name></trkpt>
<trkpt lat="54.522252" lon="-3.016536"><ele>881</ele><time>2023-08-09T10:49:27Z</time><name>PT1529</name></trkpt>
<trkpt lat="54.522202" lon="-3.016535"><ele>881</ele><time>2023-08-09T10:49:31Z</time><name>PT1530</name></trkpt>
<trkpt lat="54.522169" lon="-3.016538"><ele>881</ele><time>2023-08-09T10:49:34Z</time><name>PT1531</name></trkpt>
<trkpt lat="54.522121" lon="-3.016549"><ele>881</ele><time>2023-08-09T10:49:38Z</time><name>PT1532</name></trkpt>
<trkpt lat="54.522079" lon="-3.016547"><ele>881</ele><time>2023-08-09T10:49:42Z</time><name>PT1533</name></trkpt>
<trkpt lat="54.522042" lon="-3.016561"><ele>880</ele><time>2023-08-09T10:49:45Z</time><name>PT1534</name></trkpt>
<trkpt lat="54.522003" lon="-3.016573"><ele>880</ele><time>2023-08-09T10:49:49Z</time><name>PT1535</name></trkpt>
<trkpt lat="54.521959" lon="-3.016582"><ele>879</ele><time>2023-08-09T10:49:53Z</time><name>PT1536</name></trkpt>
<trkpt lat="54.521928" lon="-3.016588"><ele>879</ele><time>2023-08-09T10:49:56Z</time><name>PT1537</name></trkpt>
<trkpt lat="54.521896" lon="-3.016597"><ele>878</ele><time>2023-08-09T10:49:59Z</time><name>PT1538</name></trkpt>
<trkpt lat="54.521858" lon="-3.016615"><ele>877</ele><time>2023-08-09T10:50:03Z</time><name>PT1539</name></trkpt>
<trkpt lat="54.521827" lon="-3.016621"><ele>877</ele><time>2023-08-09T10:50:06Z</time><name>PT1540</name></trkpt>
<trkpt lat="54.521783" lon="-3.016632"><ele>876</ele><time>2023-08-09T10:50:10Z</time><name>PT1541</name></trkpt>
<trkpt lat="54.521752" lon="-3.016627"><ele>875</ele><time>2023-08-09T10:50:13Z</time><name>PT1542</name></trkpt>
<trkpt lat="54.521742" lon="-3.016596"><ele>874</ele><time>2023-08-09T10:50:16Z</time><name>PT1543</name></trkpt>
<trkpt lat="54.521738" lon="-3.016593"><ele>874</ele><time>2023-08-09T10:50:19Z</time><name>PT1544</name></trkpt>
<trkpt lat="54.521736" lon="-3.016599"><ele>874</ele><time>2023-08-09T10:50:23Z</time><name>PT1545</name></trkpt>
<trkpt lat="54.521732" lon="-3.016605"><ele>873</ele><time>2023-08-09T10:50:27Z</time><name>PT1546</name></trkpt>
<trkpt lat="54.521727" lon="-3.016587"><ele>873</ele><time>2023-08-09T10:50:52Z</time><name>PT1547</name></trkpt>
<trkpt lat="54.521708" lon="-3.016619"><ele>873</ele><time>2023-08-09T10:50:56Z</time><name>PT1548</name></trkpt>
<trkpt lat="54.521675" lon="-3.016613"><ele>873</ele><time>2023-08-09T10:51:00Z</time><name>PT1549</name></trkpt>
<trkpt lat="54.521627" lon="-3.016627"><ele>874</ele><time>2023-08-09T10:51:04Z</time><name>PT1550</name></trkpt>
<trkpt lat="54.521588" lon="-3.016605"><ele>873</ele><time>2023-08-09T10:51:07Z</time><name>PT1551</name></trkpt>
<trkpt lat="54.521552" lon="-3.016572"><ele>872</ele><time>2023-08-09T10:51:11Z</time><name>PT1552</name></trkpt>
<trkpt lat="54.521543" lon="-3.016553"><ele>873</ele><time>2023-08-09T10:51:14Z</time><name>PT1553</name></trkpt>
<trkpt lat="54.521544" lon="-3.016553"><ele>873</ele><time>2023-08-09T10:51:18Z</time><name>PT1554</name></trkpt>
<trkpt lat="54.521528" lon="-3.016558"><ele>873</ele><time>2023-08-09T10:51:27Z</time><name>PT1555</name></trkpt>
<trkpt lat="54.521479" lon="-3.016567"><ele>873</ele><time>2023-08-09T10:51:31Z</time><name>PT1556</name></trkpt>
<trkpt lat="54.521430" lon="-3.016583"><ele>873</ele><time>2023-08-09T10:51:35Z</time><name>PT1557</name></trkpt>
<trkpt lat="54.521395" lon="-3.016589"><ele>873</ele><time>2023-08-09T10:51:38Z</time><name>PT1558</name></trkpt>
<trkpt lat="54.521349" lon="-3.016591"><ele>872</ele><time>2023-08-09T10:51:42Z</time><name>PT1559</name></trkpt>
<trkpt lat="54.521311" lon="-3.016590"><ele>871</ele><time>2023-08-09T10:51:45Z</time><name>PT1560</name></trkpt>
<trkpt lat="54.521275" lon="-3.016577"><ele>870</ele><time>2023-08-09T10:51:48Z</time><name>PT1561</name></trkpt>
<trkpt lat="54.521245" lon="-3.016595"><ele>870</ele><time>2023-08-09T10:51:51Z</time><name>PT1562</name></trkpt>
<trkpt lat="54.521197" lon="-3.016617"><ele>869</ele><time>2023-08-09T10:51:55Z</time><name>PT1563</name></trkpt>
<trkpt lat="54.521164" lon="-3.016625"><ele>867</ele><time>2023-08-09T10:51:58Z</time><name>PT1564</name></trkpt>
<trkpt lat="54.521113" lon="-3.016619"><ele>866</ele><time>2023-08-09T10:52:02Z</time><name>PT1565</name></trkpt>
<trkpt lat="54.521057" lon="-3.016604"><ele>866</ele><time>2023-08-09T10:52:06Z</time><name>PT1566</name></trkpt>
<trkpt lat="54.521018" lon="-3.016584"><ele>866</ele><time>2023-08-09T10:52:09Z</time><name>PT1567</name></trkpt>
<trkpt lat="54.520975" lon="-3.016564"><ele>867</ele><time>2023-08-09T10:52:13Z</time><name>PT1568</name></trkpt>
<trkpt lat="54.520926" lon="-3.016537"><ele>867</ele><time>2023-08-09T10:52:17Z</time><name>PT1569</name></trkpt>
<trkpt lat="54.520890" lon="-3.016508"><ele>868</ele><time>2023-08-09T10:52:20Z</time><name>PT1570</name></trkpt>
<trkpt lat="54.520862" lon="-3.016489"><ele>868</ele><time>2023-08-09T10:52:23Z</time><name>PT1571</name></trkpt>
<trkpt lat="54.520819" lon="-3.016467"><ele>870</ele><time>2023-08-09T10:52:27Z</time><name>PT1572</name></trkpt>
<trkpt lat="54.520789" lon="-3.016449"><ele>869</ele><time>2023-08-09T10:52:30Z</time><name>PT1573</name></trkpt>
<trkpt lat="54.520769" lon="-3.016443"><ele>868</ele><time>2023-08-09T10:52:34Z</time><name>PT1574</name></trkpt>
<trkpt lat="54.520742" lon="-3.016416"><ele>869</ele><time>2023-08-09T10:52:37Z</time><name>PT1575</name></trkpt>
<trkpt lat="54.520720" lon="-3.016391"><ele>868</ele><time>2023-08-09T10:52:40Z</time><name>PT1576</name></trkpt>
<trkpt lat="54.520696" lon="-3.016348"><ele>870</ele><time>2023-08-09T10:52:44Z</time><name>PT1577</name></trkpt>
<trkpt lat="54.520678" lon="-3.016311"><ele>871</ele><time>2023-08-09T10:52:47Z</time><name>PT1578</name></trkpt>
<trkpt lat="54.520663" lon="-3.016280"><ele>872</ele><time>2023-08-09T10:52:50Z</time><name>PT1579</name></trkpt>
<trkpt lat="54.520639" lon="-3.016251"><ele>873</ele><time>2023-08-09T10:52:54Z</time><name>PT1580</name></trkpt>
<trkpt lat="54.520619" lon="-3.016254"><ele>874</ele><time>2023-08-09T10:52:58Z</time><name>PT1581</name></trkpt>
<trkpt lat="54.520598" lon="-3.016253"><ele>874</ele><time>2023-08-09T10:53:01Z</time><name>PT1582</name></trkpt>
<trkpt lat="54.520574" lon="-3.016254"><ele>876</ele><time>2023-08-09T10:53:05Z</time><name>PT1583</name></trkpt>
<trkpt lat="54.520555" lon="-3.016242"><ele>876</ele><time>2023-08-09T10:53:08Z</time><name>PT1584</name></trkpt>
<trkpt lat="54.520529" lon="-3.016232"><ele>878</ele><time>2023-08-09T10:53:12Z</time><name>PT1585</name></trkpt>
<trkpt lat="54.520499" lon="-3.016224"><ele>878</ele><time>2023-08-09T10:53:16Z</time><name>PT1586</name></trkpt>
<trkpt lat="54.520474" lon="-3.016207"><ele>877</ele><time>2023-08-09T10:53:19Z</time><name>PT1587</name></trkpt>
<trkpt lat="54.520447" lon="-3.016199"><ele>877</ele><time>2023-08-09T10:53:23Z</time><name>PT1588</name></trkpt>
<trkpt lat="54.520426" lon="-3.016195"><ele>877</ele><time>2023-08-09T10:53:26Z</time><name>PT1589</name></trkpt>
<trkpt lat="54.520396" lon="-3.016190"><ele>879</ele><time>2023-08-09T10:53:30Z</time><name>PT1590</name></trkpt>
<trkpt lat="54.520376" lon="-3.016181"><ele>880</ele><time>2023-08-09T10:53:33Z</time><name>PT1591</name></trkpt>
<trkpt lat="54.520349" lon="-3.016180"><ele>883</ele><time>2023-08-09T10:53:37Z</time><name>PT1592</name></trkpt>
<trkpt lat="54.520328" lon="-3.016161"><ele>883</ele><time>2023-08-09T10:53:40Z</time><name>PT1593</name></trkpt>
<trkpt lat="54.520299" lon="-3.016136"><ele>884</ele><time>2023-08-09T10:53:44Z</time><name>PT1594</name></trkpt>
<trkpt lat="54.520265" lon="-3.016122"><ele>885</ele><time>2023-08-09T10:53:48Z</time><name>PT1595</name></trkpt>
<trkpt lat="54.520229" lon="-3.016126"><ele>888</ele><time>2023-08-09T10:53:52Z</time><name>PT1596</name></trkpt>
<trkpt lat="54.520199" lon="-3.016113"><ele>889</ele><time>2023-08-09T10:53:55Z</time><name>PT1597</name></trkpt>
<trkpt lat="54.520171" lon="-3.016090"><ele>890</ele><time>2023-08-09T10:53:58Z</time><name>PT1598</name></trkpt>
<trkpt lat="54.520134" lon="-3.016075"><ele>890</ele><time>2023-08-09T10:54:02Z</time><name>PT1599</name></trkpt>
<trkpt lat="54.520099" lon="-3.016066"><ele>891</ele><time>2023-08-09T10:54:05Z</time><name>PT1600</name></trkpt>
<trkpt lat="54.520060" lon="-3.016047"><ele>891</ele><time>2023-08-09T10:54:09Z</time><name>PT1601</name></trkpt>
<trkpt lat="54.520018" lon="-3.016034"><ele>892</ele><time>2023-08-09T10:54:13Z</time><name>PT1602</name></trkpt>
<trkpt lat="54.519991" lon="-3.016032"><ele>892</ele><time>2023-08-09T10:54:16Z</time><name>PT1603</name></trkpt>
<trkpt lat="54.519950" lon="-3.016012"><ele>892</ele><time>2023-08-09T10:54:20Z</time><name>PT1604</name></trkpt>
<trkpt lat="54.519916" lon="-3.015995"><ele>892</ele><time>2023-08-09T10:54:23Z</time><name>PT1605</name></trkpt>
<trkpt lat="54.519874" lon="-3.015970"><ele>893</ele><time>2023-08-09T10:54:27Z</time><name>PT1606</name></trkpt>
<trkpt lat="54.519841" lon="-3.015953"><ele>893</ele><time>2023-08-09T10:54:30Z</time><name>PT1607</name></trkpt>
<trkpt lat="54.519796" lon="-3.015928"><ele>893</ele><time>2023-08-09T10:54:34Z</time><name>PT1608</name></trkpt>
<trkpt lat="54.519764" lon="-3.015899"><ele>894</ele><time>2023-08-09T10:54:38Z</time><name>PT1609</name></trkpt>
<trkpt lat="54.519752" lon="-3.015868"><ele>894</ele><time>2023-08-09T10:54:41Z</time><name>PT1610</name></trkpt>
<trkpt lat="54.519743" lon="-3.015816"><ele>894</ele><time>2023-08-09T10:54:45Z</time><name>PT1611</name></trkpt>
<trkpt lat="54.519742" lon="-3.015770"><ele>894</ele><time>2023-08-09T10:54:48Z</time><name>PT1612</name></trkpt>
<trkpt lat="54.519749" lon="-3.015731"><ele>893</ele><time>2023-08-09T10:54:52Z</time><name>PT1613</name></trkpt>
<trkpt lat="54.519750" lon="-3.015735"><ele>893</ele><time>2023-08-09T10:54:55Z</time><name>PT1614</name></trkpt>
<trkpt lat="54.519741" lon="-3.015739"><ele>894</ele><time>2023-08-09T10:57:00Z</time><name>PT1615</name></trkpt>
<trkpt lat="54.519706" lon="-3.015789"><ele>894</ele><time>2023-08-09T10:57:04Z</time><name>PT1616</name></trkpt>
<trkpt lat="54.519673" lon="-3.015828"><ele>894</ele><time>2023-08-09T10:57:07Z</time><name>PT1617</name></trkpt>
<trkpt lat="54.519630" lon="-3.015873"><ele>894</ele><time>2023-08-09T10:57:11Z</time><name>PT1618</name></trkpt>
<trkpt lat="54.519589" lon="-3.015904"><ele>894</ele><time>2023-08-09T10:57:14Z</time><name>PT1619</name></trkpt>
<trkpt lat="54.519535" lon="-3.015929"><ele>894</ele><time>2023-08-09T10:57:18Z</time><name>PT1620</name></trkpt>
<trkpt lat="54.519484" lon="-3.015938"><ele>894</ele><time>2023-08-09T10:57:22Z</time><name>PT1621</name></trkpt>
<trkpt lat="54.519441" lon="-3.015937"><ele>893</ele><time>2023-08-09T10:57:25Z</time><name>PT1622</name></trkpt>
<trkpt lat="54.519384" lon="-3.015935"><ele>893</ele><time>2023-08-09T10:57:29Z</time><name>PT1623</name></trkpt>
<trkpt lat="54.519343" lon="-3.015917"><ele>892</ele><time>2023-08-09T10:57:32Z</time><name>PT1624</name></trkpt>
<trkpt lat="54.519302" lon="-3.015892"><ele>892</ele><time>2023-08-09T10:57:36Z</time><name>PT1625</name></trkpt>
<trkpt lat="54.519266" lon="-3.015874"><ele>892</ele><time>2023-08-09T10:57:39Z</time><name>PT1626</name></trkpt>
<trkpt lat="54.519233" lon="-3.015847"><ele>892</ele><time>2023-08-09T10:57:42Z</time><name>PT1627</name></trkpt>
<trkpt lat="54.519200" lon="-3.015815"><ele>892</ele><time>2023-08-09T10:57:45Z</time><name>PT1628</name></trkpt>
<trkpt lat="54.519156" lon="-3.015780"><ele>893</ele><time>2023-08-09T10:57:49Z</time><name>PT1629</name></trkpt>
<trkpt lat="54.519121" lon="-3.015749"><ele>894</ele><time>2023-08-09T10:57:52Z</time><name>PT1630</name></trkpt>
<trkpt lat="54.519096" lon="-3.015710"><ele>894</ele><time>2023-08-09T10:57:55Z</time><name>PT1631</name></trkpt>
<trkpt lat="54.519062" lon="-3.015647"><ele>895</ele><time>2023-08-09T10:57:59Z</time><name>PT1632</name></trkpt>
<trkpt lat="54.519031" lon="-3.015599"><ele>895</ele><time>2023-08-09T10:58:03Z</time><name>PT1633</name></trkpt>
<trkpt lat="54.519008" lon="-3.015555"><ele>896</ele><time>2023-08-09T10:58:06Z</time><name>PT1634</name></trkpt>
<trkpt lat="54.518993" lon="-3.015515"><ele>898</ele><time>2023-08-09T10:58:09Z</time><name>PT1635</name></trkpt>
<trkpt lat="54.518977" lon="-3.015466"><ele>898</ele><time>2023-08-09T10:58:12Z</time><name>PT1636</name></trkpt>
<trkpt lat="54.518930" lon="-3.015428"><ele>897</ele><time>2023-08-09T10:58:16Z</time><name>PT1637</name></trkpt>
<trkpt lat="54.518889" lon="-3.015412"><ele>897</ele><time>2023-08-09T10:58:19Z</time><name>PT1638</name></trkpt>
<trkpt lat="54.518840" lon="-3.015374"><ele>898</ele><time>2023-08-09T10:58:23Z</time><name>PT1639</name></trkpt>
<trkpt lat="54.518808" lon="-3.015344"><ele>898</ele><time>2023-08-09T10:58:26Z</time><name>PT1640</name></trkpt>
<trkpt lat="54.518782" lon="-3.015295"><ele>898</ele><time>2023-08-09T10:58:29Z</time><name>PT1641</name></trkpt>
<trkpt lat="54.518754" lon="-3.015255"><ele>897</ele><time>2023-08-09T10:58:32Z</time><name>PT1642</name></trkpt>
<trkpt lat="54.518711" lon="-3.015206"><ele>897</ele><time>2023-08-09T10:58:36Z</time><name>PT1643</name></trkpt>
<trkpt lat="54.518666" lon="-3.015155"><ele>898</ele><time>2023-08-09T10:58:40Z</time><name>PT1644</name></trkpt>
<trkpt lat="54.518619" lon="-3.015112"><ele>896</ele><time>2023-08-09T10:58:44Z</time><name>PT1645</name></trkpt>
<trkpt lat="54.518587" lon="-3.015072"><ele>896</ele><time>2023-08-09T10:58:47Z</time><name>PT1646</name></trkpt>
<trkpt lat="54.518546" lon="-3.015018"><ele>896</ele><time>2023-08-09T10:58:51Z</time><name>PT1647</name></trkpt>
<trkpt lat="54.518517" lon="-3.014974"><ele>895</ele><time>2023-08-09T10:58:54Z</time><name>PT1648</name></trkpt>
<trkpt lat="54.518481" lon="-3.014923"><ele>896</ele><time>2023-08-09T10:58:58Z</time><name>PT1649</name></trkpt>
<trkpt lat="54.518456" lon="-3.014870"><ele>895</ele><time>2023-08-09T10:59:02Z</time><name>PT1650</name></trkpt>
<trkpt lat="54.518436" lon="-3.014833"><ele>896</ele><time>2023-08-09T10:59:05Z</time><name>PT1651</name></trkpt>
<trkpt lat="54.518409" lon="-3.014822"><ele>896</ele><time>2023-08-09T10:59:09Z</time><name>PT1652</name></trkpt>
<trkpt lat="54.518392" lon="-3.014864"><ele>895</ele><time>2023-08-09T10:59:12Z</time><name>PT1653</name></trkpt>
<trkpt lat="54.518361" lon="-3.014911"><ele>896</ele><time>2023-08-09T10:59:16Z</time><name>PT1654</name></trkpt>
<trkpt lat="54.518330" lon="-3.014956"><ele>896</ele><time>2023-08-09T10:59:20Z</time><name>PT1655</name></trkpt>
<trkpt lat="54.518301" lon="-3.014989"><ele>896</ele><time>2023-08-09T10:59:23Z</time><name>PT1656</name></trkpt>
<trkpt lat="54.518271" lon="-3.015035"><ele>896</ele><time>2023-08-09T10:59:27Z</time><name>PT1657</name></trkpt>
<trkpt lat="54.518250" lon="-3.015091"><ele>895</ele><time>2023-08-09T10:59:31Z</time><name>PT1658</name></trkpt>
<trkpt lat="54.518235" lon="-3.015144"><ele>895</ele><time>2023-08-09T10:59:35Z</time><name>PT1659</name></trkpt>
<trkpt lat="54.518198" lon="-3.015209"><ele>895</ele><time>2023-08-09T10:59:39Z</time><name>PT1660</name></trkpt>
<trkpt lat="54.518160" lon="-3.015256"><ele>896</ele><time>2023-08-09T10:59:42Z</time><name>PT1661</name></trkpt>
<trkpt lat="54.518126" lon="-3.015298"><ele>895</ele><time>2023-08-09T10:59:45Z</time><name>PT1662</name></trkpt>
<trkpt lat="54.518095" lon="-3.015332"><ele>896</ele><time>2023-08-09T10:59:48Z</time><name>PT1663</name></trkpt>
<trkpt lat="54.518065" lon="-3.015357"><ele>896</ele><time>2023-08-09T10:59:51Z</time><name>PT1664</name></trkpt>
<trkpt lat="54.518013" lon="-3.015397"><ele>896</ele><time>2023-08-09T10:59:55Z</time><name>PT1665</name></trkpt>
<trkpt lat="54.517967" lon="-3.015438"><ele>896</ele><time>2023-08-09T10:59:59Z</time><name>PT1666</name></trkpt>
<trkpt lat="54.517938" lon="-3.015473"><ele>895</ele><time>2023-08-09T11:00:02Z</time><name>PT1667</name></trkpt>
<trkpt lat="54.517902" lon="-3.015511"><ele>895</ele><time>2023-08-09T11:00:06Z</time><name>PT1668</name></trkpt>
<trkpt lat="54.517872" lon="-3.015542"><ele>894</ele><time>2023-08-09T11:00:09Z</time><name>PT1669</name></trkpt>
<trkpt lat="54.517827" lon="-3.015594"><ele>894</ele><time>2023-08-09T11:00:13Z</time><name>PT1670</name></trkpt>
<trkpt lat="54.517782" lon="-3.015644"><ele>893</ele><time>2023-08-09T11:00:17Z</time><name>PT1671</name></trkpt>
<trkpt lat="54.517753" lon="-3.015689"><ele>893</ele><time>2023-08-09T11:00:20Z</time><name>PT1672</name></trkpt>
<trkpt lat="54.517710" lon="-3.015746"><ele>893</ele><time>2023-08-09T11:00:24Z</time><name>PT1673</name></trkpt>
<trkpt lat="54.517683" lon="-3.015780"><ele>892</ele><time>2023-08-09T11:00:27Z</time><name>PT1674</name></trkpt>
<trkpt lat="54.517639" lon="-3.015831"><ele>892</ele><time>2023-08-09T11:00:31Z</time><name>PT1675</name></trkpt>
<trkpt lat="54.517613" lon="-3.015890"><ele>892</ele><time>2023-08-09T11:00:35Z</time><name>PT1676</name></trkpt>
<trkpt lat="54.517585" lon="-3.015959"><ele>891</ele><time>2023-08-09T11:00:39Z</time><name>PT1677</name></trkpt>
<trkpt lat="54.517544" lon="-3.016000"><ele>890</ele><time>2023-08-09T11:00:43Z</time><name>PT1678</name></trkpt>
<trkpt lat="54.517507" lon="-3.016039"><ele>890</ele><time>2023-08-09T11:00:46Z</time><name>PT1679</name></trkpt>
<trkpt lat="54.517467" lon="-3.016076"><ele>890</ele><time>2023-08-09T11:00:49Z</time><name>PT1680</name></trkpt>
<trkpt lat="54.517419" lon="-3.016113"><ele>890</ele><time>2023-08-09T11:00:53Z</time><name>PT1681</name></trkpt>
<trkpt lat="54.517370" lon="-3.016151"><ele>891</ele><time>2023-08-09T11:00:57Z</time><name>PT1682</name></trkpt>
<trkpt lat="54.517329" lon="-3.016177"><ele>891</ele><time>2023-08-09T11:01:00Z</time><name>PT1683</name></trkpt>
<trkpt lat="54.517288" lon="-3.016202"><ele>891</ele><time>2023-08-09T11:01:03Z</time><name>PT1684</name></trkpt>
<trkpt lat="54.517246" lon="-3.016225"><ele>891</ele><time>2023-08-09T11:01:06Z</time><name>PT1685</name></trkpt>
<trkpt lat="54.517196" lon="-3.016255"><ele>891</ele><time>2023-08-09T11:01:10Z</time><name>PT1686</name></trkpt>
<trkpt lat="54.517154" lon="-3.016281"><ele>890</ele><time>2023-08-09T11:01:13Z</time><name>PT1687</name></trkpt>
<trkpt lat="54.517112" lon="-3.016282"><ele>890</ele><time>2023-08-09T11:01:16Z</time><name>PT1688</name></trkpt>
<trkpt lat="54.517061" lon="-3.016270"><ele>889</ele><time>2023-08-09T11:01:20Z</time><name>PT1689</name></trkpt>
<trkpt lat="54.517018" lon="-3.016262"><ele>889</ele><time>2023-08-09T11:01:23Z</time><name>PT1690</name></trkpt>
<trkpt lat="54.516972" lon="-3.016293"><ele>889</ele><time>2023-08-09T11:01:27Z</time><name>PT1691</name></trkpt>
<trkpt lat="54.516934" lon="-3.016313"><ele>888</ele><time>2023-08-09T11:01:30Z</time><name>PT1692</name></trkpt>
<trkpt lat="54.516880" lon="-3.016331"><ele>888</ele><time>2023-08-09T11:01:34Z</time><name>PT1693</name></trkpt>
<trkpt lat="54.516841" lon="-3.016358"><ele>888</ele><time>2023-08-09T11:01:37Z</time><name>PT1694</name></trkpt>
<trkpt lat="54.516787" lon="-3.016373"><ele>888</ele><time>2023-08-09T11:01:41Z</time><name>PT1695</name></trkpt>
<trkpt lat="54.516748" lon="-3.016389"><ele>888</ele><time>2023-08-09T11:01:44Z</time><name>PT1696</name></trkpt>
<trkpt lat="54.516708" lon="-3.016411"><ele>888</ele><time>2023-08-09T11:01:47Z</time><name>PT1697</name></trkpt>
<trkpt lat="54.516653" lon="-3.016432"><ele>888</ele><time>2023-08-09T11:01:51Z</time><name>PT1698</name></trkpt>
<trkpt lat="54.516603" lon="-3.016441"><ele>888</ele><time>2023-08-09T11:01:55Z</time><name>PT1699</name></trkpt>
<trkpt lat="54.516563" lon="-3.016438"><ele>888</ele><time>2023-08-09T11:01:58Z</time><name>PT1700</name></trkpt>
<trkpt lat="54.516513" lon="-3.016436"><ele>887</ele><time>2023-08-09T11:02:02Z</time><name>PT1701</name></trkpt>
<trkpt lat="54.516469" lon="-3.016438"><ele>887</ele><time>2023-08-09T11:02:05Z</time><name>PT1702</name></trkpt>
<trkpt lat="54.516423" lon="-3.016435"><ele>887</ele><time>2023-08-09T11:02:08Z</time><name>PT1703</name></trkpt>
<trkpt lat="54.516368" lon="-3.016443"><ele>888</ele><time>2023-08-09T11:02:12Z</time><name>PT1704</name></trkpt>
<trkpt lat="54.516314" lon="-3.016424"><ele>888</ele><time>2023-08-09T11:02:16Z</time><name>PT1705</name></trkpt>
<trkpt lat="54.516277" lon="-3.016414"><ele>888</ele><time>2023-08-09T11:02:19Z</time><name>PT1706</name></trkpt>
<trkpt lat="54.516225" lon="-3.016387"><ele>887</ele><time>2023-08-09T11:02:23Z</time><name>PT1707</name></trkpt>
<trkpt lat="54.516189" lon="-3.016376"><ele>887</ele><time>2023-08-09T11:02:26Z</time><name>PT1708</name></trkpt>
<trkpt lat="54.516137" lon="-3.016402"><ele>887</ele><time>2023-08-09T11:02:30Z</time><name>PT1709</name></trkpt>
<trkpt lat="54.516099" lon="-3.016419"><ele>887</ele><time>2023-08-09T11:02:33Z</time><name>PT1710</name></trkpt>
<trkpt lat="54.516052" lon="-3.016450"><ele>887</ele><time>2023-08-09T11:02:37Z</time><name>PT1711</name></trkpt>
<trkpt lat="54.516013" lon="-3.016467"><ele>886</ele><time>2023-08-09T11:02:40Z</time><name>PT1712</name></trkpt>
<trkpt lat="54.515961" lon="-3.016496"><ele>886</ele><time>2023-08-09T11:02:44Z</time><name>PT1713</name></trkpt>
<trkpt lat="54.515909" lon="-3.016517"><ele>885</ele><time>2023-08-09T11:02:48Z</time><name>PT1714</name></trkpt>
<trkpt lat="54.515862" lon="-3.016537"><ele>885</ele><time>2023-08-09T11:02:52Z</time><name>PT1715</name></trkpt>
<trkpt lat="54.515828" lon="-3.016565"><ele>885</ele><time>2023-08-09T11:02:55Z</time><name>PT1716</name></trkpt>
<trkpt lat="54.515789" lon="-3.016591"><ele>885</ele><time>2023-08-09T11:02:58Z</time><name>PT1717</name></trkpt>
<trkpt lat="54.515742" lon="-3.016630"><ele>885</ele><time>2023-08-09T11:03:02Z</time><name>PT1718</name></trkpt>
<trkpt lat="54.515707" lon="-3.016651"><ele>884</ele><time>2023-08-09T11:03:05Z</time><name>PT1719</name></trkpt>
<trkpt lat="54.515668" lon="-3.016673"><ele>885</ele><time>2023-08-09T11:03:08Z</time><name>PT1720</name></trkpt>
<trkpt lat="54.515628" lon="-3.016682"><ele>885</ele><time>2023-08-09T11:03:11Z</time><name>PT1721</name></trkpt>
<trkpt lat="54.515581" lon="-3.016703"><ele>884</ele><time>2023-08-09T11:03:15Z</time><name>PT1722</name></trkpt>
<trkpt lat="54.515526" lon="-3.016701"><ele>883</ele><time>2023-08-09T11:03:19Z</time><name>PT1723</name></trkpt>
<trkpt lat="54.515484" lon="-3.016700"><ele>883</ele><time>2023-08-09T11:03:22Z</time><name>PT1724</name></trkpt>
<trkpt lat="54.515443" lon="-3.016709"><ele>883</ele><time>2023-08-09T11:03:25Z</time><name>PT1725</name></trkpt>
<trkpt lat="54.515393" lon="-3.016728"><ele>883</ele><time>2023-08-09T11:03:29Z</time><name>PT1726</name></trkpt>
<trkpt lat="54.515351" lon="-3.016733"><ele>883</ele><time>2023-08-09T11:03:32Z</time><name>PT1727</name></trkpt>
<trkpt lat="54.515302" lon="-3.016751"><ele>883</ele><time>2023-08-09T11:03:36Z</time><name>PT1728</name></trkpt>
<trkpt lat="54.515253" lon="-3.016762"><ele>883</ele><time>2023-08-09T11:03:40Z</time><name>PT1729</name></trkpt>
<trkpt lat="54.515200" lon="-3.016781"><ele>883</ele><time>2023-08-09T11:03:44Z</time><name>PT1730</name></trkpt>
<trkpt lat="54.515157" lon="-3.016805"><ele>882</ele><time>2023-08-09T11:03:47Z</time><name>PT1731</name></trkpt>
<trkpt lat="54.515104" lon="-3.016815"><ele>882</ele><time>2023-08-09T11:03:51Z</time><name>PT1732</name></trkpt>
<trkpt lat="54.515038" lon="-3.016820"><ele>881</ele><time>2023-08-09T11:03:55Z</time><name>PT1733</name></trkpt>
<trkpt lat="54.514996" lon="-3.016815"><ele>881</ele><time>2023-08-09T11:03:58Z</time><name>PT1734</name></trkpt>
<trkpt lat="54.514944" lon="-3.016809"><ele>881</ele><time>2023-08-09T11:04:02Z</time><name>PT1735</name></trkpt>
<trkpt lat="54.514893" lon="-3.016787"><ele>881</ele><time>2023-08-09T11:04:06Z</time><name>PT1736</name></trkpt>
<trkpt lat="54.514840" lon="-3.016783"><ele>882</ele><time>2023-08-09T11:04:10Z</time><name>PT1737</name></trkpt>
<trkpt lat="54.514804" lon="-3.016765"><ele>882</ele><time>2023-08-09T11:04:13Z</time><name>PT1738</name></trkpt>
<trkpt lat="54.514778" lon="-3.016727"><ele>883</ele><time>2023-08-09T11:04:16Z</time><name>PT1739</name></trkpt>
<trkpt lat="54.514734" lon="-3.016715"><ele>883</ele><time>2023-08-09T11:04:20Z</time><name>PT1740</name></trkpt>
<trkpt lat="54.514697" lon="-3.016684"><ele>883</ele><time>2023-08-09T11:04:24Z</time><name>PT1741</name></trkpt>
<trkpt lat="54.514676" lon="-3.016647"><ele>882</ele><time>2023-08-09T11:04:27Z</time><name>PT1742</name></trkpt>
<trkpt lat="54.514645" lon="-3.016614"><ele>883</ele><time>2023-08-09T11:04:31Z</time><name>PT1743</name></trkpt>
<trkpt lat="54.514617" lon="-3.016592"><ele>883</ele><time>2023-08-09T11:04:34Z</time><name>PT1744</name></trkpt>
<trkpt lat="54.514576" lon="-3.016549"><ele>882</ele><time>2023-08-09T11:04:38Z</time><name>PT1745</name></trkpt>
<trkpt lat="54.514542" lon="-3.016534"><ele>882</ele><time>2023-08-09T11:04:41Z</time><name>PT1746</name></trkpt>
<trkpt lat="54.514513" lon="-3.016505"><ele>882</ele><time>2023-08-09T11:04:44Z</time><name>PT1747</name></trkpt>
<trkpt lat="54.514488" lon="-3.016466"><ele>881</ele><time>2023-08-09T11:04:47Z</time><name>PT1748</name></trkpt>
<trkpt lat="54.514461" lon="-3.016427"><ele>882</ele><time>2023-08-09T11:04:50Z</time><name>PT1749</name></trkpt>
<trkpt lat="54.514428" lon="-3.016390"><ele>881</ele><time>2023-08-09T11:04:53Z</time><name>PT1750</name></trkpt>
<trkpt lat="54.514398" lon="-3.016336"><ele>884</ele><time>2023-08-09T11:04:57Z</time><name>PT1751</name></trkpt>
<trkpt lat="54.514371" lon="-3.016301"><ele>883</ele><time>2023-08-09T11:05:00Z</time><name>PT1752</name></trkpt>
<trkpt lat="54.514345" lon="-3.016265"><ele>884</ele><time>2023-08-09T11:05:03Z</time><name>PT1753</name></trkpt>
<trkpt lat="54.514317" lon="-3.016221"><ele>884</ele><time>2023-08-09T11:05:06Z</time><name>PT1754</name></trkpt>
<trkpt lat="54.514290" lon="-3.016160"><ele>884</ele><time>2023-08-09T11:05:10Z</time><name>PT1755</name></trkpt>
<trkpt lat="54.514267" lon="-3.016110"><ele>884</ele><time>2023-08-09T11:05:13Z</time><name>PT1756</name></trkpt>
<trkpt lat="54.514243" lon="-3.016078"><ele>884</ele><time>2023-08-09T11:05:16Z</time><name>PT1757</name></trkpt>
<trkpt lat="54.514211" lon="-3.016048"><ele>885</ele><time>2023-08-09T11:05:20Z</time><name>PT1758</name></trkpt>
<trkpt lat="54.514179" lon="-3.016042"><ele>885</ele><time>2023-08-09T11:05:23Z</time><name>PT1759</name></trkpt>
<trkpt lat="54.514152" lon="-3.016014"><ele>885</ele><time>2023-08-09T11:05:26Z</time><name>PT1760</name></trkpt>
<trkpt lat="54.514129" lon="-3.015978"><ele>885</ele><time>2023-08-09T11:05:30Z</time><name>PT1761</name></trkpt>
<trkpt lat="54.514097" lon="-3.015944"><ele>886</ele><time>2023-08-09T11:05:34Z</time><name>PT1762</name></trkpt>
<trkpt lat="54.514067" lon="-3.015914"><ele>887</ele><time>2023-08-09T11:05:38Z</time><name>PT1763</name></trkpt>
<trkpt lat="54.514045" lon="-3.015882"><ele>887</ele><time>2023-08-09T11:05:41Z</time><name>PT1764</name></trkpt>
<trkpt lat="54.514023" lon="-3.015862"><ele>887</ele><time>2023-08-09T11:05:45Z</time><name>PT1765</name></trkpt>
<trkpt lat="54.513991" lon="-3.015830"><ele>887</ele><time>2023-08-09T11:05:49Z</time><name>PT1766</name></trkpt>
<trkpt lat="54.513974" lon="-3.015826"><ele>886</ele><time>2023-08-09T11:05:52Z</time><name>PT1767</name></trkpt>
<trkpt lat="54.513929" lon="-3.015798"><ele>886</ele><time>2023-08-09T11:05:56Z</time><name>PT1768</name></trkpt>
<trkpt lat="54.513899" lon="-3.015785"><ele>886</ele><time>2023-08-09T11:05:59Z</time><name>PT1769</name></trkpt>
<trkpt lat="54.513868" lon="-3.015794"><ele>887</ele><time>2023-08-09T11:06:02Z</time><name>PT1770</name></trkpt>
<trkpt lat="54.513824" lon="-3.015793"><ele>888</ele><time>2023-08-09T11:06:06Z</time><name>PT1771</name></trkpt>
<trkpt lat="54.513791" lon="-3.015784"><ele>888</ele><time>2023-08-09T11:06:09Z</time><name>PT1772</name></trkpt>
<trkpt lat="54.513746" lon="-3.015770"><ele>889</ele><time>2023-08-09T11:06:13Z</time><name>PT1773</name></trkpt>
<trkpt lat="54.513717" lon="-3.015763"><ele>889</ele><time>2023-08-09T11:06:16Z</time><name>PT1774</name></trkpt>
<trkpt lat="54.513683" lon="-3.015755"><ele>888</ele><time>2023-08-09T11:06:19Z</time><name>PT1775</name></trkpt>
<trkpt lat="54.513659" lon="-3.015755"><ele>887</ele><time>2023-08-09T11:06:23Z</time><name>PT1776</name></trkpt>
<trkpt lat="54.513636" lon="-3.015753"><ele>886</ele><time>2023-08-09T11:06:26Z</time><name>PT1777</name></trkpt>
<trkpt lat="54.513604" lon="-3.015761"><ele>887</ele><time>2023-08-09T11:06:30Z</time><name>PT1778</name></trkpt>
<trkpt lat="54.513564" lon="-3.015758"><ele>888</ele><time>2023-08-09T11:06:34Z</time><name>PT1779</name></trkpt>
<trkpt lat="54.513521" lon="-3.015748"><ele>883</ele><time>2023-08-09T11:06:38Z</time><name>PT1780</name></trkpt>
<trkpt lat="54.513490" lon="-3.015754"><ele>883</ele><time>2023-08-09T11:06:42Z</time><name>PT1781</name></trkpt>
<trkpt lat="54.513467" lon="-3.015752"><ele>884</ele><time>2023-08-09T11:06:45Z</time><name>PT1782</name></trkpt>
<trkpt lat="54.513435" lon="-3.015750"><ele>883</ele><time>2023-08-09T11:06:49Z</time><name>PT1783</name></trkpt>
<trkpt lat="54.513413" lon="-3.015754"><ele>883</ele><time>2023-08-09T11:06:53Z</time><name>PT1784</name></trkpt>
<trkpt lat="54.513392" lon="-3.015751"><ele>882</ele><time>2023-08-09T11:06:56Z</time><name>PT1785</name></trkpt>
<trkpt lat="54.513360" lon="-3.015758"><ele>877</ele><time>2023-08-09T11:06:59Z</time><name>PT1786</name></trkpt>
<trkpt lat="54.513346" lon="-3.015771"><ele>874</ele><time>2023-08-09T11:07:02Z</time><name>PT1787</name></trkpt>
<trkpt lat="54.513337" lon="-3.015778"><ele>874</ele><time>2023-08-09T11:07:05Z</time><name>PT1788</name></trkpt>
<trkpt lat="54.513318" lon="-3.015781"><ele>873</ele><time>2023-08-09T11:07:08Z</time><name>PT1789</name></trkpt>
<trkpt lat="54.513299" lon="-3.015790"><ele>873</ele><time>2023-08-09T11:07:11Z</time><name>PT1790</name></trkpt>
<trkpt lat="54.513271" lon="-3.015813"><ele>872</ele><time>2023-08-09T11:07:15Z</time><name>PT1791</name></trkpt>
<trkpt lat="54.513249" lon="-3.015838"><ele>871</ele><time>2023-08-09T11:07:19Z</time><name>PT1792</name></trkpt>
<trkpt lat="54.513225" lon="-3.015855"><ele>871</ele><time>2023-08-09T11:07:22Z</time><name>PT1793</name></trkpt>
<trkpt lat="54.513206" lon="-3.015882"><ele>871</ele><time>2023-08-09T11:07:25Z</time><name>PT1794</name></trkpt>
<trkpt lat="54.513180" lon="-3.015920"><ele>870</ele><time>2023-08-09T11:07:29Z</time><name>PT1795</name></trkpt>
<trkpt lat="54.513152" lon="-3.015959"><ele>870</ele><time>2023-08-09T11:07:33Z</time><name>PT1796</name></trkpt>
<trkpt lat="54.513130" lon="-3.015972"><ele>869</ele><time>2023-08-09T11:07:36Z</time><name>PT1797</name></trkpt>
<trkpt lat="54.513097" lon="-3.015993"><ele>871</ele><time>2023-08-09T11:07:40Z</time><name>PT1798</name></trkpt>
<trkpt lat="54.513054" lon="-3.016009"><ele>866</ele><time>2023-08-09T11:07:43Z</time><name>PT1799</name></trkpt>
<trkpt lat="54.513021" lon="-3.016011"><ele>865</ele><time>2023-08-09T11:07:47Z</time><name>PT1800</name></trkpt>
<trkpt lat="54.512991" lon="-3.016010"><ele>864</ele><time>2023-08-09T11:07:50Z</time><name>PT1801</name></trkpt>
<trkpt lat="54.512954" lon="-3.016004"><ele>863</ele><time>2023-08-09T11:07:54Z</time><name>PT1802</name></trkpt>
<trkpt lat="54.512904" lon="-3.016000"><ele>862</ele><time>2023-08-09T11:07:58Z</time><name>PT1803</name></trkpt>
<trkpt lat="54.512876" lon="-3.016010"><ele>862</ele><time>2023-08-09T11:08:01Z</time><name>PT1804</name></trkpt>
<trkpt lat="54.512852" lon="-3.016012"><ele>861</ele><time>2023-08-09T11:08:04Z</time><name>PT1805</name></trkpt>
<trkpt lat="54.512818" lon="-3.016015"><ele>860</ele><time>2023-08-09T11:08:08Z</time><name>PT1806</name></trkpt>
<trkpt lat="54.512793" lon="-3.016016"><ele>860</ele><time>2023-08-09T11:08:11Z</time><name>PT1807</name></trkpt>
<trkpt lat="54.512773" lon="-3.016019"><ele>860</ele><time>2023-08-09T11:08:14Z</time><name>PT1808</name></trkpt>
<trkpt lat="54.512743" lon="-3.016013"><ele>860</ele><time>2023-08-09T11:08:18Z</time><name>PT1809</name></trkpt>
<trkpt lat="54.512721" lon="-3.015985"><ele>859</ele><time>2023-08-09T11:08:21Z</time><name>PT1810</name></trkpt>
<trkpt lat="54.512680" lon="-3.015972"><ele>860</ele><time>2023-08-09T11:08:25Z</time><name>PT1811</name></trkpt>
<trkpt lat="54.512641" lon="-3.015952"><ele>859</ele><time>2023-08-09T11:08:29Z</time><name>PT1812</name></trkpt>
<trkpt lat="54.512606" lon="-3.015940"><ele>859</ele><time>2023-08-09T11:08:33Z</time><name>PT1813</name></trkpt>
<trkpt lat="54.512584" lon="-3.015934"><ele>859</ele><time>2023-08-09T11:08:36Z</time><name>PT1814</name></trkpt>
<trkpt lat="54.512557" lon="-3.015919"><ele>859</ele><time>2023-08-09T11:08:39Z</time><name>PT1815</name></trkpt>
<trkpt lat="54.512539" lon="-3.015903"><ele>859</ele><time>2023-08-09T11:08:43Z</time><name>PT1816</name></trkpt>
<trkpt lat="54.512523" lon="-3.015893"><ele>858</ele><time>2023-08-09T11:08:46Z</time><name>PT1817</name></trkpt>
<trkpt lat="54.512504" lon="-3.015884"><ele>858</ele><time>2023-08-09T11:08:49Z</time><name>PT1818</name></trkpt>
<trkpt lat="54.512484" lon="-3.015872"><ele>856</ele><time>2023-08-09T11:08:52Z</time><name>PT1819</name></trkpt>
<trkpt lat="54.512461" lon="-3.015851"><ele>854</ele><time>2023-08-09T11:08:56Z</time><name>PT1820</name></trkpt>
<trkpt lat="54.512440" lon="-3.015829"><ele>852</ele><time>2023-08-09T11:08:59Z</time><name>PT1821</name></trkpt>
<trkpt lat="54.512413" lon="-3.015812"><ele>851</ele><time>2023-08-09T11:09:03Z</time><name>PT1822</name></trkpt>
<trkpt lat="54.512391" lon="-3.015794"><ele>849</ele><time>2023-08-09T11:09:07Z</time><name>PT1823</name></trkpt>
<trkpt lat="54.512367" lon="-3.015783"><ele>848</ele><time>2023-08-09T11:09:10Z</time><name>PT1824</name></trkpt>
<trkpt lat="54.512335" lon="-3.015762"><ele>848</ele><time>2023-08-09T11:09:14Z</time><name>PT1825</name></trkpt>
<trkpt lat="54.512315" lon="-3.015749"><ele>847</ele><time>2023-08-09T11:09:17Z</time><name>PT1826</name></trkpt>
<trkpt lat="54.512289" lon="-3.015723"><ele>846</ele><time>2023-08-09T11:09:21Z</time><name>PT1827</name></trkpt>
<trkpt lat="54.512275" lon="-3.015703"><ele>845</ele><time>2023-08-09T11:09:24Z</time><name>PT1828</name></trkpt>
<trkpt lat="54.512257" lon="-3.015699"><ele>845</ele><time>2023-08-09T11:09:27Z</time><name>PT1829</name></trkpt>
<trkpt lat="54.512235" lon="-3.015674"><ele>845</ele><time>2023-08-09T11:09:30Z</time><name>PT1830</name></trkpt>
<trkpt lat="54.512210" lon="-3.015640"><ele>844</ele><time>2023-08-09T11:09:34Z</time><name>PT1831</name></trkpt>
<trkpt lat="54.512187" lon="-3.015624"><ele>843</ele><time>2023-08-09T11:09:37Z</time><name>PT1832</name></trkpt>
<trkpt lat="54.512161" lon="-3.015609"><ele>842</ele><time>2023-08-09T11:09:40Z</time><name>PT1833</name></trkpt>
<trkpt lat="54.512145" lon="-3.015583"><ele>842</ele><time>2023-08-09T11:09:43Z</time><name>PT1834</name></trkpt>
<trkpt lat="54.512125" lon="-3.015552"><ele>842</ele><time>2023-08-09T11:09:47Z</time><name>PT1835</name></trkpt>
<trkpt lat="54.512100" lon="-3.015527"><ele>841</ele><time>2023-08-09T11:09:51Z</time><name>PT1836</name></trkpt>
<trkpt lat="54.512081" lon="-3.015513"><ele>840</ele><time>2023-08-09T11:09:54Z</time><name>PT1837</name></trkpt>
<trkpt lat="54.512051" lon="-3.015502"><ele>840</ele><time>2023-08-09T11:09:58Z</time><name>PT1838</name></trkpt>
<trkpt lat="54.512022" lon="-3.015473"><ele>839</ele><time>2023-08-09T11:10:02Z</time><name>PT1839</name></trkpt>
<trkpt lat="54.511999" lon="-3.015444"><ele>837</ele><time>2023-08-09T11:10:06Z</time><name>PT1840</name></trkpt>
<trkpt lat="54.511972" lon="-3.015441"><ele>837</ele><time>2023-08-09T11:10:10Z</time><name>PT1841</name></trkpt>
<trkpt lat="54.511956" lon="-3.015429"><ele>836</ele><time>2023-08-09T11:10:13Z</time><name>PT1842</name></trkpt>
<trkpt lat="54.511938" lon="-3.015423"><ele>836</ele><time>2023-08-09T11:10:16Z</time><name>PT1843</name></trkpt>
<trkpt lat="54.511920" lon="-3.015425"><ele>835</ele><time>2023-08-09T11:10:20Z</time><name>PT1844</name></trkpt>
<trkpt lat="54.511902" lon="-3.015425"><ele>835</ele><time>2023-08-09T11:10:24Z</time><name>PT1845</name></trkpt>
<trkpt lat="54.511884" lon="-3.015444"><ele>834</ele><time>2023-08-09T11:10:28Z</time><name>PT1846</name></trkpt>
<trkpt lat="54.511876" lon="-3.015482"><ele>833</ele><time>2023-08-09T11:10:31Z</time><name>PT1847</name></trkpt>
<trkpt lat="54.511865" lon="-3.015496"><ele>832</ele><time>2023-08-09T11:10:34Z</time><name>PT1848</name></trkpt>
<trkpt lat="54.511861" lon="-3.015533"><ele>832</ele><time>2023-08-09T11:10:37Z</time><name>PT1849</name></trkpt>
<trkpt lat="54.511859" lon="-3.015568"><ele>832</ele><time>2023-08-09T11:10:40Z</time><name>PT1850</name></trkpt>
<trkpt lat="54.511847" lon="-3.015615"><ele>831</ele><time>2023-08-09T11:10:44Z</time><name>PT1851</name></trkpt>
<trkpt lat="54.511834" lon="-3.015647"><ele>830</ele><time>2023-08-09T11:10:47Z</time><name>PT1852</name></trkpt>
<trkpt lat="54.511827" lon="-3.015673"><ele>831</ele><time>2023-08-09T11:10:50Z</time><name>PT1853</name></trkpt>
<trkpt lat="54.511810" lon="-3.015707"><ele>830</ele><time>2023-08-09T11:10:54Z</time><name>PT1854</name></trkpt>
<trkpt lat="54.511791" lon="-3.015703"><ele>830</ele><time>2023-08-09T11:10:57Z</time><name>PT1855</name></trkpt>
<trkpt lat="54.511742" lon="-3.015676"><ele>827</ele><time>2023-08-09T11:11:01Z</time><name>PT1856</name></trkpt>
<trkpt lat="54.511719" lon="-3.015658"><ele>827</ele><time>2023-08-09T11:11:05Z</time><name>PT1857</name></trkpt>
<trkpt lat="54.511703" lon="-3.015640"><ele>827</ele><time>2023-08-09T11:11:08Z</time><name>PT1858</name></trkpt>
<trkpt lat="54.511681" lon="-3.015632"><ele>826</ele><time>2023-08-09T11:11:11Z</time><name>PT1859</name></trkpt>
<trkpt lat="54.511662" lon="-3.015610"><ele>823</ele><time>2023-08-09T11:11:15Z</time><name>PT1860</name></trkpt>
<trkpt lat="54.511646" lon="-3.015590"><ele>821</ele><time>2023-08-09T11:11:18Z</time><name>PT1861</name></trkpt>
<trkpt lat="54.511627" lon="-3.015527"><ele>820</ele><time>2023-08-09T11:11:22Z</time><name>PT1862</name></trkpt>
<trkpt lat="54.511606" lon="-3.015495"><ele>819</ele><time>2023-08-09T11:11:25Z</time><name>PT1863</name></trkpt>
<trkpt lat="54.511579" lon="-3.015446"><ele>819</ele><time>2023-08-09T11:11:29Z</time><name>PT1864</name></trkpt>
<trkpt lat="54.511546" lon="-3.015414"><ele>818</ele><time>2023-08-09T11:11:33Z</time><name>PT1865</name></trkpt>
<trkpt lat="54.511509" lon="-3.015386"><ele>818</ele><time>2023-08-09T11:11:36Z</time><name>PT1866</name></trkpt>
<trkpt lat="54.511466" lon="-3.015377"><ele>818</ele><time>2023-08-09T11:11:40Z</time><name>PT1867</name></trkpt>
<trkpt lat="54.511423" lon="-3.015365"><ele>817</ele><time>2023-08-09T11:11:44Z</time><name>PT1868</name></trkpt>
<trkpt lat="54.511394" lon="-3.015350"><ele>817</ele><time>2023-08-09T11:11:47Z</time><name>PT1869</name></trkpt>
<trkpt lat="54.511356" lon="-3.015325"><ele>816</ele><time>2023-08-09T11:11:51Z</time><name>PT1870</name></trkpt>
<trkpt lat="54.511311" lon="-3.015299"><ele>816</ele><time>2023-08-09T11:11:55Z</time><name>PT1871</name></trkpt>
<trkpt lat="54.511261" lon="-3.015290"><ele>818</ele><time>2023-08-09T11:11:59Z</time><name>PT1872</name></trkpt>
<trkpt lat="54.511219" lon="-3.015290"><ele>818</ele><time>2023-08-09T11:12:02Z</time><name>PT1873</name></trkpt>
<trkpt lat="54.511181" lon="-3.015294"><ele>817</ele><time>2023-08-09T11:12:05Z</time><name>PT1874</name></trkpt>
<trkpt lat="54.511133" lon="-3.015308"><ele>818</ele><time>2023-08-09T11:12:09Z</time><name>PT1875</name></trkpt>
<trkpt lat="54.511088" lon="-3.015297"><ele>818</ele><time>2023-08-09T11:12:13Z</time><name>PT1876</name></trkpt>
<trkpt lat="54.511038" lon="-3.015302"><ele>816</ele><time>2023-08-09T11:12:17Z</time><name>PT1877</name></trkpt>
<trkpt lat="54.511002" lon="-3.015302"><ele>816</ele><time>2023-08-09T11:12:20Z</time><name>PT1878</name></trkpt>
<trkpt lat="54.510962" lon="-3.015312"><ele>817</ele><time>2023-08-09T11:12:24Z</time><name>PT1879</name></trkpt>
<trkpt lat="54.510935" lon="-3.015324"><ele>818</ele><time>2023-08-09T11:12:27Z</time><name>PT1880</name></trkpt>
<trkpt lat="54.510896" lon="-3.015334"><ele>819</ele><time>2023-08-09T11:12:31Z</time><name>PT1881</name></trkpt>
<trkpt lat="54.510869" lon="-3.015332"><ele>820</ele><time>2023-08-09T11:12:34Z</time><name>PT1882</name></trkpt>
<trkpt lat="54.510825" lon="-3.015316"><ele>818</ele><time>2023-08-09T11:12:38Z</time><name>PT1883</name></trkpt>
<trkpt lat="54.510779" lon="-3.015297"><ele>818</ele><time>2023-08-09T11:12:42Z</time><name>PT1884</name></trkpt>
<trkpt lat="54.510744" lon="-3.015298"><ele>821</ele><time>2023-08-09T11:12:45Z</time><name>PT1885</name></trkpt>
<trkpt lat="54.510714" lon="-3.015284"><ele>823</ele><time>2023-08-09T11:12:48Z</time><name>PT1886</name></trkpt>
<trkpt lat="54.510685" lon="-3.015288"><ele>824</ele><time>2023-08-09T11:12:51Z</time><name>PT1887</name></trkpt>
<trkpt lat="54.510654" lon="-3.015276"><ele>823</ele><time>2023-08-09T11:12:55Z</time><name>PT1888</name></trkpt>
<trkpt lat="54.510623" lon="-3.015275"><ele>823</ele><time>2023-08-09T11:12:58Z</time><name>PT1889</name></trkpt>
<trkpt lat="54.510585" lon="-3.015268"><ele>820</ele><time>2023-08-09T11:13:01Z</time><name>PT1890</name></trkpt>
<trkpt lat="54.510551" lon="-3.015255"><ele>820</ele><time>2023-08-09T11:13:05Z</time><name>PT1891</name></trkpt>
<trkpt lat="54.510526" lon="-3.015247"><ele>820</ele><time>2023-08-09T11:13:08Z</time><name>PT1892</name></trkpt>
<trkpt lat="54.510478" lon="-3.015230"><ele>817</ele><time>2023-08-09T11:13:12Z</time><name>PT1893</name></trkpt>
<trkpt lat="54.510438" lon="-3.015224"><ele>817</ele><time>2023-08-09T11:13:15Z</time><name>PT1894</name></trkpt>
<trkpt lat="54.510395" lon="-3.015229"><ele>817</ele><time>2023-08-09T11:13:18Z</time><name>PT1895</name></trkpt>
<trkpt lat="54.510347" lon="-3.015254"><ele>816</ele><time>2023-08-09T11:13:22Z</time><name>PT1896</name></trkpt>
<trkpt lat="54.510310" lon="-3.015281"><ele>816</ele><time>2023-08-09T11:13:25Z</time><name>PT1897</name></trkpt>
<trkpt lat="54.510267" lon="-3.015301"><ele>817</ele><time>2023-08-09T11:13:29Z</time><name>PT1898</name></trkpt>
<trkpt lat="54.510216" lon="-3.015335"><ele>816</ele><time>2023-08-09T11:13:33Z</time><name>PT1899</name></trkpt>
<trkpt lat="54.510182" lon="-3.015352"><ele>815</ele><time>2023-08-09T11:13:36Z</time><name>PT1900</name></trkpt>
<trkpt lat="54.510133" lon="-3.015394"><ele>815</ele><time>2023-08-09T11:13:40Z</time><name>PT1901</name></trkpt>
<trkpt lat="54.510102" lon="-3.015435"><ele>816</ele><time>2023-08-09T11:13:43Z</time><name>PT1902</name></trkpt>
<trkpt lat="54.510047" lon="-3.015458"><ele>817</ele><time>2023-08-09T11:13:47Z</time><name>PT1903</name></trkpt>
<trkpt lat="54.510009" lon="-3.015488"><ele>817</ele><time>2023-08-09T11:13:50Z</time><name>PT1904</name></trkpt>
<trkpt lat="54.509962" lon="-3.015551"><ele>817</ele><time>2023-08-09T11:13:54Z</time><name>PT1905</name></trkpt>
<trkpt lat="54.509916" lon="-3.015588"><ele>818</ele><time>2023-08-09T11:13:58Z</time><name>PT1906</name></trkpt>
<trkpt lat="54.509881" lon="-3.015615"><ele>819</ele><time>2023-08-09T11:14:01Z</time><name>PT1907</name></trkpt>
<trkpt lat="54.509842" lon="-3.015630"><ele>821</ele><time>2023-08-09T11:14:05Z</time><name>PT1908</name></trkpt>
<trkpt lat="54.509816" lon="-3.015646"><ele>824</ele><time>2023-08-09T11:14:08Z</time><name>PT1909</name></trkpt>
<trkpt lat="54.509783" lon="-3.015645"><ele>825</ele><time>2023-08-09T11:14:12Z</time><name>PT1910</name></trkpt>
<trkpt lat="54.509754" lon="-3.015657"><ele>825</ele><time>2023-08-09T11:14:15Z</time><name>PT1911</name></trkpt>
<trkpt lat="54.509730" lon="-3.015664"><ele>826</ele><time>2023-08-09T11:14:18Z</time><name>PT1912</name></trkpt>
<trkpt lat="54.509707" lon="-3.015680"><ele>826</ele><time>2023-08-09T11:14:21Z</time><name>PT1913</name></trkpt>
<trkpt lat="54.509669" lon="-3.015691"><ele>826</ele><time>2023-08-09T11:14:24Z</time><name>PT1914</name></trkpt>
<trkpt lat="54.509626" lon="-3.015698"><ele>825</ele><time>2023-08-09T11:14:28Z</time><name>PT1915</name></trkpt>
<trkpt lat="54.509600" lon="-3.015706"><ele>825</ele><time>2023-08-09T11:14:31Z</time><name>PT1916</name></trkpt>
<trkpt lat="54.509561" lon="-3.015715"><ele>825</ele><time>2023-08-09T11:14:35Z</time><name>PT1917</name></trkpt>
<trkpt lat="54.509533" lon="-3.015719"><ele>826</ele><time>2023-08-09T11:14:38Z</time><name>PT1918</name></trkpt>
<trkpt lat="54.509493" lon="-3.015735"><ele>827</ele><time>2023-08-09T11:14:42Z</time><name>PT1919</name></trkpt>
<trkpt lat="54.509456" lon="-3.015754"><ele>828</ele><time>2023-08-09T11:14:45Z</time><name>PT1920</name></trkpt>
<trkpt lat="54.509404" lon="-3.015783"><ele>828</ele><time>2023-08-09T11:14:49Z</time><name>PT1921</name></trkpt>
<trkpt lat="54.509359" lon="-3.015828"><ele>827</ele><time>2023-08-09T11:14:53Z</time><name>PT1922</name></trkpt>
<trkpt lat="54.509330" lon="-3.015864"><ele>826</ele><time>2023-08-09T11:14:56Z</time><name>PT1923</name></trkpt>
<trkpt lat="54.509289" lon="-3.015899"><ele>825</ele><time>2023-08-09T11:15:00Z</time><name>PT1924</name></trkpt>
<trkpt lat="54.509262" lon="-3.015921"><ele>824</ele><time>2023-08-09T11:15:03Z</time><name>PT1925</name></trkpt>
<trkpt lat="54.509235" lon="-3.015966"><ele>824</ele><time>2023-08-09T11:15:07Z</time><name>PT1926</name></trkpt>
<trkpt lat="54.509200" lon="-3.015992"><ele>826</ele><time>2023-08-09T11:15:10Z</time><name>PT1927</name></trkpt>
<trkpt lat="54.509163" lon="-3.015997"><ele>826</ele><time>2023-08-09T11:15:13Z</time><name>PT1928</name></trkpt>
<trkpt lat="54.509109" lon="-3.016023"><ele>824</ele><time>2023-08-09T11:15:17Z</time><name>PT1929</name></trkpt>
<trkpt lat="54.509076" lon="-3.016032"><ele>826</ele><time>2023-08-09T11:15:20Z</time><name>PT1930</name></trkpt>
<trkpt lat="54.509031" lon="-3.016036"><ele>827</ele><time>2023-08-09T11:15:24Z</time><name>PT1931</name></trkpt>
<trkpt lat="54.508985" lon="-3.016017"><ele>829</ele><time>2023-08-09T11:15:28Z</time><name>PT1932</name></trkpt>
<trkpt lat="54.508952" lon="-3.016004"><ele>830</ele><time>2023-08-09T11:15:31Z</time><name>PT1933</name></trkpt>
<trkpt lat="54.508917" lon="-3.015998"><ele>829</ele><time>2023-08-09T11:15:34Z</time><name>PT1934</name></trkpt>
<trkpt lat="54.508871" lon="-3.015966"><ele>828</ele><time>2023-08-09T11:15:38Z</time><name>PT1935</name></trkpt>
<trkpt lat="54.508837" lon="-3.015951"><ele>830</ele><time>2023-08-09T11:15:41Z</time><name>PT1936</name></trkpt>
<trkpt lat="54.508811" lon="-3.015911"><ele>825</ele><time>2023-08-09T11:15:44Z</time><name>PT1937</name></trkpt>
<trkpt lat="54.508779" lon="-3.015891"><ele>823</ele><time>2023-08-09T11:15:47Z</time><name>PT1938</name></trkpt>
<trkpt lat="54.508753" lon="-3.015857"><ele>822</ele><time>2023-08-09T11:15:51Z</time><name>PT1939</name></trkpt>
<trkpt lat="54.508722" lon="-3.015816"><ele>822</ele><time>2023-08-09T11:15:55Z</time><name>PT1940</name></trkpt>
<trkpt lat="54.508693" lon="-3.015759"><ele>822</ele><time>2023-08-09T11:15:59Z</time><name>PT1941</name></trkpt>
<trkpt lat="54.508658" lon="-3.015709"><ele>822</ele><time>2023-08-09T11:16:03Z</time><name>PT1942</name></trkpt>
<trkpt lat="54.508635" lon="-3.015668"><ele>821</ele><time>2023-08-09T11:16:06Z</time><name>PT1943</name></trkpt>
<trkpt lat="54.508605" lon="-3.015613"><ele>821</ele><time>2023-08-09T11:16:10Z</time><name>PT1944</name></trkpt>
<trkpt lat="54.508575" lon="-3.015558"><ele>821</ele><time>2023-08-09T11:16:14Z</time><name>PT1945</name></trkpt>
<trkpt lat="54.508553" lon="-3.015520"><ele>820</ele><time>2023-08-09T11:16:17Z</time><name>PT1946</name></trkpt>
<trkpt lat="54.508537" lon="-3.015479"><ele>820</ele><time>2023-08-09T11:16:20Z</time><name>PT1947</name></trkpt>
<trkpt lat="54.508516" lon="-3.015445"><ele>819</ele><time>2023-08-09T11:16:23Z</time><name>PT1948</name></trkpt>
<trkpt lat="54.508501" lon="-3.015408"><ele>818</ele><time>2023-08-09T11:16:27Z</time><name>PT1949</name></trkpt>
<trkpt lat="54.508478" lon="-3.015345"><ele>819</ele><time>2023-08-09T11:16:31Z</time><name>PT1950</name></trkpt>
<trkpt lat="54.508470" lon="-3.015294"><ele>819</ele><time>2023-08-09T11:16:34Z</time><name>PT1951</name></trkpt>
<trkpt lat="54.508470" lon="-3.015241"><ele>819</ele><time>2023-08-09T11:16:37Z</time><name>PT1952</name></trkpt>
<trkpt lat="54.508484" lon="-3.015177"><ele>820</ele><time>2023-08-09T11:16:41Z</time><name>PT1953</name></trkpt>
<trkpt lat="54.508491" lon="-3.015134"><ele>819</ele><time>2023-08-09T11:16:44Z</time><name>PT1954</name></trkpt>
<trkpt lat="54.508495" lon="-3.015088"><ele>820</ele><time>2023-08-09T11:16:48Z</time><name>PT1955</name></trkpt>
<trkpt lat="54.508497" lon="-3.015064"><ele>820</ele><time>2023-08-09T11:16:51Z</time><name>PT1956</name></trkpt>
<trkpt lat="54.508502" lon="-3.015009"><ele>820</ele><time>2023-08-09T11:16:55Z</time><name>PT1957</name></trkpt>
<trkpt lat="54.508509" lon="-3.014979"><ele>819</ele><time>2023-08-09T11:16:58Z</time><name>PT1958</name></trkpt>
<trkpt lat="54.508514" lon="-3.014950"><ele>820</ele><time>2023-08-09T11:17:02Z</time><name>PT1959</name></trkpt>
<trkpt lat="54.508524" lon="-3.014922"><ele>820</ele><time>2023-08-09T11:17:05Z</time><name>PT1960</name></trkpt>
<trkpt lat="54.508531" lon="-3.014882"><ele>821</ele><time>2023-08-09T11:17:08Z</time><name>PT1961</name></trkpt>
<trkpt lat="54.508540" lon="-3.014848"><ele>822</ele><time>2023-08-09T11:17:12Z</time><name>PT1962</name></trkpt>
<trkpt lat="54.508551" lon="-3.014819"><ele>822</ele><time>2023-08-09T11:17:15Z</time><name>PT1963</name></trkpt>
<trkpt lat="54.508563" lon="-3.014799"><ele>822</ele><time>2023-08-09T11:17:19Z</time><name>PT1964</name></trkpt>
<trkpt lat="54.508568" lon="-3.014770"><ele>821</ele><time>2023-08-09T11:17:22Z</time><name>PT1965</name></trkpt>
<trkpt lat="54.508580" lon="-3.014720"><ele>823</ele><time>2023-08-09T11:17:26Z</time><name>PT1966</name></trkpt>
<trkpt lat="54.508592" lon="-3.014683"><ele>824</ele><time>2023-08-09T11:17:29Z</time><name>PT1967</name></trkpt>
<trkpt lat="54.508600" lon="-3.014626"><ele>825</ele><time>2023-08-09T11:17:33Z</time><name>PT1968</name></trkpt>
<trkpt lat="54.508607" lon="-3.014580"><ele>826</ele><time>2023-08-09T11:17:36Z</time><name>PT1969</name></trkpt>
<trkpt lat="54.508617" lon="-3.014536"><ele>827</ele><time>2023-08-09T11:17:39Z</time><name>PT1970</name></trkpt>
<trkpt lat="54.508623" lon="-3.014492"><ele>828</ele><time>2023-08-09T11:17:42Z</time><name>PT1971</name></trkpt>
<trkpt lat="54.508630" lon="-3.014427"><ele>829</ele><time>2023-08-09T11:17:46Z</time><name>PT1972</name></trkpt>
<trkpt lat="54.508638" lon="-3.014381"><ele>829</ele><time>2023-08-09T11:17:49Z</time><name>PT1973</name></trkpt>
<trkpt lat="54.508641" lon="-3.014318"><ele>829</ele><time>2023-08-09T11:17:53Z</time><name>PT1974</name></trkpt>
<trkpt lat="54.508637" lon="-3.014255"><ele>829</ele><time>2023-08-09T11:17:57Z</time><name>PT1975</name></trkpt>
<trkpt lat="54.508629" lon="-3.014211"><ele>828</ele><time>2023-08-09T11:18:00Z</time><name>PT1976</name></trkpt>
<trkpt lat="54.508624" lon="-3.014168"><ele>828</ele><time>2023-08-09T11:18:03Z</time><name>PT1977</name></trkpt>
<trkpt lat="54.508631" lon="-3.014117"><ele>829</ele><time>2023-08-09T11:18:06Z</time><name>PT1978</name></trkpt>
<trkpt lat="54.508640" lon="-3.014058"><ele>830</ele><time>2023-08-09T11:18:10Z</time><name>PT1979</name></trkpt>
<trkpt lat="54.508641" lon="-3.014007"><ele>830</ele><time>2023-08-09T11:18:14Z</time><name>PT1980</name></trkpt>
<trkpt lat="54.508648" lon="-3.013954"><ele>831</ele><time>2023-08-09T11:18:18Z</time><name>PT1981</name></trkpt>
<trkpt lat="54.508648" lon="-3.013889"><ele>831</ele><time>2023-08-09T11:18:22Z</time><name>PT1982</name></trkpt>
<trkpt lat="54.508658" lon="-3.013829"><ele>832</ele><time>2023-08-09T11:18:26Z</time><name>PT1983</name></trkpt>
<trkpt lat="54.508662" lon="-3.013786"><ele>833</ele><time>2023-08-09T11:18:29Z</time><name>PT1984</name></trkpt>
<trkpt lat="54.508669" lon="-3.013744"><ele>834</ele><time>2023-08-09T11:18:32Z</time><name>PT1985</name></trkpt>
<trkpt lat="54.508675" lon="-3.013699"><ele>834</ele><time>2023-08-09T11:18:35Z</time><name>PT1986</name></trkpt>
<trkpt lat="54.508680" lon="-3.013640"><ele>835</ele><time>2023-08-09T11:18:39Z</time><name>PT1987</name></trkpt>
<trkpt lat="54.508686" lon="-3.013605"><ele>835</ele><time>2023-08-09T11:18:42Z</time><name>PT1988</name></trkpt>
<trkpt lat="54.508686" lon="-3.013557"><ele>835</ele><time>2023-08-09T11:18:45Z</time><name>PT1989</name></trkpt>
<trkpt lat="54.508688" lon="-3.013494"><ele>836</ele><time>2023-08-09T11:18:49Z</time><name>PT1990</name></trkpt>
<trkpt lat="54.508685" lon="-3.013428"><ele>837</ele><time>2023-08-09T11:18:53Z</time><name>PT1991</name></trkpt>
<trkpt lat="54.508688" lon="-3.013375"><ele>838</ele><time>2023-08-09T11:18:56Z</time><name>PT1992</name></trkpt>
<trkpt lat="54.508688" lon="-3.013309"><ele>839</ele><time>2023-08-09T11:19:00Z</time><name>PT1993</name></trkpt>
<trkpt lat="54.508688" lon="-3.013257"><ele>839</ele><time>2023-08-09T11:19:03Z</time><name>PT1994</name></trkpt>
<trkpt lat="54.508682" lon="-3.013178"><ele>839</ele><time>2023-08-09T11:19:07Z</time><name>PT1995</name></trkpt>
<trkpt lat="54.508679" lon="-3.013102"><ele>840</ele><time>2023-08-09T11:19:11Z</time><name>PT1996</name></trkpt>
<trkpt lat="54.508676" lon="-3.013011"><ele>840</ele><time>2023-08-09T11:19:15Z</time><name>PT1997</name></trkpt>
<trkpt lat="54.508670" lon="-3.012952"><ele>840</ele><time>2023-08-09T11:19:18Z</time><name>PT1998</name></trkpt>
<trkpt lat="54.508662" lon="-3.012890"><ele>841</ele><time>2023-08-09T11:19:21Z</time><name>PT1999</name></trkpt>
<trkpt lat="54.508640" lon="-3.012818"><ele>842</ele><time>2023-08-09T11:19:25Z</time><name>PT2000</name></trkpt>
<trkpt lat="54.508633" lon="-3.012771"><ele>842</ele><time>2023-08-09T11:19:28Z</time><name>PT2001</name></trkpt>
<trkpt lat="54.508620" lon="-3.012715"><ele>842</ele><time>2023-08-09T11:19:31Z</time><name>PT2002</name></trkpt>
<trkpt lat="54.508610" lon="-3.012666"><ele>843</ele><time>2023-08-09T11:19:34Z</time><name>PT2003</name></trkpt>
<trkpt lat="54.508601" lon="-3.012595"><ele>843</ele><time>2023-08-09T11:19:38Z</time><name>PT2004</name></trkpt>
<trkpt lat="54.508602" lon="-3.012522"><ele>844</ele><time>2023-08-09T11:19:42Z</time><name>PT2005</name></trkpt>
<trkpt lat="54.508604" lon="-3.012473"><ele>845</ele><time>2023-08-09T11:19:45Z</time><name>PT2006</name></trkpt>
<trkpt lat="54.508604" lon="-3.012418"><ele>845</ele><time>2023-08-09T11:19:48Z</time><name>PT2007</name></trkpt>
<trkpt lat="54.508605" lon="-3.012364"><ele>846</ele><time>2023-08-09T11:19:52Z</time><name>PT2008</name></trkpt>
<trkpt lat="54.508604" lon="-3.012318"><ele>847</ele><time>2023-08-09T11:19:55Z</time><name>PT2009</name></trkpt>
<trkpt lat="54.508602" lon="-3.012282"><ele>848</ele><time>2023-08-09T11:19:58Z</time><name>PT2010</name></trkpt>
<trkpt lat="54.508602" lon="-3.012245"><ele>850</ele><time>2023-08-09T11:20:02Z</time><name>PT2011</name></trkpt>
<trkpt lat="54.508592" lon="-3.012222"><ele>850</ele><time>2023-08-09T11:20:05Z</time><name>PT2012</name></trkpt>
<trkpt lat="54.508582" lon="-3.012192"><ele>851</ele><time>2023-08-09T11:20:09Z</time><name>PT2013</name></trkpt>
<trkpt lat="54.508570" lon="-3.012159"><ele>853</ele><time>2023-08-09T11:20:12Z</time><name>PT2014</name></trkpt>
<trkpt lat="54.508562" lon="-3.012121"><ele>853</ele><time>2023-08-09T11:20:16Z</time><name>PT2015</name></trkpt>
<trkpt lat="54.508571" lon="-3.012093"><ele>853</ele><time>2023-08-09T11:20:19Z</time><name>PT2016</name></trkpt>
<trkpt lat="54.508577" lon="-3.012062"><ele>854</ele><time>2023-08-09T11:20:22Z</time><name>PT2017</name></trkpt>
<trkpt lat="54.508578" lon="-3.012038"><ele>854</ele><time>2023-08-09T11:20:26Z</time><name>PT2018</name></trkpt>
<trkpt lat="54.508567" lon="-3.012013"><ele>855</ele><time>2023-08-09T11:20:29Z</time><name>PT2019</name></trkpt>
<trkpt lat="54.508557" lon="-3.011984"><ele>857</ele><time>2023-08-09T11:20:33Z</time><name>PT2020</name></trkpt>
<trkpt lat="54.508551" lon="-3.011954"><ele>857</ele><time>2023-08-09T11:20:36Z</time><name>PT2021</name></trkpt>
<trkpt lat="54.508553" lon="-3.011916"><ele>858</ele><time>2023-08-09T11:20:40Z</time><name>PT2022</name></trkpt>
<trkpt lat="54.508552" lon="-3.011885"><ele>859</ele><time>2023-08-09T11:20:43Z</time><name>PT2023</name></trkpt>
<trkpt lat="54.508549" lon="-3.011850"><ele>861</ele><time>2023-08-09T11:20:47Z</time><name>PT2024</name></trkpt>
<trkpt lat="54.508544" lon="-3.011827"><ele>860</ele><time>2023-08-09T11:20:50Z</time><name>PT2025</name></trkpt>
<trkpt lat="54.508544" lon="-3.011783"><ele>861</ele><time>2023-08-09T11:20:54Z</time><name>PT2026</name></trkpt>
<trkpt lat="54.508545" lon="-3.011735"><ele>861</ele><time>2023-08-09T11:20:58Z</time><name>PT2027</name></trkpt>
<trkpt lat="54.508542" lon="-3.011707"><ele>861</ele><time>2023-08-09T11:21:01Z</time><name>PT2028</name></trkpt>
<trkpt lat="54.508537" lon="-3.011661"><ele>862</ele><time>2023-08-09T11:21:05Z</time><name>PT2029</name></trkpt>
<trkpt lat="54.508536" lon="-3.011622"><ele>862</ele><time>2023-08-09T11:21:09Z</time><name>PT2030</name></trkpt>
<trkpt lat="54.508540" lon="-3.011581"><ele>862</ele><time>2023-08-09T11:21:12Z</time><name>PT2031</name></trkpt>
<trkpt lat="54.508550" lon="-3.011538"><ele>862</ele><time>2023-08-09T11:21:15Z</time><name>PT2032</name></trkpt>
<trkpt lat="54.508573" lon="-3.011474"><ele>863</ele><time>2023-08-09T11:21:19Z</time><name>PT2033</name></trkpt>
<trkpt lat="54.508588" lon="-3.011427"><ele>863</ele><time>2023-08-09T11:21:22Z</time><name>PT2034</name></trkpt>
<trkpt lat="54.508607" lon="-3.011367"><ele>863</ele><time>2023-08-09T11:21:26Z</time><name>PT2035</name></trkpt>
<trkpt lat="54.508617" lon="-3.011330"><ele>863</ele><time>2023-08-09T11:21:29Z</time><name>PT2036</name></trkpt>
<trkpt lat="54.508634" lon="-3.011281"><ele>863</ele><time>2023-08-09T11:21:33Z</time><name>PT2037</name></trkpt>
<trkpt lat="54.508647" lon="-3.011244"><ele>863</ele><time>2023-08-09T11:21:36Z</time><name>PT2038</name></trkpt>
<trkpt lat="54.508672" lon="-3.011195"><ele>864</ele><time>2023-08-09T11:21:40Z</time><name>PT2039</name></trkpt>
<trkpt lat="54.508686" lon="-3.011170"><ele>864</ele><time>2023-08-09T11:21:44Z</time><name>PT2040</name></trkpt>
<trkpt lat="54.508686" lon="-3.011165"><ele>864</ele><time>2023-08-09T11:21:47Z</time><name>PT2041</name></trkpt>
<trkpt lat="54.508684" lon="-3.011164"><ele>865</ele><time>2023-08-09T11:21:51Z</time><name>PT2042</name></trkpt>
<trkpt lat="54.508684" lon="-3.011181"><ele>865</ele><time>2023-08-09T11:22:08Z</time><name>PT2043</name></trkpt>
<trkpt lat="54.508665" lon="-3.011222"><ele>865</ele><time>2023-08-09T11:22:12Z</time><name>PT2044</name></trkpt>
<trkpt lat="54.508663" lon="-3.011222"><ele>865</ele><time>2023-08-09T11:22:15Z</time><name>PT2045</name></trkpt>
<trkpt lat="54.508646" lon="-3.011239"><ele>864</ele><time>2023-08-09T11:23:49Z</time><name>PT2046</name></trkpt>
<trkpt lat="54.508650" lon="-3.011246"><ele>863</ele><time>2023-08-09T11:23:53Z</time><name>PT2047</name></trkpt>
<trkpt lat="54.508632" lon="-3.011274"><ele>863</ele><time>2023-08-09T11:24:18Z</time><name>PT2048</name></trkpt>
<trkpt lat="54.508611" lon="-3.011325"><ele>863</ele><time>2023-08-09T11:24:21Z</time><name>PT2049</name></trkpt>
<trkpt lat="54.508593" lon="-3.011398"><ele>864</ele><time>2023-08-09T11:24:24Z</time><name>PT2050</name></trkpt>
<trkpt lat="54.508559" lon="-3.011479"><ele>864</ele><time>2023-08-09T11:24:28Z</time><name>PT2051</name></trkpt>
<trkpt lat="54.508539" lon="-3.011538"><ele>865</ele><time>2023-08-09T11:24:31Z</time><name>PT2052</name></trkpt>
<trkpt lat="54.508520" lon="-3.011606"><ele>865</ele><time>2023-08-09T11:24:35Z</time><name>PT2053</name></trkpt>
<trkpt lat="54.508518" lon="-3.011659"><ele>866</ele><time>2023-08-09T11:24:39Z</time><name>PT2054</name></trkpt>
<trkpt lat="54.508527" lon="-3.011699"><ele>867</ele><time>2023-08-09T11:24:43Z</time><name>PT2055</name></trkpt>
<trkpt lat="54.508525" lon="-3.011745"><ele>867</ele><time>2023-08-09T11:24:47Z</time><name>PT2056</name></trkpt>
<trkpt lat="54.508531" lon="-3.011776"><ele>866</ele><time>2023-08-09T11:24:50Z</time><name>PT2057</name></trkpt>
<trkpt lat="54.508528" lon="-3.011815"><ele>865</ele><time>2023-08-09T11:24:53Z</time><name>PT2058</name></trkpt>
<trkpt lat="54.508534" lon="-3.011866"><ele>865</ele><time>2023-08-09T11:24:57Z</time><name>PT2059</name></trkpt>
<trkpt lat="54.508544" lon="-3.011915"><ele>865</ele><time>2023-08-09T11:25:01Z</time><name>PT2060</name></trkpt>
<trkpt lat="54.508545" lon="-3.011940"><ele>865</ele><time>2023-08-09T11:25:05Z</time><name>PT2061</name></trkpt>
<trkpt lat="54.508560" lon="-3.011982"><ele>865</ele><time>2023-08-09T11:25:21Z</time><name>PT2062</name></trkpt>
<trkpt lat="54.508572" lon="-3.012041"><ele>865</ele><time>2023-08-09T11:25:24Z</time><name>PT2063</name></trkpt>
<trkpt lat="54.508558" lon="-3.012071"><ele>863</ele><time>2023-08-09T11:25:27Z</time><name>PT2064</name></trkpt>
<trkpt lat="54.508543" lon="-3.012117"><ele>861</ele><time>2023-08-09T11:25:31Z</time><name>PT2065</name></trkpt>
<trkpt lat="54.508564" lon="-3.012160"><ele>861</ele><time>2023-08-09T11:25:34Z</time><name>PT2066</name></trkpt>
<trkpt lat="54.508578" lon="-3.012197"><ele>860</ele><time>2023-08-09T11:25:37Z</time><name>PT2067</name></trkpt>
<trkpt lat="54.508581" lon="-3.012249"><ele>860</ele><time>2023-08-09T11:25:41Z</time><name>PT2068</name></trkpt>
<trkpt lat="54.508582" lon="-3.012287"><ele>859</ele><time>2023-08-09T11:25:44Z</time><name>PT2069</name></trkpt>
<trkpt lat="54.508576" lon="-3.012344"><ele>858</ele><time>2023-08-09T11:25:48Z</time><name>PT2070</name></trkpt>
<trkpt lat="54.508574" lon="-3.012389"><ele>858</ele><time>2023-08-09T11:25:51Z</time><name>PT2071</name></trkpt>
<trkpt lat="54.508573" lon="-3.012436"><ele>857</ele><time>2023-08-09T11:25:55Z</time><name>PT2072</name></trkpt>
<trkpt lat="54.508578" lon="-3.012473"><ele>856</ele><time>2023-08-09T11:25:58Z</time><name>PT2073</name></trkpt>
<trkpt lat="54.508590" lon="-3.012520"><ele>855</ele><time>2023-08-09T11:26:01Z</time><name>PT2074</name></trkpt>
<trkpt lat="54.508599" lon="-3.012600"><ele>853</ele><time>2023-08-09T11:26:05Z</time><name>PT2075</name></trkpt>
<trkpt lat="54.508616" lon="-3.012679"><ele>853</ele><time>2023-08-09T11:26:09Z</time><name>PT2076</name></trkpt>
<trkpt lat="54.508630" lon="-3.012748"><ele>851</ele><time>2023-08-09T11:26:12Z</time><name>PT2077</name></trkpt>
<trkpt lat="54.508650" lon="-3.012826"><ele>849</ele><time>2023-08-09T11:26:16Z</time><name>PT2078</name></trkpt>
<trkpt lat="54.508674" lon="-3.012896"><ele>848</ele><time>2023-08-09T11:26:20Z</time><name>PT2079</name></trkpt>
<trkpt lat="54.508701" lon="-3.012970"><ele>849</ele><time>2023-08-09T11:26:24Z</time><name>PT2080</name></trkpt>
<trkpt lat="54.508720" lon="-3.013049"><ele>848</ele><time>2023-08-09T11:26:28Z</time><name>PT2081</name></trkpt>
<trkpt lat="54.508734" lon="-3.013145"><ele>848</ele><time>2023-08-09T11:26:32Z</time><name>PT2082</name></trkpt>
<trkpt lat="54.508745" lon="-3.013204"><ele>847</ele><time>2023-08-09T11:26:35Z</time><name>PT2083</name></trkpt>
<trkpt lat="54.508764" lon="-3.013267"><ele>847</ele><time>2023-08-09T11:26:38Z</time><name>PT2084</name></trkpt>
<trkpt lat="54.508789" lon="-3.013337"><ele>847</ele><time>2023-08-09T11:26:42Z</time><name>PT2085</name></trkpt>
<trkpt lat="54.508809" lon="-3.013410"><ele>846</ele><time>2023-08-09T11:26:46Z</time><name>PT2086</name></trkpt>
<trkpt lat="54.508836" lon="-3.013492"><ele>846</ele><time>2023-08-09T11:26:50Z</time><name>PT2087</name></trkpt>
<trkpt lat="54.508848" lon="-3.013551"><ele>846</ele><time>2023-08-09T11:26:53Z</time><name>PT2088</name></trkpt>
<trkpt lat="54.508867" lon="-3.013598"><ele>846</ele><time>2023-08-09T11:26:56Z</time><name>PT2089</name></trkpt>
<trkpt lat="54.508894" lon="-3.013629"><ele>846</ele><time>2023-08-09T11:27:00Z</time><name>PT2090</name></trkpt>
<trkpt lat="54.508920" lon="-3.013646"><ele>845</ele><time>2023-08-09T11:27:03Z</time><name>PT2091</name></trkpt>
<trkpt lat="54.508951" lon="-3.013670"><ele>845</ele><time>2023-08-09T11:27:07Z</time><name>PT2092</name></trkpt>
<trkpt lat="54.508971" lon="-3.013696"><ele>846</ele><time>2023-08-09T11:27:10Z</time><name>PT2093</name></trkpt>
<trkpt lat="54.508994" lon="-3.013733"><ele>847</ele><time>2023-08-09T11:27:14Z</time><name>PT2094</name></trkpt>
<trkpt lat="54.509003" lon="-3.013781"><ele>847</ele><time>2023-08-09T11:27:18Z</time><name>PT2095</name></trkpt>
<trkpt lat="54.509015" lon="-3.013815"><ele>846</ele><time>2023-08-09T11:27:21Z</time><name>PT2096</name></trkpt>
<trkpt lat="54.509044" lon="-3.013860"><ele>847</ele><time>2023-08-09T11:27:25Z</time><name>PT2097</name></trkpt>
<trkpt lat="54.509056" lon="-3.013890"><ele>847</ele><time>2023-08-09T11:27:28Z</time><name>PT2098</name></trkpt>
<trkpt lat="54.509080" lon="-3.013926"><ele>847</ele><time>2023-08-09T11:27:32Z</time><name>PT2099</name></trkpt>
<trkpt lat="54.509089" lon="-3.013972"><ele>847</ele><time>2023-08-09T11:27:35Z</time><name>PT2100</name></trkpt>
<trkpt lat="54.509104" lon="-3.014025"><ele>848</ele><time>2023-08-09T11:27:39Z</time><name>PT2101</name></trkpt>
<trkpt lat="54.509113" lon="-3.014060"><ele>848</ele><time>2023-08-09T11:27:43Z</time><name>PT2102</name></trkpt>
<trkpt lat="54.509122" lon="-3.014113"><ele>848</ele><time>2023-08-09T11:27:47Z</time><name>PT2103</name></trkpt>
<trkpt lat="54.509136" lon="-3.014145"><ele>848</ele><time>2023-08-09T11:27:50Z</time><name>PT2104</name></trkpt>
<trkpt lat="54.509143" lon="-3.014185"><ele>847</ele><time>2023-08-09T11:27:53Z</time><name>PT2105</name></trkpt>
<trkpt lat="54.509153" lon="-3.014239"><ele>846</ele><time>2023-08-09T11:27:56Z</time><name>PT2106</name></trkpt>
<trkpt lat="54.509167" lon="-3.014295"><ele>847</ele><time>2023-08-09T11:28:00Z</time><name>PT2107</name></trkpt>
<trkpt lat="54.509176" lon="-3.014335"><ele>847</ele><time>2023-08-09T11:28:04Z</time><name>PT2108</name></trkpt>
<trkpt lat="54.509211" lon="-3.014341"><ele>848</ele><time>2023-08-09T11:28:08Z</time><name>PT2109</name></trkpt>
<trkpt lat="54.509242" lon="-3.014343"><ele>849</ele><time>2023-08-09T11:28:11Z</time><name>PT2110</name></trkpt>
<trkpt lat="54.509270" lon="-3.014309"><ele>850</ele><time>2023-08-09T11:28:15Z</time><name>PT2111</name></trkpt>
<trkpt lat="54.509295" lon="-3.014293"><ele>851</ele><time>2023-08-09T11:28:18Z</time><name>PT2112</name></trkpt>
<trkpt lat="54.509328" lon="-3.014276"><ele>850</ele><time>2023-08-09T11:28:21Z</time><name>PT2113</name></trkpt>
<trkpt lat="54.509357" lon="-3.014280"><ele>851</ele><time>2023-08-09T11:28:24Z</time><name>PT2114</name></trkpt>
<trkpt lat="54.509392" lon="-3.014310"><ele>851</ele><time>2023-08-09T11:28:28Z</time><name>PT2115</name></trkpt>
<trkpt lat="54.509417" lon="-3.014324"><ele>851</ele><time>2023-08-09T11:28:32Z</time><name>PT2116</name></trkpt>
<trkpt lat="54.509453" lon="-3.014343"><ele>852</ele><time>2023-08-09T11:28:36Z</time><name>PT2117</name></trkpt>
<trkpt lat="54.509470" lon="-3.014385"><ele>852</ele><time>2023-08-09T11:28:40Z</time><name>PT2118</name></trkpt>
<trkpt lat="54.509492" lon="-3.014413"><ele>852</ele><time>2023-08-09T11:28:44Z</time><name>PT2119</name></trkpt>
<trkpt lat="54.509511" lon="-3.014417"><ele>852</ele><time>2023-08-09T11:28:47Z</time><name>PT2120</name></trkpt>
<trkpt lat="54.509527" lon="-3.014442"><ele>852</ele><time>2023-08-09T11:28:51Z</time><name>PT2121</name></trkpt>
<trkpt lat="54.509533" lon="-3.014461"><ele>851</ele><time>2023-08-09T11:28:54Z</time><name>PT2122</name></trkpt>
<trkpt lat="54.509547" lon="-3.014511"><ele>851</ele><time>2023-08-09T11:28:58Z</time><name>PT2123</name></trkpt>
<trkpt lat="54.509553" lon="-3.014546"><ele>850</ele><time>2023-08-09T11:29:01Z</time><name>PT2124</name></trkpt>
<trkpt lat="54.509549" lon="-3.014579"><ele>849</ele><time>2023-08-09T11:29:04Z</time><name>PT2125</name></trkpt>
<trkpt lat="54.509553" lon="-3.014621"><ele>849</ele><time>2023-08-09T11:29:07Z</time><name>PT2126</name></trkpt>
<trkpt lat="54.509547" lon="-3.014662"><ele>848</ele><time>2023-08-09T11:29:10Z</time><name>PT2127</name></trkpt>
<trkpt lat="54.509570" lon="-3.014684"><ele>848</ele><time>2023-08-09T11:29:14Z</time><name>PT2128</name></trkpt>
<trkpt lat="54.509591" lon="-3.014701"><ele>848</ele><time>2023-08-09T11:29:18Z</time><name>PT2129</name></trkpt>
<trkpt lat="54.509594" lon="-3.014740"><ele>846</ele><time>2023-08-09T11:29:22Z</time><name>PT2130</name></trkpt>
<trkpt lat="54.509627" lon="-3.014768"><ele>846</ele><time>2023-08-09T11:29:26Z</time><name>PT2131</name></trkpt>
<trkpt lat="54.509655" lon="-3.014765"><ele>845</ele><time>2023-08-09T11:29:30Z</time><name>PT2132</name></trkpt>
<trkpt lat="54.509682" lon="-3.014775"><ele>844</ele><time>2023-08-09T11:29:34Z</time><name>PT2133</name></trkpt>
<trkpt lat="54.509698" lon="-3.014760"><ele>842</ele><time>2023-08-09T11:29:37Z</time><name>PT2134</name></trkpt>
<trkpt lat="54.509725" lon="-3.014746"><ele>842</ele><time>2023-08-09T11:29:41Z</time><name>PT2135</name></trkpt>
<trkpt lat="54.509734" lon="-3.014772"><ele>841</ele><time>2023-08-09T11:29:45Z</time><name>PT2136</name></trkpt>
<trkpt lat="54.509752" lon="-3.014788"><ele>840</ele><time>2023-08-09T11:29:48Z</time><name>PT2137</name></trkpt>
<trkpt lat="54.509772" lon="-3.014809"><ele>839</ele><time>2023-08-09T11:29:51Z</time><name>PT2138</name></trkpt>
<trkpt lat="54.509795" lon="-3.014852"><ele>838</ele><time>2023-08-09T11:29:55Z</time><name>PT2139</name></trkpt>
<trkpt lat="54.509819" lon="-3.014885"><ele>838</ele><time>2023-08-09T11:29:58Z</time><name>PT2140</name></trkpt>
<trkpt lat="54.509841" lon="-3.014892"><ele>838</ele><time>2023-08-09T11:30:01Z</time><name>PT2141</name></trkpt>
<trkpt lat="54.509873" lon="-3.014893"><ele>838</ele><time>2023-08-09T11:30:05Z</time><name>PT2142</name></trkpt>
<trkpt lat="54.509890" lon="-3.014911"><ele>838</ele><time>2023-08-09T11:30:08Z</time><name>PT2143</name></trkpt>
<trkpt lat="54.509908" lon="-3.014921"><ele>836</ele><time>2023-08-09T11:30:11Z</time><name>PT2144</name></trkpt>
<trkpt lat="54.509931" lon="-3.014923"><ele>834</ele><time>2023-08-09T11:30:15Z</time><name>PT2145</name></trkpt>
<trkpt lat="54.509948" lon="-3.014914"><ele>833</ele><time>2023-08-09T11:30:18Z</time><name>PT2146</name></trkpt>
<trkpt lat="54.509964" lon="-3.014944"><ele>832</ele><time>2023-08-09T11:30:22Z</time><name>PT2147</name></trkpt>
<trkpt lat="54.509955" lon="-3.015000"><ele>832</ele><time>2023-08-09T11:30:26Z</time><name>PT2148</name></trkpt>
<trkpt lat="54.509953" lon="-3.015022"><ele>832</ele><time>2023-08-09T11:30:29Z</time><name>PT2149</name></trkpt>
<trkpt lat="54.509967" lon="-3.015011"><ele>831</ele><time>2023-08-09T11:30:33Z</time><name>PT2150</name></trkpt>
<trkpt lat="54.509980" lon="-3.015016"><ele>830</ele><time>2023-08-09T11:30:36Z</time><name>PT2151</name></trkpt>
<trkpt lat="54.509987" lon="-3.015008"><ele>830</ele><time>2023-08-09T11:30:39Z</time><name>PT2152</name></trkpt>
<trkpt lat="54.509991" lon="-3.015015"><ele>829</ele><time>2023-08-09T11:30:42Z</time><name>PT2153</name></trkpt>
<trkpt lat="54.510013" lon="-3.015021"><ele>828</ele><time>2023-08-09T11:30:46Z</time><name>PT2154</name></trkpt>
<trkpt lat="54.510027" lon="-3.015019"><ele>827</ele><time>2023-08-09T11:30:49Z</time><name>PT2155</name></trkpt>
<trkpt lat="54.510042" lon="-3.015022"><ele>826</ele><time>2023-08-09T11:30:53Z</time><name>PT2156</name></trkpt>
<trkpt lat="54.510060" lon="-3.015021"><ele>825</ele><time>2023-08-09T11:30:56Z</time><name>PT2157</name></trkpt>
<trkpt lat="54.510071" lon="-3.015057"><ele>825</ele><time>2023-08-09T11:30:59Z</time><name>PT2158</name></trkpt>
<trkpt lat="54.510088" lon="-3.015088"><ele>824</ele><time>2023-08-09T11:31:02Z</time><name>PT2159</name></trkpt>
<trkpt lat="54.510101" lon="-3.015094"><ele>823</ele><time>2023-08-09T11:31:05Z</time><name>PT2160</name></trkpt>
<trkpt lat="54.510108" lon="-3.015094"><ele>823</ele><time>2023-08-09T11:31:08Z</time><name>PT2161</name></trkpt>
<trkpt lat="54.510114" lon="-3.015096"><ele>823</ele><time>2023-08-09T11:31:11Z</time><name>PT2162</name></trkpt>
<trkpt lat="54.510117" lon="-3.015097"><ele>823</ele><time>2023-08-09T11:31:15Z</time><name>PT2163</name></trkpt>
<trkpt lat="54.510136" lon="-3.015107"><ele>823</ele><time>2023-08-09T11:31:18Z</time><name>PT2164</name></trkpt>
<trkpt lat="54.510170" lon="-3.015112"><ele>822</ele><time>2023-08-09T11:31:21Z</time><name>PT2165</name></trkpt>
<trkpt lat="54.510215" lon="-3.015128"><ele>822</ele><time>2023-08-09T11:31:25Z</time><name>PT2166</name></trkpt>
<trkpt lat="54.510267" lon="-3.015150"><ele>821</ele><time>2023-08-09T11:31:29Z</time><name>PT2167</name></trkpt>
<trkpt lat="54.510299" lon="-3.015169"><ele>821</ele><time>2023-08-09T11:31:32Z</time><name>PT2168</name></trkpt>
<trkpt lat="54.510357" lon="-3.015203"><ele>820</ele><time>2023-08-09T11:31:36Z</time><name>PT2169</name></trkpt>
<trkpt lat="54.510408" lon="-3.015226"><ele>820</ele><time>2023-08-09T11:31:40Z</time><name>PT2170</name></trkpt>
<trkpt lat="54.510457" lon="-3.015249"><ele>820</ele><time>2023-08-09T11:31:44Z</time><name>PT2171</name></trkpt>
<trkpt lat="54.510495" lon="-3.015255"><ele>819</ele><time>2023-08-09T11:31:47Z</time><name>PT2172</name></trkpt>
<trkpt lat="54.510539" lon="-3.015263"><ele>819</ele><time>2023-08-09T11:31:51Z</time><name>PT2173</name></trkpt>
<trkpt lat="54.510581" lon="-3.015272"><ele>818</ele><time>2023-08-09T11:31:55Z</time><name>PT2174</name></trkpt>
<trkpt lat="54.510615" lon="-3.015276"><ele>817</ele><time>2023-08-09T11:31:58Z</time><name>PT2175</name></trkpt>
<trkpt lat="54.510664" lon="-3.015284"><ele>817</ele><time>2023-08-09T11:32:02Z</time><name>PT2176</name></trkpt>
<trkpt lat="54.510714" lon="-3.015289"><ele>817</ele><time>2023-08-09T11:32:06Z</time><name>PT2177</name></trkpt>
<trkpt lat="54.510753" lon="-3.015294"><ele>817</ele><time>2023-08-09T11:32:09Z</time><name>PT2178</name></trkpt>
<trkpt lat="54.510790" lon="-3.015308"><ele>817</ele><time>2023-08-09T11:32:12Z</time><name>PT2179</name></trkpt>
<trkpt lat="54.510830" lon="-3.015326"><ele>815</ele><time>2023-08-09T11:32:16Z</time><name>PT2180</name></trkpt>
<trkpt lat="54.510864" lon="-3.015334"><ele>815</ele><time>2023-08-09T11:32:19Z</time><name>PT2181</name></trkpt>
<trkpt lat="54.510893" lon="-3.015336"><ele>814</ele><time>2023-08-09T11:32:22Z</time><name>PT2182</name></trkpt>
<trkpt lat="54.510929" lon="-3.015327"><ele>813</ele><time>2023-08-09T11:32:26Z</time><name>PT2183</name></trkpt>
<trkpt lat="54.510968" lon="-3.015312"><ele>812</ele><time>2023-08-09T11:32:30Z</time><name>PT2184</name></trkpt>
<trkpt lat="54.511000" lon="-3.015312"><ele>811</ele><time>2023-08-09T11:32:33Z</time><name>PT2185</name></trkpt>
<trkpt lat="54.511050" lon="-3.015304"><ele>811</ele><time>2023-08-09T11:32:37Z</time><name>PT2186</name></trkpt>
<trkpt lat="54.511087" lon="-3.015310"><ele>812</ele><time>2023-08-09T11:32:40Z</time><name>PT2187</name></trkpt>
<trkpt lat="54.511119" lon="-3.015320"><ele>812</ele><time>2023-08-09T11:32:43Z</time><name>PT2188</name></trkpt>
<trkpt lat="54.511170" lon="-3.015332"><ele>812</ele><time>2023-08-09T11:32:47Z</time><name>PT2189</name></trkpt>
<trkpt lat="54.511220" lon="-3.015347"><ele>812</ele><time>2023-08-09T11:32:51Z</time><name>PT2190</name></trkpt>
<trkpt lat="54.511267" lon="-3.015352"><ele>811</ele><time>2023-08-09T11:32:55Z</time><name>PT2191</name></trkpt>
<trkpt lat="54.511304" lon="-3.015360"><ele>812</ele><time>2023-08-09T11:32:58Z</time><name>PT2192</name></trkpt>
<trkpt lat="54.511334" lon="-3.015375"><ele>813</ele><time>2023-08-09T11:33:01Z</time><name>PT2193</name></trkpt>
<trkpt lat="54.511371" lon="-3.015387"><ele>813</ele><time>2023-08-09T11:33:05Z</time><name>PT2194</name></trkpt>
<trkpt lat="54.511401" lon="-3.015393"><ele>814</ele><time>2023-08-09T11:33:08Z</time><name>PT2195</name></trkpt>
<trkpt lat="54.511443" lon="-3.015406"><ele>814</ele><time>2023-08-09T11:33:12Z</time><name>PT2196</name></trkpt>
<trkpt lat="54.511470" lon="-3.015425"><ele>814</ele><time>2023-08-09T11:33:15Z</time><name>PT2197</name></trkpt>
<trkpt lat="54.511507" lon="-3.015450"><ele>815</ele><time>2023-08-09T11:33:19Z</time><name>PT2198</name></trkpt>
<trkpt lat="54.511537" lon="-3.015478"><ele>816</ele><time>2023-08-09T11:33:23Z</time><name>PT2199</name></trkpt>
<trkpt lat="54.511552" lon="-3.015499"><ele>816</ele><time>2023-08-09T11:33:26Z</time><name>PT2200</name></trkpt>
<trkpt lat="54.511573" lon="-3.015529"><ele>817</ele><time>2023-08-09T11:33:30Z</time><name>PT2201</name></trkpt>
<trkpt lat="54.511593" lon="-3.015563"><ele>819</ele><time>2023-08-09T11:33:34Z</time><name>PT2202</name></trkpt>
<trkpt lat="54.511606" lon="-3.015585"><ele>820</ele><time>2023-08-09T11:33:37Z</time><name>PT2203</name></trkpt>
<trkpt lat="54.511628" lon="-3.015622"><ele>820</ele><time>2023-08-09T11:33:41Z</time><name>PT2204</name></trkpt>
<trkpt lat="54.511649" lon="-3.015640"><ele>822</ele><time>2023-08-09T11:33:45Z</time><name>PT2205</name></trkpt>
<trkpt lat="54.511676" lon="-3.015653"><ele>823</ele><time>2023-08-09T11:33:49Z</time><name>PT2206</name></trkpt>
<trkpt lat="54.511695" lon="-3.015658"><ele>825</ele><time>2023-08-09T11:33:52Z</time><name>PT2207</name></trkpt>
<trkpt lat="54.511725" lon="-3.015681"><ele>826</ele><time>2023-08-09T11:33:56Z</time><name>PT2208</name></trkpt>
<trkpt lat="54.511751" lon="-3.015705"><ele>826</ele><time>2023-08-09T11:34:00Z</time><name>PT2209</name></trkpt>
<trkpt lat="54.511780" lon="-3.015746"><ele>827</ele><time>2023-08-09T11:34:04Z</time><name>PT2210</name></trkpt>
<trkpt lat="54.511811" lon="-3.015771"><ele>828</ele><time>2023-08-09T11:34:08Z</time><name>PT2211</name></trkpt>
<trkpt lat="54.511828" lon="-3.015792"><ele>827</ele><time>2023-08-09T11:34:11Z</time><name>PT2212</name></trkpt>
<trkpt lat="54.511845" lon="-3.015838"><ele>827</ele><time>2023-08-09T11:34:15Z</time><name>PT2213</name></trkpt>
<trkpt lat="54.511871" lon="-3.015883"><ele>827</ele><time>2023-08-09T11:34:19Z</time><name>PT2214</name></trkpt>
<trkpt lat="54.511901" lon="-3.015926"><ele>827</ele><time>2023-08-09T11:34:23Z</time><name>PT2215</name></trkpt>
<trkpt lat="54.511923" lon="-3.015951"><ele>827</ele><time>2023-08-09T11:34:26Z</time><name>PT2216</name></trkpt>
<trkpt lat="54.511941" lon="-3.015993"><ele>827</ele><time>2023-08-09T11:34:29Z</time><name>PT2217</name></trkpt>
<trkpt lat="54.511965" lon="-3.016054"><ele>827</ele><time>2023-08-09T11:34:33Z</time><name>PT2218</name></trkpt>
<trkpt lat="54.511981" lon="-3.016079"><ele>827</ele><time>2023-08-09T11:34:36Z</time><name>PT2219</name></trkpt>
<trkpt lat="54.512014" lon="-3.016108"><ele>828</ele><time>2023-08-09T11:34:40Z</time><name>PT2220</name></trkpt>
<trkpt lat="54.512042" lon="-3.016148"><ele>829</ele><time>2023-08-09T11:34:44Z</time><name>PT2221</name></trkpt>
<trkpt lat="54.512065" lon="-3.016173"><ele>829</ele><time>2023-08-09T11:34:47Z</time><name>PT2222</name></trkpt>
<trkpt lat="54.512082" lon="-3.016199"><ele>829</ele><time>2023-08-09T11:34:50Z</time><name>PT2223</name></trkpt>
<trkpt lat="54.512108" lon="-3.016246"><ele>830</ele><time>2023-08-09T11:34:54Z</time><name>PT2224</name></trkpt>
<trkpt lat="54.512145" lon="-3.016267"><ele>830</ele><time>2023-08-09T11:34:58Z</time><name>PT2225</name></trkpt>
<trkpt lat="54.512166" lon="-3.016290"><ele>830</ele><time>2023-08-09T11:35:01Z</time><name>PT2226</name></trkpt>
<trkpt lat="54.512193" lon="-3.016327"><ele>831</ele><time>2023-08-09T11:35:05Z</time><name>PT2227</name></trkpt>
<trkpt lat="54.512211" lon="-3.016362"><ele>831</ele><time>2023-08-09T11:35:08Z</time><name>PT2228</name></trkpt>
<trkpt lat="54.512231" lon="-3.016407"><ele>832</ele><time>2023-08-09T11:35:12Z</time><name>PT2229</name></trkpt>
<trkpt lat="54.512245" lon="-3.016447"><ele>832</ele><time>2023-08-09T11:35:15Z</time><name>PT2230</name></trkpt>
<trkpt lat="54.512261" lon="-3.016475"><ele>833</ele><time>2023-08-09T11:35:18Z</time><name>PT2231</name></trkpt>
<trkpt lat="54.512277" lon="-3.016498"><ele>833</ele><time>2023-08-09T11:35:21Z</time><name>PT2232</name></trkpt>
<trkpt lat="54.512300" lon="-3.016524"><ele>834</ele><time>2023-08-09T11:35:25Z</time><name>PT2233</name></trkpt>
<trkpt lat="54.512324" lon="-3.016553"><ele>835</ele><time>2023-08-09T11:35:29Z</time><name>PT2234</name></trkpt>
<trkpt lat="54.512340" lon="-3.016571"><ele>835</ele><time>2023-08-09T11:35:32Z</time><name>PT2235</name></trkpt>
<trkpt lat="54.512360" lon="-3.016592"><ele>836</ele><time>2023-08-09T11:35:36Z</time><name>PT2236</name></trkpt>
<trkpt lat="54.512375" lon="-3.016621"><ele>836</ele><time>2023-08-09T11:35:40Z</time><name>PT2237</name></trkpt>
<trkpt lat="54.512393" lon="-3.016639"><ele>837</ele><time>2023-08-09T11:35:44Z</time><name>PT2238</name></trkpt>
<trkpt lat="54.512422" lon="-3.016663"><ele>838</ele><time>2023-08-09T11:35:48Z</time><name>PT2239</name></trkpt>
<trkpt lat="54.512451" lon="-3.016693"><ele>839</ele><time>2023-08-09T11:35:52Z</time><name>PT2240</name></trkpt>
<trkpt lat="54.512470" lon="-3.016715"><ele>840</ele><time>2023-08-09T11:35:55Z</time><name>PT2241</name></trkpt>
<trkpt lat="54.512488" lon="-3.016725"><ele>840</ele><time>2023-08-09T11:35:58Z</time><name>PT2242</name></trkpt>
<trkpt lat="54.512516" lon="-3.016740"><ele>841</ele><time>2023-08-09T11:36:02Z</time><name>PT2243</name></trkpt>
<trkpt lat="54.512538" lon="-3.016768"><ele>841</ele><time>2023-08-09T11:36:06Z</time><name>PT2244</name></trkpt>
<trkpt lat="54.512568" lon="-3.016787"><ele>843</ele><time>2023-08-09T11:36:10Z</time><name>PT2245</name></trkpt>
<trkpt lat="54.512595" lon="-3.016802"><ele>843</ele><time>2023-08-09T11:36:14Z</time><name>PT2246</name></trkpt>
<trkpt lat="54.512620" lon="-3.016819"><ele>844</ele><time>2023-08-09T11:36:17Z</time><name>PT2247</name></trkpt>
<trkpt lat="54.512643" lon="-3.016831"><ele>845</ele><time>2023-08-09T11:36:20Z</time><name>PT2248</name></trkpt>
<trkpt lat="54.512663" lon="-3.016852"><ele>844</ele><time>2023-08-09T11:36:23Z</time><name>PT2249</name></trkpt>
<trkpt lat="54.512695" lon="-3.016882"><ele>845</ele><time>2023-08-09T11:36:27Z</time><name>PT2250</name></trkpt>
<trkpt lat="54.512720" lon="-3.016914"><ele>846</ele><time>2023-08-09T11:36:30Z</time><name>PT2251</name></trkpt>
<trkpt lat="54.512752" lon="-3.016934"><ele>846</ele><time>2023-08-09T11:36:34Z</time><name>PT2252</name></trkpt>
<trkpt lat="54.512770" lon="-3.016960"><ele>847</ele><time>2023-08-09T11:36:37Z</time><name>PT2253</name></trkpt>
<trkpt lat="54.512792" lon="-3.016985"><ele>847</ele><time>2023-08-09T11:36:40Z</time><name>PT2254</name></trkpt>
<trkpt lat="54.512818" lon="-3.017006"><ele>847</ele><time>2023-08-09T11:36:44Z</time><name>PT2255</name></trkpt>
<trkpt lat="54.512840" lon="-3.017019"><ele>847</ele><time>2023-08-09T11:36:47Z</time><name>PT2256</name></trkpt>
<trkpt lat="54.512870" lon="-3.017038"><ele>848</ele><time>2023-08-09T11:36:51Z</time><name>PT2257</name></trkpt>
<trkpt lat="54.512894" lon="-3.017080"><ele>848</ele><time>2023-08-09T11:36:55Z</time><name>PT2258</name></trkpt>
<trkpt lat="54.512916" lon="-3.017108"><ele>849</ele><time>2023-08-09T11:36:59Z</time><name>PT2259</name></trkpt>
<trkpt lat="54.512944" lon="-3.017115"><ele>850</ele><time>2023-08-09T11:37:03Z</time><name>PT2260</name></trkpt>
<trkpt lat="54.512969" lon="-3.017127"><ele>851</ele><time>2023-08-09T11:37:07Z</time><name>PT2261</name></trkpt>
<trkpt lat="54.512987" lon="-3.017131"><ele>852</ele><time>2023-08-09T11:37:10Z</time><name>PT2262</name></trkpt>
<trkpt lat="54.513005" lon="-3.017135"><ele>852</ele><time>2023-08-09T11:37:13Z</time><name>PT2263</name></trkpt>
<trkpt lat="54.513035" lon="-3.017137"><ele>852</ele><time>2023-08-09T11:37:17Z</time><name>PT2264</name></trkpt>
<trkpt lat="54.513055" lon="-3.017153"><ele>852</ele><time>2023-08-09T11:37:20Z</time><name>PT2265</name></trkpt>
<trkpt lat="54.513082" lon="-3.017162"><ele>853</ele><time>2023-08-09T11:37:24Z</time><name>PT2266</name></trkpt>
<trkpt lat="54.513098" lon="-3.017165"><ele>853</ele><time>2023-08-09T11:37:27Z</time><name>PT2267</name></trkpt>
<trkpt lat="54.513116" lon="-3.017164"><ele>853</ele><time>2023-08-09T11:37:30Z</time><name>PT2268</name></trkpt>
<trkpt lat="54.513142" lon="-3.017140"><ele>854</ele><time>2023-08-09T11:37:34Z</time><name>PT2269</name></trkpt>
<trkpt lat="54.513160" lon="-3.017140"><ele>855</ele><time>2023-08-09T11:37:37Z</time><name>PT2270</name></trkpt>
<trkpt lat="54.513186" lon="-3.017140"><ele>855</ele><time>2023-08-09T11:37:41Z</time><name>PT2271</name></trkpt>
<trkpt lat="54.513212" lon="-3.017131"><ele>856</ele><time>2023-08-09T11:37:45Z</time><name>PT2272</name></trkpt>
<trkpt lat="54.513248" lon="-3.017136"><ele>857</ele><time>2023-08-09T11:37:49Z</time><name>PT2273</name></trkpt>
<trkpt lat="54.513281" lon="-3.017151"><ele>858</ele><time>2023-08-09T11:37:53Z</time><name>PT2274</name></trkpt>
<trkpt lat="54.513308" lon="-3.017151"><ele>858</ele><time>2023-08-09T11:37:56Z</time><name>PT2275</name></trkpt>
<trkpt lat="54.513335" lon="-3.017157"><ele>858</ele><time>2023-08-09T11:37:59Z</time><name>PT2276</name></trkpt>
<trkpt lat="54.513361" lon="-3.017161"><ele>859</ele><time>2023-08-09T11:38:02Z</time><name>PT2277</name></trkpt>
<trkpt lat="54.513383" lon="-3.017167"><ele>859</ele><time>2023-08-09T11:38:05Z</time><name>PT2278</name></trkpt>
<trkpt lat="54.513417" lon="-3.017182"><ele>860</ele><time>2023-08-09T11:38:09Z</time><name>PT2279</name></trkpt>
<trkpt lat="54.513445" lon="-3.017178"><ele>861</ele><time>2023-08-09T11:38:12Z</time><name>PT2280</name></trkpt>
<trkpt lat="54.513483" lon="-3.017190"><ele>861</ele><time>2023-08-09T11:38:16Z</time><name>PT2281</name></trkpt>
<trkpt lat="54.513510" lon="-3.017191"><ele>862</ele><time>2023-08-09T11:38:19Z</time><name>PT2282</name></trkpt>
<trkpt lat="54.513546" lon="-3.017199"><ele>862</ele><time>2023-08-09T11:38:23Z</time><name>PT2283</name></trkpt>
<trkpt lat="54.513583" lon="-3.017217"><ele>863</ele><time>2023-08-09T11:38:27Z</time><name>PT2284</name></trkpt>
<trkpt lat="54.513627" lon="-3.017240"><ele>863</ele><time>2023-08-09T11:38:31Z</time><name>PT2285</name></trkpt>
<trkpt lat="54.513667" lon="-3.017271"><ele>863</ele><time>2023-08-09T11:38:35Z</time><name>PT2286</name></trkpt>
<trkpt lat="54.513698" lon="-3.017295"><ele>864</ele><time>2023-08-09T11:38:38Z</time><name>PT2287</name></trkpt>
<trkpt lat="54.513727" lon="-3.017324"><ele>864</ele><time>2023-08-09T11:38:41Z</time><name>PT2288</name></trkpt>
<trkpt lat="54.513767" lon="-3.017359"><ele>864</ele><time>2023-08-09T11:38:45Z</time><name>PT2289</name></trkpt>
<trkpt lat="54.513799" lon="-3.017366"><ele>864</ele><time>2023-08-09T11:38:48Z</time><name>PT2290</name></trkpt>
<trkpt lat="54.513835" lon="-3.017381"><ele>865</ele><time>2023-08-09T11:38:51Z</time><name>PT2291</name></trkpt>
<trkpt lat="54.513869" lon="-3.017405"><ele>865</ele><time>2023-08-09T11:38:54Z</time><name>PT2292</name></trkpt>
<trkpt lat="54.513912" lon="-3.017445"><ele>865</ele><time>2023-08-09T11:38:58Z</time><name>PT2293</name></trkpt>
<trkpt lat="54.513945" lon="-3.017461"><ele>865</ele><time>2023-08-09T11:39:01Z</time><name>PT2294</name></trkpt>
<trkpt lat="54.513989" lon="-3.017483"><ele>866</ele><time>2023-08-09T11:39:05Z</time><name>PT2295</name></trkpt>
<trkpt lat="54.514037" lon="-3.017498"><ele>866</ele><time>2023-08-09T11:39:09Z</time><name>PT2296</name></trkpt>
<trkpt lat="54.514071" lon="-3.017505"><ele>867</ele><time>2023-08-09T11:39:12Z</time><name>PT2297</name></trkpt>
<trkpt lat="54.514115" lon="-3.017507"><ele>867</ele><time>2023-08-09T11:39:16Z</time><name>PT2298</name></trkpt>
<trkpt lat="54.514144" lon="-3.017533"><ele>867</ele><time>2023-08-09T11:39:19Z</time><name>PT2299</name></trkpt>
<trkpt lat="54.514186" lon="-3.017544"><ele>867</ele><time>2023-08-09T11:39:23Z</time><name>PT2300</name></trkpt>
<trkpt lat="54.514210" lon="-3.017531"><ele>867</ele><time>2023-08-09T11:39:26Z</time><name>PT2301</name></trkpt>
<trkpt lat="54.514247" lon="-3.017506"><ele>867</ele><time>2023-08-09T11:39:30Z</time><name>PT2302</name></trkpt>
<trkpt lat="54.514274" lon="-3.017481"><ele>866</ele><time>2023-08-09T11:39:34Z</time><name>PT2303</name></trkpt>
<trkpt lat="54.514299" lon="-3.017478"><ele>866</ele><time>2023-08-09T11:39:37Z</time><name>PT2304</name></trkpt>
<trkpt lat="54.514337" lon="-3.017496"><ele>867</ele><time>2023-08-09T11:39:41Z</time><name>PT2305</name></trkpt>
<trkpt lat="54.514361" lon="-3.017508"><ele>866</ele><time>2023-08-09T11:39:44Z</time><name>PT2306</name></trkpt>
<trkpt lat="54.514399" lon="-3.017509"><ele>866</ele><time>2023-08-09T11:39:48Z</time><name>PT2307</name></trkpt>
<trkpt lat="54.514440" lon="-3.017534"><ele>866</ele><time>2023-08-09T11:39:52Z</time><name>PT2308</name></trkpt>
<trkpt lat="54.514468" lon="-3.017550"><ele>866</ele><time>2023-08-09T11:39:55Z</time><name>PT2309</name></trkpt>
<trkpt lat="54.514505" lon="-3.017570"><ele>866</ele><time>2023-08-09T11:39:59Z</time><name>PT2310</name></trkpt>
<trkpt lat="54.514539" lon="-3.017596"><ele>867</ele><time>2023-08-09T11:40:03Z</time><name>PT2311</name></trkpt>
<trkpt lat="54.514571" lon="-3.017630"><ele>867</ele><time>2023-08-09T11:40:07Z</time><name>PT2312</name></trkpt>
<trkpt lat="54.514598" lon="-3.017649"><ele>867</ele><time>2023-08-09T11:40:10Z</time><name>PT2313</name></trkpt>
<trkpt lat="54.514628" lon="-3.017654"><ele>868</ele><time>2023-08-09T11:40:13Z</time><name>PT2314</name></trkpt>
<trkpt lat="54.514654" lon="-3.017641"><ele>869</ele><time>2023-08-09T11:40:16Z</time><name>PT2315</name></trkpt>
<trkpt lat="54.514694" lon="-3.017625"><ele>869</ele><time>2023-08-09T11:40:20Z</time><name>PT2316</name></trkpt>
<trkpt lat="54.514730" lon="-3.017619"><ele>870</ele><time>2023-08-09T11:40:23Z</time><name>PT2317</name></trkpt>
<trkpt lat="54.514772" lon="-3.017610"><ele>870</ele><time>2023-08-09T11:40:27Z</time><name>PT2318</name></trkpt>
<trkpt lat="54.514821" lon="-3.017604"><ele>871</ele><time>2023-08-09T11:40:31Z</time><name>PT2319</name></trkpt>
<trkpt lat="54.514858" lon="-3.017586"><ele>871</ele><time>2023-08-09T11:40:34Z</time><name>PT2320</name></trkpt>
<trkpt lat="54.514909" lon="-3.017564"><ele>871</ele><time>2023-08-09T11:40:38Z</time><name>PT2321</name></trkpt>
<trkpt lat="54.514961" lon="-3.017536"><ele>871</ele><time>2023-08-09T11:40:42Z</time><name>PT2322</name></trkpt>
<trkpt lat="54.514996" lon="-3.017525"><ele>871</ele><time>2023-08-09T11:40:45Z</time><name>PT2323</name></trkpt>
<trkpt lat="54.515034" lon="-3.017509"><ele>871</ele><time>2023-08-09T11:40:48Z</time><name>PT2324</name></trkpt>
<trkpt lat="54.515083" lon="-3.017495"><ele>872</ele><time>2023-08-09T11:40:52Z</time><name>PT2325</name></trkpt>
<trkpt lat="54.515130" lon="-3.017472"><ele>872</ele><time>2023-08-09T11:40:56Z</time><name>PT2326</name></trkpt>
<trkpt lat="54.515166" lon="-3.017458"><ele>873</ele><time>2023-08-09T11:40:59Z</time><name>PT2327</name></trkpt>
<trkpt lat="54.515211" lon="-3.017431"><ele>872</ele><time>2023-08-09T11:41:03Z</time><name>PT2328</name></trkpt>
<trkpt lat="54.515257" lon="-3.017418"><ele>873</ele><time>2023-08-09T11:41:07Z</time><name>PT2329</name></trkpt>
<trkpt lat="54.515294" lon="-3.017412"><ele>873</ele><time>2023-08-09T11:41:10Z</time><name>PT2330</name></trkpt>
<trkpt lat="54.515345" lon="-3.017397"><ele>873</ele><time>2023-08-09T11:41:14Z</time><name>PT2331</name></trkpt>
<trkpt lat="54.515381" lon="-3.017386"><ele>873</ele><time>2023-08-09T11:41:17Z</time><name>PT2332</name></trkpt>
<trkpt lat="54.515422" lon="-3.017364"><ele>874</ele><time>2023-08-09T11:41:21Z</time><name>PT2333</name></trkpt>
<trkpt lat="54.515470" lon="-3.017350"><ele>875</ele><time>2023-08-09T11:41:25Z</time><name>PT2334</name></trkpt>
<trkpt lat="54.515517" lon="-3.017335"><ele>875</ele><time>2023-08-09T11:41:29Z</time><name>PT2335</name></trkpt>
<trkpt lat="54.515562" lon="-3.017313"><ele>875</ele><time>2023-08-09T11:41:33Z</time><name>PT2336</name></trkpt>
<trkpt lat="54.515597" lon="-3.017297"><ele>875</ele><time>2023-08-09T11:41:36Z</time><name>PT2337</name></trkpt>
<trkpt lat="54.515633" lon="-3.017284"><ele>875</ele><time>2023-08-09T11:41:39Z</time><name>PT2338</name></trkpt>
<trkpt lat="54.515676" lon="-3.017271"><ele>875</ele><time>2023-08-09T11:41:43Z</time><name>PT2339</name></trkpt>
<trkpt lat="54.515718" lon="-3.017256"><ele>875</ele><time>2023-08-09T11:41:47Z</time><name>PT2340</name></trkpt>
<trkpt lat="54.515759" lon="-3.017243"><ele>876</ele><time>2023-08-09T11:41:50Z</time><name>PT2341</name></trkpt>
<trkpt lat="54.515803" lon="-3.017221"><ele>877</ele><time>2023-08-09T11:41:54Z</time><name>PT2342</name></trkpt>
<trkpt lat="54.515834" lon="-3.017206"><ele>877</ele><time>2023-08-09T11:41:57Z</time><name>PT2343</name></trkpt>
<trkpt lat="54.515866" lon="-3.017186"><ele>878</ele><time>2023-08-09T11:42:00Z</time><name>PT2344</name></trkpt>
<trkpt lat="54.515901" lon="-3.017168"><ele>877</ele><time>2023-08-09T11:42:04Z</time><name>PT2345</name></trkpt>
<trkpt lat="54.515946" lon="-3.017146"><ele>878</ele><time>2023-08-09T11:42:08Z</time><name>PT2346</name></trkpt>
<trkpt lat="54.515987" lon="-3.017139"><ele>878</ele><time>2023-08-09T11:42:12Z</time><name>PT2347</name></trkpt>
<trkpt lat="54.516018" lon="-3.017141"><ele>879</ele><time>2023-08-09T11:42:15Z</time><name>PT2348</name></trkpt>
<trkpt lat="54.516056" lon="-3.017159"><ele>879</ele><time>2023-08-09T11:42:19Z</time><name>PT2349</name></trkpt>
<trkpt lat="54.516103" lon="-3.017143"><ele>878</ele><time>2023-08-09T11:42:23Z</time><name>PT2350</name></trkpt>
<trkpt lat="54.516133" lon="-3.017136"><ele>878</ele><time>2023-08-09T11:42:26Z</time><name>PT2351</name></trkpt>
<trkpt lat="54.516161" lon="-3.017132"><ele>878</ele><time>2023-08-09T11:42:29Z</time><name>PT2352</name></trkpt>
<trkpt lat="54.516192" lon="-3.017108"><ele>878</ele><time>2023-08-09T11:42:33Z</time><name>PT2353</name></trkpt>
<trkpt lat="54.516222" lon="-3.017100"><ele>878</ele><time>2023-08-09T11:42:36Z</time><name>PT2354</name></trkpt>
<trkpt lat="54.516249" lon="-3.017089"><ele>878</ele><time>2023-08-09T11:42:39Z</time><name>PT2355</name></trkpt>
<trkpt lat="54.516278" lon="-3.017079"><ele>879</ele><time>2023-08-09T11:42:42Z</time><name>PT2356</name></trkpt>
<trkpt lat="54.516309" lon="-3.017069"><ele>879</ele><time>2023-08-09T11:42:45Z</time><name>PT2357</name></trkpt>
<trkpt lat="54.516342" lon="-3.017047"><ele>879</ele><time>2023-08-09T11:42:48Z</time><name>PT2358</name></trkpt>
<trkpt lat="54.516380" lon="-3.017017"><ele>879</ele><time>2023-08-09T11:42:52Z</time><name>PT2359</name></trkpt>
<trkpt lat="54.516408" lon="-3.016994"><ele>879</ele><time>2023-08-09T11:42:56Z</time><name>PT2360</name></trkpt>
<trkpt lat="54.516435" lon="-3.016982"><ele>879</ele><time>2023-08-09T11:42:59Z</time><name>PT2361</name></trkpt>
<trkpt lat="54.516464" lon="-3.016961"><ele>879</ele><time>2023-08-09T11:43:02Z</time><name>PT2362</name></trkpt>
<trkpt lat="54.516494" lon="-3.016945"><ele>879</ele><time>2023-08-09T11:43:05Z</time><name>PT2363</name></trkpt>
<trkpt lat="54.516538" lon="-3.016940"><ele>881</ele><time>2023-08-09T11:43:09Z</time><name>PT2364</name></trkpt>
<trkpt lat="54.516573" lon="-3.016934"><ele>881</ele><time>2023-08-09T11:43:12Z</time><name>PT2365</name></trkpt>
<trkpt lat="54.516619" lon="-3.016900"><ele>881</ele><time>2023-08-09T11:43:16Z</time><name>PT2366</name></trkpt>
<trkpt lat="54.516664" lon="-3.016893"><ele>881</ele><time>2023-08-09T11:43:20Z</time><name>PT2367</name></trkpt>
<trkpt lat="54.516695" lon="-3.016894"><ele>881</ele><time>2023-08-09T11:43:23Z</time><name>PT2368</name></trkpt>
<trkpt lat="54.516733" lon="-3.016886"><ele>882</ele><time>2023-08-09T11:43:26Z</time><name>PT2369</name></trkpt>
<trkpt lat="54.516780" lon="-3.016883"><ele>882</ele><time>2023-08-09T11:43:30Z</time><name>PT2370</name></trkpt>
<trkpt lat="54.516828" lon="-3.016876"><ele>882</ele><time>2023-08-09T11:43:34Z</time><name>PT2371</name></trkpt>
<trkpt lat="54.516874" lon="-3.016857"><ele>881</ele><time>2023-08-09T11:43:38Z</time><name>PT2372</name></trkpt>
<trkpt lat="54.516908" lon="-3.016852"><ele>881</ele><time>2023-08-09T11:43:41Z</time><name>PT2373</name></trkpt>
<trkpt lat="54.516949" lon="-3.016846"><ele>882</ele><time>2023-08-09T11:43:44Z</time><name>PT2374</name></trkpt>
<trkpt lat="54.516999" lon="-3.016836"><ele>881</ele><time>2023-08-09T11:43:48Z</time><name>PT2375</name></trkpt>
<trkpt lat="54.517039" lon="-3.016837"><ele>881</ele><time>2023-08-09T11:43:51Z</time><name>PT2376</name></trkpt>
<trkpt lat="54.517076" lon="-3.016828"><ele>882</ele><time>2023-08-09T11:43:54Z</time><name>PT2377</name></trkpt>
<trkpt lat="54.517123" lon="-3.016823"><ele>882</ele><time>2023-08-09T11:43:58Z</time><name>PT2378</name></trkpt>
<trkpt lat="54.517165" lon="-3.016811"><ele>881</ele><time>2023-08-09T11:44:02Z</time><name>PT2379</name></trkpt>
<trkpt lat="54.517209" lon="-3.016802"><ele>881</ele><time>2023-08-09T11:44:06Z</time><name>PT2380</name></trkpt>
<trkpt lat="54.517243" lon="-3.016794"><ele>881</ele><time>2023-08-09T11:44:09Z</time><name>PT2381</name></trkpt>
<trkpt lat="54.517288" lon="-3.016815"><ele>881</ele><time>2023-08-09T11:44:13Z</time><name>PT2382</name></trkpt>
<trkpt lat="54.517336" lon="-3.016803"><ele>882</ele><time>2023-08-09T11:44:17Z</time><name>PT2383</name></trkpt>
<trkpt lat="54.517371" lon="-3.016802"><ele>882</ele><time>2023-08-09T11:44:20Z</time><name>PT2384</name></trkpt>
<trkpt lat="54.517416" lon="-3.016797"><ele>883</ele><time>2023-08-09T11:44:24Z</time><name>PT2385</name></trkpt>
<trkpt lat="54.517458" lon="-3.016791"><ele>882</ele><time>2023-08-09T11:44:28Z</time><name>PT2386</name></trkpt>
<trkpt lat="54.517505" lon="-3.016790"><ele>882</ele><time>2023-08-09T11:44:32Z</time><name>PT2387</name></trkpt>
<trkpt lat="54.517529" lon="-3.016803"><ele>883</ele><time>2023-08-09T11:44:35Z</time><name>PT2388</name></trkpt>
<trkpt lat="54.517572" lon="-3.016823"><ele>883</ele><time>2023-08-09T11:44:39Z</time><name>PT2389</name></trkpt>
<trkpt lat="54.517621" lon="-3.016812"><ele>883</ele><time>2023-08-09T11:44:43Z</time><name>PT2390</name></trkpt>
<trkpt lat="54.517657" lon="-3.016790"><ele>883</ele><time>2023-08-09T11:44:46Z</time><name>PT2391</name></trkpt>
<trkpt lat="54.517688" lon="-3.016770"><ele>882</ele><time>2023-08-09T11:44:49Z</time><name>PT2392</name></trkpt>
<trkpt lat="54.517737" lon="-3.016741"><ele>882</ele><time>2023-08-09T11:44:53Z</time><name>PT2393</name></trkpt>
<trkpt lat="54.517780" lon="-3.016718"><ele>883</ele><time>2023-08-09T11:44:57Z</time><name>PT2394</name></trkpt>
<trkpt lat="54.517812" lon="-3.016695"><ele>883</ele><time>2023-08-09T11:45:00Z</time><name>PT2395</name></trkpt>
<trkpt lat="54.517857" lon="-3.016680"><ele>884</ele><time>2023-08-09T11:45:04Z</time><name>PT2396</name></trkpt>
<trkpt lat="54.517887" lon="-3.016685"><ele>884</ele><time>2023-08-09T11:45:07Z</time><name>PT2397</name></trkpt>
<trkpt lat="54.517925" lon="-3.016667"><ele>884</ele><time>2023-08-09T11:45:11Z</time><name>PT2398</name></trkpt>
<trkpt lat="54.517972" lon="-3.016657"><ele>885</ele><time>2023-08-09T11:45:15Z</time><name>PT2399</name></trkpt>
<trkpt lat="54.518003" lon="-3.016651"><ele>886</ele><time>2023-08-09T11:45:18Z</time><name>PT2400</name></trkpt>
<trkpt lat="54.518039" lon="-3.016640"><ele>886</ele><time>2023-08-09T11:45:22Z</time><name>PT2401</name></trkpt>
<trkpt lat="54.518068" lon="-3.016621"><ele>886</ele><time>2023-08-09T11:45:25Z</time><name>PT2402</name></trkpt>
<trkpt lat="54.518101" lon="-3.016614"><ele>887</ele><time>2023-08-09T11:45:28Z</time><name>PT2403</name></trkpt>
<trkpt lat="54.518134" lon="-3.016605"><ele>887</ele><time>2023-08-09T11:45:31Z</time><name>PT2404</name></trkpt>
<trkpt lat="54.518180" lon="-3.016612"><ele>886</ele><time>2023-08-09T11:45:35Z</time><name>PT2405</name></trkpt>
<trkpt lat="54.518213" lon="-3.016617"><ele>887</ele><time>2023-08-09T11:45:38Z</time><name>PT2406</name></trkpt>
<trkpt lat="54.518248" lon="-3.016607"><ele>887</ele><time>2023-08-09T11:45:42Z</time><name>PT2407</name></trkpt>
<trkpt lat="54.518282" lon="-3.016597"><ele>887</ele><time>2023-08-09T11:45:46Z</time><name>PT2408</name></trkpt>
<trkpt lat="54.518310" lon="-3.016595"><ele>887</ele><time>2023-08-09T11:45:49Z</time><name>PT2409</name></trkpt>
<trkpt lat="54.518350" lon="-3.016590"><ele>888</ele><time>2023-08-09T11:45:53Z</time><name>PT2410</name></trkpt>
<trkpt lat="54.518384" lon="-3.016591"><ele>889</ele><time>2023-08-09T11:45:56Z</time><name>PT2411</name></trkpt>
<trkpt lat="54.518412" lon="-3.016600"><ele>889</ele><time>2023-08-09T11:45:59Z</time><name>PT2412</name></trkpt>
<trkpt lat="54.518441" lon="-3.016607"><ele>888</ele><time>2023-08-09T11:46:02Z</time><name>PT2413</name></trkpt>
<trkpt lat="54.518491" lon="-3.016623"><ele>888</ele><time>2023-08-09T11:46:06Z</time><name>PT2414</name></trkpt>
<trkpt lat="54.518535" lon="-3.016650"><ele>887</ele><time>2023-08-09T11:46:10Z</time><name>PT2415</name></trkpt>
<trkpt lat="54.518566" lon="-3.016663"><ele>887</ele><time>2023-08-09T11:46:13Z</time><name>PT2416</name></trkpt>
<trkpt lat="54.518615" lon="-3.016661"><ele>886</ele><time>2023-08-09T11:46:17Z</time><name>PT2417</name></trkpt>
<trkpt lat="54.518656" lon="-3.016656"><ele>886</ele><time>2023-08-09T11:46:20Z</time><name>PT2418</name></trkpt>
<trkpt lat="54.518699" lon="-3.016666"><ele>887</ele><time>2023-08-09T11:46:23Z</time><name>PT2419</name></trkpt>
<trkpt lat="54.518748" lon="-3.016668"><ele>887</ele><time>2023-08-09T11:46:27Z</time><name>PT2420</name></trkpt>
<trkpt lat="54.518782" lon="-3.016670"><ele>886</ele><time>2023-08-09T11:46:30Z</time><name>PT2421</name></trkpt>
<trkpt lat="54.518829" lon="-3.016655"><ele>886</ele><time>2023-08-09T11:46:34Z</time><name>PT2422</name></trkpt>
<trkpt lat="54.518867" lon="-3.016651"><ele>886</ele><time>2023-08-09T11:46:37Z</time><name>PT2423</name></trkpt>
<trkpt lat="54.518902" lon="-3.016649"><ele>885</ele><time>2023-08-09T11:46:40Z</time><name>PT2424</name></trkpt>
<trkpt lat="54.518952" lon="-3.016638"><ele>885</ele><time>2023-08-09T11:46:44Z</time><name>PT2425</name></trkpt>
<trkpt lat="54.518990" lon="-3.016635"><ele>885</ele><time>2023-08-09T11:46:47Z</time><name>PT2426</name></trkpt>
<trkpt lat="54.519038" lon="-3.016634"><ele>886</ele><time>2023-08-09T11:46:51Z</time><name>PT2427</name></trkpt>
<trkpt lat="54.519071" lon="-3.016632"><ele>886</ele><time>2023-08-09T11:46:54Z</time><name>PT2428</name></trkpt>
<trkpt lat="54.519120" lon="-3.016628"><ele>886</ele><time>2023-08-09T11:46:58Z</time><name>PT2429</name></trkpt>
<trkpt lat="54.519157" lon="-3.016627"><ele>886</ele><time>2023-08-09T11:47:01Z</time><name>PT2430</name></trkpt>
<trkpt lat="54.519195" lon="-3.016628"><ele>887</ele><time>2023-08-09T11:47:05Z</time><name>PT2431</name></trkpt>
<trkpt lat="54.519240" lon="-3.016631"><ele>887</ele><time>2023-08-09T11:47:09Z</time><name>PT2432</name></trkpt>
<trkpt lat="54.519278" lon="-3.016632"><ele>887</ele><time>2023-08-09T11:47:13Z</time><name>PT2433</name></trkpt>
<trkpt lat="54.519305" lon="-3.016648"><ele>887</ele><time>2023-08-09T11:47:16Z</time><name>PT2434</name></trkpt>
<trkpt lat="54.519343" lon="-3.016639"><ele>887</ele><time>2023-08-09T11:47:19Z</time><name>PT2435</name></trkpt>
<trkpt lat="54.519406" lon="-3.016634"><ele>885</ele><time>2023-08-09T11:47:23Z</time><name>PT2436</name></trkpt>
<trkpt lat="54.519442" lon="-3.016628"><ele>885</ele><time>2023-08-09T11:47:26Z</time><name>PT2437</name></trkpt>
<trkpt lat="54.519481" lon="-3.016630"><ele>884</ele><time>2023-08-09T11:47:29Z</time><name>PT2438</name></trkpt>
<trkpt lat="54.519535" lon="-3.016635"><ele>884</ele><time>2023-08-09T11:47:33Z</time><name>PT2439</name></trkpt>
<trkpt lat="54.519580" lon="-3.016649"><ele>883</ele><time>2023-08-09T11:47:37Z</time><name>PT2440</name></trkpt>
<trkpt lat="54.519618" lon="-3.016650"><ele>882</ele><time>2023-08-09T11:47:40Z</time><name>PT2441</name></trkpt>
<trkpt lat="54.519660" lon="-3.016654"><ele>882</ele><time>2023-08-09T11:47:43Z</time><name>PT2442</name></trkpt>
<trkpt lat="54.519707" lon="-3.016661"><ele>882</ele><time>2023-08-09T11:47:47Z</time><name>PT2443</name></trkpt>
<trkpt lat="54.519754" lon="-3.016668"><ele>881</ele><time>2023-08-09T11:47:51Z</time><name>PT2444</name></trkpt>
<trkpt lat="54.519791" lon="-3.016675"><ele>881</ele><time>2023-08-09T11:47:54Z</time><name>PT2445</name></trkpt>
<trkpt lat="54.519826" lon="-3.016674"><ele>881</ele><time>2023-08-09T11:47:57Z</time><name>PT2446</name></trkpt>
<trkpt lat="54.519873" lon="-3.016675"><ele>880</ele><time>2023-08-09T11:48:01Z</time><name>PT2447</name></trkpt>
<trkpt lat="54.519916" lon="-3.016682"><ele>879</ele><time>2023-08-09T11:48:05Z</time><name>PT2448</name></trkpt>
<trkpt lat="54.519951" lon="-3.016692"><ele>879</ele><time>2023-08-09T11:48:08Z</time><name>PT2449</name></trkpt>
<trkpt lat="54.519989" lon="-3.016701"><ele>879</ele><time>2023-08-09T11:48:12Z</time><name>PT2450</name></trkpt>
<trkpt lat="54.520018" lon="-3.016702"><ele>878</ele><time>2023-08-09T11:48:15Z</time><name>PT2451</name></trkpt>
<trkpt lat="54.520051" lon="-3.016698"><ele>877</ele><time>2023-08-09T11:48:18Z</time><name>PT2452</name></trkpt>
<trkpt lat="54.520095" lon="-3.016714"><ele>876</ele><time>2023-08-09T11:48:22Z</time><name>PT2453</name></trkpt>
<trkpt lat="54.520121" lon="-3.016723"><ele>875</ele><time>2023-08-09T11:48:25Z</time><name>PT2454</name></trkpt>
<trkpt lat="54.520163" lon="-3.016738"><ele>874</ele><time>2023-08-09T11:48:29Z</time><name>PT2455</name></trkpt>
<trkpt lat="54.520187" lon="-3.016722"><ele>873</ele><time>2023-08-09T11:48:32Z</time><name>PT2456</name></trkpt>
<trkpt lat="54.520218" lon="-3.016713"><ele>872</ele><time>2023-08-09T11:48:35Z</time><name>PT2457</name></trkpt>
<trkpt lat="54.520248" lon="-3.016695"><ele>871</ele><time>2023-08-09T11:48:38Z</time><name>PT2458</name></trkpt>
<trkpt lat="54.520294" lon="-3.016676"><ele>870</ele><time>2023-08-09T11:48:42Z</time><name>PT2459</name></trkpt>
<trkpt lat="54.520324" lon="-3.016649"><ele>869</ele><time>2023-08-09T11:48:45Z</time><name>PT2460</name></trkpt>
<trkpt lat="54.520376" lon="-3.016640"><ele>868</ele><time>2023-08-09T11:48:49Z</time><name>PT2461</name></trkpt>
<trkpt lat="54.520414" lon="-3.016620"><ele>867</ele><time>2023-08-09T11:48:52Z</time><name>PT2462</name></trkpt>
<trkpt lat="54.520466" lon="-3.016622"><ele>866</ele><time>2023-08-09T11:48:56Z</time><name>PT2463</name></trkpt>
<trkpt lat="54.520500" lon="-3.016604"><ele>866</ele><time>2023-08-09T11:48:59Z</time><name>PT2464</name></trkpt>
<trkpt lat="54.520555" lon="-3.016592"><ele>867</ele><time>2023-08-09T11:49:03Z</time><name>PT2465</name></trkpt>
<trkpt lat="54.520602" lon="-3.016573"><ele>866</ele><time>2023-08-09T11:49:07Z</time><name>PT2466</name></trkpt>
<trkpt lat="54.520611" lon="-3.016561"><ele>866</ele><time>2023-08-09T11:49:10Z</time><name>PT2467</name></trkpt>
<trkpt lat="54.520615" lon="-3.016562"><ele>867</ele><time>2023-08-09T11:49:13Z</time><name>PT2468</name></trkpt>
<trkpt lat="54.520668" lon="-3.016588"><ele>867</ele><time>2023-08-09T11:49:53Z</time><name>PT2469</name></trkpt>
<trkpt lat="54.520703" lon="-3.016603"><ele>865</ele><time>2023-08-09T11:49:56Z</time><name>PT2470</name></trkpt>
<trkpt lat="54.520735" lon="-3.016653"><ele>865</ele><time>2023-08-09T11:50:00Z</time><name>PT2471</name></trkpt>
<trkpt lat="54.520753" lon="-3.016701"><ele>864</ele><time>2023-08-09T11:50:03Z</time><name>PT2472</name></trkpt>
<trkpt lat="54.520758" lon="-3.016741"><ele>862</ele><time>2023-08-09T11:50:06Z</time><name>PT2473</name></trkpt>
<trkpt lat="54.520760" lon="-3.016800"><ele>861</ele><time>2023-08-09T11:50:10Z</time><name>PT2474</name></trkpt>
<trkpt lat="54.520747" lon="-3.016852"><ele>860</ele><time>2023-08-09T11:50:14Z</time><name>PT2475</name></trkpt>
<trkpt lat="54.520702" lon="-3.016885"><ele>860</ele><time>2023-08-09T11:50:18Z</time><name>PT2476</name></trkpt>
<trkpt lat="54.520658" lon="-3.016920"><ele>861</ele><time>2023-08-09T11:50:22Z</time><name>PT2477</name></trkpt>
<trkpt lat="54.520611" lon="-3.016953"><ele>862</ele><time>2023-08-09T11:50:26Z</time><name>PT2478</name></trkpt>
<trkpt lat="54.520566" lon="-3.016996"><ele>861</ele><time>2023-08-09T11:50:30Z</time><name>PT2479</name></trkpt>
<trkpt lat="54.520531" lon="-3.017028"><ele>861</ele><time>2023-08-09T11:50:33Z</time><name>PT2480</name></trkpt>
<trkpt lat="54.520495" lon="-3.017049"><ele>861</ele><time>2023-08-09T11:50:36Z</time><name>PT2481</name></trkpt>
<trkpt lat="54.520459" lon="-3.017073"><ele>861</ele><time>2023-08-09T11:50:39Z</time><name>PT2482</name></trkpt>
<trkpt lat="54.520435" lon="-3.017102"><ele>861</ele><time>2023-08-09T11:50:42Z</time><name>PT2483</name></trkpt>
<trkpt lat="54.520379" lon="-3.017149"><ele>862</ele><time>2023-08-09T11:50:46Z</time><name>PT2484</name></trkpt>
<trkpt lat="54.520343" lon="-3.017177"><ele>862</ele><time>2023-08-09T11:50:49Z</time><name>PT2485</name></trkpt>
<trkpt lat="54.520307" lon="-3.017205"><ele>861</ele><time>2023-08-09T11:50:52Z</time><name>PT2486</name></trkpt>
<trkpt lat="54.520259" lon="-3.017208"><ele>862</ele><time>2023-08-09T11:50:56Z</time><name>PT2487</name></trkpt>
<trkpt lat="54.520226" lon="-3.017227"><ele>862</ele><time>2023-08-09T11:50:59Z</time><name>PT2488</name></trkpt>
<trkpt lat="54.520194" lon="-3.017227"><ele>862</ele><time>2023-08-09T11:51:02Z</time><name>PT2489</name></trkpt>
<trkpt lat="54.520160" lon="-3.017232"><ele>862</ele><time>2023-08-09T11:51:05Z</time><name>PT2490</name></trkpt>
<trkpt lat="54.520119" lon="-3.017260"><ele>862</ele><time>2023-08-09T11:51:09Z</time><name>PT2491</name></trkpt>
<trkpt lat="54.520074" lon="-3.017279"><ele>862</ele><time>2023-08-09T11:51:13Z</time><name>PT2492</name></trkpt>
<trkpt lat="54.520043" lon="-3.017296"><ele>861</ele><time>2023-08-09T11:51:16Z</time><name>PT2493</name></trkpt>
<trkpt lat="54.519994" lon="-3.017324"><ele>862</ele><time>2023-08-09T11:51:20Z</time><name>PT2494</name></trkpt>
<trkpt lat="54.519943" lon="-3.017342"><ele>863</ele><time>2023-08-09T11:51:24Z</time><name>PT2495</name></trkpt>
<trkpt lat="54.519906" lon="-3.017357"><ele>863</ele><time>2023-08-09T11:51:27Z</time><name>PT2496</name></trkpt>
<trkpt lat="54.519858" lon="-3.017363"><ele>862</ele><time>2023-08-09T11:51:31Z</time><name>PT2497</name></trkpt>
<trkpt lat="54.519825" lon="-3.017390"><ele>862</ele><time>2023-08-09T11:51:34Z</time><name>PT2498</name></trkpt>
<trkpt lat="54.519796" lon="-3.017421"><ele>863</ele><time>2023-08-09T11:51:37Z</time><name>PT2499</name></trkpt>
<trkpt lat="54.519756" lon="-3.017472"><ele>865</ele><time>2023-08-09T11:51:41Z</time><name>PT2500</name></trkpt>
<trkpt lat="54.519710" lon="-3.017477"><ele>866</ele><time>2023-08-09T11:51:45Z</time><name>PT2501</name></trkpt>
<trkpt lat="54.519682" lon="-3.017486"><ele>865</ele><time>2023-08-09T11:51:49Z</time><name>PT2502</name></trkpt>
<trkpt lat="54.519668" lon="-3.017497"><ele>865</ele><time>2023-08-09T11:51:52Z</time><name>PT2503</name></trkpt>
<trkpt lat="54.519652" lon="-3.017521"><ele>865</ele><time>2023-08-09T11:51:55Z</time><name>PT2504</name></trkpt>
<trkpt lat="54.519630" lon="-3.017564"><ele>864</ele><time>2023-08-09T11:51:59Z</time><name>PT2505</name></trkpt>
<trkpt lat="54.519582" lon="-3.017613"><ele>864</ele><time>2023-08-09T11:52:03Z</time><name>PT2506</name></trkpt>
<trkpt lat="54.519534" lon="-3.017653"><ele>865</ele><time>2023-08-09T11:52:07Z</time><name>PT2507</name></trkpt>
<trkpt lat="54.519486" lon="-3.017680"><ele>865</ele><time>2023-08-09T11:52:11Z</time><name>PT2508</name></trkpt>
<trkpt lat="54.519436" lon="-3.017703"><ele>866</ele><time>2023-08-09T11:52:15Z</time><name>PT2509</name></trkpt>
<trkpt lat="54.519403" lon="-3.017736"><ele>864</ele><time>2023-08-09T11:52:19Z</time><name>PT2510</name></trkpt>
<trkpt lat="54.519362" lon="-3.017782"><ele>864</ele><time>2023-08-09T11:52:23Z</time><name>PT2511</name></trkpt>
<trkpt lat="54.519327" lon="-3.017822"><ele>863</ele><time>2023-08-09T11:52:26Z</time><name>PT2512</name></trkpt>
<trkpt lat="54.519291" lon="-3.017853"><ele>861</ele><time>2023-08-09T11:52:30Z</time><name>PT2513</name></trkpt>
<trkpt lat="54.519257" lon="-3.017885"><ele>862</ele><time>2023-08-09T11:52:33Z</time><name>PT2514</name></trkpt>
<trkpt lat="54.519211" lon="-3.017936"><ele>863</ele><time>2023-08-09T11:52:37Z</time><name>PT2515</name></trkpt>
<trkpt lat="54.519179" lon="-3.017978"><ele>863</ele><time>2023-08-09T11:52:40Z</time><name>PT2516</name></trkpt>
<trkpt lat="54.519145" lon="-3.018020"><ele>863</ele><time>2023-08-09T11:52:43Z</time><name>PT2517</name></trkpt>
<trkpt lat="54.519100" lon="-3.018068"><ele>863</ele><time>2023-08-09T11:52:47Z</time><name>PT2518</name></trkpt>
<trkpt lat="54.519062" lon="-3.018112"><ele>863</ele><time>2023-08-09T11:52:51Z</time><name>PT2519</name></trkpt>
<trkpt lat="54.519027" lon="-3.018157"><ele>863</ele><time>2023-08-09T11:52:54Z</time><name>PT2520</name></trkpt>
<trkpt lat="54.519004" lon="-3.018202"><ele>863</ele><time>2023-08-09T11:52:57Z</time><name>PT2521</name></trkpt>
<trkpt lat="54.518962" lon="-3.018258"><ele>862</ele><time>2023-08-09T11:53:01Z</time><name>PT2522</name></trkpt>
<trkpt lat="54.518926" lon="-3.018305"><ele>863</ele><time>2023-08-09T11:53:04Z</time><name>PT2523</name></trkpt>
<trkpt lat="54.518889" lon="-3.018366"><ele>863</ele><time>2023-08-09T11:53:08Z</time><name>PT2524</name></trkpt>
<trkpt lat="54.518861" lon="-3.018407"><ele>863</ele><time>2023-08-09T11:53:11Z</time><name>PT2525</name></trkpt>
<trkpt lat="54.518821" lon="-3.018468"><ele>862</ele><time>2023-08-09T11:53:15Z</time><name>PT2526</name></trkpt>
<trkpt lat="54.518778" lon="-3.018541"><ele>862</ele><time>2023-08-09T11:53:19Z</time><name>PT2527</name></trkpt>
<trkpt lat="54.518751" lon="-3.018590"><ele>862</ele><time>2023-08-09T11:53:22Z</time><name>PT2528</name></trkpt>
<trkpt lat="54.518711" lon="-3.018671"><ele>862</ele><time>2023-08-09T11:53:26Z</time><name>PT2529</name></trkpt>
<trkpt lat="54.518679" lon="-3.018751"><ele>862</ele><time>2023-08-09T11:53:30Z</time><name>PT2530</name></trkpt>
<trkpt lat="54.518646" lon="-3.018812"><ele>862</ele><time>2023-08-09T11:53:34Z</time><name>PT2531</name></trkpt>
<trkpt lat="54.518618" lon="-3.018859"><ele>863</ele><time>2023-08-09T11:53:37Z</time><name>PT2532</name></trkpt>
<trkpt lat="54.518584" lon="-3.018922"><ele>862</ele><time>2023-08-09T11:53:41Z</time><name>PT2533</name></trkpt>
<trkpt lat="54.518555" lon="-3.018964"><ele>861</ele><time>2023-08-09T11:53:44Z</time><name>PT2534</name></trkpt>
<trkpt lat="54.518526" lon="-3.019029"><ele>861</ele><time>2023-08-09T11:53:48Z</time><name>PT2535</name></trkpt>
<trkpt lat="54.518498" lon="-3.019085"><ele>861</ele><time>2023-08-09T11:53:51Z</time><name>PT2536</name></trkpt>
<trkpt lat="54.518454" lon="-3.019150"><ele>861</ele><time>2023-08-09T11:53:55Z</time><name>PT2537</name></trkpt>
<trkpt lat="54.518426" lon="-3.019201"><ele>861</ele><time>2023-08-09T11:53:58Z</time><name>PT2538</name></trkpt>
<trkpt lat="54.518403" lon="-3.019259"><ele>860</ele><time>2023-08-09T11:54:01Z</time><name>PT2539</name></trkpt>
<trkpt lat="54.518372" lon="-3.019328"><ele>861</ele><time>2023-08-09T11:54:05Z</time><name>PT2540</name></trkpt>
<trkpt lat="54.518343" lon="-3.019371"><ele>860</ele><time>2023-08-09T11:54:08Z</time><name>PT2541</name></trkpt>
<trkpt lat="54.518319" lon="-3.019417"><ele>859</ele><time>2023-08-09T11:54:11Z</time><name>PT2542</name></trkpt>
<trkpt lat="54.518292" lon="-3.019461"><ele>860</ele><time>2023-08-09T11:54:14Z</time><name>PT2543</name></trkpt>
<trkpt lat="54.518254" lon="-3.019501"><ele>860</ele><time>2023-08-09T11:54:18Z</time><name>PT2544</name></trkpt>
<trkpt lat="54.518231" lon="-3.019536"><ele>859</ele><time>2023-08-09T11:54:21Z</time><name>PT2545</name></trkpt>
<trkpt lat="54.518198" lon="-3.019572"><ele>859</ele><time>2023-08-09T11:54:24Z</time><name>PT2546</name></trkpt>
<trkpt lat="54.518170" lon="-3.019626"><ele>859</ele><time>2023-08-09T11:54:28Z</time><name>PT2547</name></trkpt>
<trkpt lat="54.518142" lon="-3.019663"><ele>858</ele><time>2023-08-09T11:54:31Z</time><name>PT2548</name></trkpt>
<trkpt lat="54.518111" lon="-3.019692"><ele>858</ele><time>2023-08-09T11:54:34Z</time><name>PT2549</name></trkpt>
<trkpt lat="54.518078" lon="-3.019742"><ele>857</ele><time>2023-08-09T11:54:38Z</time><name>PT2550</name></trkpt>
<trkpt lat="54.518044" lon="-3.019793"><ele>857</ele><time>2023-08-09T11:54:42Z</time><name>PT2551</name></trkpt>
<trkpt lat="54.518018" lon="-3.019856"><ele>856</ele><time>2023-08-09T11:54:46Z</time><name>PT2552</name></trkpt>
<trkpt lat="54.517982" lon="-3.019918"><ele>855</ele><time>2023-08-09T11:54:50Z</time><name>PT2553</name></trkpt>
<trkpt lat="54.517952" lon="-3.019955"><ele>855</ele><time>2023-08-09T11:54:53Z</time><name>PT2554</name></trkpt>
<trkpt lat="54.517915" lon="-3.019991"><ele>854</ele><time>2023-08-09T11:54:56Z</time><name>PT2555</name></trkpt>
<trkpt lat="54.517874" lon="-3.020044"><ele>853</ele><time>2023-08-09T11:55:00Z</time><name>PT2556</name></trkpt>
<trkpt lat="54.517838" lon="-3.020089"><ele>853</ele><time>2023-08-09T11:55:04Z</time><name>PT2557</name></trkpt>
<trkpt lat="54.517797" lon="-3.020141"><ele>852</ele><time>2023-08-09T11:55:08Z</time><name>PT2558</name></trkpt>
<trkpt lat="54.517770" lon="-3.020183"><ele>851</ele><time>2023-08-09T11:55:11Z</time><name>PT2559</name></trkpt>
<trkpt lat="54.517733" lon="-3.020231"><ele>850</ele><time>2023-08-09T11:55:15Z</time><name>PT2560</name></trkpt>
<trkpt lat="54.517703" lon="-3.020266"><ele>850</ele><time>2023-08-09T11:55:18Z</time><name>PT2561</name></trkpt>
<trkpt lat="54.517668" lon="-3.020313"><ele>849</ele><time>2023-08-09T11:55:22Z</time><name>PT2562</name></trkpt>
<trkpt lat="54.517634" lon="-3.020370"><ele>848</ele><time>2023-08-09T11:55:26Z</time><name>PT2563</name></trkpt>
<trkpt lat="54.517612" lon="-3.020404"><ele>848</ele><time>2023-08-09T11:55:29Z</time><name>PT2564</name></trkpt>
<trkpt lat="54.517580" lon="-3.020448"><ele>848</ele><time>2023-08-09T11:55:33Z</time><name>PT2565</name></trkpt>
<trkpt lat="54.517565" lon="-3.020489"><ele>848</ele><time>2023-08-09T11:55:36Z</time><name>PT2566</name></trkpt>
<trkpt lat="54.517544" lon="-3.020541"><ele>846</ele><time>2023-08-09T11:55:40Z</time><name>PT2567</name></trkpt>
<trkpt lat="54.517518" lon="-3.020585"><ele>846</ele><time>2023-08-09T11:55:43Z</time><name>PT2568</name></trkpt>
<trkpt lat="54.517491" lon="-3.020636"><ele>845</ele><time>2023-08-09T11:55:47Z</time><name>PT2569</name></trkpt>
<trkpt lat="54.517474" lon="-3.020664"><ele>844</ele><time>2023-08-09T11:55:50Z</time><name>PT2570</name></trkpt>
<trkpt lat="54.517453" lon="-3.020701"><ele>843</ele><time>2023-08-09T11:55:53Z</time><name>PT2571</name></trkpt>
<trkpt lat="54.517427" lon="-3.020734"><ele>842</ele><time>2023-08-09T11:55:56Z</time><name>PT2572</name></trkpt>
<trkpt lat="54.517408" lon="-3.020765"><ele>841</ele><time>2023-08-09T11:55:59Z</time><name>PT2573</name></trkpt>
<trkpt lat="54.517389" lon="-3.020802"><ele>841</ele><time>2023-08-09T11:56:02Z</time><name>PT2574</name></trkpt>
<trkpt lat="54.517362" lon="-3.020847"><ele>842</ele><time>2023-08-09T11:56:05Z</time><name>PT2575</name></trkpt>
<trkpt lat="54.517343" lon="-3.020891"><ele>841</ele><time>2023-08-09T11:56:08Z</time><name>PT2576</name></trkpt>
<trkpt lat="54.517317" lon="-3.020941"><ele>840</ele><time>2023-08-09T11:56:12Z</time><name>PT2577</name></trkpt>
<trkpt lat="54.517298" lon="-3.020996"><ele>840</ele><time>2023-08-09T11:56:16Z</time><name>PT2578</name></trkpt>
<trkpt lat="54.517272" lon="-3.021030"><ele>839</ele><time>2023-08-09T11:56:19Z</time><name>PT2579</name></trkpt>
<trkpt lat="54.517241" lon="-3.021071"><ele>839</ele><time>2023-08-09T11:56:23Z</time><name>PT2580</name></trkpt>
<trkpt lat="54.517206" lon="-3.021117"><ele>838</ele><time>2023-08-09T11:56:27Z</time><name>PT2581</name></trkpt>
<trkpt lat="54.517181" lon="-3.021148"><ele>838</ele><time>2023-08-09T11:56:30Z</time><name>PT2582</name></trkpt>
<trkpt lat="54.517150" lon="-3.021171"><ele>837</ele><time>2023-08-09T11:56:33Z</time><name>PT2583</name></trkpt>
<trkpt lat="54.517112" lon="-3.021199"><ele>836</ele><time>2023-08-09T11:56:37Z</time><name>PT2584</name></trkpt>
<trkpt lat="54.517089" lon="-3.021228"><ele>835</ele><time>2023-08-09T11:56:40Z</time><name>PT2585</name></trkpt>
<trkpt lat="54.517067" lon="-3.021279"><ele>834</ele><time>2023-08-09T11:56:44Z</time><name>PT2586</name></trkpt>
<trkpt lat="54.517020" lon="-3.021331"><ele>835</ele><time>2023-08-09T11:56:48Z</time><name>PT2587</name></trkpt>
<trkpt lat="54.516997" lon="-3.021346"><ele>834</ele><time>2023-08-09T11:56:51Z</time><name>PT2588</name></trkpt>
<trkpt lat="54.516966" lon="-3.021370"><ele>834</ele><time>2023-08-09T11:56:55Z</time><name>PT2589</name></trkpt>
<trkpt lat="54.516939" lon="-3.021409"><ele>832</ele><time>2023-08-09T11:56:59Z</time><name>PT2590</name></trkpt>
<trkpt lat="54.516926" lon="-3.021459"><ele>831</ele><time>2023-08-09T11:57:02Z</time><name>PT2591</name></trkpt>
<trkpt lat="54.516905" lon="-3.021488"><ele>831</ele><time>2023-08-09T11:57:05Z</time><name>PT2592</name></trkpt>
<trkpt lat="54.516886" lon="-3.021518"><ele>830</ele><time>2023-08-09T11:57:08Z</time><name>PT2593</name></trkpt>
<trkpt lat="54.516869" lon="-3.021564"><ele>829</ele><time>2023-08-09T11:57:12Z</time><name>PT2594</name></trkpt>
<trkpt lat="54.516844" lon="-3.021591"><ele>828</ele><time>2023-08-09T11:57:15Z</time><name>PT2595</name></trkpt>
<trkpt lat="54.516825" lon="-3.021610"><ele>827</ele><time>2023-08-09T11:57:18Z</time><name>PT2596</name></trkpt>
<trkpt lat="54.516799" lon="-3.021651"><ele>826</ele><time>2023-08-09T11:57:22Z</time><name>PT2597</name></trkpt>
<trkpt lat="54.516762" lon="-3.021680"><ele>825</ele><time>2023-08-09T11:57:26Z</time><name>PT2598</name></trkpt>
<trkpt lat="54.516734" lon="-3.021705"><ele>824</ele><time>2023-08-09T11:57:30Z</time><name>PT2599</name></trkpt>
<trkpt lat="54.516706" lon="-3.021753"><ele>823</ele><time>2023-08-09T11:57:34Z</time><name>PT2600</name></trkpt>
<trkpt lat="54.516688" lon="-3.021779"><ele>822</ele><time>2023-08-09T11:57:37Z</time><name>PT2601</name></trkpt>
<trkpt lat="54.516662" lon="-3.021817"><ele>821</ele><time>2023-08-09T11:57:41Z</time><name>PT2602</name></trkpt>
<trkpt lat="54.516627" lon="-3.021840"><ele>821</ele><time>2023-08-09T11:57:45Z</time><name>PT2603</name></trkpt>
<trkpt lat="54.516588" lon="-3.021868"><ele>820</ele><time>2023-08-09T11:57:49Z</time><name>PT2604</name></trkpt>
<trkpt lat="54.516565" lon="-3.021880"><ele>820</ele><time>2023-08-09T11:57:52Z</time><name>PT2605</name></trkpt>
<trkpt lat="54.516539" lon="-3.021898"><ele>819</ele><time>2023-08-09T11:57:55Z</time><name>PT2606</name></trkpt>
<trkpt lat="54.516508" lon="-3.021912"><ele>818</ele><time>2023-08-09T11:57:59Z</time><name>PT2607</name></trkpt>
<trkpt lat="54.516485" lon="-3.021936"><ele>818</ele><time>2023-08-09T11:58:02Z</time><name>PT2608</name></trkpt>
<trkpt lat="54.516450" lon="-3.021954"><ele>817</ele><time>2023-08-09T11:58:06Z</time><name>PT2609</name></trkpt>
<trkpt lat="54.516422" lon="-3.021970"><ele>816</ele><time>2023-08-09T11:58:09Z</time><name>PT2610</name></trkpt>
<trkpt lat="54.516395" lon="-3.021998"><ele>815</ele><time>2023-08-09T11:58:13Z</time><name>PT2611</name></trkpt>
<trkpt lat="54.516358" lon="-3.022013"><ele>813</ele><time>2023-08-09T11:58:17Z</time><name>PT2612</name></trkpt>
<trkpt lat="54.516334" lon="-3.022019"><ele>813</ele><time>2023-08-09T11:58:20Z</time><name>PT2613</name></trkpt>
<trkpt lat="54.516299" lon="-3.022048"><ele>813</ele><time>2023-08-09T11:58:24Z</time><name>PT2614</name></trkpt>
<trkpt lat="54.516289" lon="-3.022085"><ele>811</ele><time>2023-08-09T11:58:28Z</time><name>PT2615</name></trkpt>
<trkpt lat="54.516277" lon="-3.022117"><ele>810</ele><time>2023-08-09T11:58:32Z</time><name>PT2616</name></trkpt>
<trkpt lat="54.516253" lon="-3.022142"><ele>809</ele><time>2023-08-09T11:58:35Z</time><name>PT2617</name></trkpt>
<trkpt lat="54.516230" lon="-3.022158"><ele>808</ele><time>2023-08-09T11:58:38Z</time><name>PT2618</name></trkpt>
<trkpt lat="54.516204" lon="-3.022205"><ele>807</ele><time>2023-08-09T11:58:42Z</time><name>PT2619</name></trkpt>
<trkpt lat="54.516185" lon="-3.022222"><ele>807</ele><time>2023-08-09T11:58:45Z</time><name>PT2620</name></trkpt>
<trkpt lat="54.516177" lon="-3.022228"><ele>807</ele><time>2023-08-09T11:58:49Z</time><name>PT2621</name></trkpt>
<trkpt lat="54.516139" lon="-3.022282"><ele>806</ele><time>2023-08-09T11:59:06Z</time><name>PT2622</name></trkpt>
<trkpt lat="54.516106" lon="-3.022332"><ele>804</ele><time>2023-08-09T11:59:10Z</time><name>PT2623</name></trkpt>
<trkpt lat="54.516067" lon="-3.022339"><ele>804</ele><time>2023-08-09T11:59:14Z</time><name>PT2624</name></trkpt>
<trkpt lat="54.516040" lon="-3.022348"><ele>802</ele><time>2023-08-09T11:59:17Z</time><name>PT2625</name></trkpt>
<trkpt lat="54.516000" lon="-3.022370"><ele>801</ele><time>2023-08-09T11:59:21Z</time><name>PT2626</name></trkpt>
<trkpt lat="54.515968" lon="-3.022390"><ele>801</ele><time>2023-08-09T11:59:24Z</time><name>PT2627</name></trkpt>
<trkpt lat="54.515921" lon="-3.022405"><ele>799</ele><time>2023-08-09T11:59:28Z</time><name>PT2628</name></trkpt>
<trkpt lat="54.515868" lon="-3.022411"><ele>798</ele><time>2023-08-09T11:59:32Z</time><name>PT2629</name></trkpt>
<trkpt lat="54.515809" lon="-3.022397"><ele>797</ele><time>2023-08-09T11:59:36Z</time><name>PT2630</name></trkpt>
<trkpt lat="54.515768" lon="-3.022385"><ele>796</ele><time>2023-08-09T11:59:39Z</time><name>PT2631</name></trkpt>
<trkpt lat="54.515717" lon="-3.022376"><ele>796</ele><time>2023-08-09T11:59:43Z</time><name>PT2632</name></trkpt>
<trkpt lat="54.515667" lon="-3.022357"><ele>795</ele><time>2023-08-09T11:59:47Z</time><name>PT2633</name></trkpt>
<trkpt lat="54.515631" lon="-3.022343"><ele>795</ele><time>2023-08-09T11:59:50Z</time><name>PT2634</name></trkpt>
<trkpt lat="54.515590" lon="-3.022322"><ele>795</ele><time>2023-08-09T11:59:53Z</time><name>PT2635</name></trkpt>
<trkpt lat="54.515543" lon="-3.022302"><ele>794</ele><time>2023-08-09T11:59:57Z</time><name>PT2636</name></trkpt>
<trkpt lat="54.515518" lon="-3.022292"><ele>793</ele><time>2023-08-09T12:00:00Z</time><name>PT2637</name></trkpt>
<trkpt lat="54.515466" lon="-3.022295"><ele>793</ele><time>2023-08-09T12:00:04Z</time><name>PT2638</name></trkpt>
<trkpt lat="54.515421" lon="-3.022294"><ele>791</ele><time>2023-08-09T12:00:08Z</time><name>PT2639</name></trkpt>
<trkpt lat="54.515388" lon="-3.022279"><ele>790</ele><time>2023-08-09T12:00:11Z</time><name>PT2640</name></trkpt>
<trkpt lat="54.515335" lon="-3.022258"><ele>790</ele><time>2023-08-09T12:00:15Z</time><name>PT2641</name></trkpt>
<trkpt lat="54.515295" lon="-3.022236"><ele>790</ele><time>2023-08-09T12:00:18Z</time><name>PT2642</name></trkpt>
<trkpt lat="54.515248" lon="-3.022221"><ele>789</ele><time>2023-08-09T12:00:22Z</time><name>PT2643</name></trkpt>
<trkpt lat="54.515208" lon="-3.022221"><ele>789</ele><time>2023-08-09T12:00:25Z</time><name>PT2644</name></trkpt>
<trkpt lat="54.515165" lon="-3.022220"><ele>787</ele><time>2023-08-09T12:00:29Z</time><name>PT2645</name></trkpt>
<trkpt lat="54.515130" lon="-3.022219"><ele>786</ele><time>2023-08-09T12:00:32Z</time><name>PT2646</name></trkpt>
<trkpt lat="54.515081" lon="-3.022209"><ele>785</ele><time>2023-08-09T12:00:36Z</time><name>PT2647</name></trkpt>
<trkpt lat="54.515052" lon="-3.022216"><ele>784</ele><time>2023-08-09T12:00:39Z</time><name>PT2648</name></trkpt>
<trkpt lat="54.515022" lon="-3.022214"><ele>782</ele><time>2023-08-09T12:00:42Z</time><name>PT2649</name></trkpt>
<trkpt lat="54.514997" lon="-3.022206"><ele>782</ele><time>2023-08-09T12:00:45Z</time><name>PT2650</name></trkpt>
<trkpt lat="54.514953" lon="-3.022199"><ele>782</ele><time>2023-08-09T12:00:49Z</time><name>PT2651</name></trkpt>
<trkpt lat="54.514919" lon="-3.022201"><ele>782</ele><time>2023-08-09T12:00:53Z</time><name>PT2652</name></trkpt>
<trkpt lat="54.514891" lon="-3.022215"><ele>781</ele><time>2023-08-09T12:00:56Z</time><name>PT2653</name></trkpt>
<trkpt lat="54.514854" lon="-3.022234"><ele>780</ele><time>2023-08-09T12:01:00Z</time><name>PT2654</name></trkpt>
<trkpt lat="54.514836" lon="-3.022227"><ele>779</ele><time>2023-08-09T12:01:03Z</time><name>PT2655</name></trkpt>
<trkpt lat="54.514807" lon="-3.022228"><ele>778</ele><time>2023-08-09T12:01:07Z</time><name>PT2656</name></trkpt>
<trkpt lat="54.514791" lon="-3.022238"><ele>777</ele><time>2023-08-09T12:01:10Z</time><name>PT2657</name></trkpt>
<trkpt lat="54.514771" lon="-3.022258"><ele>777</ele><time>2023-08-09T12:01:13Z</time><name>PT2658</name></trkpt>
<trkpt lat="54.514738" lon="-3.022289"><ele>776</ele><time>2023-08-09T12:01:17Z</time><name>PT2659</name></trkpt>
<trkpt lat="54.514712" lon="-3.022320"><ele>775</ele><time>2023-08-09T12:01:20Z</time><name>PT2660</name></trkpt>
<trkpt lat="54.514685" lon="-3.022339"><ele>774</ele><time>2023-08-09T12:01:23Z</time><name>PT2661</name></trkpt>
<trkpt lat="54.514635" lon="-3.022370"><ele>773</ele><time>2023-08-09T12:01:27Z</time><name>PT2662</name></trkpt>
<trkpt lat="54.514601" lon="-3.022387"><ele>772</ele><time>2023-08-09T12:01:30Z</time><name>PT2663</name></trkpt>
<trkpt lat="54.514573" lon="-3.022400"><ele>771</ele><time>2023-08-09T12:01:33Z</time><name>PT2664</name></trkpt>
<trkpt lat="54.514535" lon="-3.022427"><ele>770</ele><time>2023-08-09T12:01:37Z</time><name>PT2665</name></trkpt>
<trkpt lat="54.514507" lon="-3.022448"><ele>769</ele><time>2023-08-09T12:01:40Z</time><name>PT2666</name></trkpt>
<trkpt lat="54.514470" lon="-3.022473"><ele>769</ele><time>2023-08-09T12:01:44Z</time><name>PT2667</name></trkpt>
<trkpt lat="54.514439" lon="-3.022471"><ele>768</ele><time>2023-08-09T12:01:47Z</time><name>PT2668</name></trkpt>
<trkpt lat="54.514411" lon="-3.022480"><ele>766</ele><time>2023-08-09T12:01:50Z</time><name>PT2669</name></trkpt>
<trkpt lat="54.514367" lon="-3.022499"><ele>766</ele><time>2023-08-09T12:01:54Z</time><name>PT2670</name></trkpt>
<trkpt lat="54.514326" lon="-3.022530"><ele>766</ele><time>2023-08-09T12:01:58Z</time><name>PT2671</name></trkpt>
<trkpt lat="54.514295" lon="-3.022539"><ele>765</ele><time>2023-08-09T12:02:01Z</time><name>PT2672</name></trkpt>
<trkpt lat="54.514254" lon="-3.022554"><ele>765</ele><time>2023-08-09T12:02:05Z</time><name>PT2673</name></trkpt>
<trkpt lat="54.514223" lon="-3.022576"><ele>763</ele><time>2023-08-09T12:02:09Z</time><name>PT2674</name></trkpt>
<trkpt lat="54.514195" lon="-3.022606"><ele>762</ele><time>2023-08-09T12:02:13Z</time><name>PT2675</name></trkpt>
<trkpt lat="54.514168" lon="-3.022623"><ele>761</ele><time>2023-08-09T12:02:16Z</time><name>PT2676</name></trkpt>
<trkpt lat="54.514142" lon="-3.022634"><ele>760</ele><time>2023-08-09T12:02:19Z</time><name>PT2677</name></trkpt>
<trkpt lat="54.514103" lon="-3.022647"><ele>758</ele><time>2023-08-09T12:02:23Z</time><name>PT2678</name></trkpt>
<trkpt lat="54.514080" lon="-3.022659"><ele>757</ele><time>2023-08-09T12:02:26Z</time><name>PT2679</name></trkpt>
<trkpt lat="54.514045" lon="-3.022695"><ele>757</ele><time>2023-08-09T12:02:30Z</time><name>PT2680</name></trkpt>
<trkpt lat="54.514042" lon="-3.022738"><ele>756</ele><time>2023-08-09T12:02:34Z</time><name>PT2681</name></trkpt>
<trkpt lat="54.514062" lon="-3.022771"><ele>756</ele><time>2023-08-09T12:02:37Z</time><name>PT2682</name></trkpt>
<trkpt lat="54.514090" lon="-3.022818"><ele>754</ele><time>2023-08-09T12:02:41Z</time><name>PT2683</name></trkpt>
<trkpt lat="54.514096" lon="-3.022870"><ele>753</ele><time>2023-08-09T12:02:44Z</time><name>PT2684</name></trkpt>
<trkpt lat="54.514114" lon="-3.022930"><ele>751</ele><time>2023-08-09T12:02:48Z</time><name>PT2685</name></trkpt>
<trkpt lat="54.514136" lon="-3.022977"><ele>750</ele><time>2023-08-09T12:02:52Z</time><name>PT2686</name></trkpt>
<trkpt lat="54.514150" lon="-3.023015"><ele>749</ele><time>2023-08-09T12:02:55Z</time><name>PT2687</name></trkpt>
<trkpt lat="54.514166" lon="-3.023058"><ele>748</ele><time>2023-08-09T12:02:59Z</time><name>PT2688</name></trkpt>
<trkpt lat="54.514171" lon="-3.023081"><ele>747</ele><time>2023-08-09T12:03:02Z</time><name>PT2689</name></trkpt>
<trkpt lat="54.514170" lon="-3.023087"><ele>747</ele><time>2023-08-09T12:03:06Z</time><name>PT2690</name></trkpt>
<trkpt lat="54.514171" lon="-3.023110"><ele>748</ele><time>2023-08-09T12:03:43Z</time><name>PT2691</name></trkpt>
<trkpt lat="54.514182" lon="-3.023136"><ele>747</ele><time>2023-08-09T12:03:46Z</time><name>PT2692</name></trkpt>
<trkpt lat="54.514200" lon="-3.023184"><ele>746</ele><time>2023-08-09T12:03:49Z</time><name>PT2693</name></trkpt>
<trkpt lat="54.514223" lon="-3.023254"><ele>745</ele><time>2023-08-09T12:03:53Z</time><name>PT2694</name></trkpt>
<trkpt lat="54.514245" lon="-3.023332"><ele>744</ele><time>2023-08-09T12:03:57Z</time><name>PT2695</name></trkpt>
<trkpt lat="54.514261" lon="-3.023395"><ele>742</ele><time>2023-08-09T12:04:01Z</time><name>PT2696</name></trkpt>
<trkpt lat="54.514266" lon="-3.023446"><ele>741</ele><time>2023-08-09T12:04:04Z</time><name>PT2697</name></trkpt>
<trkpt lat="54.514262" lon="-3.023521"><ele>741</ele><time>2023-08-09T12:04:08Z</time><name>PT2698</name></trkpt>
<trkpt lat="54.514245" lon="-3.023595"><ele>741</ele><time>2023-08-09T12:04:12Z</time><name>PT2699</name></trkpt>
<trkpt lat="54.514223" lon="-3.023631"><ele>741</ele><time>2023-08-09T12:04:15Z</time><name>PT2700</name></trkpt>
<trkpt lat="54.514182" lon="-3.023671"><ele>741</ele><time>2023-08-09T12:04:19Z</time><name>PT2701</name></trkpt>
<trkpt lat="54.514154" lon="-3.023694"><ele>740</ele><time>2023-08-09T12:04:22Z</time><name>PT2702</name></trkpt>
<trkpt lat="54.514122" lon="-3.023722"><ele>740</ele><time>2023-08-09T12:04:25Z</time><name>PT2703</name></trkpt>
<trkpt lat="54.514080" lon="-3.023747"><ele>739</ele><time>2023-08-09T12:04:29Z</time><name>PT2704</name></trkpt>
<trkpt lat="54.514044" lon="-3.023749"><ele>738</ele><time>2023-08-09T12:04:33Z</time><name>PT2705</name></trkpt>
<trkpt lat="54.514018" lon="-3.023744"><ele>737</ele><time>2023-08-09T12:04:36Z</time><name>PT2706</name></trkpt>
<trkpt lat="54.513998" lon="-3.023741"><ele>736</ele><time>2023-08-09T12:04:39Z</time><name>PT2707</name></trkpt>
<trkpt lat="54.513959" lon="-3.023733"><ele>735</ele><time>2023-08-09T12:04:43Z</time><name>PT2708</name></trkpt>
<trkpt lat="54.513921" lon="-3.023742"><ele>734</ele><time>2023-08-09T12:04:47Z</time><name>PT2709</name></trkpt>
<trkpt lat="54.513889" lon="-3.023746"><ele>733</ele><time>2023-08-09T12:04:50Z</time><name>PT2710</name></trkpt>
<trkpt lat="54.513861" lon="-3.023773"><ele>732</ele><time>2023-08-09T12:04:54Z</time><name>PT2711</name></trkpt>
<trkpt lat="54.513837" lon="-3.023796"><ele>732</ele><time>2023-08-09T12:04:57Z</time><name>PT2712</name></trkpt>
<trkpt lat="54.513810" lon="-3.023814"><ele>732</ele><time>2023-08-09T12:05:00Z</time><name>PT2713</name></trkpt>
<trkpt lat="54.513782" lon="-3.023842"><ele>731</ele><time>2023-08-09T12:05:03Z</time><name>PT2714</name></trkpt>
<trkpt lat="54.513750" lon="-3.023881"><ele>731</ele><time>2023-08-09T12:05:06Z</time><name>PT2715</name></trkpt>
<trkpt lat="54.513731" lon="-3.023960"><ele>728</ele><time>2023-08-09T12:05:10Z</time><name>PT2716</name></trkpt>
<trkpt lat="54.513736" lon="-3.024013"><ele>726</ele><time>2023-08-09T12:05:13Z</time><name>PT2717</name></trkpt>
<trkpt lat="54.513746" lon="-3.024067"><ele>725</ele><time>2023-08-09T12:05:16Z</time><name>PT2718</name></trkpt>
<trkpt lat="54.513753" lon="-3.024113"><ele>725</ele><time>2023-08-09T12:05:19Z</time><name>PT2719</name></trkpt>
<trkpt lat="54.513767" lon="-3.024173"><ele>723</ele><time>2023-08-09T12:05:23Z</time><name>PT2720</name></trkpt>
<trkpt lat="54.513775" lon="-3.024242"><ele>721</ele><time>2023-08-09T12:05:27Z</time><name>PT2721</name></trkpt>
<trkpt lat="54.513772" lon="-3.024306"><ele>719</ele><time>2023-08-09T12:05:31Z</time><name>PT2722</name></trkpt>
<trkpt lat="54.513764" lon="-3.024350"><ele>718</ele><time>2023-08-09T12:05:34Z</time><name>PT2723</name></trkpt>
<trkpt lat="54.513737" lon="-3.024402"><ele>717</ele><time>2023-08-09T12:05:38Z</time><name>PT2724</name></trkpt>
<trkpt lat="54.513703" lon="-3.024444"><ele>717</ele><time>2023-08-09T12:05:42Z</time><name>PT2725</name></trkpt>
<trkpt lat="54.513676" lon="-3.024470"><ele>717</ele><time>2023-08-09T12:05:45Z</time><name>PT2726</name></trkpt>
<trkpt lat="54.513648" lon="-3.024486"><ele>716</ele><time>2023-08-09T12:05:48Z</time><name>PT2727</name></trkpt>
<trkpt lat="54.513600" lon="-3.024509"><ele>716</ele><time>2023-08-09T12:05:52Z</time><name>PT2728</name></trkpt>
<trkpt lat="54.513562" lon="-3.024518"><ele>716</ele><time>2023-08-09T12:05:56Z</time><name>PT2729</name></trkpt>
<trkpt lat="54.513531" lon="-3.024523"><ele>716</ele><time>2023-08-09T12:05:59Z</time><name>PT2730</name></trkpt>
<trkpt lat="54.513499" lon="-3.024500"><ele>714</ele><time>2023-08-09T12:06:03Z</time><name>PT2731</name></trkpt>
<trkpt lat="54.513459" lon="-3.024487"><ele>714</ele><time>2023-08-09T12:06:07Z</time><name>PT2732</name></trkpt>
<trkpt lat="54.513419" lon="-3.024504"><ele>712</ele><time>2023-08-09T12:06:11Z</time><name>PT2733</name></trkpt>
<trkpt lat="54.513402" lon="-3.024536"><ele>710</ele><time>2023-08-09T12:06:15Z</time><name>PT2734</name></trkpt>
<trkpt lat="54.513382" lon="-3.024584"><ele>709</ele><time>2023-08-09T12:06:19Z</time><name>PT2735</name></trkpt>
<trkpt lat="54.513360" lon="-3.024625"><ele>709</ele><time>2023-08-09T12:06:23Z</time><name>PT2736</name></trkpt>
<trkpt lat="54.513348" lon="-3.024652"><ele>708</ele><time>2023-08-09T12:06:26Z</time><name>PT2737</name></trkpt>
<trkpt lat="54.513336" lon="-3.024682"><ele>707</ele><time>2023-08-09T12:06:29Z</time><name>PT2738</name></trkpt>
<trkpt lat="54.513310" lon="-3.024738"><ele>706</ele><time>2023-08-09T12:06:33Z</time><name>PT2739</name></trkpt>
<trkpt lat="54.513286" lon="-3.024776"><ele>705</ele><time>2023-08-09T12:06:36Z</time><name>PT2740</name></trkpt>
<trkpt lat="54.513268" lon="-3.024830"><ele>703</ele><time>2023-08-09T12:06:40Z</time><name>PT2741</name></trkpt>
<trkpt lat="54.513260" lon="-3.024866"><ele>702</ele><time>2023-08-09T12:06:43Z</time><name>PT2742</name></trkpt>
<trkpt lat="54.513261" lon="-3.024899"><ele>701</ele><time>2023-08-09T12:06:46Z</time><name>PT2743</name></trkpt>
<trkpt lat="54.513249" lon="-3.024925"><ele>700</ele><time>2023-08-09T12:06:49Z</time><name>PT2744</name></trkpt>
<trkpt lat="54.513228" lon="-3.024938"><ele>699</ele><time>2023-08-09T12:06:53Z</time><name>PT2745</name></trkpt>
<trkpt lat="54.513210" lon="-3.024991"><ele>698</ele><time>2023-08-09T12:06:57Z</time><name>PT2746</name></trkpt>
<trkpt lat="54.513179" lon="-3.025044"><ele>697</ele><time>2023-08-09T12:07:01Z</time><name>PT2747</name></trkpt>
<trkpt lat="54.513156" lon="-3.025084"><ele>696</ele><time>2023-08-09T12:07:05Z</time><name>PT2748</name></trkpt>
<trkpt lat="54.513131" lon="-3.025118"><ele>695</ele><time>2023-08-09T12:07:09Z</time><name>PT2749</name></trkpt>
<trkpt lat="54.513111" lon="-3.025151"><ele>693</ele><time>2023-08-09T12:07:12Z</time><name>PT2750</name></trkpt>
<trkpt lat="54.513091" lon="-3.025198"><ele>693</ele><time>2023-08-09T12:07:16Z</time><name>PT2751</name></trkpt>
<trkpt lat="54.513081" lon="-3.025236"><ele>692</ele><time>2023-08-09T12:07:19Z</time><name>PT2752</name></trkpt>
<trkpt lat="54.513077" lon="-3.025258"><ele>690</ele><time>2023-08-09T12:07:22Z</time><name>PT2753</name></trkpt>
<trkpt lat="54.513070" lon="-3.025298"><ele>689</ele><time>2023-08-09T12:07:26Z</time><name>PT2754</name></trkpt>
<trkpt lat="54.513062" lon="-3.025327"><ele>688</ele><time>2023-08-09T12:07:30Z</time><name>PT2755</name></trkpt>
<trkpt lat="54.513048" lon="-3.025348"><ele>687</ele><time>2023-08-09T12:07:33Z</time><name>PT2756</name></trkpt>
<trkpt lat="54.513025" lon="-3.025402"><ele>687</ele><time>2023-08-09T12:07:37Z</time><name>PT2757</name></trkpt>
<trkpt lat="54.513008" lon="-3.025435"><ele>686</ele><time>2023-08-09T12:07:40Z</time><name>PT2758</name></trkpt>
<trkpt lat="54.512983" lon="-3.025439"><ele>687</ele><time>2023-08-09T12:07:44Z</time><name>PT2759</name></trkpt>
<trkpt lat="54.512957" lon="-3.025451"><ele>687</ele><time>2023-08-09T12:07:47Z</time><name>PT2760</name></trkpt>
<trkpt lat="54.512941" lon="-3.025466"><ele>687</ele><time>2023-08-09T12:07:50Z</time><name>PT2761</name></trkpt>
<trkpt lat="54.512928" lon="-3.025490"><ele>687</ele><time>2023-08-09T12:07:53Z</time><name>PT2762</name></trkpt>
<trkpt lat="54.512911" lon="-3.025514"><ele>687</ele><time>2023-08-09T12:07:57Z</time><name>PT2763</name></trkpt>
<trkpt lat="54.512905" lon="-3.025531"><ele>685</ele><time>2023-08-09T12:08:00Z</time><name>PT2764</name></trkpt>
<trkpt lat="54.512894" lon="-3.025549"><ele>684</ele><time>2023-08-09T12:08:04Z</time><name>PT2765</name></trkpt>
<trkpt lat="54.512886" lon="-3.025557"><ele>683</ele><time>2023-08-09T12:08:07Z</time><name>PT2766</name></trkpt>
<trkpt lat="54.512880" lon="-3.025566"><ele>683</ele><time>2023-08-09T12:08:11Z</time><name>PT2767</name></trkpt>
<trkpt lat="54.512871" lon="-3.025566"><ele>682</ele><time>2023-08-09T12:08:14Z</time><name>PT2768</name></trkpt>
<trkpt lat="54.512846" lon="-3.025586"><ele>681</ele><time>2023-08-09T12:08:21Z</time><name>PT2769</name></trkpt>
<trkpt lat="54.512833" lon="-3.025610"><ele>680</ele><time>2023-08-09T12:08:25Z</time><name>PT2770</name></trkpt>
<trkpt lat="54.512839" lon="-3.025643"><ele>678</ele><time>2023-08-09T12:08:29Z</time><name>PT2771</name></trkpt>
<trkpt lat="54.512845" lon="-3.025663"><ele>678</ele><time>2023-08-09T12:08:32Z</time><name>PT2772</name></trkpt>
<trkpt lat="54.512844" lon="-3.025677"><ele>677</ele><time>2023-08-09T12:08:35Z</time><name>PT2773</name></trkpt>
<trkpt lat="54.512848" lon="-3.025697"><ele>676</ele><time>2023-08-09T12:08:38Z</time><name>PT2774</name></trkpt>
<trkpt lat="54.512829" lon="-3.025730"><ele>676</ele><time>2023-08-09T12:08:42Z</time><name>PT2775</name></trkpt>
<trkpt lat="54.512825" lon="-3.025763"><ele>674</ele><time>2023-08-09T12:08:45Z</time><name>PT2776</name></trkpt>
<trkpt lat="54.512821" lon="-3.025811"><ele>672</ele><time>2023-08-09T12:08:49Z</time><name>PT2777</name></trkpt>
<trkpt lat="54.512812" lon="-3.025872"><ele>671</ele><time>2023-08-09T12:08:53Z</time><name>PT2778</name></trkpt>
<trkpt lat="54.512803" lon="-3.025917"><ele>670</ele><time>2023-08-09T12:08:56Z</time><name>PT2779</name></trkpt>
<trkpt lat="54.512792" lon="-3.025974"><ele>668</ele><time>2023-08-09T12:09:00Z</time><name>PT2780</name></trkpt>
<trkpt lat="54.512773" lon="-3.026019"><ele>668</ele><time>2023-08-09T12:09:04Z</time><name>PT2781</name></trkpt>
<trkpt lat="54.512749" lon="-3.026060"><ele>668</ele><time>2023-08-09T12:09:07Z</time><name>PT2782</name></trkpt>
<trkpt lat="54.512726" lon="-3.026114"><ele>667</ele><time>2023-08-09T12:09:11Z</time><name>PT2783</name></trkpt>
<trkpt lat="54.512714" lon="-3.026151"><ele>667</ele><time>2023-08-09T12:09:14Z</time><name>PT2784</name></trkpt>
<trkpt lat="54.512693" lon="-3.026191"><ele>666</ele><time>2023-08-09T12:09:18Z</time><name>PT2785</name></trkpt>
<trkpt lat="54.512675" lon="-3.026238"><ele>665</ele><time>2023-08-09T12:09:22Z</time><name>PT2786</name></trkpt>
<trkpt lat="54.512658" lon="-3.026274"><ele>664</ele><time>2023-08-09T12:09:25Z</time><name>PT2787</name></trkpt>
<trkpt lat="54.512654" lon="-3.026333"><ele>662</ele><time>2023-08-09T12:09:29Z</time><name>PT2788</name></trkpt>
<trkpt lat="54.512657" lon="-3.026364"><ele>661</ele><time>2023-08-09T12:09:32Z</time><name>PT2789</name></trkpt>
<trkpt lat="54.512658" lon="-3.026407"><ele>659</ele><time>2023-08-09T12:09:35Z</time><name>PT2790</name></trkpt>
<trkpt lat="54.512671" lon="-3.026440"><ele>659</ele><time>2023-08-09T12:09:38Z</time><name>PT2791</name></trkpt>
<trkpt lat="54.512660" lon="-3.026486"><ele>658</ele><time>2023-08-09T12:09:42Z</time><name>PT2792</name></trkpt>
<trkpt lat="54.512645" lon="-3.026551"><ele>656</ele><time>2023-08-09T12:09:46Z</time><name>PT2793</name></trkpt>
<trkpt lat="54.512641" lon="-3.026609"><ele>655</ele><time>2023-08-09T12:09:50Z</time><name>PT2794</name></trkpt>
<trkpt lat="54.512648" lon="-3.026661"><ele>654</ele><time>2023-08-09T12:09:54Z</time><name>PT2795</name></trkpt>
<trkpt lat="54.512655" lon="-3.026690"><ele>651</ele><time>2023-08-09T12:09:58Z</time><name>PT2796</name></trkpt>
<trkpt lat="54.512644" lon="-3.026733"><ele>651</ele><time>2023-08-09T12:10:02Z</time><name>PT2797</name></trkpt>
<trkpt lat="54.512639" lon="-3.026776"><ele>651</ele><time>2023-08-09T12:10:05Z</time><name>PT2798</name></trkpt>
<trkpt lat="54.512628" lon="-3.026806"><ele>651</ele><time>2023-08-09T12:10:09Z</time><name>PT2799</name></trkpt>
<trkpt lat="54.512622" lon="-3.026852"><ele>650</ele><time>2023-08-09T12:10:13Z</time><name>PT2800</name></trkpt>
<trkpt lat="54.512615" lon="-3.026908"><ele>649</ele><time>2023-08-09T12:10:17Z</time><name>PT2801</name></trkpt>
<trkpt lat="54.512605" lon="-3.026934"><ele>648</ele><time>2023-08-09T12:10:20Z</time><name>PT2802</name></trkpt>
<trkpt lat="54.512603" lon="-3.026942"><ele>648</ele><time>2023-08-09T12:10:23Z</time><name>PT2803</name></trkpt>
<trkpt lat="54.512602" lon="-3.026940"><ele>648</ele><time>2023-08-09T12:10:27Z</time><name>PT2804</name></trkpt>
<trkpt lat="54.512601" lon="-3.026956"><ele>648</ele><time>2023-08-09T12:11:00Z</time><name>PT2805</name></trkpt>
<trkpt lat="54.512594" lon="-3.026997"><ele>648</ele><time>2023-08-09T12:11:03Z</time><name>PT2806</name></trkpt>
<trkpt lat="54.512589" lon="-3.027019"><ele>647</ele><time>2023-08-09T12:11:07Z</time><name>PT2807</name></trkpt>
<trkpt lat="54.512582" lon="-3.027051"><ele>647</ele><time>2023-08-09T12:11:10Z</time><name>PT2808</name></trkpt>
<trkpt lat="54.512584" lon="-3.027080"><ele>646</ele><time>2023-08-09T12:11:13Z</time><name>PT2809</name></trkpt>
<trkpt lat="54.512588" lon="-3.027133"><ele>646</ele><time>2023-08-09T12:11:17Z</time><name>PT2810</name></trkpt>
<trkpt lat="54.512579" lon="-3.027177"><ele>645</ele><time>2023-08-09T12:11:20Z</time><name>PT2811</name></trkpt>
<trkpt lat="54.512553" lon="-3.027193"><ele>644</ele><time>2023-08-09T12:11:24Z</time><name>PT2812</name></trkpt>
<trkpt lat="54.512535" lon="-3.027218"><ele>644</ele><time>2023-08-09T12:11:28Z</time><name>PT2813</name></trkpt>
<trkpt lat="54.512523" lon="-3.027245"><ele>642</ele><time>2023-08-09T12:11:32Z</time><name>PT2814</name></trkpt>
<trkpt lat="54.512507" lon="-3.027274"><ele>642</ele><time>2023-08-09T12:11:36Z</time><name>PT2815</name></trkpt>
<trkpt lat="54.512496" lon="-3.027295"><ele>641</ele><time>2023-08-09T12:11:39Z</time><name>PT2816</name></trkpt>
<trkpt lat="54.512497" lon="-3.027326"><ele>639</ele><time>2023-08-09T12:11:43Z</time><name>PT2817</name></trkpt>
<trkpt lat="54.512500" lon="-3.027355"><ele>639</ele><time>2023-08-09T12:11:46Z</time><name>PT2818</name></trkpt>
<trkpt lat="54.512512" lon="-3.027400"><ele>638</ele><time>2023-08-09T12:11:49Z</time><name>PT2819</name></trkpt>
<trkpt lat="54.512525" lon="-3.027437"><ele>638</ele><time>2023-08-09T12:11:52Z</time><name>PT2820</name></trkpt>
<trkpt lat="54.512543" lon="-3.027472"><ele>637</ele><time>2023-08-09T12:11:56Z</time><name>PT2821</name></trkpt>
<trkpt lat="54.512546" lon="-3.027510"><ele>636</ele><time>2023-08-09T12:12:00Z</time><name>PT2822</name></trkpt>
<trkpt lat="54.512549" lon="-3.027540"><ele>635</ele><time>2023-08-09T12:12:03Z</time><name>PT2823</name></trkpt>
<trkpt lat="54.512557" lon="-3.027573"><ele>634</ele><time>2023-08-09T12:12:06Z</time><name>PT2824</name></trkpt>
<trkpt lat="54.512553" lon="-3.027606"><ele>633</ele><time>2023-08-09T12:12:09Z</time><name>PT2825</name></trkpt>
<trkpt lat="54.512535" lon="-3.027634"><ele>632</ele><time>2023-08-09T12:12:12Z</time><name>PT2826</name></trkpt>
<trkpt lat="54.512524" lon="-3.027674"><ele>632</ele><time>2023-08-09T12:12:16Z</time><name>PT2827</name></trkpt>
<trkpt lat="54.512519" lon="-3.027714"><ele>631</ele><time>2023-08-09T12:12:19Z</time><name>PT2828</name></trkpt>
<trkpt lat="54.512503" lon="-3.027742"><ele>629</ele><time>2023-08-09T12:12:23Z</time><name>PT2829</name></trkpt>
<trkpt lat="54.512489" lon="-3.027770"><ele>628</ele><time>2023-08-09T12:12:26Z</time><name>PT2830</name></trkpt>
<trkpt lat="54.512471" lon="-3.027801"><ele>628</ele><time>2023-08-09T12:12:29Z</time><name>PT2831</name></trkpt>
<trkpt lat="54.512444" lon="-3.027842"><ele>626</ele><time>2023-08-09T12:12:33Z</time><name>PT2832</name></trkpt>
<trkpt lat="54.512438" lon="-3.027869"><ele>624</ele><time>2023-08-09T12:12:36Z</time><name>PT2833</name></trkpt>
<trkpt lat="54.512424" lon="-3.027926"><ele>623</ele><time>2023-08-09T12:12:40Z</time><name>PT2834</name></trkpt>
<trkpt lat="54.512404" lon="-3.027968"><ele>623</ele><time>2023-08-09T12:12:43Z</time><name>PT2835</name></trkpt>
<trkpt lat="54.512371" lon="-3.028004"><ele>623</ele><time>2023-08-09T12:12:47Z</time><name>PT2836</name></trkpt>
<trkpt lat="54.512357" lon="-3.028039"><ele>623</ele><time>2023-08-09T12:12:50Z</time><name>PT2837</name></trkpt>
<trkpt lat="54.512345" lon="-3.028095"><ele>623</ele><time>2023-08-09T12:12:54Z</time><name>PT2838</name></trkpt>
<trkpt lat="54.512315" lon="-3.028141"><ele>622</ele><time>2023-08-09T12:12:58Z</time><name>PT2839</name></trkpt>
<trkpt lat="54.512290" lon="-3.028166"><ele>622</ele><time>2023-08-09T12:13:01Z</time><name>PT2840</name></trkpt>
<trkpt lat="54.512279" lon="-3.028187"><ele>621</ele><time>2023-08-09T12:13:05Z</time><name>PT2841</name></trkpt>
<trkpt lat="54.512263" lon="-3.028232"><ele>620</ele><time>2023-08-09T12:13:08Z</time><name>PT2842</name></trkpt>
<trkpt lat="54.512259" lon="-3.028297"><ele>620</ele><time>2023-08-09T12:13:12Z</time><name>PT2843</name></trkpt>
<trkpt lat="54.512231" lon="-3.028367"><ele>619</ele><time>2023-08-09T12:13:16Z</time><name>PT2844</name></trkpt>
<trkpt lat="54.512205" lon="-3.028409"><ele>620</ele><time>2023-08-09T12:13:19Z</time><name>PT2845</name></trkpt>
<trkpt lat="54.512178" lon="-3.028462"><ele>619</ele><time>2023-08-09T12:13:23Z</time><name>PT2846</name></trkpt>
<trkpt lat="54.512167" lon="-3.028506"><ele>618</ele><time>2023-08-09T12:13:26Z</time><name>PT2847</name></trkpt>
<trkpt lat="54.512151" lon="-3.028561"><ele>617</ele><time>2023-08-09T12:13:30Z</time><name>PT2848</name></trkpt>
<trkpt lat="54.512133" lon="-3.028611"><ele>616</ele><time>2023-08-09T12:13:34Z</time><name>PT2849</name></trkpt>
<trkpt lat="54.512124" lon="-3.028643"><ele>615</ele><time>2023-08-09T12:13:37Z</time><name>PT2850</name></trkpt>
<trkpt lat="54.512110" lon="-3.028678"><ele>614</ele><time>2023-08-09T12:13:41Z</time><name>PT2851</name></trkpt>
<trkpt lat="54.512115" lon="-3.028703"><ele>613</ele><time>2023-08-09T12:13:44Z</time><name>PT2852</name></trkpt>
<trkpt lat="54.512104" lon="-3.028764"><ele>612</ele><time>2023-08-09T12:13:48Z</time><name>PT2853</name></trkpt>
<trkpt lat="54.512089" lon="-3.028804"><ele>612</ele><time>2023-08-09T12:13:51Z</time><name>PT2854</name></trkpt>
<trkpt lat="54.512070" lon="-3.028843"><ele>612</ele><time>2023-08-09T12:13:54Z</time><name>PT2855</name></trkpt>
<trkpt lat="54.512045" lon="-3.028874"><ele>611</ele><time>2023-08-09T12:13:58Z</time><name>PT2856</name></trkpt>
<trkpt lat="54.512024" lon="-3.028886"><ele>610</ele><time>2023-08-09T12:14:02Z</time><name>PT2857</name></trkpt>
<trkpt lat="54.512009" lon="-3.028898"><ele>609</ele><time>2023-08-09T12:14:06Z</time><name>PT2858</name></trkpt>
<trkpt lat="54.511995" lon="-3.028929"><ele>608</ele><time>2023-08-09T12:14:09Z</time><name>PT2859</name></trkpt>
<trkpt lat="54.511979" lon="-3.028987"><ele>606</ele><time>2023-08-09T12:14:13Z</time><name>PT2860</name></trkpt>
<trkpt lat="54.511972" lon="-3.029037"><ele>606</ele><time>2023-08-09T12:14:16Z</time><name>PT2861</name></trkpt>
<trkpt lat="54.511944" lon="-3.029076"><ele>606</ele><time>2023-08-09T12:14:19Z</time><name>PT2862</name></trkpt>
<trkpt lat="54.511912" lon="-3.029099"><ele>606</ele><time>2023-08-09T12:14:22Z</time><name>PT2863</name></trkpt>
<trkpt lat="54.511884" lon="-3.029132"><ele>607</ele><time>2023-08-09T12:14:25Z</time><name>PT2864</name></trkpt>
<trkpt lat="54.511854" lon="-3.029169"><ele>607</ele><time>2023-08-09T12:14:28Z</time><name>PT2865</name></trkpt>
<trkpt lat="54.511829" lon="-3.029199"><ele>606</ele><time>2023-08-09T12:14:31Z</time><name>PT2866</name></trkpt>
<trkpt lat="54.511780" lon="-3.029249"><ele>606</ele><time>2023-08-09T12:14:35Z</time><name>PT2867</name></trkpt>
<trkpt lat="54.511737" lon="-3.029297"><ele>607</ele><time>2023-08-09T12:14:39Z</time><name>PT2868</name></trkpt>
<trkpt lat="54.511699" lon="-3.029337"><ele>606</ele><time>2023-08-09T12:14:43Z</time><name>PT2869</name></trkpt>
<trkpt lat="54.511671" lon="-3.029374"><ele>606</ele><time>2023-08-09T12:14:47Z</time><name>PT2870</name></trkpt>
<trkpt lat="54.511645" lon="-3.029399"><ele>606</ele><time>2023-08-09T12:14:50Z</time><name>PT2871</name></trkpt>
<trkpt lat="54.511618" lon="-3.029425"><ele>606</ele><time>2023-08-09T12:14:53Z</time><name>PT2872</name></trkpt>
<trkpt lat="54.511585" lon="-3.029453"><ele>607</ele><time>2023-08-09T12:14:56Z</time><name>PT2873</name></trkpt>
<trkpt lat="54.511548" lon="-3.029473"><ele>607</ele><time>2023-08-09T12:15:00Z</time><name>PT2874</name></trkpt>
<trkpt lat="54.511519" lon="-3.029499"><ele>608</ele><time>2023-08-09T12:15:03Z</time><name>PT2875</name></trkpt>
<trkpt lat="54.511483" lon="-3.029522"><ele>607</ele><time>2023-08-09T12:15:07Z</time><name>PT2876</name></trkpt>
<trkpt lat="54.511463" lon="-3.029541"><ele>607</ele><time>2023-08-09T12:15:10Z</time><name>PT2877</name></trkpt>
<trkpt lat="54.511442" lon="-3.029560"><ele>607</ele><time>2023-08-09T12:15:13Z</time><name>PT2878</name></trkpt>
<trkpt lat="54.511410" lon="-3.029587"><ele>606</ele><time>2023-08-09T12:15:17Z</time><name>PT2879</name></trkpt>
<trkpt lat="54.511387" lon="-3.029643"><ele>605</ele><time>2023-08-09T12:15:21Z</time><name>PT2880</name></trkpt>
<trkpt lat="54.511371" lon="-3.029688"><ele>604</ele><time>2023-08-09T12:15:24Z</time><name>PT2881</name></trkpt>
<trkpt lat="54.511354" lon="-3.029728"><ele>604</ele><time>2023-08-09T12:15:27Z</time><name>PT2882</name></trkpt>
<trkpt lat="54.511362" lon="-3.029781"><ele>602</ele><time>2023-08-09T12:15:31Z</time><name>PT2883</name></trkpt>
<trkpt lat="54.511375" lon="-3.029832"><ele>602</ele><time>2023-08-09T12:15:34Z</time><name>PT2884</name></trkpt>
<trkpt lat="54.511392" lon="-3.029878"><ele>601</ele><time>2023-08-09T12:15:38Z</time><name>PT2885</name></trkpt>
<trkpt lat="54.511404" lon="-3.029917"><ele>599</ele><time>2023-08-09T12:15:42Z</time><name>PT2886</name></trkpt>
<trkpt lat="54.511411" lon="-3.029959"><ele>598</ele><time>2023-08-09T12:15:46Z</time><name>PT2887</name></trkpt>
<trkpt lat="54.511420" lon="-3.029995"><ele>596</ele><time>2023-08-09T12:15:49Z</time><name>PT2888</name></trkpt>
<trkpt lat="54.511428" lon="-3.030058"><ele>596</ele><time>2023-08-09T12:15:53Z</time><name>PT2889</name></trkpt>
<trkpt lat="54.511442" lon="-3.030125"><ele>596</ele><time>2023-08-09T12:15:56Z</time><name>PT2890</name></trkpt>
<trkpt lat="54.511455" lon="-3.030189"><ele>595</ele><time>2023-08-09T12:16:00Z</time><name>PT2891</name></trkpt>
<trkpt lat="54.511462" lon="-3.030255"><ele>595</ele><time>2023-08-09T12:16:04Z</time><name>PT2892</name></trkpt>
<trkpt lat="54.511462" lon="-3.030301"><ele>594</ele><time>2023-08-09T12:16:08Z</time><name>PT2893</name></trkpt>
<trkpt lat="54.511463" lon="-3.030312"><ele>594</ele><time>2023-08-09T12:16:12Z</time><name>PT2894</name></trkpt>
<trkpt lat="54.511451" lon="-3.030334"><ele>594</ele><time>2023-08-09T12:16:15Z</time><name>PT2895</name></trkpt>
<trkpt lat="54.511437" lon="-3.030373"><ele>593</ele><time>2023-08-09T12:16:18Z</time><name>PT2896</name></trkpt>
<trkpt lat="54.511436" lon="-3.030429"><ele>592</ele><time>2023-08-09T12:16:22Z</time><name>PT2897</name></trkpt>
<trkpt lat="54.511454" lon="-3.030472"><ele>591</ele><time>2023-08-09T12:16:26Z</time><name>PT2898</name></trkpt>
<trkpt lat="54.511454" lon="-3.030504"><ele>590</ele><time>2023-08-09T12:16:29Z</time><name>PT2899</name></trkpt>
<trkpt lat="54.511473" lon="-3.030532"><ele>589</ele><time>2023-08-09T12:16:33Z</time><name>PT2900</name></trkpt>
<trkpt lat="54.511459" lon="-3.030562"><ele>589</ele><time>2023-08-09T12:16:36Z</time><name>PT2901</name></trkpt>
<trkpt lat="54.511442" lon="-3.030619"><ele>588</ele><time>2023-08-09T12:16:40Z</time><name>PT2902</name></trkpt>
<trkpt lat="54.511435" lon="-3.030640"><ele>589</ele><time>2023-08-09T12:16:44Z</time><name>PT2903</name></trkpt>
<trkpt lat="54.511427" lon="-3.030652"><ele>589</ele><time>2023-08-09T12:17:05Z</time><name>PT2904</name></trkpt>
<trkpt lat="54.511415" lon="-3.030699"><ele>589</ele><time>2023-08-09T12:17:08Z</time><name>PT2905</name></trkpt>
<trkpt lat="54.511403" lon="-3.030746"><ele>588</ele><time>2023-08-09T12:17:12Z</time><name>PT2906</name></trkpt>
<trkpt lat="54.511381" lon="-3.030799"><ele>588</ele><time>2023-08-09T12:17:16Z</time><name>PT2907</name></trkpt>
<trkpt lat="54.511354" lon="-3.030817"><ele>587</ele><time>2023-08-09T12:17:19Z</time><name>PT2908</name></trkpt>
<trkpt lat="54.511324" lon="-3.030830"><ele>587</ele><time>2023-08-09T12:17:23Z</time><name>PT2909</name></trkpt>
<trkpt lat="54.511287" lon="-3.030868"><ele>587</ele><time>2023-08-09T12:17:27Z</time><name>PT2910</name></trkpt>
<trkpt lat="54.511260" lon="-3.030904"><ele>588</ele><time>2023-08-09T12:17:31Z</time><name>PT2911</name></trkpt>
<trkpt lat="54.511233" lon="-3.030930"><ele>588</ele><time>2023-08-09T12:17:34Z</time><name>PT2912</name></trkpt>
<trkpt lat="54.511213" lon="-3.030958"><ele>587</ele><time>2023-08-09T12:17:37Z</time><name>PT2913</name></trkpt>
<trkpt lat="54.511185" lon="-3.031023"><ele>587</ele><time>2023-08-09T12:17:41Z</time><name>PT2914</name></trkpt>
<trkpt lat="54.511162" lon="-3.031078"><ele>587</ele><time>2023-08-09T12:17:44Z</time><name>PT2915</name></trkpt>
<trkpt lat="54.511153" lon="-3.031155"><ele>586</ele><time>2023-08-09T12:17:48Z</time><name>PT2916</name></trkpt>
<trkpt lat="54.511173" lon="-3.031228"><ele>587</ele><time>2023-08-09T12:17:52Z</time><name>PT2917</name></trkpt>
<trkpt lat="54.511188" lon="-3.031250"><ele>587</ele><time>2023-08-09T12:17:55Z</time><name>PT2918</name></trkpt>
<trkpt lat="54.511202" lon="-3.031284"><ele>586</ele><time>2023-08-09T12:17:59Z</time><name>PT2919</name></trkpt>
<trkpt lat="54.511218" lon="-3.031314"><ele>586</ele><time>2023-08-09T12:18:02Z</time><name>PT2920</name></trkpt>
<trkpt lat="54.511222" lon="-3.031352"><ele>585</ele><time>2023-08-09T12:18:06Z</time><name>PT2921</name></trkpt>
<trkpt lat="54.511204" lon="-3.031372"><ele>584</ele><time>2023-08-09T12:18:09Z</time><name>PT2922</name></trkpt>
<trkpt lat="54.511184" lon="-3.031390"><ele>583</ele><time>2023-08-09T12:18:12Z</time><name>PT2923</name></trkpt>
<trkpt lat="54.511176" lon="-3.031413"><ele>583</ele><time>2023-08-09T12:18:15Z</time><name>PT2924</name></trkpt>
<trkpt lat="54.511171" lon="-3.031435"><ele>582</ele><time>2023-08-09T12:18:18Z</time><name>PT2925</name></trkpt>
<trkpt lat="54.511162" lon="-3.031471"><ele>581</ele><time>2023-08-09T12:18:22Z</time><name>PT2926</name></trkpt>
<trkpt lat="54.511153" lon="-3.031495"><ele>580</ele><time>2023-08-09T12:18:26Z</time><name>PT2927</name></trkpt>
<trkpt lat="54.511144" lon="-3.031522"><ele>579</ele><time>2023-08-09T12:18:29Z</time><name>PT2928</name></trkpt>
<trkpt lat="54.511131" lon="-3.031557"><ele>578</ele><time>2023-08-09T12:18:32Z</time><name>PT2929</name></trkpt>
<trkpt lat="54.511137" lon="-3.031593"><ele>579</ele><time>2023-08-09T12:18:35Z</time><name>PT2930</name></trkpt>
<trkpt lat="54.511151" lon="-3.031618"><ele>578</ele><time>2023-08-09T12:18:39Z</time><name>PT2931</name></trkpt>
<trkpt lat="54.511146" lon="-3.031645"><ele>577</ele><time>2023-08-09T12:18:43Z</time><name>PT2932</name></trkpt>
<trkpt lat="54.511152" lon="-3.031680"><ele>576</ele><time>2023-08-09T12:18:47Z</time><name>PT2933</name></trkpt>
<trkpt lat="54.511160" lon="-3.031707"><ele>575</ele><time>2023-08-09T12:18:51Z</time><name>PT2934</name></trkpt>
<trkpt lat="54.511176" lon="-3.031723"><ele>574</ele><time>2023-08-09T12:18:54Z</time><name>PT2935</name></trkpt>
<trkpt lat="54.511184" lon="-3.031747"><ele>573</ele><time>2023-08-09T12:18:57Z</time><name>PT2936</name></trkpt>
<trkpt lat="54.511186" lon="-3.031758"><ele>573</ele><time>2023-08-09T12:19:01Z</time><name>PT2937</name></trkpt>
<trkpt lat="54.511189" lon="-3.031771"><ele>573</ele><time>2023-08-09T12:19:04Z</time><name>PT2938</name></trkpt>
<trkpt lat="54.511188" lon="-3.031805"><ele>572</ele><time>2023-08-09T12:19:08Z</time><name>PT2939</name></trkpt>
<trkpt lat="54.511201" lon="-3.031831"><ele>571</ele><time>2023-08-09T12:19:12Z</time><name>PT2940</name></trkpt>
<trkpt lat="54.511196" lon="-3.031874"><ele>569</ele><time>2023-08-09T12:19:16Z</time><name>PT2941</name></trkpt>
<trkpt lat="54.511199" lon="-3.031913"><ele>568</ele><time>2023-08-09T12:19:20Z</time><name>PT2942</name></trkpt>
<trkpt lat="54.511200" lon="-3.031954"><ele>567</ele><time>2023-08-09T12:19:23Z</time><name>PT2943</name></trkpt>
<trkpt lat="54.511202" lon="-3.031983"><ele>567</ele><time>2023-08-09T12:19:26Z</time><name>PT2944</name></trkpt>
<trkpt lat="54.511210" lon="-3.032024"><ele>566</ele><time>2023-08-09T12:19:30Z</time><name>PT2945</name></trkpt>
<trkpt lat="54.511214" lon="-3.032050"><ele>567</ele><time>2023-08-09T12:19:33Z</time><name>PT2946</name></trkpt>
<trkpt lat="54.511229" lon="-3.032054"><ele>565</ele><time>2023-08-09T12:19:37Z</time><name>PT2947</name></trkpt>
<trkpt lat="54.511244" lon="-3.032062"><ele>565</ele><time>2023-08-09T12:19:40Z</time><name>PT2948</name></trkpt>
<trkpt lat="54.511260" lon="-3.032088"><ele>564</ele><time>2023-08-09T12:19:43Z</time><name>PT2949</name></trkpt>
<trkpt lat="54.511290" lon="-3.032107"><ele>564</ele><time>2023-08-09T12:19:47Z</time><name>PT2950</name></trkpt>
<trkpt lat="54.511301" lon="-3.032131"><ele>563</ele><time>2023-08-09T12:19:50Z</time><name>PT2951</name></trkpt>
<trkpt lat="54.511301" lon="-3.032158"><ele>563</ele><time>2023-08-09T12:19:54Z</time><name>PT2952</name></trkpt>
<trkpt lat="54.511323" lon="-3.032178"><ele>563</ele><time>2023-08-09T12:19:58Z</time><name>PT2953</name></trkpt>
<trkpt lat="54.511347" lon="-3.032177"><ele>561</ele><time>2023-08-09T12:20:02Z</time><name>PT2954</name></trkpt>
<trkpt lat="54.511368" lon="-3.032174"><ele>560</ele><time>2023-08-09T12:20:05Z</time><name>PT2955</name></trkpt>
<trkpt lat="54.511392" lon="-3.032175"><ele>558</ele><time>2023-08-09T12:20:09Z</time><name>PT2956</name></trkpt>
<trkpt lat="54.511413" lon="-3.032181"><ele>558</ele><time>2023-08-09T12:20:12Z</time><name>PT2957</name></trkpt>
<trkpt lat="54.511433" lon="-3.032191"><ele>557</ele><time>2023-08-09T12:20:16Z</time><name>PT2958</name></trkpt>
<trkpt lat="54.511440" lon="-3.032200"><ele>556</ele><time>2023-08-09T12:20:20Z</time><name>PT2959</name></trkpt>
<trkpt lat="54.511460" lon="-3.032210"><ele>555</ele><time>2023-08-09T12:20:24Z</time><name>PT2960</name></trkpt>
<trkpt lat="54.511470" lon="-3.032226"><ele>555</ele><time>2023-08-09T12:20:27Z</time><name>PT2961</name></trkpt>
<trkpt lat="54.511478" lon="-3.032240"><ele>554</ele><time>2023-08-09T12:20:31Z</time><name>PT2962</name></trkpt>
<trkpt lat="54.511488" lon="-3.032266"><ele>554</ele><time>2023-08-09T12:20:34Z</time><name>PT2963</name></trkpt>
<trkpt lat="54.511499" lon="-3.032303"><ele>554</ele><time>2023-08-09T12:20:38Z</time><name>PT2964</name></trkpt>
<trkpt lat="54.511499" lon="-3.032326"><ele>554</ele><time>2023-08-09T12:20:41Z</time><name>PT2965</name></trkpt>
<trkpt lat="54.511505" lon="-3.032358"><ele>552</ele><time>2023-08-09T12:20:45Z</time><name>PT2966</name></trkpt>
<trkpt lat="54.511519" lon="-3.032380"><ele>553</ele><time>2023-08-09T12:20:48Z</time><name>PT2967</name></trkpt>
<trkpt lat="54.511523" lon="-3.032386"><ele>553</ele><time>2023-08-09T12:20:52Z</time><name>PT2968</name></trkpt>
<trkpt lat="54.511522" lon="-3.032405"><ele>553</ele><time>2023-08-09T12:20:59Z</time><name>PT2969</name></trkpt>
<trkpt lat="54.511527" lon="-3.032443"><ele>553</ele><time>2023-08-09T12:21:02Z</time><name>PT2970</name></trkpt>
<trkpt lat="54.511528" lon="-3.032468"><ele>552</ele><time>2023-08-09T12:21:06Z</time><name>PT2971</name></trkpt>
<trkpt lat="54.511526" lon="-3.032506"><ele>552</ele><time>2023-08-09T12:21:10Z</time><name>PT2972</name></trkpt>
<trkpt lat="54.511525" lon="-3.032504"><ele>552</ele><time>2023-08-09T12:21:13Z</time><name>PT2973</name></trkpt>
<trkpt lat="54.511514" lon="-3.032500"><ele>551</ele><time>2023-08-09T12:23:37Z</time><name>PT2974</name></trkpt>
<trkpt lat="54.511505" lon="-3.032505"><ele>550</ele><time>2023-08-09T12:26:04Z</time><name>PT2975</name></trkpt>
<trkpt lat="54.511509" lon="-3.032518"><ele>550</ele><time>2023-08-09T12:26:07Z</time><name>PT2976</name></trkpt>
<trkpt lat="54.511514" lon="-3.032532"><ele>551</ele><time>2023-08-09T12:29:01Z</time><name>PT2977</name></trkpt>
<trkpt lat="54.511525" lon="-3.032556"><ele>550</ele><time>2023-08-09T12:29:04Z</time><name>PT2978</name></trkpt>
<trkpt lat="54.511521" lon="-3.032597"><ele>549</ele><time>2023-08-09T12:29:08Z</time><name>PT2979</name></trkpt>
<trkpt lat="54.511528" lon="-3.032630"><ele>550</ele><time>2023-08-09T12:29:12Z</time><name>PT2980</name></trkpt>
<trkpt lat="54.511543" lon="-3.032664"><ele>549</ele><time>2023-08-09T12:29:16Z</time><name>PT2981</name></trkpt>
<trkpt lat="54.511549" lon="-3.032693"><ele>548</ele><time>2023-08-09T12:29:19Z</time><name>PT2982</name></trkpt>
<trkpt lat="54.511561" lon="-3.032713"><ele>548</ele><time>2023-08-09T12:29:23Z</time><name>PT2983</name></trkpt>
<trkpt lat="54.511576" lon="-3.032713"><ele>548</ele><time>2023-08-09T12:29:27Z</time><name>PT2984</name></trkpt>
<trkpt lat="54.511581" lon="-3.032711"><ele>546</ele><time>2023-08-09T12:29:30Z</time><name>PT2985</name></trkpt>
<trkpt lat="54.511599" lon="-3.032725"><ele>545</ele><time>2023-08-09T12:29:34Z</time><name>PT2986</name></trkpt>
<trkpt lat="54.511609" lon="-3.032758"><ele>544</ele><time>2023-08-09T12:29:38Z</time><name>PT2987</name></trkpt>
<trkpt lat="54.511614" lon="-3.032779"><ele>543</ele><time>2023-08-09T12:29:41Z</time><name>PT2988</name></trkpt>
<trkpt lat="54.511627" lon="-3.032801"><ele>542</ele><time>2023-08-09T12:29:45Z</time><name>PT2989</name></trkpt>
<trkpt lat="54.511641" lon="-3.032806"><ele>541</ele><time>2023-08-09T12:29:49Z</time><name>PT2990</name></trkpt>
<trkpt lat="54.511648" lon="-3.032816"><ele>540</ele><time>2023-08-09T12:29:52Z</time><name>PT2991</name></trkpt>
<trkpt lat="54.511670" lon="-3.032810"><ele>540</ele><time>2023-08-09T12:29:56Z</time><name>PT2992</name></trkpt>
<trkpt lat="54.511688" lon="-3.032824"><ele>540</ele><time>2023-08-09T12:29:59Z</time><name>PT2993</name></trkpt>
<trkpt lat="54.511698" lon="-3.032844"><ele>540</ele><time>2023-08-09T12:30:02Z</time><name>PT2994</name></trkpt>
<trkpt lat="54.511708" lon="-3.032863"><ele>539</ele><time>2023-08-09T12:30:06Z</time><name>PT2995</name></trkpt>
<trkpt lat="54.511707" lon="-3.032859"><ele>539</ele><time>2023-08-09T12:30:10Z</time><name>PT2996</name></trkpt>
<trkpt lat="54.511719" lon="-3.032887"><ele>539</ele><time>2023-08-09T12:30:13Z</time><name>PT2997</name></trkpt>
<trkpt lat="54.511734" lon="-3.032917"><ele>538</ele><time>2023-08-09T12:30:16Z</time><name>PT2998</name></trkpt>
<trkpt lat="54.511742" lon="-3.032944"><ele>537</ele><time>2023-08-09T12:30:20Z</time><name>PT2999</name></trkpt>
<trkpt lat="54.511755" lon="-3.032969"><ele>535</ele><time>2023-08-09T12:30:23Z</time><name>PT3000</name></trkpt>
<trkpt lat="54.511780" lon="-3.032954"><ele>535</ele><time>2023-08-09T12:30:27Z</time><name>PT3001</name></trkpt>
<trkpt lat="54.511800" lon="-3.032946"><ele>533</ele><time>2023-08-09T12:30:31Z</time><name>PT3002</name></trkpt>
<trkpt lat="54.511812" lon="-3.032939"><ele>533</ele><time>2023-08-09T12:30:34Z</time><name>PT3003</name></trkpt>
<trkpt lat="54.511824" lon="-3.032915"><ele>531</ele><time>2023-08-09T12:30:38Z</time><name>PT3004</name></trkpt>
<trkpt lat="54.511835" lon="-3.032901"><ele>531</ele><time>2023-08-09T12:30:41Z</time><name>PT3005</name></trkpt>
<trkpt lat="54.511854" lon="-3.032883"><ele>530</ele><time>2023-08-09T12:30:45Z</time><name>PT3006</name></trkpt>
<trkpt lat="54.511873" lon="-3.032860"><ele>529</ele><time>2023-08-09T12:30:49Z</time><name>PT3007</name></trkpt>
<trkpt lat="54.511891" lon="-3.032846"><ele>530</ele><time>2023-08-09T12:30:52Z</time><name>PT3008</name></trkpt>
<trkpt lat="54.511905" lon="-3.032824"><ele>529</ele><time>2023-08-09T12:30:55Z</time><name>PT3009</name></trkpt>
<trkpt lat="54.511916" lon="-3.032807"><ele>528</ele><time>2023-08-09T12:30:58Z</time><name>PT3010</name></trkpt>
<trkpt lat="54.511935" lon="-3.032767"><ele>528</ele><time>2023-08-09T12:31:02Z</time><name>PT3011</name></trkpt>
<trkpt lat="54.511955" lon="-3.032734"><ele>528</ele><time>2023-08-09T12:31:06Z</time><name>PT3012</name></trkpt>
<trkpt lat="54.511973" lon="-3.032705"><ele>527</ele><time>2023-08-09T12:31:10Z</time><name>PT3013</name></trkpt>
<trkpt lat="54.511990" lon="-3.032695"><ele>528</ele><time>2023-08-09T12:31:13Z</time><name>PT3014</name></trkpt>
<trkpt lat="54.512006" lon="-3.032668"><ele>527</ele><time>2023-08-09T12:31:17Z</time><name>PT3015</name></trkpt>
<trkpt lat="54.512022" lon="-3.032631"><ele>526</ele><time>2023-08-09T12:31:21Z</time><name>PT3016</name></trkpt>
<trkpt lat="54.512030" lon="-3.032605"><ele>526</ele><time>2023-08-09T12:31:24Z</time><name>PT3017</name></trkpt>
<trkpt lat="54.512051" lon="-3.032565"><ele>524</ele><time>2023-08-09T12:31:28Z</time><name>PT3018</name></trkpt>
<trkpt lat="54.512066" lon="-3.032524"><ele>523</ele><time>2023-08-09T12:31:31Z</time><name>PT3019</name></trkpt>
<trkpt lat="54.512079" lon="-3.032494"><ele>523</ele><time>2023-08-09T12:31:34Z</time><name>PT3020</name></trkpt>
<trkpt lat="54.512097" lon="-3.032457"><ele>522</ele><time>2023-08-09T12:31:37Z</time><name>PT3021</name></trkpt>
<trkpt lat="54.512135" lon="-3.032397"><ele>522</ele><time>2023-08-09T12:31:41Z</time><name>PT3022</name></trkpt>
<trkpt lat="54.512147" lon="-3.032379"><ele>522</ele><time>2023-08-09T12:31:44Z</time><name>PT3023</name></trkpt>
<trkpt lat="54.512172" lon="-3.032376"><ele>519</ele><time>2023-08-09T12:31:48Z</time><name>PT3024</name></trkpt>
<trkpt lat="54.512189" lon="-3.032367"><ele>517</ele><time>2023-08-09T12:31:51Z</time><name>PT3025</name></trkpt>
<trkpt lat="54.512216" lon="-3.032342"><ele>517</ele><time>2023-08-09T12:31:55Z</time><name>PT3026</name></trkpt>
<trkpt lat="54.512248" lon="-3.032307"><ele>517</ele><time>2023-08-09T12:31:59Z</time><name>PT3027</name></trkpt>
<trkpt lat="54.512278" lon="-3.032270"><ele>517</ele><time>2023-08-09T12:32:03Z</time><name>PT3028</name></trkpt>
<trkpt lat="54.512303" lon="-3.032233"><ele>516</ele><time>2023-08-09T12:32:07Z</time><name>PT3029</name></trkpt>
<trkpt lat="54.512318" lon="-3.032198"><ele>515</ele><time>2023-08-09T12:32:10Z</time><name>PT3030</name></trkpt>
<trkpt lat="54.512323" lon="-3.032153"><ele>514</ele><time>2023-08-09T12:32:14Z</time><name>PT3031</name></trkpt>
<trkpt lat="54.512331" lon="-3.032136"><ele>514</ele><time>2023-08-09T12:32:17Z</time><name>PT3032</name></trkpt>
<trkpt lat="54.512346" lon="-3.032122"><ele>514</ele><time>2023-08-09T12:32:21Z</time><name>PT3033</name></trkpt>
<trkpt lat="54.512362" lon="-3.032133"><ele>513</ele><time>2023-08-09T12:32:24Z</time><name>PT3034</name></trkpt>
<trkpt lat="54.512375" lon="-3.032158"><ele>512</ele><time>2023-08-09T12:32:27Z</time><name>PT3035</name></trkpt>
<trkpt lat="54.512398" lon="-3.032150"><ele>511</ele><time>2023-08-09T12:32:31Z</time><name>PT3036</name></trkpt>
<trkpt lat="54.512415" lon="-3.032138"><ele>511</ele><time>2023-08-09T12:32:34Z</time><name>PT3037</name></trkpt>
<trkpt lat="54.512453" lon="-3.032106"><ele>510</ele><time>2023-08-09T12:32:38Z</time><name>PT3038</name></trkpt>
<trkpt lat="54.512472" lon="-3.032117"><ele>508</ele><time>2023-08-09T12:32:42Z</time><name>PT3039</name></trkpt>
<trkpt lat="54.512489" lon="-3.032096"><ele>507</ele><time>2023-08-09T12:32:45Z</time><name>PT3040</name></trkpt>
<trkpt lat="54.512501" lon="-3.032086"><ele>506</ele><time>2023-08-09T12:32:48Z</time><name>PT3041</name></trkpt>
<trkpt lat="54.512526" lon="-3.032066"><ele>505</ele><time>2023-08-09T12:32:52Z</time><name>PT3042</name></trkpt>
<trkpt lat="54.512547" lon="-3.032048"><ele>505</ele><time>2023-08-09T12:32:56Z</time><name>PT3043</name></trkpt>
<trkpt lat="54.512566" lon="-3.032041"><ele>504</ele><time>2023-08-09T12:33:00Z</time><name>PT3044</name></trkpt>
<trkpt lat="54.512570" lon="-3.032043"><ele>504</ele><time>2023-08-09T12:33:04Z</time><name>PT3045</name></trkpt>
<trkpt lat="54.512591" lon="-3.032012"><ele>502</ele><time>2023-08-09T12:33:08Z</time><name>PT3046</name></trkpt>
<trkpt lat="54.512614" lon="-3.031957"><ele>501</ele><time>2023-08-09T12:33:12Z</time><name>PT3047</name></trkpt>
<trkpt lat="54.512637" lon="-3.031945"><ele>500</ele><time>2023-08-09T12:33:15Z</time><name>PT3048</name></trkpt>
<trkpt lat="54.512665" lon="-3.031948"><ele>500</ele><time>2023-08-09T12:33:18Z</time><name>PT3049</name></trkpt>
<trkpt lat="54.512682" lon="-3.031929"><ele>499</ele><time>2023-08-09T12:33:22Z</time><name>PT3050</name></trkpt>
<trkpt lat="54.512699" lon="-3.031924"><ele>498</ele><time>2023-08-09T12:33:25Z</time><name>PT3051</name></trkpt>
<trkpt lat="54.512711" lon="-3.031927"><ele>497</ele><time>2023-08-09T12:33:28Z</time><name>PT3052</name></trkpt>
<trkpt lat="54.512724" lon="-3.031908"><ele>496</ele><time>2023-08-09T12:33:31Z</time><name>PT3053</name></trkpt>
<trkpt lat="54.512737" lon="-3.031874"><ele>495</ele><time>2023-08-09T12:33:35Z</time><name>PT3054</name></trkpt>
<trkpt lat="54.512754" lon="-3.031832"><ele>494</ele><time>2023-08-09T12:33:39Z</time><name>PT3055</name></trkpt>
<trkpt lat="54.512768" lon="-3.031818"><ele>493</ele><time>2023-08-09T12:33:42Z</time><name>PT3056</name></trkpt>
<trkpt lat="54.512776" lon="-3.031846"><ele>493</ele><time>2023-08-09T12:33:46Z</time><name>PT3057</name></trkpt>
<trkpt lat="54.512784" lon="-3.031880"><ele>493</ele><time>2023-08-09T12:33:49Z</time><name>PT3058</name></trkpt>
<trkpt lat="54.512788" lon="-3.031887"><ele>492</ele><time>2023-08-09T12:33:52Z</time><name>PT3059</name></trkpt>
<trkpt lat="54.512803" lon="-3.031900"><ele>491</ele><time>2023-08-09T12:33:55Z</time><name>PT3060</name></trkpt>
<trkpt lat="54.512814" lon="-3.031910"><ele>490</ele><time>2023-08-09T12:33:59Z</time><name>PT3061</name></trkpt>
<trkpt lat="54.512825" lon="-3.031944"><ele>490</ele><time>2023-08-09T12:34:03Z</time><name>PT3062</name></trkpt>
<trkpt lat="54.512831" lon="-3.031977"><ele>489</ele><time>2023-08-09T12:34:06Z</time><name>PT3063</name></trkpt>
<trkpt lat="54.512834" lon="-3.032003"><ele>486</ele><time>2023-08-09T12:34:09Z</time><name>PT3064</name></trkpt>
<trkpt lat="54.512838" lon="-3.032063"><ele>485</ele><time>2023-08-09T12:34:13Z</time><name>PT3065</name></trkpt>
<trkpt lat="54.512845" lon="-3.032123"><ele>484</ele><time>2023-08-09T12:34:17Z</time><name>PT3066</name></trkpt>
<trkpt lat="54.512867" lon="-3.032181"><ele>483</ele><time>2023-08-09T12:34:21Z</time><name>PT3067</name></trkpt>
<trkpt lat="54.512871" lon="-3.032222"><ele>483</ele><time>2023-08-09T12:34:24Z</time><name>PT3068</name></trkpt>
<trkpt lat="54.512871" lon="-3.032253"><ele>483</ele><time>2023-08-09T12:34:27Z</time><name>PT3069</name></trkpt>
<trkpt lat="54.512871" lon="-3.032259"><ele>483</ele><time>2023-08-09T12:34:30Z</time><name>PT3070</name></trkpt>
<trkpt lat="54.512871" lon="-3.032265"><ele>483</ele><time>2023-08-09T12:34:33Z</time><name>PT3071</name></trkpt>
<trkpt lat="54.512883" lon="-3.032312"><ele>483</ele><time>2023-08-09T12:34:37Z</time><name>PT3072</name></trkpt>
<trkpt lat="54.512886" lon="-3.032362"><ele>481</ele><time>2023-08-09T12:34:41Z</time><name>PT3073</name></trkpt>
<trkpt lat="54.512883" lon="-3.032401"><ele>481</ele><time>2023-08-09T12:34:44Z</time><name>PT3074</name></trkpt>
<trkpt lat="54.512881" lon="-3.032440"><ele>479</ele><time>2023-08-09T12:34:47Z</time><name>PT3075</name></trkpt>
<trkpt lat="54.512888" lon="-3.032484"><ele>478</ele><time>2023-08-09T12:34:50Z</time><name>PT3076</name></trkpt>
<trkpt lat="54.512877" lon="-3.032534"><ele>478</ele><time>2023-08-09T12:34:54Z</time><name>PT3077</name></trkpt>
<trkpt lat="54.512874" lon="-3.032579"><ele>476</ele><time>2023-08-09T12:34:58Z</time><name>PT3078</name></trkpt>
<trkpt lat="54.512883" lon="-3.032623"><ele>476</ele><time>2023-08-09T12:35:02Z</time><name>PT3079</name></trkpt>
<trkpt lat="54.512886" lon="-3.032647"><ele>475</ele><time>2023-08-09T12:35:05Z</time><name>PT3080</name></trkpt>
<trkpt lat="54.512890" lon="-3.032649"><ele>475</ele><time>2023-08-09T12:35:09Z</time><name>PT3081</name></trkpt>
<trkpt lat="54.512899" lon="-3.032684"><ele>474</ele><time>2023-08-09T12:35:13Z</time><name>PT3082</name></trkpt>
<trkpt lat="54.512917" lon="-3.032727"><ele>473</ele><time>2023-08-09T12:35:17Z</time><name>PT3083</name></trkpt>
<trkpt lat="54.512928" lon="-3.032768"><ele>472</ele><time>2023-08-09T12:35:21Z</time><name>PT3084</name></trkpt>
<trkpt lat="54.512931" lon="-3.032805"><ele>471</ele><time>2023-08-09T12:35:24Z</time><name>PT3085</name></trkpt>
<trkpt lat="54.512931" lon="-3.032827"><ele>470</ele><time>2023-08-09T12:35:27Z</time><name>PT3086</name></trkpt>
<trkpt lat="54.512948" lon="-3.032829"><ele>470</ele><time>2023-08-09T12:35:31Z</time><name>PT3087</name></trkpt>
<trkpt lat="54.512960" lon="-3.032860"><ele>469</ele><time>2023-08-09T12:35:35Z</time><name>PT3088</name></trkpt>
<trkpt lat="54.512961" lon="-3.032910"><ele>468</ele><time>2023-08-09T12:35:39Z</time><name>PT3089</name></trkpt>
<trkpt lat="54.512960" lon="-3.032952"><ele>467</ele><time>2023-08-09T12:35:43Z</time><name>PT3090</name></trkpt>
<trkpt lat="54.512960" lon="-3.032998"><ele>468</ele><time>2023-08-09T12:35:46Z</time><name>PT3091</name></trkpt>
<trkpt lat="54.512957" lon="-3.033022"><ele>467</ele><time>2023-08-09T12:35:49Z</time><name>PT3092</name></trkpt>
<trkpt lat="54.512952" lon="-3.033072"><ele>467</ele><time>2023-08-09T12:35:53Z</time><name>PT3093</name></trkpt>
<trkpt lat="54.512950" lon="-3.033109"><ele>466</ele><time>2023-08-09T12:35:57Z</time><name>PT3094</name></trkpt>
<trkpt lat="54.512954" lon="-3.033144"><ele>465</ele><time>2023-08-09T12:36:01Z</time><name>PT3095</name></trkpt>
<trkpt lat="54.512952" lon="-3.033177"><ele>464</ele><time>2023-08-09T12:36:04Z</time><name>PT3096</name></trkpt>
<trkpt lat="54.512952" lon="-3.033223"><ele>462</ele><time>2023-08-09T12:36:08Z</time><name>PT3097</name></trkpt>
<trkpt lat="54.512948" lon="-3.033273"><ele>462</ele><time>2023-08-09T12:36:12Z</time><name>PT3098</name></trkpt>
<trkpt lat="54.512949" lon="-3.033298"><ele>461</ele><time>2023-08-09T12:36:15Z</time><name>PT3099</name></trkpt>
<trkpt lat="54.512962" lon="-3.033335"><ele>461</ele><time>2023-08-09T12:36:19Z</time><name>PT3100</name></trkpt>
<trkpt lat="54.512966" lon="-3.033364"><ele>461</ele><time>2023-08-09T12:36:23Z</time><name>PT3101</name></trkpt>
<trkpt lat="54.512972" lon="-3.033398"><ele>460</ele><time>2023-08-09T12:36:27Z</time><name>PT3102</name></trkpt>
<trkpt lat="54.512965" lon="-3.033434"><ele>458</ele><time>2023-08-09T12:36:31Z</time><name>PT3103</name></trkpt>
<trkpt lat="54.512973" lon="-3.033466"><ele>456</ele><time>2023-08-09T12:36:35Z</time><name>PT3104</name></trkpt>
<trkpt lat="54.512980" lon="-3.033503"><ele>456</ele><time>2023-08-09T12:36:39Z</time><name>PT3105</name></trkpt>
<trkpt lat="54.512979" lon="-3.033540"><ele>456</ele><time>2023-08-09T12:36:43Z</time><name>PT3106</name></trkpt>
<trkpt lat="54.512979" lon="-3.033568"><ele>454</ele><time>2023-08-09T12:36:47Z</time><name>PT3107</name></trkpt>
<trkpt lat="54.512987" lon="-3.033603"><ele>454</ele><time>2023-08-09T12:36:51Z</time><name>PT3108</name></trkpt>
<trkpt lat="54.512993" lon="-3.033644"><ele>453</ele><time>2023-08-09T12:36:55Z</time><name>PT3109</name></trkpt>
<trkpt lat="54.512985" lon="-3.033672"><ele>452</ele><time>2023-08-09T12:36:59Z</time><name>PT3110</name></trkpt>
<trkpt lat="54.512985" lon="-3.033690"><ele>451</ele><time>2023-08-09T12:37:02Z</time><name>PT3111</name></trkpt>
<trkpt lat="54.513000" lon="-3.033701"><ele>450</ele><time>2023-08-09T12:37:06Z</time><name>PT3112</name></trkpt>
<trkpt lat="54.513013" lon="-3.033706"><ele>449</ele><time>2023-08-09T12:37:09Z</time><name>PT3113</name></trkpt>
<trkpt lat="54.513026" lon="-3.033721"><ele>449</ele><time>2023-08-09T12:37:13Z</time><name>PT3114</name></trkpt>
<trkpt lat="54.513055" lon="-3.033727"><ele>449</ele><time>2023-08-09T12:37:16Z</time><name>PT3115</name></trkpt>
<trkpt lat="54.513084" lon="-3.033739"><ele>448</ele><time>2023-08-09T12:37:20Z</time><name>PT3116</name></trkpt>
<trkpt lat="54.513101" lon="-3.033776"><ele>446</ele><time>2023-08-09T12:37:24Z</time><name>PT3117</name></trkpt>
<trkpt lat="54.513115" lon="-3.033793"><ele>445</ele><time>2023-08-09T12:37:27Z</time><name>PT3118</name></trkpt>
<trkpt lat="54.513137" lon="-3.033799"><ele>445</ele><time>2023-08-09T12:37:30Z</time><name>PT3119</name></trkpt>
<trkpt lat="54.513164" lon="-3.033797"><ele>444</ele><time>2023-08-09T12:37:34Z</time><name>PT3120</name></trkpt>
<trkpt lat="54.513187" lon="-3.033785"><ele>442</ele><time>2023-08-09T12:37:37Z</time><name>PT3121</name></trkpt>
<trkpt lat="54.513213" lon="-3.033784"><ele>442</ele><time>2023-08-09T12:37:40Z</time><name>PT3122</name></trkpt>
<trkpt lat="54.513233" lon="-3.033785"><ele>441</ele><time>2023-08-09T12:37:43Z</time><name>PT3123</name></trkpt>
<trkpt lat="54.513269" lon="-3.033769"><ele>441</ele><time>2023-08-09T12:37:47Z</time><name>PT3124</name></trkpt>
<trkpt lat="54.513294" lon="-3.033750"><ele>441</ele><time>2023-08-09T12:37:51Z</time><name>PT3125</name></trkpt>
<trkpt lat="54.513317" lon="-3.033732"><ele>440</ele><time>2023-08-09T12:37:54Z</time><name>PT3126</name></trkpt>
<trkpt lat="54.513347" lon="-3.033702"><ele>440</ele><time>2023-08-09T12:37:58Z</time><name>PT3127</name></trkpt>
<trkpt lat="54.513357" lon="-3.033691"><ele>441</ele><time>2023-08-09T12:38:01Z</time><name>PT3128</name></trkpt>
<trkpt lat="54.513377" lon="-3.033681"><ele>439</ele><time>2023-08-09T12:38:04Z</time><name>PT3129</name></trkpt>
<trkpt lat="54.513389" lon="-3.033694"><ele>439</ele><time>2023-08-09T12:38:07Z</time><name>PT3130</name></trkpt>
<trkpt lat="54.513413" lon="-3.033684"><ele>440</ele><time>2023-08-09T12:38:11Z</time><name>PT3131</name></trkpt>
<trkpt lat="54.513432" lon="-3.033666"><ele>439</ele><time>2023-08-09T12:38:14Z</time><name>PT3132</name></trkpt>
<trkpt lat="54.513456" lon="-3.033638"><ele>438</ele><time>2023-08-09T12:38:17Z</time><name>PT3133</name></trkpt>
<trkpt lat="54.513472" lon="-3.033619"><ele>438</ele><time>2023-08-09T12:38:20Z</time><name>PT3134</name></trkpt>
<trkpt lat="54.513496" lon="-3.033596"><ele>437</ele><time>2023-08-09T12:38:24Z</time><name>PT3135</name></trkpt>
<trkpt lat="54.513518" lon="-3.033573"><ele>437</ele><time>2023-08-09T12:38:27Z</time><name>PT3136</name></trkpt>
<trkpt lat="54.513540" lon="-3.033541"><ele>436</ele><time>2023-08-09T12:38:31Z</time><name>PT3137</name></trkpt>
<trkpt lat="54.513561" lon="-3.033513"><ele>434</ele><time>2023-08-09T12:38:34Z</time><name>PT3138</name></trkpt>
<trkpt lat="54.513571" lon="-3.033486"><ele>435</ele><time>2023-08-09T12:38:38Z</time><name>PT3139</name></trkpt>
<trkpt lat="54.513590" lon="-3.033458"><ele>434</ele><time>2023-08-09T12:38:42Z</time><name>PT3140</name></trkpt>
<trkpt lat="54.513613" lon="-3.033443"><ele>434</ele><time>2023-08-09T12:38:45Z</time><name>PT3141</name></trkpt>
<trkpt lat="54.513642" lon="-3.033461"><ele>433</ele><time>2023-08-09T12:38:49Z</time><name>PT3142</name></trkpt>
<trkpt lat="54.513668" lon="-3.033491"><ele>429</ele><time>2023-08-09T12:38:53Z</time><name>PT3143</name></trkpt>
<trkpt lat="54.513663" lon="-3.033524"><ele>428</ele><time>2023-08-09T12:38:56Z</time><name>PT3144</name></trkpt>
<trkpt lat="54.513656" lon="-3.033572"><ele>427</ele><time>2023-08-09T12:39:00Z</time><name>PT3145</name></trkpt>
<trkpt lat="54.513655" lon="-3.033582"><ele>427</ele><time>2023-08-09T12:39:03Z</time><name>PT3146</name></trkpt>
<trkpt lat="54.513668" lon="-3.033655"><ele>425</ele><time>2023-08-09T12:39:14Z</time><name>PT3147</name></trkpt>
<trkpt lat="54.513673" lon="-3.033706"><ele>423</ele><time>2023-08-09T12:39:17Z</time><name>PT3148</name></trkpt>
<trkpt lat="54.513674" lon="-3.033773"><ele>421</ele><time>2023-08-09T12:39:21Z</time><name>PT3149</name></trkpt>
<trkpt lat="54.513676" lon="-3.033812"><ele>421</ele><time>2023-08-09T12:39:24Z</time><name>PT3150</name></trkpt>
<trkpt lat="54.513675" lon="-3.033868"><ele>420</ele><time>2023-08-09T12:39:28Z</time><name>PT3151</name></trkpt>
<trkpt lat="54.513677" lon="-3.033894"><ele>420</ele><time>2023-08-09T12:39:31Z</time><name>PT3152</name></trkpt>
<trkpt lat="54.513686" lon="-3.033914"><ele>419</ele><time>2023-08-09T12:39:34Z</time><name>PT3153</name></trkpt>
<trkpt lat="54.513696" lon="-3.033964"><ele>418</ele><time>2023-08-09T12:39:38Z</time><name>PT3154</name></trkpt>
<trkpt lat="54.513695" lon="-3.034032"><ele>417</ele><time>2023-08-09T12:39:42Z</time><name>PT3155</name></trkpt>
<trkpt lat="54.513689" lon="-3.034091"><ele>415</ele><time>2023-08-09T12:39:46Z</time><name>PT3156</name></trkpt>
<trkpt lat="54.513690" lon="-3.034149"><ele>414</ele><time>2023-08-09T12:39:49Z</time><name>PT3157</name></trkpt>
<trkpt lat="54.513692" lon="-3.034198"><ele>412</ele><time>2023-08-09T12:39:53Z</time><name>PT3158</name></trkpt>
<trkpt lat="54.513694" lon="-3.034258"><ele>411</ele><time>2023-08-09T12:39:57Z</time><name>PT3159</name></trkpt>
<trkpt lat="54.513689" lon="-3.034306"><ele>410</ele><time>2023-08-09T12:40:00Z</time><name>PT3160</name></trkpt>
<trkpt lat="54.513685" lon="-3.034369"><ele>411</ele><time>2023-08-09T12:40:04Z</time><name>PT3161</name></trkpt>
<trkpt lat="54.513681" lon="-3.034439"><ele>411</ele><time>2023-08-09T12:40:08Z</time><name>PT3162</name></trkpt>
<trkpt lat="54.513686" lon="-3.034498"><ele>410</ele><time>2023-08-09T12:40:12Z</time><name>PT3163</name></trkpt>
<trkpt lat="54.513693" lon="-3.034527"><ele>410</ele><time>2023-08-09T12:40:15Z</time><name>PT3164</name></trkpt>
<trkpt lat="54.513694" lon="-3.034590"><ele>409</ele><time>2023-08-09T12:40:19Z</time><name>PT3165</name></trkpt>
<trkpt lat="54.513694" lon="-3.034637"><ele>408</ele><time>2023-08-09T12:40:22Z</time><name>PT3166</name></trkpt>
<trkpt lat="54.513698" lon="-3.034673"><ele>408</ele><time>2023-08-09T12:40:25Z</time><name>PT3167</name></trkpt>
<trkpt lat="54.513698" lon="-3.034723"><ele>407</ele><time>2023-08-09T12:40:29Z</time><name>PT3168</name></trkpt>
<trkpt lat="54.513699" lon="-3.034766"><ele>407</ele><time>2023-08-09T12:40:32Z</time><name>PT3169</name></trkpt>
<trkpt lat="54.513677" lon="-3.034813"><ele>407</ele><time>2023-08-09T12:40:36Z</time><name>PT3170</name></trkpt>
<trkpt lat="54.513672" lon="-3.034846"><ele>406</ele><time>2023-08-09T12:40:39Z</time><name>PT3171</name></trkpt>
<trkpt lat="54.513674" lon="-3.034879"><ele>405</ele><time>2023-08-09T12:40:43Z</time><name>PT3172</name></trkpt>
<trkpt lat="54.513664" lon="-3.034917"><ele>404</ele><time>2023-08-09T12:40:46Z</time><name>PT3173</name></trkpt>
<trkpt lat="54.513666" lon="-3.034945"><ele>403</ele><time>2023-08-09T12:40:49Z</time><name>PT3174</name></trkpt>
<trkpt lat="54.513662" lon="-3.034981"><ele>402</ele><time>2023-08-09T12:40:52Z</time><name>PT3175</name></trkpt>
<trkpt lat="54.513665" lon="-3.035031"><ele>400</ele><time>2023-08-09T12:40:56Z</time><name>PT3176</name></trkpt>
<trkpt lat="54.513662" lon="-3.035066"><ele>399</ele><time>2023-08-09T12:41:00Z</time><name>PT3177</name></trkpt>
<trkpt lat="54.513668" lon="-3.035097"><ele>398</ele><time>2023-08-09T12:41:03Z</time><name>PT3178</name></trkpt>
<trkpt lat="54.513665" lon="-3.035161"><ele>397</ele><time>2023-08-09T12:41:07Z</time><name>PT3179</name></trkpt>
<trkpt lat="54.513663" lon="-3.035210"><ele>397</ele><time>2023-08-09T12:41:11Z</time><name>PT3180</name></trkpt>
<trkpt lat="54.513666" lon="-3.035260"><ele>396</ele><time>2023-08-09T12:41:15Z</time><name>PT3181</name></trkpt>
<trkpt lat="54.513671" lon="-3.035301"><ele>395</ele><time>2023-08-09T12:41:18Z</time><name>PT3182</name></trkpt>
<trkpt lat="54.513670" lon="-3.035345"><ele>395</ele><time>2023-08-09T12:41:21Z</time><name>PT3183</name></trkpt>
<trkpt lat="54.513672" lon="-3.035382"><ele>394</ele><time>2023-08-09T12:41:24Z</time><name>PT3184</name></trkpt>
<trkpt lat="54.513673" lon="-3.035433"><ele>394</ele><time>2023-08-09T12:41:28Z</time><name>PT3185</name></trkpt>
<trkpt lat="54.513681" lon="-3.035489"><ele>394</ele><time>2023-08-09T12:41:32Z</time><name>PT3186</name></trkpt>
<trkpt lat="54.513690" lon="-3.035517"><ele>392</ele><time>2023-08-09T12:41:36Z</time><name>PT3187</name></trkpt>
<trkpt lat="54.513687" lon="-3.035583"><ele>392</ele><time>2023-08-09T12:41:40Z</time><name>PT3188</name></trkpt>
<trkpt lat="54.513691" lon="-3.035626"><ele>391</ele><time>2023-08-09T12:41:43Z</time><name>PT3189</name></trkpt>
<trkpt lat="54.513693" lon="-3.035663"><ele>390</ele><time>2023-08-09T12:41:47Z</time><name>PT3190</name></trkpt>
<trkpt lat="54.513695" lon="-3.035701"><ele>389</ele><time>2023-08-09T12:41:51Z</time><name>PT3191</name></trkpt>
<trkpt lat="54.513697" lon="-3.035737"><ele>388</ele><time>2023-08-09T12:41:54Z</time><name>PT3192</name></trkpt>
<trkpt lat="54.513706" lon="-3.035781"><ele>387</ele><time>2023-08-09T12:41:58Z</time><name>PT3193</name></trkpt>
<trkpt lat="54.513712" lon="-3.035812"><ele>387</ele><time>2023-08-09T12:42:01Z</time><name>PT3194</name></trkpt>
<trkpt lat="54.513721" lon="-3.035841"><ele>386</ele><time>2023-08-09T12:42:04Z</time><name>PT3195</name></trkpt>
<trkpt lat="54.513728" lon="-3.035873"><ele>385</ele><time>2023-08-09T12:42:07Z</time><name>PT3196</name></trkpt>
<trkpt lat="54.513754" lon="-3.035906"><ele>385</ele><time>2023-08-09T12:42:11Z</time><name>PT3197</name></trkpt>
<trkpt lat="54.513753" lon="-3.035947"><ele>384</ele><time>2023-08-09T12:42:14Z</time><name>PT3198</name></trkpt>
<trkpt lat="54.513748" lon="-3.036001"><ele>383</ele><time>2023-08-09T12:42:18Z</time><name>PT3199</name></trkpt>
<trkpt lat="54.513741" lon="-3.036048"><ele>382</ele><time>2023-08-09T12:42:22Z</time><name>PT3200</name></trkpt>
<trkpt lat="54.513740" lon="-3.036084"><ele>382</ele><time>2023-08-09T12:42:25Z</time><name>PT3201</name></trkpt>
<trkpt lat="54.513735" lon="-3.036133"><ele>381</ele><time>2023-08-09T12:42:29Z</time><name>PT3202</name></trkpt>
<trkpt lat="54.513726" lon="-3.036191"><ele>381</ele><time>2023-08-09T12:42:33Z</time><name>PT3203</name></trkpt>
<trkpt lat="54.513722" lon="-3.036233"><ele>381</ele><time>2023-08-09T12:42:37Z</time><name>PT3204</name></trkpt>
<trkpt lat="54.513720" lon="-3.036267"><ele>380</ele><time>2023-08-09T12:42:40Z</time><name>PT3205</name></trkpt>
<trkpt lat="54.513708" lon="-3.036336"><ele>380</ele><time>2023-08-09T12:42:44Z</time><name>PT3206</name></trkpt>
<trkpt lat="54.513698" lon="-3.036372"><ele>379</ele><time>2023-08-09T12:42:47Z</time><name>PT3207</name></trkpt>
<trkpt lat="54.513698" lon="-3.036415"><ele>378</ele><time>2023-08-09T12:42:51Z</time><name>PT3208</name></trkpt>
<trkpt lat="54.513693" lon="-3.036448"><ele>377</ele><time>2023-08-09T12:42:54Z</time><name>PT3209</name></trkpt>
<trkpt lat="54.513688" lon="-3.036490"><ele>376</ele><time>2023-08-09T12:42:57Z</time><name>PT3210</name></trkpt>
<trkpt lat="54.513679" lon="-3.036556"><ele>375</ele><time>2023-08-09T12:43:01Z</time><name>PT3211</name></trkpt>
<trkpt lat="54.513687" lon="-3.036598"><ele>373</ele><time>2023-08-09T12:43:05Z</time><name>PT3212</name></trkpt>
<trkpt lat="54.513679" lon="-3.036657"><ele>372</ele><time>2023-08-09T12:43:08Z</time><name>PT3213</name></trkpt>
<trkpt lat="54.513678" lon="-3.036713"><ele>371</ele><time>2023-08-09T12:43:11Z</time><name>PT3214</name></trkpt>
<trkpt lat="54.513682" lon="-3.036768"><ele>370</ele><time>2023-08-09T12:43:15Z</time><name>PT3215</name></trkpt>
<trkpt lat="54.513680" lon="-3.036839"><ele>369</ele><time>2023-08-09T12:43:19Z</time><name>PT3216</name></trkpt>
<trkpt lat="54.513683" lon="-3.036901"><ele>367</ele><time>2023-08-09T12:43:22Z</time><name>PT3217</name></trkpt>
<trkpt lat="54.513690" lon="-3.036975"><ele>369</ele><time>2023-08-09T12:43:26Z</time><name>PT3218</name></trkpt>
<trkpt lat="54.513717" lon="-3.037026"><ele>369</ele><time>2023-08-09T12:43:30Z</time><name>PT3219</name></trkpt>
<trkpt lat="54.513726" lon="-3.037100"><ele>368</ele><time>2023-08-09T12:43:34Z</time><name>PT3220</name></trkpt>
<trkpt lat="54.513735" lon="-3.037157"><ele>367</ele><time>2023-08-09T12:43:37Z</time><name>PT3221</name></trkpt>
<trkpt lat="54.513747" lon="-3.037210"><ele>368</ele><time>2023-08-09T12:43:41Z</time><name>PT3222</name></trkpt>
<trkpt lat="54.513741" lon="-3.037275"><ele>369</ele><time>2023-08-09T12:43:45Z</time><name>PT3223</name></trkpt>
<trkpt lat="54.513740" lon="-3.037323"><ele>369</ele><time>2023-08-09T12:43:48Z</time><name>PT3224</name></trkpt>
<trkpt lat="54.513726" lon="-3.037356"><ele>367</ele><time>2023-08-09T12:43:51Z</time><name>PT3225</name></trkpt>
<trkpt lat="54.513700" lon="-3.037380"><ele>367</ele><time>2023-08-09T12:43:54Z</time><name>PT3226</name></trkpt>
<trkpt lat="54.513670" lon="-3.037410"><ele>367</ele><time>2023-08-09T12:43:57Z</time><name>PT3227</name></trkpt>
<trkpt lat="54.513649" lon="-3.037438"><ele>367</ele><time>2023-08-09T12:44:00Z</time><name>PT3228</name></trkpt>
<trkpt lat="54.513619" lon="-3.037498"><ele>365</ele><time>2023-08-09T12:44:04Z</time><name>PT3229</name></trkpt>
<trkpt lat="54.513594" lon="-3.037571"><ele>364</ele><time>2023-08-09T12:44:08Z</time><name>PT3230</name></trkpt>
<trkpt lat="54.513564" lon="-3.037640"><ele>363</ele><time>2023-08-09T12:44:12Z</time><name>PT3231</name></trkpt>
<trkpt lat="54.513544" lon="-3.037669"><ele>363</ele><time>2023-08-09T12:44:16Z</time><name>PT3232</name></trkpt>
<trkpt lat="54.513515" lon="-3.037704"><ele>363</ele><time>2023-08-09T12:44:20Z</time><name>PT3233</name></trkpt>
<trkpt lat="54.513490" lon="-3.037758"><ele>362</ele><time>2023-08-09T12:44:24Z</time><name>PT3234</name></trkpt>
<trkpt lat="54.513455" lon="-3.037781"><ele>362</ele><time>2023-08-09T12:44:28Z</time><name>PT3235</name></trkpt>
<trkpt lat="54.513435" lon="-3.037782"><ele>362</ele><time>2023-08-09T12:44:31Z</time><name>PT3236</name></trkpt>
<trkpt lat="54.513408" lon="-3.037810"><ele>361</ele><time>2023-08-09T12:44:35Z</time><name>PT3237</name></trkpt>
<trkpt lat="54.513387" lon="-3.037845"><ele>360</ele><time>2023-08-09T12:44:38Z</time><name>PT3238</name></trkpt>
<trkpt lat="54.513362" lon="-3.037870"><ele>360</ele><time>2023-08-09T12:44:41Z</time><name>PT3239</name></trkpt>
<trkpt lat="54.513327" lon="-3.037903"><ele>361</ele><time>2023-08-09T12:44:45Z</time><name>PT3240</name></trkpt>
<trkpt lat="54.513311" lon="-3.037921"><ele>360</ele><time>2023-08-09T12:44:48Z</time><name>PT3241</name></trkpt>
<trkpt lat="54.513273" lon="-3.037946"><ele>359</ele><time>2023-08-09T12:44:52Z</time><name>PT3242</name></trkpt>
<trkpt lat="54.513239" lon="-3.037964"><ele>358</ele><time>2023-08-09T12:44:55Z</time><name>PT3243</name></trkpt>
<trkpt lat="54.513189" lon="-3.037996"><ele>357</ele><time>2023-08-09T12:44:59Z</time><name>PT3244</name></trkpt>
<trkpt lat="54.513161" lon="-3.038007"><ele>357</ele><time>2023-08-09T12:45:03Z</time><name>PT3245</name></trkpt>
<trkpt lat="54.513122" lon="-3.038021"><ele>355</ele><time>2023-08-09T12:45:07Z</time><name>PT3246</name></trkpt>
<trkpt lat="54.513093" lon="-3.038029"><ele>355</ele><time>2023-08-09T12:45:10Z</time><name>PT3247</name></trkpt>
<trkpt lat="54.513074" lon="-3.038069"><ele>356</ele><time>2023-08-09T12:45:14Z</time><name>PT3248</name></trkpt>
<trkpt lat="54.513095" lon="-3.038082"><ele>355</ele><time>2023-08-09T12:45:18Z</time><name>PT3249</name></trkpt>
<trkpt lat="54.513119" lon="-3.038096"><ele>353</ele><time>2023-08-09T12:45:22Z</time><name>PT3250</name></trkpt>
<trkpt lat="54.513143" lon="-3.038101"><ele>352</ele><time>2023-08-09T12:45:25Z</time><name>PT3251</name></trkpt>
<trkpt lat="54.513172" lon="-3.038099"><ele>352</ele><time>2023-08-09T12:45:28Z</time><name>PT3252</name></trkpt>
<trkpt lat="54.513195" lon="-3.038119"><ele>351</ele><time>2023-08-09T12:45:32Z</time><name>PT3253</name></trkpt>
<trkpt lat="54.513215" lon="-3.038140"><ele>349</ele><time>2023-08-09T12:45:36Z</time><name>PT3254</name></trkpt>
<trkpt lat="54.513234" lon="-3.038153"><ele>349</ele><time>2023-08-09T12:45:39Z</time><name>PT3255</name></trkpt>
<trkpt lat="54.513264" lon="-3.038166"><ele>348</ele><time>2023-08-09T12:45:43Z</time><name>PT3256</name></trkpt>
<trkpt lat="54.513284" lon="-3.038179"><ele>348</ele><time>2023-08-09T12:45:46Z</time><name>PT3257</name></trkpt>
<trkpt lat="54.513301" lon="-3.038185"><ele>348</ele><time>2023-08-09T12:45:49Z</time><name>PT3258</name></trkpt>
<trkpt lat="54.513321" lon="-3.038182"><ele>347</ele><time>2023-08-09T12:45:53Z</time><name>PT3259</name></trkpt>
<trkpt lat="54.513344" lon="-3.038188"><ele>345</ele><time>2023-08-09T12:45:57Z</time><name>PT3260</name></trkpt>
<trkpt lat="54.513359" lon="-3.038210"><ele>344</ele><time>2023-08-09T12:46:00Z</time><name>PT3261</name></trkpt>
<trkpt lat="54.513356" lon="-3.038247"><ele>343</ele><time>2023-08-09T12:46:04Z</time><name>PT3262</name></trkpt>
<trkpt lat="54.513345" lon="-3.038276"><ele>344</ele><time>2023-08-09T12:46:07Z</time><name>PT3263</name></trkpt>
<trkpt lat="54.513339" lon="-3.038316"><ele>343</ele><time>2023-08-09T12:46:11Z</time><name>PT3264</name></trkpt>
<trkpt lat="54.513320" lon="-3.038349"><ele>342</ele><time>2023-08-09T12:46:14Z</time><name>PT3265</name></trkpt>
<trkpt lat="54.513304" lon="-3.038380"><ele>341</ele><time>2023-08-09T12:46:18Z</time><name>PT3266</name></trkpt>
<trkpt lat="54.513284" lon="-3.038411"><ele>340</ele><time>2023-08-09T12:46:22Z</time><name>PT3267</name></trkpt>
<trkpt lat="54.513271" lon="-3.038429"><ele>338</ele><time>2023-08-09T12:46:26Z</time><name>PT3268</name></trkpt>
<trkpt lat="54.513261" lon="-3.038448"><ele>338</ele><time>2023-08-09T12:46:30Z</time><name>PT3269</name></trkpt>
<trkpt lat="54.513239" lon="-3.038465"><ele>337</ele><time>2023-08-09T12:46:33Z</time><name>PT3270</name></trkpt>
<trkpt lat="54.513227" lon="-3.038481"><ele>336</ele><time>2023-08-09T12:46:37Z</time><name>PT3271</name></trkpt>
<trkpt lat="54.513206" lon="-3.038494"><ele>337</ele><time>2023-08-09T12:46:40Z</time><name>PT3272</name></trkpt>
<trkpt lat="54.513185" lon="-3.038503"><ele>337</ele><time>2023-08-09T12:46:43Z</time><name>PT3273</name></trkpt>
<trkpt lat="54.513148" lon="-3.038544"><ele>337</ele><time>2023-08-09T12:46:47Z</time><name>PT3274</name></trkpt>
<trkpt lat="54.513133" lon="-3.038567"><ele>337</ele><time>2023-08-09T12:46:50Z</time><name>PT3275</name></trkpt>
<trkpt lat="54.513115" lon="-3.038590"><ele>338</ele><time>2023-08-09T12:46:54Z</time><name>PT3276</name></trkpt>
<trkpt lat="54.513092" lon="-3.038617"><ele>339</ele><time>2023-08-09T12:46:57Z</time><name>PT3277</name></trkpt>
<trkpt lat="54.513055" lon="-3.038647"><ele>338</ele><time>2023-08-09T12:47:01Z</time><name>PT3278</name></trkpt>
<trkpt lat="54.513022" lon="-3.038670"><ele>336</ele><time>2023-08-09T12:47:05Z</time><name>PT3279</name></trkpt>
<trkpt lat="54.512988" lon="-3.038708"><ele>336</ele><time>2023-08-09T12:47:09Z</time><name>PT3280</name></trkpt>
<trkpt lat="54.512962" lon="-3.038726"><ele>335</ele><time>2023-08-09T12:47:13Z</time><name>PT3281</name></trkpt>
<trkpt lat="54.512933" lon="-3.038760"><ele>335</ele><time>2023-08-09T12:47:16Z</time><name>PT3282</name></trkpt>
<trkpt lat="54.512907" lon="-3.038776"><ele>333</ele><time>2023-08-09T12:47:20Z</time><name>PT3283</name></trkpt>
<trkpt lat="54.512892" lon="-3.038789"><ele>333</ele><time>2023-08-09T12:47:23Z</time><name>PT3284</name></trkpt>
<trkpt lat="54.512864" lon="-3.038806"><ele>330</ele><time>2023-08-09T12:47:26Z</time><name>PT3285</name></trkpt>
<trkpt lat="54.512846" lon="-3.038822"><ele>329</ele><time>2023-08-09T12:47:30Z</time><name>PT3286</name></trkpt>
<trkpt lat="54.512834" lon="-3.038835"><ele>328</ele><time>2023-08-09T12:47:33Z</time><name>PT3287</name></trkpt>
<trkpt lat="54.512811" lon="-3.038855"><ele>328</ele><time>2023-08-09T12:47:37Z</time><name>PT3288</name></trkpt>
<trkpt lat="54.512792" lon="-3.038871"><ele>328</ele><time>2023-08-09T12:47:40Z</time><name>PT3289</name></trkpt>
<trkpt lat="54.512773" lon="-3.038891"><ele>325</ele><time>2023-08-09T12:47:44Z</time><name>PT3290</name></trkpt>
<trkpt lat="54.512735" lon="-3.038924"><ele>324</ele><time>2023-08-09T12:47:48Z</time><name>PT3291</name></trkpt>
<trkpt lat="54.512716" lon="-3.038923"><ele>323</ele><time>2023-08-09T12:47:51Z</time><name>PT3292</name></trkpt>
<trkpt lat="54.512694" lon="-3.038918"><ele>318</ele><time>2023-08-09T12:47:55Z</time><name>PT3293</name></trkpt>
<trkpt lat="54.512663" lon="-3.038946"><ele>318</ele><time>2023-08-09T12:47:59Z</time><name>PT3294</name></trkpt>
<trkpt lat="54.512626" lon="-3.038975"><ele>319</ele><time>2023-08-09T12:48:03Z</time><name>PT3295</name></trkpt>
<trkpt lat="54.512596" lon="-3.039017"><ele>319</ele><time>2023-08-09T12:48:07Z</time><name>PT3296</name></trkpt>
<trkpt lat="54.512591" lon="-3.039046"><ele>322</ele><time>2023-08-09T12:48:10Z</time><name>PT3297</name></trkpt>
<trkpt lat="54.512560" lon="-3.039085"><ele>323</ele><time>2023-08-09T12:48:13Z</time><name>PT3298</name></trkpt>
<trkpt lat="54.512541" lon="-3.039113"><ele>322</ele><time>2023-08-09T12:48:17Z</time><name>PT3299</name></trkpt>
<trkpt lat="54.512482" lon="-3.039174"><ele>320</ele><time>2023-08-09T12:48:21Z</time><name>PT3300</name></trkpt>
<trkpt lat="54.512468" lon="-3.039204"><ele>319</ele><time>2023-08-09T12:48:24Z</time><name>PT3301</name></trkpt>
<trkpt lat="54.512452" lon="-3.039254"><ele>320</ele><time>2023-08-09T12:48:28Z</time><name>PT3302</name></trkpt>
<trkpt lat="54.512444" lon="-3.039284"><ele>319</ele><time>2023-08-09T12:48:31Z</time><name>PT3303</name></trkpt>
<trkpt lat="54.512422" lon="-3.039329"><ele>318</ele><time>2023-08-09T12:48:35Z</time><name>PT3304</name></trkpt>
<trkpt lat="54.512392" lon="-3.039375"><ele>317</ele><time>2023-08-09T12:48:39Z</time><name>PT3305</name></trkpt>
<trkpt lat="54.512378" lon="-3.039390"><ele>315</ele><time>2023-08-09T12:48:42Z</time><name>PT3306</name></trkpt>
<trkpt lat="54.512371" lon="-3.039419"><ele>314</ele><time>2023-08-09T12:48:45Z</time><name>PT3307</name></trkpt>
<trkpt lat="54.512370" lon="-3.039443"><ele>313</ele><time>2023-08-09T12:48:48Z</time><name>PT3308</name></trkpt>
<trkpt lat="54.512384" lon="-3.039470"><ele>312</ele><time>2023-08-09T12:48:52Z</time><name>PT3309</name></trkpt>
<trkpt lat="54.512408" lon="-3.039479"><ele>312</ele><time>2023-08-09T12:48:55Z</time><name>PT3310</name></trkpt>
<trkpt lat="54.512437" lon="-3.039487"><ele>310</ele><time>2023-08-09T12:48:59Z</time><name>PT3311</name></trkpt>
<trkpt lat="54.512459" lon="-3.039498"><ele>309</ele><time>2023-08-09T12:49:02Z</time><name>PT3312</name></trkpt>
<trkpt lat="54.512480" lon="-3.039513"><ele>309</ele><time>2023-08-09T12:49:05Z</time><name>PT3313</name></trkpt>
<trkpt lat="54.512507" lon="-3.039499"><ele>308</ele><time>2023-08-09T12:49:09Z</time><name>PT3314</name></trkpt>
<trkpt lat="54.512524" lon="-3.039484"><ele>308</ele><time>2023-08-09T12:49:12Z</time><name>PT3315</name></trkpt>
<trkpt lat="54.512535" lon="-3.039489"><ele>308</ele><time>2023-08-09T12:49:15Z</time><name>PT3316</name></trkpt>
<trkpt lat="54.512537" lon="-3.039504"><ele>307</ele><time>2023-08-09T12:49:19Z</time><name>PT3317</name></trkpt>
<trkpt lat="54.512550" lon="-3.039531"><ele>306</ele><time>2023-08-09T12:49:22Z</time><name>PT3318</name></trkpt>
<trkpt lat="54.512560" lon="-3.039565"><ele>306</ele><time>2023-08-09T12:49:26Z</time><name>PT3319</name></trkpt>
<trkpt lat="54.512582" lon="-3.039587"><ele>307</ele><time>2023-08-09T12:49:30Z</time><name>PT3320</name></trkpt>
<trkpt lat="54.512599" lon="-3.039601"><ele>306</ele><time>2023-08-09T12:49:33Z</time><name>PT3321</name></trkpt>
<trkpt lat="54.512606" lon="-3.039608"><ele>305</ele><time>2023-08-09T12:49:36Z</time><name>PT3322</name></trkpt>
<trkpt lat="54.512608" lon="-3.039629"><ele>304</ele><time>2023-08-09T12:49:40Z</time><name>PT3323</name></trkpt>
<trkpt lat="54.512643" lon="-3.039638"><ele>304</ele><time>2023-08-09T12:49:44Z</time><name>PT3324</name></trkpt>
<trkpt lat="54.512675" lon="-3.039652"><ele>304</ele><time>2023-08-09T12:49:48Z</time><name>PT3325</name></trkpt>
<trkpt lat="54.512708" lon="-3.039679"><ele>304</ele><time>2023-08-09T12:49:52Z</time><name>PT3326</name></trkpt>
<trkpt lat="54.512724" lon="-3.039689"><ele>305</ele><time>2023-08-09T12:49:55Z</time><name>PT3327</name></trkpt>
<trkpt lat="54.512748" lon="-3.039708"><ele>301</ele><time>2023-08-09T12:49:59Z</time><name>PT3328</name></trkpt>
<trkpt lat="54.512786" lon="-3.039725"><ele>299</ele><time>2023-08-09T12:50:03Z</time><name>PT3329</name></trkpt>
<trkpt lat="54.512806" lon="-3.039728"><ele>299</ele><time>2023-08-09T12:50:07Z</time><name>PT3330</name></trkpt>
<trkpt lat="54.512798" lon="-3.039747"><ele>297</ele><time>2023-08-09T12:50:11Z</time><name>PT3331</name></trkpt>
<trkpt lat="54.512804" lon="-3.039744"><ele>296</ele><time>2023-08-09T12:50:14Z</time><name>PT3332</name></trkpt>
<trkpt lat="54.512828" lon="-3.039760"><ele>295</ele><time>2023-08-09T12:50:18Z</time><name>PT3333</name></trkpt>
<trkpt lat="54.512846" lon="-3.039794"><ele>292</ele><time>2023-08-09T12:50:22Z</time><name>PT3334</name></trkpt>
<trkpt lat="54.512868" lon="-3.039823"><ele>292</ele><time>2023-08-09T12:50:26Z</time><name>PT3335</name></trkpt>
<trkpt lat="54.512882" lon="-3.039844"><ele>293</ele><time>2023-08-09T12:50:29Z</time><name>PT3336</name></trkpt>
<trkpt lat="54.512909" lon="-3.039866"><ele>292</ele><time>2023-08-09T12:50:33Z</time><name>PT3337</name></trkpt>
<trkpt lat="54.512924" lon="-3.039875"><ele>289</ele><time>2023-08-09T12:50:36Z</time><name>PT3338</name></trkpt>
<trkpt lat="54.512951" lon="-3.039896"><ele>289</ele><time>2023-08-09T12:50:40Z</time><name>PT3339</name></trkpt>
<trkpt lat="54.512967" lon="-3.039912"><ele>288</ele><time>2023-08-09T12:50:43Z</time><name>PT3340</name></trkpt>
<trkpt lat="54.512998" lon="-3.039927"><ele>289</ele><time>2023-08-09T12:50:47Z</time><name>PT3341</name></trkpt>
<trkpt lat="54.513018" lon="-3.039944"><ele>288</ele><time>2023-08-09T12:50:50Z</time><name>PT3342</name></trkpt>
<trkpt lat="54.513037" lon="-3.039977"><ele>288</ele><time>2023-08-09T12:50:54Z</time><name>PT3343</name></trkpt>
<trkpt lat="54.513059" lon="-3.040003"><ele>287</ele><time>2023-08-09T12:50:58Z</time><name>PT3344</name></trkpt>
<trkpt lat="54.513072" lon="-3.040021"><ele>286</ele><time>2023-08-09T12:51:01Z</time><name>PT3345</name></trkpt>
<trkpt lat="54.513089" lon="-3.040040"><ele>285</ele><time>2023-08-09T12:51:04Z</time><name>PT3346</name></trkpt>
<trkpt lat="54.513095" lon="-3.040062"><ele>283</ele><time>2023-08-09T12:51:07Z</time><name>PT3347</name></trkpt>
<trkpt lat="54.513108" lon="-3.040109"><ele>282</ele><time>2023-08-09T12:51:11Z</time><name>PT3348</name></trkpt>
<trkpt lat="54.513135" lon="-3.040128"><ele>281</ele><time>2023-08-09T12:51:15Z</time><name>PT3349</name></trkpt>
<trkpt lat="54.513161" lon="-3.040157"><ele>280</ele><time>2023-08-09T12:51:19Z</time><name>PT3350</name></trkpt>
<trkpt lat="54.513174" lon="-3.040172"><ele>279</ele><time>2023-08-09T12:51:22Z</time><name>PT3351</name></trkpt>
<trkpt lat="54.513184" lon="-3.040210"><ele>279</ele><time>2023-08-09T12:51:26Z</time><name>PT3352</name></trkpt>
<trkpt lat="54.513196" lon="-3.040232"><ele>277</ele><time>2023-08-09T12:51:29Z</time><name>PT3353</name></trkpt>
<trkpt lat="54.513208" lon="-3.040263"><ele>276</ele><time>2023-08-09T12:51:33Z</time><name>PT3354</name></trkpt>
<trkpt lat="54.513231" lon="-3.040310"><ele>277</ele><time>2023-08-09T12:51:37Z</time><name>PT3355</name></trkpt>
<trkpt lat="54.513245" lon="-3.040325"><ele>277</ele><time>2023-08-09T12:51:40Z</time><name>PT3356</name></trkpt>
<trkpt lat="54.513264" lon="-3.040346"><ele>276</ele><time>2023-08-09T12:51:43Z</time><name>PT3357</name></trkpt>
<trkpt lat="54.513271" lon="-3.040375"><ele>275</ele><time>2023-08-09T12:51:46Z</time><name>PT3358</name></trkpt>
<trkpt lat="54.513296" lon="-3.040408"><ele>274</ele><time>2023-08-09T12:51:50Z</time><name>PT3359</name></trkpt>
<trkpt lat="54.513312" lon="-3.040419"><ele>273</ele><time>2023-08-09T12:51:53Z</time><name>PT3360</name></trkpt>
<trkpt lat="54.513321" lon="-3.040445"><ele>272</ele><time>2023-08-09T12:51:57Z</time><name>PT3361</name></trkpt>
<trkpt lat="54.513333" lon="-3.040469"><ele>270</ele><time>2023-08-09T12:52:00Z</time><name>PT3362</name></trkpt>
<trkpt lat="54.513336" lon="-3.040498"><ele>269</ele><time>2023-08-09T12:52:04Z</time><name>PT3363</name></trkpt>
<trkpt lat="54.513338" lon="-3.040526"><ele>267</ele><time>2023-08-09T12:52:07Z</time><name>PT3364</name></trkpt>
<trkpt lat="54.513340" lon="-3.040554"><ele>266</ele><time>2023-08-09T12:52:11Z</time><name>PT3365</name></trkpt>
<trkpt lat="54.513349" lon="-3.040587"><ele>265</ele><time>2023-08-09T12:52:15Z</time><name>PT3366</name></trkpt>
<trkpt lat="54.513351" lon="-3.040618"><ele>265</ele><time>2023-08-09T12:52:18Z</time><name>PT3367</name></trkpt>
<trkpt lat="54.513371" lon="-3.040654"><ele>264</ele><time>2023-08-09T12:52:22Z</time><name>PT3368</name></trkpt>
<trkpt lat="54.513392" lon="-3.040680"><ele>264</ele><time>2023-08-09T12:52:25Z</time><name>PT3369</name></trkpt>
<trkpt lat="54.513398" lon="-3.040723"><ele>264</ele><time>2023-08-09T12:52:29Z</time><name>PT3370</name></trkpt>
<trkpt lat="54.513382" lon="-3.040752"><ele>266</ele><time>2023-08-09T12:52:32Z</time><name>PT3371</name></trkpt>
<trkpt lat="54.513408" lon="-3.040756"><ele>265</ele><time>2023-08-09T12:52:36Z</time><name>PT3372</name></trkpt>
<trkpt lat="54.513427" lon="-3.040786"><ele>263</ele><time>2023-08-09T12:52:40Z</time><name>PT3373</name></trkpt>
<trkpt lat="54.513436" lon="-3.040813"><ele>262</ele><time>2023-08-09T12:52:43Z</time><name>PT3374</name></trkpt>
<trkpt lat="54.513441" lon="-3.040835"><ele>262</ele><time>2023-08-09T12:52:47Z</time><name>PT3375</name></trkpt>
<trkpt lat="54.513448" lon="-3.040869"><ele>259</ele><time>2023-08-09T12:52:51Z</time><name>PT3376</name></trkpt>
<trkpt lat="54.513446" lon="-3.040930"><ele>259</ele><time>2023-08-09T12:52:55Z</time><name>PT3377</name></trkpt>
<trkpt lat="54.513453" lon="-3.040975"><ele>257</ele><time>2023-08-09T12:52:58Z</time><name>PT3378</name></trkpt>
<trkpt lat="54.513455" lon="-3.040990"><ele>255</ele><time>2023-08-09T12:53:01Z</time><name>PT3379</name></trkpt>
<trkpt lat="54.513456" lon="-3.041031"><ele>253</ele><time>2023-08-09T12:53:05Z</time><name>PT3380</name></trkpt>
<trkpt lat="54.513453" lon="-3.041074"><ele>254</ele><time>2023-08-09T12:53:08Z</time><name>PT3381</name></trkpt>
<trkpt lat="54.513453" lon="-3.041095"><ele>254</ele><time>2023-08-09T12:53:11Z</time><name>PT3382</name></trkpt>
<trkpt lat="54.513477" lon="-3.041122"><ele>253</ele><time>2023-08-09T12:53:15Z</time><name>PT3383</name></trkpt>
<trkpt lat="54.513494" lon="-3.041153"><ele>252</ele><time>2023-08-09T12:53:19Z</time><name>PT3384</name></trkpt>
<trkpt lat="54.513533" lon="-3.041189"><ele>252</ele><time>2023-08-09T12:53:23Z</time><name>PT3385</name></trkpt>
<trkpt lat="54.513570" lon="-3.041227"><ele>253</ele><time>2023-08-09T12:53:27Z</time><name>PT3386</name></trkpt>
<trkpt lat="54.513588" lon="-3.041246"><ele>254</ele><time>2023-08-09T12:53:31Z</time><name>PT3387</name></trkpt>
<trkpt lat="54.513594" lon="-3.041240"><ele>254</ele><time>2023-08-09T12:53:34Z</time><name>PT3388</name></trkpt>
<trkpt lat="54.513638" lon="-3.041229"><ele>255</ele><time>2023-08-09T12:53:38Z</time><name>PT3389</name></trkpt>
<trkpt lat="54.513676" lon="-3.041231"><ele>256</ele><time>2023-08-09T12:53:41Z</time><name>PT3390</name></trkpt>
<trkpt lat="54.513713" lon="-3.041223"><ele>257</ele><time>2023-08-09T12:53:44Z</time><name>PT3391</name></trkpt>
<trkpt lat="54.513758" lon="-3.041222"><ele>256</ele><time>2023-08-09T12:53:47Z</time><name>PT3392</name></trkpt>
<trkpt lat="54.513807" lon="-3.041227"><ele>259</ele><time>2023-08-09T12:53:51Z</time><name>PT3393</name></trkpt>
<trkpt lat="54.513826" lon="-3.041255"><ele>260</ele><time>2023-08-09T12:53:54Z</time><name>PT3394</name></trkpt>
<trkpt lat="54.513880" lon="-3.041269"><ele>260</ele><time>2023-08-09T12:53:58Z</time><name>PT3395</name></trkpt>
<trkpt lat="54.513923" lon="-3.041270"><ele>261</ele><time>2023-08-09T12:54:02Z</time><name>PT3396</name></trkpt>
<trkpt lat="54.513965" lon="-3.041275"><ele>260</ele><time>2023-08-09T12:54:05Z</time><name>PT3397</name></trkpt>
<trkpt lat="54.514009" lon="-3.041270"><ele>260</ele><time>2023-08-09T12:54:09Z</time><name>PT3398</name></trkpt>
<trkpt lat="54.514066" lon="-3.041275"><ele>260</ele><time>2023-08-09T12:54:13Z</time><name>PT3399</name></trkpt>
<trkpt lat="54.514117" lon="-3.041229"><ele>259</ele><time>2023-08-09T12:54:16Z</time><name>PT3400</name></trkpt>
<trkpt lat="54.514179" lon="-3.041215"><ele>259</ele><time>2023-08-09T12:54:20Z</time><name>PT3401</name></trkpt>
<trkpt lat="54.514210" lon="-3.041216"><ele>260</ele><time>2023-08-09T12:54:23Z</time><name>PT3402</name></trkpt>
<trkpt lat="54.514263" lon="-3.041208"><ele>261</ele><time>2023-08-09T12:54:27Z</time><name>PT3403</name></trkpt>
<trkpt lat="54.514302" lon="-3.041202"><ele>262</ele><time>2023-08-09T12:54:30Z</time><name>PT3404</name></trkpt>
<trkpt lat="54.514348" lon="-3.041211"><ele>262</ele><time>2023-08-09T12:54:34Z</time><name>PT3405</name></trkpt>
<trkpt lat="54.514387" lon="-3.041242"><ele>265</ele><time>2023-08-09T12:54:38Z</time><name>PT3406</name></trkpt>
<trkpt lat="54.514430" lon="-3.041247"><ele>267</ele><time>2023-08-09T12:54:42Z</time><name>PT3407</name></trkpt>
<trkpt lat="54.514495" lon="-3.041237"><ele>268</ele><time>2023-08-09T12:54:46Z</time><name>PT3408</name></trkpt>
<trkpt lat="54.514543" lon="-3.041235"><ele>269</ele><time>2023-08-09T12:54:49Z</time><name>PT3409</name></trkpt>
<trkpt lat="54.514584" lon="-3.041258"><ele>268</ele><time>2023-08-09T12:54:52Z</time><name>PT3410</name></trkpt>
<trkpt lat="54.514615" lon="-3.041271"><ele>268</ele><time>2023-08-09T12:54:55Z</time><name>PT3411</name></trkpt>
<trkpt lat="54.514653" lon="-3.041303"><ele>269</ele><time>2023-08-09T12:54:59Z</time><name>PT3412</name></trkpt>
<trkpt lat="54.514704" lon="-3.041313"><ele>270</ele><time>2023-08-09T12:55:03Z</time><name>PT3413</name></trkpt>
<trkpt lat="54.514758" lon="-3.041329"><ele>272</ele><time>2023-08-09T12:55:07Z</time><name>PT3414</name></trkpt>
<trkpt lat="54.514804" lon="-3.041338"><ele>273</ele><time>2023-08-09T12:55:11Z</time><name>PT3415</name></trkpt>
<trkpt lat="54.514858" lon="-3.041334"><ele>271</ele><time>2023-08-09T12:55:15Z</time><name>PT3416</name></trkpt>
<trkpt lat="54.514887" lon="-3.041348"><ele>269</ele><time>2023-08-09T12:55:18Z</time><name>PT3417</name></trkpt>
<trkpt lat="54.514929" lon="-3.041359"><ele>266</ele><time>2023-08-09T12:55:21Z</time><name>PT3418</name></trkpt>
<trkpt lat="54.514962" lon="-3.041361"><ele>265</ele><time>2023-08-09T12:55:24Z</time><name>PT3419</name></trkpt>
<trkpt lat="54.515021" lon="-3.041367"><ele>263</ele><time>2023-08-09T12:55:28Z</time><name>PT3420</name></trkpt>
<trkpt lat="54.515057" lon="-3.041388"><ele>263</ele><time>2023-08-09T12:55:31Z</time><name>PT3421</name></trkpt>
<trkpt lat="54.515095" lon="-3.041425"><ele>263</ele><time>2023-08-09T12:55:34Z</time><name>PT3422</name></trkpt>
<trkpt lat="54.515143" lon="-3.041476"><ele>267</ele><time>2023-08-09T12:55:38Z</time><name>PT3423</name></trkpt>
<trkpt lat="54.515180" lon="-3.041497"><ele>266</ele><time>2023-08-09T12:55:41Z</time><name>PT3424</name></trkpt>
<trkpt lat="54.515222" lon="-3.041535"><ele>265</ele><time>2023-08-09T12:55:45Z</time><name>PT3425</name></trkpt>
<trkpt lat="54.515273" lon="-3.041554"><ele>264</ele><time>2023-08-09T12:55:49Z</time><name>PT3426</name></trkpt>
<trkpt lat="54.515301" lon="-3.041560"><ele>263</ele><time>2023-08-09T12:55:52Z</time><name>PT3427</name></trkpt>
<trkpt lat="54.515345" lon="-3.041606"><ele>263</ele><time>2023-08-09T12:55:56Z</time><name>PT3428</name></trkpt>
<trkpt lat="54.515385" lon="-3.041651"><ele>262</ele><time>2023-08-09T12:56:00Z</time><name>PT3429</name></trkpt>
<trkpt lat="54.515426" lon="-3.041690"><ele>263</ele><time>2023-08-09T12:56:03Z</time><name>PT3430</name></trkpt>
<trkpt lat="54.515458" lon="-3.041710"><ele>263</ele><time>2023-08-09T12:56:06Z</time><name>PT3431</name></trkpt>
<trkpt lat="54.515480" lon="-3.041746"><ele>261</ele><time>2023-08-09T12:56:10Z</time><name>PT3432</name></trkpt>
<trkpt lat="54.515499" lon="-3.041787"><ele>258</ele><time>2023-08-09T12:56:14Z</time><name>PT3433</name></trkpt>
<trkpt lat="54.515537" lon="-3.041809"><ele>258</ele><time>2023-08-09T12:56:17Z</time><name>PT3434</name></trkpt>
<trkpt lat="54.515579" lon="-3.041828"><ele>256</ele><time>2023-08-09T12:56:21Z</time><name>PT3435</name></trkpt>
<trkpt lat="54.515609" lon="-3.041853"><ele>256</ele><time>2023-08-09T12:56:24Z</time><name>PT3436</name></trkpt>
<trkpt lat="54.515636" lon="-3.041893"><ele>255</ele><time>2023-08-09T12:56:27Z</time><name>PT3437</name></trkpt>
<trkpt lat="54.515666" lon="-3.041954"><ele>255</ele><time>2023-08-09T12:56:31Z</time><name>PT3438</name></trkpt>
<trkpt lat="54.515689" lon="-3.041963"><ele>252</ele><time>2023-08-09T12:56:34Z</time><name>PT3439</name></trkpt>
<trkpt lat="54.515743" lon="-3.042014"><ele>255</ele><time>2023-08-09T12:56:37Z</time><name>PT3440</name></trkpt>
<trkpt lat="54.515783" lon="-3.042035"><ele>254</ele><time>2023-08-09T12:56:41Z</time><name>PT3441</name></trkpt>
<trkpt lat="54.515868" lon="-3.042063"><ele>260</ele><time>2023-08-09T12:56:44Z</time><name>PT3442</name></trkpt>
<trkpt lat="54.515904" lon="-3.042096"><ele>260</ele><time>2023-08-09T12:56:47Z</time><name>PT3443</name></trkpt>
<trkpt lat="54.515956" lon="-3.042138"><ele>261</ele><time>2023-08-09T12:56:51Z</time><name>PT3444</name></trkpt>
<trkpt lat="54.515991" lon="-3.042177"><ele>260</ele><time>2023-08-09T12:56:55Z</time><name>PT3445</name></trkpt>
<trkpt lat="54.516022" lon="-3.042220"><ele>260</ele><time>2023-08-09T12:56:58Z</time><name>PT3446</name></trkpt>
<trkpt lat="54.516055" lon="-3.042247"><ele>259</ele><time>2023-08-09T12:57:01Z</time><name>PT3447</name></trkpt>
<trkpt lat="54.516103" lon="-3.042289"><ele>262</ele><time>2023-08-09T12:57:05Z</time><name>PT3448</name></trkpt>
<trkpt lat="54.516155" lon="-3.042309"><ele>261</ele><time>2023-08-09T12:57:09Z</time><name>PT3449</name></trkpt>
<trkpt lat="54.516203" lon="-3.042328"><ele>262</ele><time>2023-08-09T12:57:13Z</time><name>PT3450</name></trkpt>
<trkpt lat="54.516257" lon="-3.042362"><ele>261</ele><time>2023-08-09T12:57:17Z</time><name>PT3451</name></trkpt>
<trkpt lat="54.516275" lon="-3.042365"><ele>262</ele><time>2023-08-09T12:57:20Z</time><name>PT3452</name></trkpt>
<trkpt lat="54.516330" lon="-3.042389"><ele>262</ele><time>2023-08-09T12:57:24Z</time><name>PT3453</name></trkpt>
<trkpt lat="54.516360" lon="-3.042407"><ele>262</ele><time>2023-08-09T12:57:27Z</time><name>PT3454</name></trkpt>
<trkpt lat="54.516404" lon="-3.042439"><ele>264</ele><time>2023-08-09T12:57:31Z</time><name>PT3455</name></trkpt>
<trkpt lat="54.516429" lon="-3.042447"><ele>264</ele><time>2023-08-09T12:57:34Z</time><name>PT3456</name></trkpt>
<trkpt lat="54.516463" lon="-3.042476"><ele>265</ele><time>2023-08-09T12:57:37Z</time><name>PT3457</name></trkpt>
<trkpt lat="54.516492" lon="-3.042482"><ele>265</ele><time>2023-08-09T12:57:40Z</time><name>PT3458</name></trkpt>
<trkpt lat="54.516547" lon="-3.042496"><ele>264</ele><time>2023-08-09T12:57:44Z</time><name>PT3459</name></trkpt>
<trkpt lat="54.516573" lon="-3.042492"><ele>265</ele><time>2023-08-09T12:57:47Z</time><name>PT3460</name></trkpt>
<trkpt lat="54.516620" lon="-3.042497"><ele>265</ele><time>2023-08-09T12:57:50Z</time><name>PT3461</name></trkpt>
<trkpt lat="54.516653" lon="-3.042502"><ele>264</ele><time>2023-08-09T12:57:54Z</time><name>PT3462</name></trkpt>
<trkpt lat="54.516706" lon="-3.042506"><ele>265</ele><time>2023-08-09T12:57:58Z</time><name>PT3463</name></trkpt>
<trkpt lat="54.516757" lon="-3.042512"><ele>264</ele><time>2023-08-09T12:58:02Z</time><name>PT3464</name></trkpt>
<trkpt lat="54.516797" lon="-3.042534"><ele>265</ele><time>2023-08-09T12:58:05Z</time><name>PT3465</name></trkpt>
<trkpt lat="54.516844" lon="-3.042546"><ele>263</ele><time>2023-08-09T12:58:09Z</time><name>PT3466</name></trkpt>
<trkpt lat="54.516872" lon="-3.042566"><ele>263</ele><time>2023-08-09T12:58:12Z</time><name>PT3467</name></trkpt>
<trkpt lat="54.516897" lon="-3.042579"><ele>263</ele><time>2023-08-09T12:58:15Z</time><name>PT3468</name></trkpt>
<trkpt lat="54.516940" lon="-3.042607"><ele>265</ele><time>2023-08-09T12:58:19Z</time><name>PT3469</name></trkpt>
<trkpt lat="54.516992" lon="-3.042630"><ele>266</ele><time>2023-08-09T12:58:23Z</time><name>PT3470</name></trkpt>
<trkpt lat="54.517026" lon="-3.042647"><ele>265</ele><time>2023-08-09T12:58:27Z</time><name>PT3471</name></trkpt>
<trkpt lat="54.517058" lon="-3.042661"><ele>265</ele><time>2023-08-09T12:58:30Z</time><name>PT3472</name></trkpt>
<trkpt lat="54.517092" lon="-3.042683"><ele>265</ele><time>2023-08-09T12:58:33Z</time><name>PT3473</name></trkpt>
<trkpt lat="54.517121" lon="-3.042710"><ele>267</ele><time>2023-08-09T12:58:36Z</time><name>PT3474</name></trkpt>
<trkpt lat="54.517166" lon="-3.042721"><ele>265</ele><time>2023-08-09T12:58:40Z</time><name>PT3475</name></trkpt>
<trkpt lat="54.517204" lon="-3.042754"><ele>266</ele><time>2023-08-09T12:58:43Z</time><name>PT3476</name></trkpt>
<trkpt lat="54.517261" lon="-3.042773"><ele>266</ele><time>2023-08-09T12:58:47Z</time><name>PT3477</name></trkpt>
<trkpt lat="54.517308" lon="-3.042794"><ele>263</ele><time>2023-08-09T12:58:51Z</time><name>PT3478</name></trkpt>
<trkpt lat="54.517339" lon="-3.042820"><ele>262</ele><time>2023-08-09T12:58:54Z</time><name>PT3479</name></trkpt>
<trkpt lat="54.517402" lon="-3.042845"><ele>262</ele><time>2023-08-09T12:58:58Z</time><name>PT3480</name></trkpt>
<trkpt lat="54.517447" lon="-3.042864"><ele>262</ele><time>2023-08-09T12:59:01Z</time><name>PT3481</name></trkpt>
<trkpt lat="54.517492" lon="-3.042896"><ele>262</ele><time>2023-08-09T12:59:05Z</time><name>PT3482</name></trkpt>
<trkpt lat="54.517540" lon="-3.042935"><ele>261</ele><time>2023-08-09T12:59:09Z</time><name>PT3483</name></trkpt>
<trkpt lat="54.517572" lon="-3.042959"><ele>260</ele><time>2023-08-09T12:59:12Z</time><name>PT3484</name></trkpt>
<trkpt lat="54.517617" lon="-3.042984"><ele>260</ele><time>2023-08-09T12:59:16Z</time><name>PT3485</name></trkpt>
<trkpt lat="54.517649" lon="-3.042998"><ele>259</ele><time>2023-08-09T12:59:19Z</time><name>PT3486</name></trkpt>
<trkpt lat="54.517694" lon="-3.043034"><ele>259</ele><time>2023-08-09T12:59:23Z</time><name>PT3487</name></trkpt>
<trkpt lat="54.517726" lon="-3.043083"><ele>259</ele><time>2023-08-09T12:59:27Z</time><name>PT3488</name></trkpt>
<trkpt lat="54.517744" lon="-3.043097"><ele>258</ele><time>2023-08-09T12:59:30Z</time><name>PT3489</name></trkpt>
<trkpt lat="54.517768" lon="-3.043104"><ele>258</ele><time>2023-08-09T12:59:33Z</time><name>PT3490</name></trkpt>
<trkpt lat="54.517812" lon="-3.043140"><ele>261</ele><time>2023-08-09T12:59:36Z</time><name>PT3491</name></trkpt>
<trkpt lat="54.517859" lon="-3.043173"><ele>262</ele><time>2023-08-09T12:59:40Z</time><name>PT3492</name></trkpt>
<trkpt lat="54.517919" lon="-3.043228"><ele>266</ele><time>2023-08-09T12:59:44Z</time><name>PT3493</name></trkpt>
<trkpt lat="54.517965" lon="-3.043250"><ele>263</ele><time>2023-08-09T12:59:48Z</time><name>PT3494</name></trkpt>
<trkpt lat="54.518000" lon="-3.043274"><ele>263</ele><time>2023-08-09T12:59:52Z</time><name>PT3495</name></trkpt>
<trkpt lat="54.518034" lon="-3.043307"><ele>262</ele><time>2023-08-09T12:59:55Z</time><name>PT3496</name></trkpt>
<trkpt lat="54.518100" lon="-3.043358"><ele>263</ele><time>2023-08-09T12:59:59Z</time><name>PT3497</name></trkpt>
<trkpt lat="54.518140" lon="-3.043394"><ele>264</ele><time>2023-08-09T13:00:02Z</time><name>PT3498</name></trkpt>
<trkpt lat="54.518208" lon="-3.043430"><ele>265</ele><time>2023-08-09T13:00:06Z</time><name>PT3499</name></trkpt>
<trkpt lat="54.518241" lon="-3.043448"><ele>264</ele><time>2023-08-09T13:00:09Z</time><name>PT3500</name></trkpt>
<trkpt lat="54.518288" lon="-3.043494"><ele>267</ele><time>2023-08-09T13:00:13Z</time><name>PT3501</name></trkpt>
<trkpt lat="54.518332" lon="-3.043517"><ele>267</ele><time>2023-08-09T13:00:17Z</time><name>PT3502</name></trkpt>
<trkpt lat="54.518384" lon="-3.043554"><ele>266</ele><time>2023-08-09T13:00:21Z</time><name>PT3503</name></trkpt>
<trkpt lat="54.518414" lon="-3.043567"><ele>265</ele><time>2023-08-09T13:00:24Z</time><name>PT3504</name></trkpt>
<trkpt lat="54.518450" lon="-3.043619"><ele>266</ele><time>2023-08-09T13:00:28Z</time><name>PT3505</name></trkpt>
<trkpt lat="54.518503" lon="-3.043643"><ele>264</ele><time>2023-08-09T13:00:32Z</time><name>PT3506</name></trkpt>
<trkpt lat="54.518554" lon="-3.043666"><ele>264</ele><time>2023-08-09T13:00:35Z</time><name>PT3507</name></trkpt>
<trkpt lat="54.518593" lon="-3.043683"><ele>263</ele><time>2023-08-09T13:00:39Z</time><name>PT3508</name></trkpt>
<trkpt lat="54.518640" lon="-3.043737"><ele>263</ele><time>2023-08-09T13:00:43Z</time><name>PT3509</name></trkpt>
<trkpt lat="54.518653" lon="-3.043761"><ele>260</ele><time>2023-08-09T13:00:46Z</time><name>PT3510</name></trkpt>
<trkpt lat="54.518707" lon="-3.043787"><ele>261</ele><time>2023-08-09T13:00:49Z</time><name>PT3511</name></trkpt>
<trkpt lat="54.518744" lon="-3.043822"><ele>260</ele><time>2023-08-09T13:00:53Z</time><name>PT3512</name></trkpt>
<trkpt lat="54.518795" lon="-3.043850"><ele>260</ele><time>2023-08-09T13:00:57Z</time><name>PT3513</name></trkpt>
<trkpt lat="54.518836" lon="-3.043871"><ele>260</ele><time>2023-08-09T13:01:00Z</time><name>PT3514</name></trkpt>
<trkpt lat="54.518898" lon="-3.043898"><ele>259</ele><time>2023-08-09T13:01:04Z</time><name>PT3515</name></trkpt>
<trkpt lat="54.518917" lon="-3.043917"><ele>258</ele><time>2023-08-09T13:01:07Z</time><name>PT3516</name></trkpt>
<trkpt lat="54.518952" lon="-3.043940"><ele>256</ele><time>2023-08-09T13:01:10Z</time><name>PT3517</name></trkpt>
<trkpt lat="54.518996" lon="-3.043974"><ele>254</ele><time>2023-08-09T13:01:14Z</time><name>PT3518</name></trkpt>
<trkpt lat="54.519026" lon="-3.043991"><ele>252</ele><time>2023-08-09T13:01:18Z</time><name>PT3519</name></trkpt>
<trkpt lat="54.519081" lon="-3.044025"><ele>253</ele><time>2023-08-09T13:01:21Z</time><name>PT3520</name></trkpt>
<trkpt lat="54.519130" lon="-3.044050"><ele>252</ele><time>2023-08-09T13:01:25Z</time><name>PT3521</name></trkpt>
<trkpt lat="54.519153" lon="-3.044070"><ele>251</ele><time>2023-08-09T13:01:28Z</time><name>PT3522</name></trkpt>
<trkpt lat="54.519200" lon="-3.044112"><ele>252</ele><time>2023-08-09T13:01:31Z</time><name>PT3523</name></trkpt>
<trkpt lat="54.519232" lon="-3.044140"><ele>253</ele><time>2023-08-09T13:01:35Z</time><name>PT3524</name></trkpt>
<trkpt lat="54.519294" lon="-3.044171"><ele>254</ele><time>2023-08-09T13:01:39Z</time><name>PT3525</name></trkpt>
<trkpt lat="54.519330" lon="-3.044178"><ele>253</ele><time>2023-08-09T13:01:43Z</time><name>PT3526</name></trkpt>
<trkpt lat="54.519382" lon="-3.044191"><ele>254</ele><time>2023-08-09T13:01:46Z</time><name>PT3527</name></trkpt>
<trkpt lat="54.519423" lon="-3.044221"><ele>253</ele><time>2023-08-09T13:01:50Z</time><name>PT3528</name></trkpt>
<trkpt lat="54.519453" lon="-3.044240"><ele>252</ele><time>2023-08-09T13:01:54Z</time><name>PT3529</name></trkpt>
<trkpt lat="54.519481" lon="-3.044273"><ele>253</ele><time>2023-08-09T13:01:57Z</time><name>PT3530</name></trkpt>
<trkpt lat="54.519525" lon="-3.044292"><ele>254</ele><time>2023-08-09T13:02:00Z</time><name>PT3531</name></trkpt>
<trkpt lat="54.519590" lon="-3.044313"><ele>257</ele><time>2023-08-09T13:02:03Z</time><name>PT3532</name></trkpt>
<trkpt lat="54.519616" lon="-3.044363"><ele>256</ele><time>2023-08-09T13:02:07Z</time><name>PT3533</name></trkpt>
<trkpt lat="54.519648" lon="-3.044397"><ele>256</ele><time>2023-08-09T13:02:10Z</time><name>PT3534</name></trkpt>
<trkpt lat="54.519676" lon="-3.044428"><ele>254</ele><time>2023-08-09T13:02:13Z</time><name>PT3535</name></trkpt>
<trkpt lat="54.519709" lon="-3.044442"><ele>253</ele><time>2023-08-09T13:02:16Z</time><name>PT3536</name></trkpt>
<trkpt lat="54.519765" lon="-3.044471"><ele>253</ele><time>2023-08-09T13:02:20Z</time><name>PT3537</name></trkpt>
<trkpt lat="54.519816" lon="-3.044493"><ele>253</ele><time>2023-08-09T13:02:24Z</time><name>PT3538</name></trkpt>
<trkpt lat="54.519866" lon="-3.044520"><ele>254</ele><time>2023-08-09T13:02:28Z</time><name>PT3539</name></trkpt>
<trkpt lat="54.519913" lon="-3.044545"><ele>255</ele><time>2023-08-09T13:02:32Z</time><name>PT3540</name></trkpt>
<trkpt lat="54.519959" lon="-3.044565"><ele>256</ele><time>2023-08-09T13:02:35Z</time><name>PT3541</name></trkpt>
<trkpt lat="54.519990" lon="-3.044571"><ele>257</ele><time>2023-08-09T13:02:38Z</time><name>PT3542</name></trkpt>
<trkpt lat="54.520018" lon="-3.044592"><ele>257</ele><time>2023-08-09T13:02:41Z</time><name>PT3543</name></trkpt>
<trkpt lat="54.520054" lon="-3.044608"><ele>257</ele><time>2023-08-09T13:02:45Z</time><name>PT3544</name></trkpt>
<trkpt lat="54.520097" lon="-3.044614"><ele>260</ele><time>2023-08-09T13:02:48Z</time><name>PT3545</name></trkpt>
<trkpt lat="54.520141" lon="-3.044623"><ele>259</ele><time>2023-08-09T13:02:52Z</time><name>PT3546</name></trkpt>
<trkpt lat="54.520184" lon="-3.044647"><ele>261</ele><time>2023-08-09T13:02:55Z</time><name>PT3547</name></trkpt>
<trkpt lat="54.520211" lon="-3.044652"><ele>259</ele><time>2023-08-09T13:02:58Z</time><name>PT3548</name></trkpt>
<trkpt lat="54.520252" lon="-3.044679"><ele>259</ele><time>2023-08-09T13:03:02Z</time><name>PT3549</name></trkpt>
<trkpt lat="54.520286" lon="-3.044682"><ele>257</ele><time>2023-08-09T13:03:06Z</time><name>PT3550</name></trkpt>
<trkpt lat="54.520321" lon="-3.044696"><ele>258</ele><time>2023-08-09T13:03:10Z</time><name>PT3551</name></trkpt>
<trkpt lat="54.520376" lon="-3.044690"><ele>257</ele><time>2023-08-09T13:03:14Z</time><name>PT3552</name></trkpt>
<trkpt lat="54.520400" lon="-3.044706"><ele>258</ele><time>2023-08-09T13:03:17Z</time><name>PT3553</name></trkpt>
<trkpt lat="54.520434" lon="-3.044721"><ele>259</ele><time>2023-08-09T13:03:20Z</time><name>PT3554</name></trkpt>
<trkpt lat="54.520469" lon="-3.044729"><ele>259</ele><time>2023-08-09T13:03:24Z</time><name>PT3555</name></trkpt>
<trkpt lat="54.520505" lon="-3.044711"><ele>259</ele><time>2023-08-09T13:03:27Z</time><name>PT3556</name></trkpt>
<trkpt lat="54.520545" lon="-3.044720"><ele>254</ele><time>2023-08-09T13:03:31Z</time><name>PT3557</name></trkpt>
<trkpt lat="54.520575" lon="-3.044736"><ele>255</ele><time>2023-08-09T13:03:34Z</time><name>PT3558</name></trkpt>
<trkpt lat="54.520607" lon="-3.044756"><ele>254</ele><time>2023-08-09T13:03:38Z</time><name>PT3559</name></trkpt>
<trkpt lat="54.520639" lon="-3.044766"><ele>256</ele><time>2023-08-09T13:03:42Z</time><name>PT3560</name></trkpt>
<trkpt lat="54.520685" lon="-3.044781"><ele>256</ele><time>2023-08-09T13:03:45Z</time><name>PT3561</name></trkpt>
<trkpt lat="54.520726" lon="-3.044808"><ele>256</ele><time>2023-08-09T13:03:49Z</time><name>PT3562</name></trkpt>
<trkpt lat="54.520764" lon="-3.044819"><ele>259</ele><time>2023-08-09T13:03:52Z</time><name>PT3563</name></trkpt>
<trkpt lat="54.520803" lon="-3.044843"><ele>259</ele><time>2023-08-09T13:03:56Z</time><name>PT3564</name></trkpt>
<trkpt lat="54.520846" lon="-3.044856"><ele>263</ele><time>2023-08-09T13:04:00Z</time><name>PT3565</name></trkpt>
<trkpt lat="54.520865" lon="-3.044859"><ele>261</ele><time>2023-08-09T13:04:03Z</time><name>PT3566</name></trkpt>
<trkpt lat="54.520897" lon="-3.044869"><ele>262</ele><time>2023-08-09T13:04:06Z</time><name>PT3567</name></trkpt>
<trkpt lat="54.520942" lon="-3.044866"><ele>260</ele><time>2023-08-09T13:04:09Z</time><name>PT3568</name></trkpt>
<trkpt lat="54.521002" lon="-3.044898"><ele>262</ele><time>2023-08-09T13:04:13Z</time><name>PT3569</name></trkpt>
<trkpt lat="54.521034" lon="-3.044902"><ele>261</ele><time>2023-08-09T13:04:16Z</time><name>PT3570</name></trkpt>
<trkpt lat="54.521076" lon="-3.044915"><ele>261</ele><time>2023-08-09T13:04:20Z</time><name>PT3571</name></trkpt>
<trkpt lat="54.521097" lon="-3.044896"><ele>260</ele><time>2023-08-09T13:04:23Z</time><name>PT3572</name></trkpt>
<trkpt lat="54.521139" lon="-3.044890"><ele>259</ele><time>2023-08-09T13:04:27Z</time><name>PT3573</name></trkpt>
<trkpt lat="54.521185" lon="-3.044914"><ele>260</ele><time>2023-08-09T13:04:30Z</time><name>PT3574</name></trkpt>
<trkpt lat="54.521228" lon="-3.044920"><ele>261</ele><time>2023-08-09T13:04:33Z</time><name>PT3575</name></trkpt>
<trkpt lat="54.521266" lon="-3.044931"><ele>261</ele><time>2023-08-09T13:04:36Z</time><name>PT3576</name></trkpt>
<trkpt lat="54.521290" lon="-3.044925"><ele>260</ele><time>2023-08-09T13:04:39Z</time><name>PT3577</name></trkpt>
<trkpt lat="54.521342" lon="-3.044934"><ele>264</ele><time>2023-08-09T13:04:43Z</time><name>PT3578</name></trkpt>
<trkpt lat="54.521375" lon="-3.044940"><ele>265</ele><time>2023-08-09T13:04:46Z</time><name>PT3579</name></trkpt>
<trkpt lat="54.521432" lon="-3.044931"><ele>266</ele><time>2023-08-09T13:04:50Z</time><name>PT3580</name></trkpt>
<trkpt lat="54.521469" lon="-3.044925"><ele>266</ele><time>2023-08-09T13:04:53Z</time><name>PT3581</name></trkpt>
<trkpt lat="54.521510" lon="-3.044923"><ele>266</ele><time>2023-08-09T13:04:57Z</time><name>PT3582</name></trkpt>
<trkpt lat="54.521551" lon="-3.044917"><ele>266</ele><time>2023-08-09T13:05:00Z</time><name>PT3583</name></trkpt>
<trkpt lat="54.521597" lon="-3.044930"><ele>266</ele><time>2023-08-09T13:05:04Z</time><name>PT3584</name></trkpt>
<trkpt lat="54.521638" lon="-3.044936"><ele>267</ele><time>2023-08-09T13:05:07Z</time><name>PT3585</name></trkpt>
<trkpt lat="54.521654" lon="-3.044937"><ele>265</ele><time>2023-08-09T13:05:10Z</time><name>PT3586</name></trkpt>
<trkpt lat="54.521692" lon="-3.044946"><ele>265</ele><time>2023-08-09T13:05:14Z</time><name>PT3587</name></trkpt>
<trkpt lat="54.521727" lon="-3.044969"><ele>266</ele><time>2023-08-09T13:05:17Z</time><name>PT3588</name></trkpt>
<trkpt lat="54.521753" lon="-3.044990"><ele>266</ele><time>2023-08-09T13:05:20Z</time><name>PT3589</name></trkpt>
<trkpt lat="54.521798" lon="-3.044998"><ele>267</ele><time>2023-08-09T13:05:23Z</time><name>PT3590</name></trkpt>
<trkpt lat="54.521818" lon="-3.044999"><ele>264</ele><time>2023-08-09T13:05:26Z</time><name>PT3591</name></trkpt>
<trkpt lat="54.521846" lon="-3.045022"><ele>266</ele><time>2023-08-09T13:05:29Z</time><name>PT3592</name></trkpt>
<trkpt lat="54.521887" lon="-3.045028"><ele>261</ele><time>2023-08-09T13:05:32Z</time><name>PT3593</name></trkpt>
<trkpt lat="54.521948" lon="-3.045042"><ele>263</ele><time>2023-08-09T13:05:36Z</time><name>PT3594</name></trkpt>
<trkpt lat="54.521968" lon="-3.045056"><ele>261</ele><time>2023-08-09T13:05:39Z</time><name>PT3595</name></trkpt>
<trkpt lat="54.522020" lon="-3.045064"><ele>262</ele><time>2023-08-09T13:05:43Z</time><name>PT3596</name></trkpt>
<trkpt lat="54.522073" lon="-3.045079"><ele>264</ele><time>2023-08-09T13:05:47Z</time><name>PT3597</name></trkpt>
<trkpt lat="54.522093" lon="-3.045106"><ele>264</ele><time>2023-08-09T13:05:50Z</time><name>PT3598</name></trkpt>
<trkpt lat="54.522135" lon="-3.045135"><ele>266</ele><time>2023-08-09T13:05:54Z</time><name>PT3599</name></trkpt>
<trkpt lat="54.522157" lon="-3.045165"><ele>265</ele><time>2023-08-09T13:05:57Z</time><name>PT3600</name></trkpt>
<trkpt lat="54.522187" lon="-3.045179"><ele>265</ele><time>2023-08-09T13:06:00Z</time><name>PT3601</name></trkpt>
<trkpt lat="54.522219" lon="-3.045196"><ele>266</ele><time>2023-08-09T13:06:03Z</time><name>PT3602</name></trkpt>
<trkpt lat="54.522266" lon="-3.045212"><ele>268</ele><time>2023-08-09T13:06:07Z</time><name>PT3603</name></trkpt>
<trkpt lat="54.522312" lon="-3.045225"><ele>270</ele><time>2023-08-09T13:06:10Z</time><name>PT3604</name></trkpt>
<trkpt lat="54.522353" lon="-3.045230"><ele>269</ele><time>2023-08-09T13:06:14Z</time><name>PT3605</name></trkpt>
<trkpt lat="54.522387" lon="-3.045244"><ele>269</ele><time>2023-08-09T13:06:18Z</time><name>PT3606</name></trkpt>
<trkpt lat="54.522414" lon="-3.045258"><ele>268</ele><time>2023-08-09T13:06:21Z</time><name>PT3607</name></trkpt>
<trkpt lat="54.522460" lon="-3.045269"><ele>268</ele><time>2023-08-09T13:06:25Z</time><name>PT3608</name></trkpt>
<trkpt lat="54.522516" lon="-3.045295"><ele>269</ele><time>2023-08-09T13:06:29Z</time><name>PT3609</name></trkpt>
<trkpt lat="54.522546" lon="-3.045281"><ele>267</ele><time>2023-08-09T13:06:32Z</time><name>PT3610</name></trkpt>
<trkpt lat="54.522586" lon="-3.045292"><ele>268</ele><time>2023-08-09T13:06:35Z</time><name>PT3611</name></trkpt>
<trkpt lat="54.522633" lon="-3.045307"><ele>269</ele><time>2023-08-09T13:06:39Z</time><name>PT3612</name></trkpt>
<trkpt lat="54.522666" lon="-3.045302"><ele>269</ele><time>2023-08-09T13:06:42Z</time><name>PT3613</name></trkpt>
<trkpt lat="54.522717" lon="-3.045322"><ele>269</ele><time>2023-08-09T13:06:46Z</time><name>PT3614</name></trkpt>
<trkpt lat="54.522737" lon="-3.045329"><ele>268</ele><time>2023-08-09T13:06:49Z</time><name>PT3615</name></trkpt>
<trkpt lat="54.522781" lon="-3.045342"><ele>269</ele><time>2023-08-09T13:06:52Z</time><name>PT3616</name></trkpt>
<trkpt lat="54.522828" lon="-3.045353"><ele>270</ele><time>2023-08-09T13:06:56Z</time><name>PT3617</name></trkpt>
<trkpt lat="54.522867" lon="-3.045392"><ele>271</ele><time>2023-08-09T13:07:00Z</time><name>PT3618</name></trkpt>
<trkpt lat="54.522900" lon="-3.045421"><ele>267</ele><time>2023-08-09T13:07:04Z</time><name>PT3619</name></trkpt>
<trkpt lat="54.522933" lon="-3.045458"><ele>266</ele><time>2023-08-09T13:07:08Z</time><name>PT3620</name></trkpt>
<trkpt lat="54.522967" lon="-3.045493"><ele>265</ele><time>2023-08-09T13:07:12Z</time><name>PT3621</name></trkpt>
<trkpt lat="54.523001" lon="-3.045518"><ele>263</ele><time>2023-08-09T13:07:16Z</time><name>PT3622</name></trkpt>
<trkpt lat="54.523030" lon="-3.045546"><ele>262</ele><time>2023-08-09T13:07:19Z</time><name>PT3623</name></trkpt>
<trkpt lat="54.523053" lon="-3.045591"><ele>262</ele><time>2023-08-09T13:07:23Z</time><name>PT3624</name></trkpt>
<trkpt lat="54.523095" lon="-3.045645"><ele>264</ele><time>2023-08-09T13:07:27Z</time><name>PT3625</name></trkpt>
<trkpt lat="54.523122" lon="-3.045677"><ele>265</ele><time>2023-08-09T13:07:30Z</time><name>PT3626</name></trkpt>
<trkpt lat="54.523147" lon="-3.045714"><ele>265</ele><time>2023-08-09T13:07:34Z</time><name>PT3627</name></trkpt>
<trkpt lat="54.523180" lon="-3.045742"><ele>263</ele><time>2023-08-09T13:07:38Z</time><name>PT3628</name></trkpt>
<trkpt lat="54.523202" lon="-3.045766"><ele>262</ele><time>2023-08-09T13:07:41Z</time><name>PT3629</name></trkpt>
<trkpt lat="54.523225" lon="-3.045786"><ele>262</ele><time>2023-08-09T13:07:44Z</time><name>PT3630</name></trkpt>
<trkpt lat="54.523260" lon="-3.045814"><ele>262</ele><time>2023-08-09T13:07:48Z</time><name>PT3631</name></trkpt>
<trkpt lat="54.523296" lon="-3.045840"><ele>261</ele><time>2023-08-09T13:07:52Z</time><name>PT3632</name></trkpt>
<trkpt lat="54.523342" lon="-3.045872"><ele>261</ele><time>2023-08-09T13:07:56Z</time><name>PT3633</name></trkpt>
<trkpt lat="54.523380" lon="-3.045887"><ele>260</ele><time>2023-08-09T13:08:00Z</time><name>PT3634</name></trkpt>
<trkpt lat="54.523418" lon="-3.045913"><ele>260</ele><time>2023-08-09T13:08:03Z</time><name>PT3635</name></trkpt>
<trkpt lat="54.523454" lon="-3.045938"><ele>260</ele><time>2023-08-09T13:08:07Z</time><name>PT3636</name></trkpt>
<trkpt lat="54.523487" lon="-3.045953"><ele>260</ele><time>2023-08-09T13:08:10Z</time><name>PT3637</name></trkpt>
<trkpt lat="54.523501" lon="-3.045943"><ele>260</ele><time>2023-08-09T13:08:14Z</time><name>PT3638</name></trkpt>
<trkpt lat="54.523519" lon="-3.045956"><ele>260</ele><time>2023-08-09T13:08:24Z</time><name>PT3639</name></trkpt>
<trkpt lat="54.523570" lon="-3.045976"><ele>258</ele><time>2023-08-09T13:08:28Z</time><name>PT3640</name></trkpt>
<trkpt lat="54.523603" lon="-3.045968"><ele>258</ele><time>2023-08-09T13:08:31Z</time><name>PT3641</name></trkpt>
<trkpt lat="54.523642" lon="-3.045976"><ele>257</ele><time>2023-08-09T13:08:35Z</time><name>PT3642</name></trkpt>
<trkpt lat="54.523645" lon="-3.045972"><ele>257</ele><time>2023-08-09T13:08:39Z</time><name>PT3643</name></trkpt>
<trkpt lat="54.523644" lon="-3.045973"><ele>257</ele><time>2023-08-09T13:08:42Z</time><name>PT3644</name></trkpt>
<trkpt lat="54.523645" lon="-3.045969"><ele>256</ele><time>2023-08-09T13:08:59Z</time><name>PT3645</name></trkpt>
<trkpt lat="54.523695" lon="-3.045990"><ele>256</ele><time>2023-08-09T13:09:03Z</time><name>PT3646</name></trkpt>
<trkpt lat="54.523728" lon="-3.046032"><ele>255</ele><time>2023-08-09T13:09:07Z</time><name>PT3647</name></trkpt>
<trkpt lat="54.523761" lon="-3.046061"><ele>255</ele><time>2023-08-09T13:09:10Z</time><name>PT3648</name></trkpt>
<trkpt lat="54.523792" lon="-3.046110"><ele>254</ele><time>2023-08-09T13:09:13Z</time><name>PT3649</name></trkpt>
<trkpt lat="54.523817" lon="-3.046163"><ele>255</ele><time>2023-08-09T13:09:17Z</time><name>PT3650</name></trkpt>
<trkpt lat="54.523821" lon="-3.046179"><ele>257</ele><time>2023-08-09T13:09:20Z</time><name>PT3651</name></trkpt>
<trkpt lat="54.523822" lon="-3.046179"><ele>257</ele><time>2023-08-09T13:09:23Z</time><name>PT3652</name></trkpt>
<trkpt lat="54.523817" lon="-3.046159"><ele>256</ele><time>2023-08-09T13:09:27Z</time><name>PT3653</name></trkpt>
<trkpt lat="54.523791" lon="-3.046124"><ele>257</ele><time>2023-08-09T13:09:31Z</time><name>PT3654</name></trkpt>
<trkpt lat="54.523761" lon="-3.046094"><ele>257</ele><time>2023-08-09T13:09:35Z</time><name>PT3655</name></trkpt>
<trkpt lat="54.523735" lon="-3.046069"><ele>258</ele><time>2023-08-09T13:09:38Z</time><name>PT3656</name></trkpt>
<trkpt lat="54.523730" lon="-3.046067"><ele>258</ele><time>2023-08-09T13:09:42Z</time><name>PT3657</name></trkpt>
<trkpt lat="54.523710" lon="-3.046047"><ele>258</ele><time>2023-08-09T13:09:46Z</time><name>PT3658</name></trkpt>
<trkpt lat="54.523672" lon="-3.046032"><ele>258</ele><time>2023-08-09T13:09:50Z</time><name>PT3659</name></trkpt>
<trkpt lat="54.523668" lon="-3.046024"><ele>258</ele><time>2023-08-09T13:09:54Z</time><name>PT3660</name></trkpt>
<trkpt lat="54.523685" lon="-3.046032"><ele>259</ele><time>2023-08-09T13:09:57Z</time><name>PT3661</name></trkpt>
<trkpt lat="54.523716" lon="-3.046057"><ele>258</ele><time>2023-08-09T13:10:01Z</time><name>PT3662</name></trkpt>
<trkpt lat="54.523748" lon="-3.046094"><ele>258</ele><time>2023-08-09T13:10:05Z</time><name>PT3663</name></trkpt>
<trkpt lat="54.523790" lon="-3.046135"><ele>256</ele><time>2023-08-09T13:10:09Z</time><name>PT3664</name></trkpt>
<trkpt lat="54.523822" lon="-3.046174"><ele>256</ele><time>2023-08-09T13:10:13Z</time><name>PT3665</name></trkpt>
<trkpt lat="54.523851" lon="-3.046212"><ele>255</ele><time>2023-08-09T13:10:17Z</time><name>PT3666</name></trkpt>
<trkpt lat="54.523881" lon="-3.046249"><ele>254</ele><time>2023-08-09T13:10:21Z</time><name>PT3667</name></trkpt>
<trkpt lat="54.523906" lon="-3.046295"><ele>253</ele><time>2023-08-09T13:10:25Z</time><name>PT3668</name></trkpt>
<trkpt lat="54.523927" lon="-3.046325"><ele>252</ele><time>2023-08-09T13:10:28Z</time><name>PT3669</name></trkpt>
<trkpt lat="54.523953" lon="-3.046371"><ele>252</ele><time>2023-08-09T13:10:32Z</time><name>PT3670</name></trkpt>
<trkpt lat="54.523984" lon="-3.046428"><ele>252</ele><time>2023-08-09T13:10:36Z</time><name>PT3671</name></trkpt>
<trkpt lat="54.524007" lon="-3.046450"><ele>252</ele><time>2023-08-09T13:10:39Z</time><name>PT3672</name></trkpt>
<trkpt lat="54.524037" lon="-3.046477"><ele>251</ele><time>2023-08-09T13:10:43Z</time><name>PT3673</name></trkpt>
<trkpt lat="54.524047" lon="-3.046544"><ele>253</ele><time>2023-08-09T13:10:47Z</time><name>PT3674</name></trkpt>
<trkpt lat="54.524081" lon="-3.046587"><ele>253</ele><time>2023-08-09T13:10:51Z</time><name>PT3675</name></trkpt>
<trkpt lat="54.524106" lon="-3.046603"><ele>253</ele><time>2023-08-09T13:10:54Z</time><name>PT3676</name></trkpt>
<trkpt lat="54.524134" lon="-3.046624"><ele>251</ele><time>2023-08-09T13:10:58Z</time><name>PT3677</name></trkpt>
<trkpt lat="54.524158" lon="-3.046626"><ele>249</ele><time>2023-08-09T13:11:02Z</time><name>PT3678</name></trkpt>
<trkpt lat="54.524160" lon="-3.046625"><ele>249</ele><time>2023-08-09T13:11:05Z</time><name>PT3679</name></trkpt>
<trkpt lat="54.524172" lon="-3.046638"><ele>248</ele><time>2023-08-09T13:11:09Z</time><name>PT3680</name></trkpt>
<trkpt lat="54.524198" lon="-3.046664"><ele>248</ele><time>2023-08-09T13:11:12Z</time><name>PT3681</name></trkpt>
<trkpt lat="54.524236" lon="-3.046693"><ele>247</ele><time>2023-08-09T13:11:16Z</time><name>PT3682</name></trkpt>
<trkpt lat="54.524262" lon="-3.046755"><ele>245</ele><time>2023-08-09T13:11:20Z</time><name>PT3683</name></trkpt>
<trkpt lat="54.524294" lon="-3.046808"><ele>245</ele><time>2023-08-09T13:11:24Z</time><name>PT3684</name></trkpt>
<trkpt lat="54.524316" lon="-3.046867"><ele>243</ele><time>2023-08-09T13:11:28Z</time><name>PT3685</name></trkpt>
<trkpt lat="54.524332" lon="-3.046912"><ele>241</ele><time>2023-08-09T13:11:31Z</time><name>PT3686</name></trkpt>
<trkpt lat="54.524332" lon="-3.046990"><ele>240</ele><time>2023-08-09T13:11:35Z</time><name>PT3687</name></trkpt>
<trkpt lat="54.524343" lon="-3.047056"><ele>238</ele><time>2023-08-09T13:11:38Z</time><name>PT3688</name></trkpt>
<trkpt lat="54.524368" lon="-3.047111"><ele>237</ele><time>2023-08-09T13:11:41Z</time><name>PT3689</name></trkpt>
<trkpt lat="54.524396" lon="-3.047139"><ele>236</ele><time>2023-08-09T13:11:44Z</time><name>PT3690</name></trkpt>
<trkpt lat="54.524420" lon="-3.047153"><ele>236</ele><time>2023-08-09T13:11:47Z</time><name>PT3691</name></trkpt>
<trkpt lat="54.524447" lon="-3.047171"><ele>236</ele><time>2023-08-09T13:11:50Z</time><name>PT3692</name></trkpt>
<trkpt lat="54.524468" lon="-3.047189"><ele>236</ele><time>2023-08-09T13:11:53Z</time><name>PT3693</name></trkpt>
<trkpt lat="54.524485" lon="-3.047200"><ele>235</ele><time>2023-08-09T13:11:56Z</time><name>PT3694</name></trkpt>
<trkpt lat="54.524524" lon="-3.047228"><ele>233</ele><time>2023-08-09T13:12:00Z</time><name>PT3695</name></trkpt>
<trkpt lat="54.524553" lon="-3.047289"><ele>231</ele><time>2023-08-09T13:12:04Z</time><name>PT3696</name></trkpt>
<trkpt lat="54.524578" lon="-3.047389"><ele>230</ele><time>2023-08-09T13:12:08Z</time><name>PT3697</name></trkpt>
<trkpt lat="54.524602" lon="-3.047432"><ele>228</ele><time>2023-08-09T13:12:12Z</time><name>PT3698</name></trkpt>
<trkpt lat="54.524642" lon="-3.047499"><ele>229</ele><time>2023-08-09T13:12:16Z</time><name>PT3699</name></trkpt>
<trkpt lat="54.524685" lon="-3.047576"><ele>229</ele><time>2023-08-09T13:12:20Z</time><name>PT3700</name></trkpt>
<trkpt lat="54.524726" lon="-3.047630"><ele>230</ele><time>2023-08-09T13:12:24Z</time><name>PT3701</name></trkpt>
<trkpt lat="54.524761" lon="-3.047663"><ele>229</ele><time>2023-08-09T13:12:27Z</time><name>PT3702</name></trkpt>
<trkpt lat="54.524808" lon="-3.047718"><ele>230</ele><time>2023-08-09T13:12:31Z</time><name>PT3703</name></trkpt>
<trkpt lat="54.524852" lon="-3.047740"><ele>229</ele><time>2023-08-09T13:12:35Z</time><name>PT3704</name></trkpt>
<trkpt lat="54.524895" lon="-3.047761"><ele>227</ele><time>2023-08-09T13:12:39Z</time><name>PT3705</name></trkpt>
<trkpt lat="54.524952" lon="-3.047791"><ele>227</ele><time>2023-08-09T13:12:43Z</time><name>PT3706</name></trkpt>
<trkpt lat="54.524983" lon="-3.047795"><ele>227</ele><time>2023-08-09T13:12:46Z</time><name>PT3707</name></trkpt>
<trkpt lat="54.525022" lon="-3.047827"><ele>224</ele><time>2023-08-09T13:12:50Z</time><name>PT3708</name></trkpt>
<trkpt lat="54.525075" lon="-3.047856"><ele>226</ele><time>2023-08-09T13:12:53Z</time><name>PT3709</name></trkpt>
<trkpt lat="54.525110" lon="-3.047863"><ele>227</ele><time>2023-08-09T13:12:56Z</time><name>PT3710</name></trkpt>
<trkpt lat="54.525144" lon="-3.047893"><ele>225</ele><time>2023-08-09T13:12:59Z</time><name>PT3711</name></trkpt>
<trkpt lat="54.525199" lon="-3.047940"><ele>226</ele><time>2023-08-09T13:13:03Z</time><name>PT3712</name></trkpt>
<trkpt lat="54.525224" lon="-3.047960"><ele>226</ele><time>2023-08-09T13:13:06Z</time><name>PT3713</name></trkpt>
<trkpt lat="54.525275" lon="-3.048001"><ele>225</ele><time>2023-08-09T13:13:10Z</time><name>PT3714</name></trkpt>
<trkpt lat="54.525301" lon="-3.048022"><ele>225</ele><time>2023-08-09T13:13:13Z</time><name>PT3715</name></trkpt>
<trkpt lat="54.525352" lon="-3.048064"><ele>226</ele><time>2023-08-09T13:13:17Z</time><name>PT3716</name></trkpt>
<trkpt lat="54.525390" lon="-3.048087"><ele>225</ele><time>2023-08-09T13:13:21Z</time><name>PT3717</name></trkpt>
<trkpt lat="54.525435" lon="-3.048113"><ele>224</ele><time>2023-08-09T13:13:24Z</time><name>PT3718</name></trkpt>
<trkpt lat="54.525479" lon="-3.048130"><ele>224</ele><time>2023-08-09T13:13:28Z</time><name>PT3719</name></trkpt>
<trkpt lat="54.525505" lon="-3.048165"><ele>222</ele><time>2023-08-09T13:13:31Z</time><name>PT3720</name></trkpt>
<trkpt lat="54.525548" lon="-3.048183"><ele>222</ele><time>2023-08-09T13:13:35Z</time><name>PT3721</name></trkpt>
<trkpt lat="54.525593" lon="-3.048209"><ele>223</ele><time>2023-08-09T13:13:38Z</time><name>PT3722</name></trkpt>
<trkpt lat="54.525637" lon="-3.048247"><ele>223</ele><time>2023-08-09T13:13:42Z</time><name>PT3723</name></trkpt>
<trkpt lat="54.525698" lon="-3.048278"><ele>222</ele><time>2023-08-09T13:13:46Z</time><name>PT3724</name></trkpt>
<trkpt lat="54.525736" lon="-3.048301"><ele>222</ele><time>2023-08-09T13:13:49Z</time><name>PT3725</name></trkpt>
<trkpt lat="54.525770" lon="-3.048332"><ele>222</ele><time>2023-08-09T13:13:52Z</time><name>PT3726</name></trkpt>
<trkpt lat="54.525820" lon="-3.048374"><ele>223</ele><time>2023-08-09T13:13:56Z</time><name>PT3727</name></trkpt>
<trkpt lat="54.525857" lon="-3.048410"><ele>223</ele><time>2023-08-09T13:14:00Z</time><name>PT3728</name></trkpt>
<trkpt lat="54.525887" lon="-3.048463"><ele>224</ele><time>2023-08-09T13:14:03Z</time><name>PT3729</name></trkpt>
<trkpt lat="54.525915" lon="-3.048510"><ele>225</ele><time>2023-08-09T13:14:07Z</time><name>PT3730</name></trkpt>
<trkpt lat="54.525964" lon="-3.048558"><ele>223</ele><time>2023-08-09T13:14:11Z</time><name>PT3731</name></trkpt>
<trkpt lat="54.525992" lon="-3.048585"><ele>224</ele><time>2023-08-09T13:14:14Z</time><name>PT3732</name></trkpt>
<trkpt lat="54.526042" lon="-3.048635"><ele>225</ele><time>2023-08-09T13:14:18Z</time><name>PT3733</name></trkpt>
<trkpt lat="54.526086" lon="-3.048669"><ele>226</ele><time>2023-08-09T13:14:22Z</time><name>PT3734</name></trkpt>
<trkpt lat="54.526123" lon="-3.048724"><ele>227</ele><time>2023-08-09T13:14:26Z</time><name>PT3735</name></trkpt>
<trkpt lat="54.526153" lon="-3.048752"><ele>226</ele><time>2023-08-09T13:14:29Z</time><name>PT3736</name></trkpt>
<trkpt lat="54.526188" lon="-3.048782"><ele>225</ele><time>2023-08-09T13:14:32Z</time><name>PT3737</name></trkpt>
<trkpt lat="54.526233" lon="-3.048810"><ele>224</ele><time>2023-08-09T13:14:36Z</time><name>PT3738</name></trkpt>
<trkpt lat="54.526274" lon="-3.048832"><ele>225</ele><time>2023-08-09T13:14:39Z</time><name>PT3739</name></trkpt>
<trkpt lat="54.526321" lon="-3.048868"><ele>225</ele><time>2023-08-09T13:14:43Z</time><name>PT3740</name></trkpt>
<trkpt lat="54.526355" lon="-3.048911"><ele>225</ele><time>2023-08-09T13:14:47Z</time><name>PT3741</name></trkpt>
<trkpt lat="54.526396" lon="-3.048952"><ele>226</ele><time>2023-08-09T13:14:50Z</time><name>PT3742</name></trkpt>
<trkpt lat="54.526423" lon="-3.048980"><ele>226</ele><time>2023-08-09T13:14:53Z</time><name>PT3743</name></trkpt>
<trkpt lat="54.526450" lon="-3.049015"><ele>225</ele><time>2023-08-09T13:14:56Z</time><name>PT3744</name></trkpt>
<trkpt lat="54.526478" lon="-3.049057"><ele>225</ele><time>2023-08-09T13:14:59Z</time><name>PT3745</name></trkpt>
<trkpt lat="54.526518" lon="-3.049109"><ele>226</ele><time>2023-08-09T13:15:03Z</time><name>PT3746</name></trkpt>
<trkpt lat="54.526541" lon="-3.049137"><ele>227</ele><time>2023-08-09T13:15:06Z</time><name>PT3747</name></trkpt>
<trkpt lat="54.526587" lon="-3.049184"><ele>227</ele><time>2023-08-09T13:15:10Z</time><name>PT3748</name></trkpt>
<trkpt lat="54.526630" lon="-3.049205"><ele>229</ele><time>2023-08-09T13:15:14Z</time><name>PT3749</name></trkpt>
<trkpt lat="54.526666" lon="-3.049240"><ele>230</ele><time>2023-08-09T13:15:17Z</time><name>PT3750</name></trkpt>
<trkpt lat="54.526701" lon="-3.049283"><ele>230</ele><time>2023-08-09T13:15:21Z</time><name>PT3751</name></trkpt>
<trkpt lat="54.526735" lon="-3.049319"><ele>230</ele><time>2023-08-09T13:15:25Z</time><name>PT3752</name></trkpt>
<trkpt lat="54.526772" lon="-3.049351"><ele>231</ele><time>2023-08-09T13:15:28Z</time><name>PT3753</name></trkpt>
<trkpt lat="54.526798" lon="-3.049366"><ele>231</ele><time>2023-08-09T13:15:31Z</time><name>PT3754</name></trkpt>
<trkpt lat="54.526837" lon="-3.049400"><ele>231</ele><time>2023-08-09T13:15:35Z</time><name>PT3755</name></trkpt>
<trkpt lat="54.526867" lon="-3.049428"><ele>232</ele><time>2023-08-09T13:15:38Z</time><name>PT3756</name></trkpt>
<trkpt lat="54.526899" lon="-3.049452"><ele>232</ele><time>2023-08-09T13:15:41Z</time><name>PT3757</name></trkpt>
<trkpt lat="54.526942" lon="-3.049479"><ele>232</ele><time>2023-08-09T13:15:45Z</time><name>PT3758</name></trkpt>
<trkpt lat="54.526977" lon="-3.049501"><ele>232</ele><time>2023-08-09T13:15:48Z</time><name>PT3759</name></trkpt>
<trkpt lat="54.527024" lon="-3.049518"><ele>232</ele><time>2023-08-09T13:15:52Z</time><name>PT3760</name></trkpt>
<trkpt lat="54.527058" lon="-3.049542"><ele>232</ele><time>2023-08-09T13:15:55Z</time><name>PT3761</name></trkpt>
<trkpt lat="54.527105" lon="-3.049556"><ele>231</ele><time>2023-08-09T13:15:59Z</time><name>PT3762</name></trkpt>
<trkpt lat="54.527137" lon="-3.049570"><ele>231</ele><time>2023-08-09T13:16:02Z</time><name>PT3763</name></trkpt>
<trkpt lat="54.527177" lon="-3.049577"><ele>232</ele><time>2023-08-09T13:16:05Z</time><name>PT3764</name></trkpt>
<trkpt lat="54.527227" lon="-3.049580"><ele>232</ele><time>2023-08-09T13:16:08Z</time><name>PT3765</name></trkpt>
<trkpt lat="54.527275" lon="-3.049589"><ele>232</ele><time>2023-08-09T13:16:12Z</time><name>PT3766</name></trkpt>
<trkpt lat="54.527322" lon="-3.049594"><ele>232</ele><time>2023-08-09T13:16:15Z</time><name>PT3767</name></trkpt>
<trkpt lat="54.527369" lon="-3.049589"><ele>232</ele><time>2023-08-09T13:16:19Z</time><name>PT3768</name></trkpt>
<trkpt lat="54.527433" lon="-3.049594"><ele>232</ele><time>2023-08-09T13:16:23Z</time><name>PT3769</name></trkpt>
<trkpt lat="54.527480" lon="-3.049597"><ele>232</ele><time>2023-08-09T13:16:27Z</time><name>PT3770</name></trkpt>
<trkpt lat="54.527540" lon="-3.049609"><ele>233</ele><time>2023-08-09T13:16:31Z</time><name>PT3771</name></trkpt>
<trkpt lat="54.527580" lon="-3.049616"><ele>232</ele><time>2023-08-09T13:16:35Z</time><name>PT3772</name></trkpt>
<trkpt lat="54.527633" lon="-3.049622"><ele>232</ele><time>2023-08-09T13:16:38Z</time><name>PT3773</name></trkpt>
<trkpt lat="54.527654" lon="-3.049636"><ele>232</ele><time>2023-08-09T13:16:41Z</time><name>PT3774</name></trkpt>
<trkpt lat="54.527710" lon="-3.049653"><ele>231</ele><time>2023-08-09T13:16:45Z</time><name>PT3775</name></trkpt>
<trkpt lat="54.527763" lon="-3.049676"><ele>231</ele><time>2023-08-09T13:16:49Z</time><name>PT3776</name></trkpt>
<trkpt lat="54.527796" lon="-3.049686"><ele>229</ele><time>2023-08-09T13:16:53Z</time><name>PT3777</name></trkpt>
<trkpt lat="54.527837" lon="-3.049725"><ele>229</ele><time>2023-08-09T13:16:56Z</time><name>PT3778</name></trkpt>
<trkpt lat="54.527871" lon="-3.049751"><ele>228</ele><time>2023-08-09T13:17:00Z</time><name>PT3779</name></trkpt>
<trkpt lat="54.527913" lon="-3.049780"><ele>228</ele><time>2023-08-09T13:17:03Z</time><name>PT3780</name></trkpt>
<trkpt lat="54.527957" lon="-3.049790"><ele>227</ele><time>2023-08-09T13:17:07Z</time><name>PT3781</name></trkpt>
<trkpt lat="54.527992" lon="-3.049811"><ele>225</ele><time>2023-08-09T13:17:10Z</time><name>PT3782</name></trkpt>
<trkpt lat="54.528033" lon="-3.049828"><ele>225</ele><time>2023-08-09T13:17:13Z</time><name>PT3783</name></trkpt>
<trkpt lat="54.528080" lon="-3.049844"><ele>225</ele><time>2023-08-09T13:17:17Z</time><name>PT3784</name></trkpt>
<trkpt lat="54.528123" lon="-3.049877"><ele>225</ele><time>2023-08-09T13:17:20Z</time><name>PT3785</name></trkpt>
<trkpt lat="54.528151" lon="-3.049890"><ele>225</ele><time>2023-08-09T13:17:23Z</time><name>PT3786</name></trkpt>
<trkpt lat="54.528202" lon="-3.049924"><ele>224</ele><time>2023-08-09T13:17:27Z</time><name>PT3787</name></trkpt>
<trkpt lat="54.528223" lon="-3.049934"><ele>224</ele><time>2023-08-09T13:17:30Z</time><name>PT3788</name></trkpt>
<trkpt lat="54.528256" lon="-3.049947"><ele>222</ele><time>2023-08-09T13:17:33Z</time><name>PT3789</name></trkpt>
<trkpt lat="54.528274" lon="-3.049986"><ele>222</ele><time>2023-08-09T13:17:36Z</time><name>PT3790</name></trkpt>
<trkpt lat="54.528330" lon="-3.050021"><ele>223</ele><time>2023-08-09T13:17:40Z</time><name>PT3791</name></trkpt>
<trkpt lat="54.528383" lon="-3.050049"><ele>221</ele><time>2023-08-09T13:17:44Z</time><name>PT3792</name></trkpt>
<trkpt lat="54.528431" lon="-3.050085"><ele>221</ele><time>2023-08-09T13:17:48Z</time><name>PT3793</name></trkpt>
<trkpt lat="54.528472" lon="-3.050100"><ele>220</ele><time>2023-08-09T13:17:52Z</time><name>PT3794</name></trkpt>
<trkpt lat="54.528514" lon="-3.050107"><ele>221</ele><time>2023-08-09T13:17:55Z</time><name>PT3795</name></trkpt>
<trkpt lat="54.528551" lon="-3.050128"><ele>220</ele><time>2023-08-09T13:17:59Z</time><name>PT3796</name></trkpt>
<trkpt lat="54.528596" lon="-3.050144"><ele>221</ele><time>2023-08-09T13:18:02Z</time><name>PT3797</name></trkpt>
<trkpt lat="54.528639" lon="-3.050157"><ele>222</ele><time>2023-08-09T13:18:06Z</time><name>PT3798</name></trkpt>
<trkpt lat="54.528683" lon="-3.050203"><ele>224</ele><time>2023-08-09T13:18:10Z</time><name>PT3799</name></trkpt>
<trkpt lat="54.528724" lon="-3.050207"><ele>224</ele><time>2023-08-09T13:18:14Z</time><name>PT3800</name></trkpt>
<trkpt lat="54.528778" lon="-3.050211"><ele>226</ele><time>2023-08-09T13:18:18Z</time><name>PT3801</name></trkpt>
<trkpt lat="54.528811" lon="-3.050214"><ele>226</ele><time>2023-08-09T13:18:21Z</time><name>PT3802</name></trkpt>
<trkpt lat="54.528860" lon="-3.050220"><ele>227</ele><time>2023-08-09T13:18:24Z</time><name>PT3803</name></trkpt>
<trkpt lat="54.528874" lon="-3.050223"><ele>226</ele><time>2023-08-09T13:18:27Z</time><name>PT3804</name></trkpt>
<trkpt lat="54.528920" lon="-3.050232"><ele>227</ele><time>2023-08-09T13:18:31Z</time><name>PT3805</name></trkpt>
<trkpt lat="54.528952" lon="-3.050243"><ele>229</ele><time>2023-08-09T13:18:34Z</time><name>PT3806</name></trkpt>
<trkpt lat="54.528991" lon="-3.050263"><ele>231</ele><time>2023-08-09T13:18:38Z</time><name>PT3807</name></trkpt>
<trkpt lat="54.529018" lon="-3.050291"><ele>231</ele><time>2023-08-09T13:18:41Z</time><name>PT3808</name></trkpt>
<trkpt lat="54.529058" lon="-3.050315"><ele>231</ele><time>2023-08-09T13:18:45Z</time><name>PT3809</name></trkpt>
<trkpt lat="54.529081" lon="-3.050335"><ele>232</ele><time>2023-08-09T13:18:48Z</time><name>PT3810</name></trkpt>
<trkpt lat="54.529119" lon="-3.050342"><ele>231</ele><time>2023-08-09T13:18:51Z</time><name>PT3811</name></trkpt>
<trkpt lat="54.529166" lon="-3.050355"><ele>234</ele><time>2023-08-09T13:18:55Z</time><name>PT3812</name></trkpt>
<trkpt lat="54.529205" lon="-3.050390"><ele>234</ele><time>2023-08-09T13:18:59Z</time><name>PT3813</name></trkpt>
<trkpt lat="54.529249" lon="-3.050388"><ele>234</ele><time>2023-08-09T13:19:03Z</time><name>PT3814</name></trkpt>
<trkpt lat="54.529277" lon="-3.050422"><ele>235</ele><time>2023-08-09T13:19:07Z</time><name>PT3815</name></trkpt>
<trkpt lat="54.529307" lon="-3.050425"><ele>234</ele><time>2023-08-09T13:19:10Z</time><name>PT3816</name></trkpt>
<trkpt lat="54.529327" lon="-3.050441"><ele>234</ele><time>2023-08-09T13:19:13Z</time><name>PT3817</name></trkpt>
<trkpt lat="54.529365" lon="-3.050453"><ele>237</ele><time>2023-08-09T13:19:16Z</time><name>PT3818</name></trkpt>
<trkpt lat="54.529403" lon="-3.050464"><ele>236</ele><time>2023-08-09T13:19:20Z</time><name>PT3819</name></trkpt>
<trkpt lat="54.529432" lon="-3.050469"><ele>236</ele><time>2023-08-09T13:19:23Z</time><name>PT3820</name></trkpt>
<trkpt lat="54.529480" lon="-3.050482"><ele>237</ele><time>2023-08-09T13:19:27Z</time><name>PT3821</name></trkpt>
<trkpt lat="54.529501" lon="-3.050483"><ele>237</ele><time>2023-08-09T13:19:30Z</time><name>PT3822</name></trkpt>
<trkpt lat="54.529544" lon="-3.050500"><ele>239</ele><time>2023-08-09T13:19:34Z</time><name>PT3823</name></trkpt>
<trkpt lat="54.529565" lon="-3.050523"><ele>241</ele><time>2023-08-09T13:19:37Z</time><name>PT3824</name></trkpt>
<trkpt lat="54.529605" lon="-3.050528"><ele>241</ele><time>2023-08-09T13:19:41Z</time><name>PT3825</name></trkpt>
<trkpt lat="54.529645" lon="-3.050523"><ele>241</ele><time>2023-08-09T13:19:44Z</time><name>PT3826</name></trkpt>
<trkpt lat="54.529689" lon="-3.050504"><ele>240</ele><time>2023-08-09T13:19:48Z</time><name>PT3827</name></trkpt>
<trkpt lat="54.529724" lon="-3.050510"><ele>242</ele><time>2023-08-09T13:19:51Z</time><name>PT3828</name></trkpt>
<trkpt lat="54.529753" lon="-3.050505"><ele>241</ele><time>2023-08-09T13:19:54Z</time><name>PT3829</name></trkpt>
<trkpt lat="54.529791" lon="-3.050518"><ele>243</ele><time>2023-08-09T13:19:58Z</time><name>PT3830</name></trkpt>
<trkpt lat="54.529833" lon="-3.050529"><ele>244</ele><time>2023-08-09T13:20:02Z</time><name>PT3831</name></trkpt>
<trkpt lat="54.529875" lon="-3.050527"><ele>244</ele><time>2023-08-09T13:20:06Z</time><name>PT3832</name></trkpt>
<trkpt lat="54.529887" lon="-3.050562"><ele>244</ele><time>2023-08-09T13:20:09Z</time><name>PT3833</name></trkpt>
<trkpt lat="54.529909" lon="-3.050573"><ele>244</ele><time>2023-08-09T13:20:12Z</time><name>PT3834</name></trkpt>
<trkpt lat="54.529944" lon="-3.050586"><ele>243</ele><time>2023-08-09T13:20:15Z</time><name>PT3835</name></trkpt>
<trkpt lat="54.529970" lon="-3.050599"><ele>243</ele><time>2023-08-09T13:20:18Z</time><name>PT3836</name></trkpt>
<trkpt lat="54.530004" lon="-3.050608"><ele>243</ele><time>2023-08-09T13:20:21Z</time><name>PT3837</name></trkpt>
<trkpt lat="54.530043" lon="-3.050620"><ele>243</ele><time>2023-08-09T13:20:25Z</time><name>PT3838</name></trkpt>
<trkpt lat="54.530074" lon="-3.050643"><ele>244</ele><time>2023-08-09T13:20:29Z</time><name>PT3839</name></trkpt>
<trkpt lat="54.530113" lon="-3.050646"><ele>244</ele><time>2023-08-09T13:20:32Z</time><name>PT3840</name></trkpt>
<trkpt lat="54.530158" lon="-3.050644"><ele>244</ele><time>2023-08-09T13:20:36Z</time><name>PT3841</name></trkpt>
<trkpt lat="54.530198" lon="-3.050640"><ele>244</ele><time>2023-08-09T13:20:39Z</time><name>PT3842</name></trkpt>
<trkpt lat="54.530231" lon="-3.050632"><ele>245</ele><time>2023-08-09T13:20:43Z</time><name>PT3843</name></trkpt>
<trkpt lat="54.530272" lon="-3.050630"><ele>245</ele><time>2023-08-09T13:20:47Z</time><name>PT3844</name></trkpt>
<trkpt lat="54.530310" lon="-3.050648"><ele>245</ele><time>2023-08-09T13:20:51Z</time><name>PT3845</name></trkpt>
<trkpt lat="54.530335" lon="-3.050649"><ele>246</ele><time>2023-08-09T13:20:54Z</time><name>PT3846</name></trkpt>
<trkpt lat="54.530373" lon="-3.050648"><ele>245</ele><time>2023-08-09T13:20:57Z</time><name>PT3847</name></trkpt>
<trkpt lat="54.530407" lon="-3.050649"><ele>246</ele><time>2023-08-09T13:21:01Z</time><name>PT3848</name></trkpt>
<trkpt lat="54.530439" lon="-3.050655"><ele>245</ele><time>2023-08-09T13:21:04Z</time><name>PT3849</name></trkpt>
<trkpt lat="54.530472" lon="-3.050644"><ele>246</ele><time>2023-08-09T13:21:08Z</time><name>PT3850</name></trkpt>
<trkpt lat="54.530517" lon="-3.050646"><ele>248</ele><time>2023-08-09T13:21:12Z</time><name>PT3851</name></trkpt>
<trkpt lat="54.530555" lon="-3.050646"><ele>247</ele><time>2023-08-09T13:21:16Z</time><name>PT3852</name></trkpt>
<trkpt lat="54.530587" lon="-3.050645"><ele>248</ele><time>2023-08-09T13:21:20Z</time><name>PT3853</name></trkpt>
<trkpt lat="54.530621" lon="-3.050645"><ele>248</ele><time>2023-08-09T13:21:23Z</time><name>PT3854</name></trkpt>
<trkpt lat="54.530644" lon="-3.050655"><ele>247</ele><time>2023-08-09T13:21:27Z</time><name>PT3855</name></trkpt>
<trkpt lat="54.530669" lon="-3.050663"><ele>247</ele><time>2023-08-09T13:21:30Z</time><name>PT3856</name></trkpt>
<trkpt lat="54.530711" lon="-3.050657"><ele>248</ele><time>2023-08-09T13:21:34Z</time><name>PT3857</name></trkpt>
<trkpt lat="54.530738" lon="-3.050660"><ele>248</ele><time>2023-08-09T13:21:38Z</time><name>PT3858</name></trkpt>
<trkpt lat="54.530765" lon="-3.050682"><ele>249</ele><time>2023-08-09T13:21:41Z</time><name>PT3859</name></trkpt>
<trkpt lat="54.530783" lon="-3.050714"><ele>251</ele><time>2023-08-09T13:21:44Z</time><name>PT3860</name></trkpt>
<trkpt lat="54.530816" lon="-3.050725"><ele>253</ele><time>2023-08-09T13:21:48Z</time><name>PT3861</name></trkpt>
<trkpt lat="54.530849" lon="-3.050745"><ele>255</ele><time>2023-08-09T13:21:52Z</time><name>PT3862</name></trkpt>
<trkpt lat="54.530885" lon="-3.050728"><ele>256</ele><time>2023-08-09T13:21:56Z</time><name>PT3863</name></trkpt>
<trkpt lat="54.530901" lon="-3.050744"><ele>257</ele><time>2023-08-09T13:21:59Z</time><name>PT3864</name></trkpt>
<trkpt lat="54.530926" lon="-3.050755"><ele>257</ele><time>2023-08-09T13:22:02Z</time><name>PT3865</name></trkpt>
<trkpt lat="54.530962" lon="-3.050766"><ele>258</ele><time>2023-08-09T13:22:06Z</time><name>PT3866</name></trkpt>
<trkpt lat="54.531011" lon="-3.050765"><ele>257</ele><time>2023-08-09T13:22:09Z</time><name>PT3867</name></trkpt>
<trkpt lat="54.531052" lon="-3.050758"><ele>256</ele><time>2023-08-09T13:22:13Z</time><name>PT3868</name></trkpt>
<trkpt lat="54.531106" lon="-3.050742"><ele>254</ele><time>2023-08-09T13:22:17Z</time><name>PT3869</name></trkpt>
<trkpt lat="54.531154" lon="-3.050761"><ele>253</ele><time>2023-08-09T13:22:21Z</time><name>PT3870</name></trkpt>
<trkpt lat="54.531198" lon="-3.050763"><ele>253</ele><time>2023-08-09T13:22:25Z</time><name>PT3871</name></trkpt>
<trkpt lat="54.531229" lon="-3.050784"><ele>252</ele><time>2023-08-09T13:22:29Z</time><name>PT3872</name></trkpt>
<trkpt lat="54.531261" lon="-3.050788"><ele>254</ele><time>2023-08-09T13:22:32Z</time><name>PT3873</name></trkpt>
<trkpt lat="54.531298" lon="-3.050801"><ele>254</ele><time>2023-08-09T13:22:35Z</time><name>PT3874</name></trkpt>
<trkpt lat="54.531346" lon="-3.050828"><ele>256</ele><time>2023-08-09T13:22:39Z</time><name>PT3875</name></trkpt>
<trkpt lat="54.531391" lon="-3.050842"><ele>258</ele><time>2023-08-09T13:22:43Z</time><name>PT3876</name></trkpt>
<trkpt lat="54.531420" lon="-3.050861"><ele>258</ele><time>2023-08-09T13:22:46Z</time><name>PT3877</name></trkpt>
<trkpt lat="54.531454" lon="-3.050883"><ele>259</ele><time>2023-08-09T13:22:50Z</time><name>PT3878</name></trkpt>
<trkpt lat="54.531488" lon="-3.050910"><ele>261</ele><time>2023-08-09T13:22:53Z</time><name>PT3879</name></trkpt>
<trkpt lat="54.531523" lon="-3.050934"><ele>263</ele><time>2023-08-09T13:22:56Z</time><name>PT3880</name></trkpt>
<trkpt lat="54.531559" lon="-3.050967"><ele>263</ele><time>2023-08-09T13:23:00Z</time><name>PT3881</name></trkpt>
<trkpt lat="54.531590" lon="-3.050989"><ele>263</ele><time>2023-08-09T13:23:03Z</time><name>PT3882</name></trkpt>
<trkpt lat="54.531631" lon="-3.051018"><ele>264</ele><time>2023-08-09T13:23:07Z</time><name>PT3883</name></trkpt>
<trkpt lat="54.531658" lon="-3.051035"><ele>264</ele><time>2023-08-09T13:23:10Z</time><name>PT3884</name></trkpt>
<trkpt lat="54.531703" lon="-3.051070"><ele>265</ele><time>2023-08-09T13:23:14Z</time><name>PT3885</name></trkpt>
<trkpt lat="54.531737" lon="-3.051083"><ele>264</ele><time>2023-08-09T13:23:17Z</time><name>PT3886</name></trkpt>
<trkpt lat="54.531788" lon="-3.051106"><ele>265</ele><time>2023-08-09T13:23:21Z</time><name>PT3887</name></trkpt>
<trkpt lat="54.531824" lon="-3.051137"><ele>266</ele><time>2023-08-09T13:23:24Z</time><name>PT3888</name></trkpt>
<trkpt lat="54.531851" lon="-3.051181"><ele>265</ele><time>2023-08-09T13:23:28Z</time><name>PT3889</name></trkpt>
<trkpt lat="54.531878" lon="-3.051207"><ele>264</ele><time>2023-08-09T13:23:31Z</time><name>PT3890</name></trkpt>
<trkpt lat="54.531910" lon="-3.051233"><ele>263</ele><time>2023-08-09T13:23:35Z</time><name>PT3891</name></trkpt>
<trkpt lat="54.531959" lon="-3.051278"><ele>262</ele><time>2023-08-09T13:23:39Z</time><name>PT3892</name></trkpt>
<trkpt lat="54.531982" lon="-3.051295"><ele>261</ele><time>2023-08-09T13:23:42Z</time><name>PT3893</name></trkpt>
<trkpt lat="54.532045" lon="-3.051332"><ele>264</ele><time>2023-08-09T13:23:46Z</time><name>PT3894</name></trkpt>
<trkpt lat="54.532075" lon="-3.051349"><ele>264</ele><time>2023-08-09T13:23:49Z</time><name>PT3895</name></trkpt>
<trkpt lat="54.532116" lon="-3.051393"><ele>266</ele><time>2023-08-09T13:23:53Z</time><name>PT3896</name></trkpt>
<trkpt lat="54.532152" lon="-3.051418"><ele>264</ele><time>2023-08-09T13:23:56Z</time><name>PT3897</name></trkpt>
<trkpt lat="54.532186" lon="-3.051451"><ele>265</ele><time>2023-08-09T13:23:59Z</time><name>PT3898</name></trkpt>
<trkpt lat="54.532210" lon="-3.051459"><ele>264</ele><time>2023-08-09T13:24:02Z</time><name>PT3899</name></trkpt>
<trkpt lat="54.532269" lon="-3.051492"><ele>264</ele><time>2023-08-09T13:24:06Z</time><name>PT3900</name></trkpt>
<trkpt lat="54.532323" lon="-3.051501"><ele>265</ele><time>2023-08-09T13:24:10Z</time><name>PT3901</name></trkpt>
<trkpt lat="54.532375" lon="-3.051522"><ele>267</ele><time>2023-08-09T13:24:14Z</time><name>PT3902</name></trkpt>
<trkpt lat="54.532403" lon="-3.051535"><ele>267</ele><time>2023-08-09T13:24:17Z</time><name>PT3903</name></trkpt>
<trkpt lat="54.532432" lon="-3.051562"><ele>267</ele><time>2023-08-09T13:24:20Z</time><name>PT3904</name></trkpt>
<trkpt lat="54.532478" lon="-3.051568"><ele>266</ele><time>2023-08-09T13:24:24Z</time><name>PT3905</name></trkpt>
<trkpt lat="54.532506" lon="-3.051583"><ele>265</ele><time>2023-08-09T13:24:27Z</time><name>PT3906</name></trkpt>
<trkpt lat="54.532539" lon="-3.051609"><ele>264</ele><time>2023-08-09T13:24:30Z</time><name>PT3907</name></trkpt>
<trkpt lat="54.532570" lon="-3.051649"><ele>263</ele><time>2023-08-09T13:24:33Z</time><name>PT3908</name></trkpt>
<trkpt lat="54.532628" lon="-3.051686"><ele>264</ele><time>2023-08-09T13:24:37Z</time><name>PT3909</name></trkpt>
<trkpt lat="54.532653" lon="-3.051720"><ele>265</ele><time>2023-08-09T13:24:40Z</time><name>PT3910</name></trkpt>
<trkpt lat="54.532694" lon="-3.051758"><ele>264</ele><time>2023-08-09T13:24:44Z</time><name>PT3911</name></trkpt>
<trkpt lat="54.532728" lon="-3.051767"><ele>263</ele><time>2023-08-09T13:24:48Z</time><name>PT3912</name></trkpt>
<trkpt lat="54.532782" lon="-3.051797"><ele>265</ele><time>2023-08-09T13:24:52Z</time><name>PT3913</name></trkpt>
<trkpt lat="54.532826" lon="-3.051814"><ele>267</ele><time>2023-08-09T13:24:56Z</time><name>PT3914</name></trkpt>
<trkpt lat="54.532874" lon="-3.051840"><ele>268</ele><time>2023-08-09T13:25:00Z</time><name>PT3915</name></trkpt>
<trkpt lat="54.532915" lon="-3.051850"><ele>268</ele><time>2023-08-09T13:25:04Z</time><name>PT3916</name></trkpt>
<trkpt lat="54.532944" lon="-3.051865"><ele>268</ele><time>2023-08-09T13:25:08Z</time><name>PT3917</name></trkpt>
<trkpt lat="54.532989" lon="-3.051854"><ele>269</ele><time>2023-08-09T13:25:12Z</time><name>PT3918</name></trkpt>
<trkpt lat="54.533026" lon="-3.051873"><ele>272</ele><time>2023-08-09T13:25:15Z</time><name>PT3919</name></trkpt>
<trkpt lat="54.533054" lon="-3.051902"><ele>270</ele><time>2023-08-09T13:25:19Z</time><name>PT3920</name></trkpt>
<trkpt lat="54.533094" lon="-3.051928"><ele>272</ele><time>2023-08-09T13:25:22Z</time><name>PT3921</name></trkpt>
<trkpt lat="54.533121" lon="-3.051944"><ele>272</ele><time>2023-08-09T13:25:25Z</time><name>PT3922</name></trkpt>
<trkpt lat="54.533166" lon="-3.051974"><ele>272</ele><time>2023-08-09T13:25:29Z</time><name>PT3923</name></trkpt>
<trkpt lat="54.533192" lon="-3.051996"><ele>273</ele><time>2023-08-09T13:25:32Z</time><name>PT3924</name></trkpt>
<trkpt lat="54.533211" lon="-3.052000"><ele>272</ele><time>2023-08-09T13:25:35Z</time><name>PT3925</name></trkpt>
<trkpt lat="54.533239" lon="-3.052005"><ele>274</ele><time>2023-08-09T13:25:38Z</time><name>PT3926</name></trkpt>
<trkpt lat="54.533273" lon="-3.051989"><ele>272</ele><time>2023-08-09T13:25:42Z</time><name>PT3927</name></trkpt>
<trkpt lat="54.533293" lon="-3.052002"><ele>273</ele><time>2023-08-09T13:25:45Z</time><name>PT3928</name></trkpt>
<trkpt lat="54.533320" lon="-3.052006"><ele>272</ele><time>2023-08-09T13:25:48Z</time><name>PT3929</name></trkpt>
<trkpt lat="54.533364" lon="-3.052017"><ele>274</ele><time>2023-08-09T13:25:52Z</time><name>PT3930</name></trkpt>
<trkpt lat="54.533419" lon="-3.052015"><ele>274</ele><time>2023-08-09T13:25:56Z</time><name>PT3931</name></trkpt>
<trkpt lat="54.533472" lon="-3.052021"><ele>275</ele><time>2023-08-09T13:26:00Z</time><name>PT3932</name></trkpt>
<trkpt lat="54.533518" lon="-3.052037"><ele>276</ele><time>2023-08-09T13:26:04Z</time><name>PT3933</name></trkpt>
<trkpt lat="54.533557" lon="-3.052052"><ele>277</ele><time>2023-08-09T13:26:08Z</time><name>PT3934</name></trkpt>
<trkpt lat="54.533597" lon="-3.052060"><ele>278</ele><time>2023-08-09T13:26:12Z</time><name>PT3935</name></trkpt>
<trkpt lat="54.533638" lon="-3.052076"><ele>278</ele><time>2023-08-09T13:26:16Z</time><name>PT3936</name></trkpt>
<trkpt lat="54.533685" lon="-3.052081"><ele>280</ele><time>2023-08-09T13:26:20Z</time><name>PT3937</name></trkpt>
<trkpt lat="54.533718" lon="-3.052085"><ele>280</ele><time>2023-08-09T13:26:23Z</time><name>PT3938</name></trkpt>
<trkpt lat="54.533767" lon="-3.052087"><ele>280</ele><time>2023-08-09T13:26:27Z</time><name>PT3939</name></trkpt>
<trkpt lat="54.533802" lon="-3.052106"><ele>279</ele><time>2023-08-09T13:26:31Z</time><name>PT3940</name></trkpt>
<trkpt lat="54.533810" lon="-3.052129"><ele>279</ele><time>2023-08-09T13:26:34Z</time><name>PT3941</name></trkpt>
<trkpt lat="54.533813" lon="-3.052133"><ele>279</ele><time>2023-08-09T13:26:38Z</time><name>PT3942</name></trkpt>
<trkpt lat="54.533844" lon="-3.052139"><ele>279</ele><time>2023-08-09T13:26:42Z</time><name>PT3943</name></trkpt>
<trkpt lat="54.533881" lon="-3.052144"><ele>280</ele><time>2023-08-09T13:26:46Z</time><name>PT3944</name></trkpt>
<trkpt lat="54.533907" lon="-3.052144"><ele>279</ele><time>2023-08-09T13:26:49Z</time><name>PT3945</name></trkpt>
<trkpt lat="54.533935" lon="-3.052144"><ele>280</ele><time>2023-08-09T13:26:53Z</time><name>PT3946</name></trkpt>
<trkpt lat="54.533968" lon="-3.052155"><ele>284</ele><time>2023-08-09T13:26:57Z</time><name>PT3947</name></trkpt>
<trkpt lat="54.534009" lon="-3.052150"><ele>284</ele><time>2023-08-09T13:27:01Z</time><name>PT3948</name></trkpt>
<trkpt lat="54.534036" lon="-3.052171"><ele>284</ele><time>2023-08-09T13:27:05Z</time><name>PT3949</name></trkpt>
<trkpt lat="54.534053" lon="-3.052191"><ele>284</ele><time>2023-08-09T13:27:08Z</time><name>PT3950</name></trkpt>
<trkpt lat="54.534078" lon="-3.052202"><ele>286</ele><time>2023-08-09T13:27:12Z</time><name>PT3951</name></trkpt>
<trkpt lat="54.534103" lon="-3.052213"><ele>286</ele><time>2023-08-09T13:27:15Z</time><name>PT3952</name></trkpt>
<trkpt lat="54.534144" lon="-3.052226"><ele>286</ele><time>2023-08-09T13:27:19Z</time><name>PT3953</name></trkpt>
<trkpt lat="54.534178" lon="-3.052270"><ele>286</ele><time>2023-08-09T13:27:23Z</time><name>PT3954</name></trkpt>
<trkpt lat="54.534206" lon="-3.052294"><ele>287</ele><time>2023-08-09T13:27:26Z</time><name>PT3955</name></trkpt>
<trkpt lat="54.534237" lon="-3.052318"><ele>287</ele><time>2023-08-09T13:27:30Z</time><name>PT3956</name></trkpt>
<trkpt lat="54.534278" lon="-3.052351"><ele>293</ele><time>2023-08-09T13:27:33Z</time><name>PT3957</name></trkpt>
<trkpt lat="54.534342" lon="-3.052392"><ele>294</ele><time>2023-08-09T13:27:37Z</time><name>PT3958</name></trkpt>
<trkpt lat="54.534385" lon="-3.052419"><ele>293</ele><time>2023-08-09T13:27:40Z</time><name>PT3959</name></trkpt>
<trkpt lat="54.534438" lon="-3.052461"><ele>292</ele><time>2023-08-09T13:27:44Z</time><name>PT3960</name></trkpt>
<trkpt lat="54.534477" lon="-3.052514"><ele>290</ele><time>2023-08-09T13:27:48Z</time><name>PT3961</name></trkpt>
<trkpt lat="54.534512" lon="-3.052570"><ele>288</ele><time>2023-08-09T13:27:51Z</time><name>PT3962</name></trkpt>
<trkpt lat="54.534534" lon="-3.052597"><ele>285</ele><time>2023-08-09T13:27:54Z</time><name>PT3963</name></trkpt>
<trkpt lat="54.534570" lon="-3.052654"><ele>286</ele><time>2023-08-09T13:27:58Z</time><name>PT3964</name></trkpt>
<trkpt lat="54.534577" lon="-3.052656"><ele>284</ele><time>2023-08-09T13:28:02Z</time><name>PT3965</name></trkpt>
<trkpt lat="54.534596" lon="-3.052712"><ele>283</ele><time>2023-08-09T13:28:34Z</time><name>PT3966</name></trkpt>
<trkpt lat="54.534633" lon="-3.052751"><ele>280</ele><time>2023-08-09T13:28:37Z</time><name>PT3967</name></trkpt>
<trkpt lat="54.534669" lon="-3.052811"><ele>279</ele><time>2023-08-09T13:28:41Z</time><name>PT3968</name></trkpt>
<trkpt lat="54.534694" lon="-3.052835"><ele>277</ele><time>2023-08-09T13:28:44Z</time><name>PT3969</name></trkpt>
<trkpt lat="54.534731" lon="-3.052909"><ele>276</ele><time>2023-08-09T13:28:48Z</time><name>PT3970</name></trkpt>
<trkpt lat="54.534746" lon="-3.052962"><ele>276</ele><time>2023-08-09T13:28:51Z</time><name>PT3971</name></trkpt>
<trkpt lat="54.534798" lon="-3.053010"><ele>275</ele><time>2023-08-09T13:28:55Z</time><name>PT3972</name></trkpt>
<trkpt lat="54.534818" lon="-3.053059"><ele>275</ele><time>2023-08-09T13:28:58Z</time><name>PT3973</name></trkpt>
<trkpt lat="54.534835" lon="-3.053104"><ele>275</ele><time>2023-08-09T13:29:01Z</time><name>PT3974</name></trkpt>
<trkpt lat="54.534881" lon="-3.053155"><ele>276</ele><time>2023-08-09T13:29:05Z</time><name>PT3975</name></trkpt>
<trkpt lat="54.534899" lon="-3.053200"><ele>275</ele><time>2023-08-09T13:29:08Z</time><name>PT3976</name></trkpt>
<trkpt lat="54.534909" lon="-3.053239"><ele>274</ele><time>2023-08-09T13:29:11Z</time><name>PT3977</name></trkpt>
<trkpt lat="54.534925" lon="-3.053306"><ele>274</ele><time>2023-08-09T13:29:14Z</time><name>PT3978</name></trkpt>
<trkpt lat="54.534948" lon="-3.053380"><ele>273</ele><time>2023-08-09T13:29:18Z</time><name>PT3979</name></trkpt>
<trkpt lat="54.534969" lon="-3.053425"><ele>271</ele><time>2023-08-09T13:29:21Z</time><name>PT3980</name></trkpt>
<trkpt lat="54.534999" lon="-3.053526"><ele>272</ele><time>2023-08-09T13:29:25Z</time><name>PT3981</name></trkpt>
<trkpt lat="54.535011" lon="-3.053567"><ele>271</ele><time>2023-08-09T13:29:28Z</time><name>PT3982</name></trkpt>
<trkpt lat="54.535032" lon="-3.053657"><ele>271</ele><time>2023-08-09T13:29:32Z</time><name>PT3983</name></trkpt>
<trkpt lat="54.535062" lon="-3.053719"><ele>270</ele><time>2023-08-09T13:29:36Z</time><name>PT3984</name></trkpt>
<trkpt lat="54.535086" lon="-3.053776"><ele>270</ele><time>2023-08-09T13:29:39Z</time><name>PT3985</name></trkpt>
<trkpt lat="54.535112" lon="-3.053841"><ele>270</ele><time>2023-08-09T13:29:42Z</time><name>PT3986</name></trkpt>
<trkpt lat="54.535157" lon="-3.053910"><ele>269</ele><time>2023-08-09T13:29:46Z</time><name>PT3987</name></trkpt>
<trkpt lat="54.535199" lon="-3.053974"><ele>270</ele><time>2023-08-09T13:29:50Z</time><name>PT3988</name></trkpt>
<trkpt lat="54.535239" lon="-3.054050"><ele>272</ele><time>2023-08-09T13:29:53Z</time><name>PT3989</name></trkpt>
<trkpt lat="54.535268" lon="-3.054088"><ele>274</ele><time>2023-08-09T13:29:56Z</time><name>PT3990</name></trkpt>
<trkpt lat="54.535303" lon="-3.054113"><ele>274</ele><time>2023-08-09T13:29:59Z</time><name>PT3991</name></trkpt>
<trkpt lat="54.535354" lon="-3.054135"><ele>275</ele><time>2023-08-09T13:30:03Z</time><name>PT3992</name></trkpt>
<trkpt lat="54.535392" lon="-3.054165"><ele>274</ele><time>2023-08-09T13:30:07Z</time><name>PT3993</name></trkpt>
<trkpt lat="54.535429" lon="-3.054175"><ele>276</ele><time>2023-08-09T13:30:10Z</time><name>PT3994</name></trkpt>
<trkpt lat="54.535471" lon="-3.054199"><ele>276</ele><time>2023-08-09T13:30:14Z</time><name>PT3995</name></trkpt>
<trkpt lat="54.535496" lon="-3.054220"><ele>277</ele><time>2023-08-09T13:30:17Z</time><name>PT3996</name></trkpt>
<trkpt lat="54.535527" lon="-3.054255"><ele>278</ele><time>2023-08-09T13:30:20Z</time><name>PT3997</name></trkpt>
<trkpt lat="54.535555" lon="-3.054285"><ele>277</ele><time>2023-08-09T13:30:23Z</time><name>PT3998</name></trkpt>
<trkpt lat="54.535596" lon="-3.054320"><ele>278</ele><time>2023-08-09T13:30:27Z</time><name>PT3999</name></trkpt>
<trkpt lat="54.535615" lon="-3.054344"><ele>278</ele><time>2023-08-09T13:30:30Z</time><name>PT4000</name></trkpt>
<trkpt lat="54.535638" lon="-3.054382"><ele>278</ele><time>2023-08-09T13:30:33Z</time><name>PT4001</name></trkpt>
<trkpt lat="54.535665" lon="-3.054412"><ele>276</ele><time>2023-08-09T13:30:37Z</time><name>PT4002</name></trkpt>
<trkpt lat="54.535698" lon="-3.054453"><ele>278</ele><time>2023-08-09T13:30:40Z</time><name>PT4003</name></trkpt>
<trkpt lat="54.535724" lon="-3.054499"><ele>277</ele><time>2023-08-09T13:30:44Z</time><name>PT4004</name></trkpt>
<trkpt lat="54.535755" lon="-3.054551"><ele>278</ele><time>2023-08-09T13:30:48Z</time><name>PT4005</name></trkpt>
<trkpt lat="54.535777" lon="-3.054587"><ele>277</ele><time>2023-08-09T13:30:51Z</time><name>PT4006</name></trkpt>
<trkpt lat="54.535809" lon="-3.054640"><ele>278</ele><time>2023-08-09T13:30:55Z</time><name>PT4007</name></trkpt>
<trkpt lat="54.535844" lon="-3.054692"><ele>280</ele><time>2023-08-09T13:30:59Z</time><name>PT4008</name></trkpt>
<trkpt lat="54.535873" lon="-3.054713"><ele>280</ele><time>2023-08-09T13:31:02Z</time><name>PT4009</name></trkpt>
<trkpt lat="54.535896" lon="-3.054767"><ele>282</ele><time>2023-08-09T13:31:06Z</time><name>PT4010</name></trkpt>
<trkpt lat="54.535931" lon="-3.054796"><ele>283</ele><time>2023-08-09T13:31:10Z</time><name>PT4011</name></trkpt>
<trkpt lat="54.535963" lon="-3.054838"><ele>283</ele><time>2023-08-09T13:31:14Z</time><name>PT4012</name></trkpt>
<trkpt lat="54.535999" lon="-3.054883"><ele>284</ele><time>2023-08-09T13:31:18Z</time><name>PT4013</name></trkpt>
<trkpt lat="54.536029" lon="-3.054921"><ele>285</ele><time>2023-08-09T13:31:21Z</time><name>PT4014</name></trkpt>
<trkpt lat="54.536047" lon="-3.054956"><ele>284</ele><time>2023-08-09T13:31:24Z</time><name>PT4015</name></trkpt>
<trkpt lat="54.536072" lon="-3.054998"><ele>284</ele><time>2023-08-09T13:31:27Z</time><name>PT4016</name></trkpt>
<trkpt lat="54.536107" lon="-3.055037"><ele>282</ele><time>2023-08-09T13:31:31Z</time><name>PT4017</name></trkpt>
<trkpt lat="54.536143" lon="-3.055066"><ele>283</ele><time>2023-08-09T13:31:34Z</time><name>PT4018</name></trkpt>
<trkpt lat="54.536179" lon="-3.055121"><ele>281</ele><time>2023-08-09T13:31:38Z</time><name>PT4019</name></trkpt>
<trkpt lat="54.536213" lon="-3.055158"><ele>283</ele><time>2023-08-09T13:31:41Z</time><name>PT4020</name></trkpt>
<trkpt lat="54.536248" lon="-3.055205"><ele>282</ele><time>2023-08-09T13:31:45Z</time><name>PT4021</name></trkpt>
<trkpt lat="54.536289" lon="-3.055238"><ele>283</ele><time>2023-08-09T13:31:48Z</time><name>PT4022</name></trkpt>
<trkpt lat="54.536317" lon="-3.055265"><ele>283</ele><time>2023-08-09T13:31:51Z</time><name>PT4023</name></trkpt>
<trkpt lat="54.536348" lon="-3.055303"><ele>283</ele><time>2023-08-09T13:31:54Z</time><name>PT4024</name></trkpt>
<trkpt lat="54.536370" lon="-3.055330"><ele>283</ele><time>2023-08-09T13:31:58Z</time><name>PT4025</name></trkpt>
<trkpt lat="54.536398" lon="-3.055331"><ele>285</ele><time>2023-08-09T13:32:02Z</time><name>PT4026</name></trkpt>
<trkpt lat="54.536411" lon="-3.055352"><ele>285</ele><time>2023-08-09T13:32:05Z</time><name>PT4027</name></trkpt>
<trkpt lat="54.536449" lon="-3.055391"><ele>285</ele><time>2023-08-09T13:32:09Z</time><name>PT4028</name></trkpt>
<trkpt lat="54.536493" lon="-3.055428"><ele>284</ele><time>2023-08-09T13:32:13Z</time><name>PT4029</name></trkpt>
<trkpt lat="54.536534" lon="-3.055472"><ele>284</ele><time>2023-08-09T13:32:17Z</time><name>PT4030</name></trkpt>
<trkpt lat="54.536560" lon="-3.055502"><ele>284</ele><time>2023-08-09T13:32:20Z</time><name>PT4031</name></trkpt>
<trkpt lat="54.536604" lon="-3.055541"><ele>283</ele><time>2023-08-09T13:32:24Z</time><name>PT4032</name></trkpt>
<trkpt lat="54.536651" lon="-3.055576"><ele>283</ele><time>2023-08-09T13:32:28Z</time><name>PT4033</name></trkpt>
<trkpt lat="54.536688" lon="-3.055602"><ele>283</ele><time>2023-08-09T13:32:31Z</time><name>PT4034</name></trkpt>
<trkpt lat="54.536735" lon="-3.055619"><ele>282</ele><time>2023-08-09T13:32:35Z</time><name>PT4035</name></trkpt>
<trkpt lat="54.536774" lon="-3.055657"><ele>282</ele><time>2023-08-09T13:32:39Z</time><name>PT4036</name></trkpt>
<trkpt lat="54.536797" lon="-3.055680"><ele>282</ele><time>2023-08-09T13:32:42Z</time><name>PT4037</name></trkpt>
<trkpt lat="54.536844" lon="-3.055706"><ele>283</ele><time>2023-08-09T13:32:46Z</time><name>PT4038</name></trkpt>
<trkpt lat="54.536868" lon="-3.055743"><ele>283</ele><time>2023-08-09T13:32:49Z</time><name>PT4039</name></trkpt>
<trkpt lat="54.536894" lon="-3.055801"><ele>282</ele><time>2023-08-09T13:32:53Z</time><name>PT4040</name></trkpt>
<trkpt lat="54.536921" lon="-3.055835"><ele>281</ele><time>2023-08-09T13:32:56Z</time><name>PT4041</name></trkpt>
<trkpt lat="54.536955" lon="-3.055878"><ele>281</ele><time>2023-08-09T13:33:00Z</time><name>PT4042</name></trkpt>
<trkpt lat="54.536979" lon="-3.055926"><ele>281</ele><time>2023-08-09T13:33:03Z</time><name>PT4043</name></trkpt>
<trkpt lat="54.537028" lon="-3.055980"><ele>282</ele><time>2023-08-09T13:33:07Z</time><name>PT4044</name></trkpt>
<trkpt lat="54.537068" lon="-3.056055"><ele>281</ele><time>2023-08-09T13:33:11Z</time><name>PT4045</name></trkpt>
<trkpt lat="54.537105" lon="-3.056102"><ele>280</ele><time>2023-08-09T13:33:15Z</time><name>PT4046</name></trkpt>
<trkpt lat="54.537132" lon="-3.056147"><ele>280</ele><time>2023-08-09T13:33:18Z</time><name>PT4047</name></trkpt>
<trkpt lat="54.537171" lon="-3.056194"><ele>279</ele><time>2023-08-09T13:33:22Z</time><name>PT4048</name></trkpt>
<trkpt lat="54.537206" lon="-3.056263"><ele>277</ele><time>2023-08-09T13:33:26Z</time><name>PT4049</name></trkpt>
<trkpt lat="54.537251" lon="-3.056299"><ele>276</ele><time>2023-08-09T13:33:30Z</time><name>PT4050</name></trkpt>
<trkpt lat="54.537280" lon="-3.056351"><ele>275</ele><time>2023-08-09T13:33:33Z</time><name>PT4051</name></trkpt>
<trkpt lat="54.537308" lon="-3.056419"><ele>276</ele><time>2023-08-09T13:33:37Z</time><name>PT4052</name></trkpt>
<trkpt lat="54.537345" lon="-3.056462"><ele>274</ele><time>2023-08-09T13:33:41Z</time><name>PT4053</name></trkpt>
<trkpt lat="54.537377" lon="-3.056518"><ele>273</ele><time>2023-08-09T13:33:44Z</time><name>PT4054</name></trkpt>
<trkpt lat="54.537394" lon="-3.056556"><ele>272</ele><time>2023-08-09T13:33:47Z</time><name>PT4055</name></trkpt>
<trkpt lat="54.537411" lon="-3.056599"><ele>272</ele><time>2023-08-09T13:33:50Z</time><name>PT4056</name></trkpt>
<trkpt lat="54.537455" lon="-3.056655"><ele>271</ele><time>2023-08-09T13:33:54Z</time><name>PT4057</name></trkpt>
<trkpt lat="54.537473" lon="-3.056700"><ele>271</ele><time>2023-08-09T13:33:57Z</time><name>PT4058</name></trkpt>
<trkpt lat="54.537506" lon="-3.056754"><ele>271</ele><time>2023-08-09T13:34:00Z</time><name>PT4059</name></trkpt>
<trkpt lat="54.537527" lon="-3.056810"><ele>268</ele><time>2023-08-09T13:34:04Z</time><name>PT4060</name></trkpt>
<trkpt lat="54.537572" lon="-3.056891"><ele>267</ele><time>2023-08-09T13:34:08Z</time><name>PT4061</name></trkpt>
<trkpt lat="54.537589" lon="-3.056937"><ele>267</ele><time>2023-08-09T13:34:11Z</time><name>PT4062</name></trkpt>
<trkpt lat="54.537631" lon="-3.057009"><ele>267</ele><time>2023-08-09T13:34:15Z</time><name>PT4063</name></trkpt>
<trkpt lat="54.537658" lon="-3.057055"><ele>267</ele><time>2023-08-09T13:34:18Z</time><name>PT4064</name></trkpt>
<trkpt lat="54.537696" lon="-3.057100"><ele>267</ele><time>2023-08-09T13:34:22Z</time><name>PT4065</name></trkpt>
<trkpt lat="54.537736" lon="-3.057175"><ele>268</ele><time>2023-08-09T13:34:26Z</time><name>PT4066</name></trkpt>
<trkpt lat="54.537766" lon="-3.057202"><ele>269</ele><time>2023-08-09T13:34:29Z</time><name>PT4067</name></trkpt>
<trkpt lat="54.537804" lon="-3.057244"><ele>269</ele><time>2023-08-09T13:34:32Z</time><name>PT4068</name></trkpt>
<trkpt lat="54.537840" lon="-3.057276"><ele>269</ele><time>2023-08-09T13:34:36Z</time><name>PT4069</name></trkpt>
<trkpt lat="54.537881" lon="-3.057337"><ele>269</ele><time>2023-08-09T13:34:40Z</time><name>PT4070</name></trkpt>
<trkpt lat="54.537904" lon="-3.057358"><ele>268</ele><time>2023-08-09T13:34:43Z</time><name>PT4071</name></trkpt>
<trkpt lat="54.537943" lon="-3.057418"><ele>267</ele><time>2023-08-09T13:34:47Z</time><name>PT4072</name></trkpt>
<trkpt lat="54.537972" lon="-3.057428"><ele>266</ele><time>2023-08-09T13:34:50Z</time><name>PT4073</name></trkpt>
<trkpt lat="54.538020" lon="-3.057437"><ele>265</ele><time>2023-08-09T13:34:54Z</time><name>PT4074</name></trkpt>
<trkpt lat="54.538063" lon="-3.057469"><ele>265</ele><time>2023-08-09T13:34:57Z</time><name>PT4075</name></trkpt>
<trkpt lat="54.538108" lon="-3.057512"><ele>265</ele><time>2023-08-09T13:35:01Z</time><name>PT4076</name></trkpt>
<trkpt lat="54.538149" lon="-3.057555"><ele>266</ele><time>2023-08-09T13:35:04Z</time><name>PT4077</name></trkpt>
<trkpt lat="54.538176" lon="-3.057593"><ele>266</ele><time>2023-08-09T13:35:07Z</time><name>PT4078</name></trkpt>
<trkpt lat="54.538218" lon="-3.057638"><ele>264</ele><time>2023-08-09T13:35:11Z</time><name>PT4079</name></trkpt>
<trkpt lat="54.538256" lon="-3.057675"><ele>263</ele><time>2023-08-09T13:35:14Z</time><name>PT4080</name></trkpt>
<trkpt lat="54.538287" lon="-3.057696"><ele>261</ele><time>2023-08-09T13:35:18Z</time><name>PT4081</name></trkpt>
<trkpt lat="54.538346" lon="-3.057715"><ele>262</ele><time>2023-08-09T13:35:22Z</time><name>PT4082</name></trkpt>
<trkpt lat="54.538374" lon="-3.057720"><ele>262</ele><time>2023-08-09T13:35:25Z</time><name>PT4083</name></trkpt>
<trkpt lat="54.538439" lon="-3.057698"><ele>262</ele><time>2023-08-09T13:35:29Z</time><name>PT4084</name></trkpt>
<trkpt lat="54.538466" lon="-3.057703"><ele>262</ele><time>2023-08-09T13:35:32Z</time><name>PT4085</name></trkpt>
<trkpt lat="54.538527" lon="-3.057684"><ele>263</ele><time>2023-08-09T13:35:36Z</time><name>PT4086</name></trkpt>
<trkpt lat="54.538562" lon="-3.057682"><ele>263</ele><time>2023-08-09T13:35:39Z</time><name>PT4087</name></trkpt>
<trkpt lat="54.538595" lon="-3.057688"><ele>260</ele><time>2023-08-09T13:35:43Z</time><name>PT4088</name></trkpt>
<trkpt lat="54.538650" lon="-3.057682"><ele>259</ele><time>2023-08-09T13:35:47Z</time><name>PT4089</name></trkpt>
<trkpt lat="54.538686" lon="-3.057690"><ele>257</ele><time>2023-08-09T13:35:51Z</time><name>PT4090</name></trkpt>
<trkpt lat="54.538721" lon="-3.057709"><ele>255</ele><time>2023-08-09T13:35:54Z</time><name>PT4091</name></trkpt>
<trkpt lat="54.538763" lon="-3.057722"><ele>255</ele><time>2023-08-09T13:35:58Z</time><name>PT4092</name></trkpt>
<trkpt lat="54.538814" lon="-3.057762"><ele>255</ele><time>2023-08-09T13:36:02Z</time><name>PT4093</name></trkpt>
<trkpt lat="54.538844" lon="-3.057758"><ele>255</ele><time>2023-08-09T13:36:05Z</time><name>PT4094</name></trkpt>
<trkpt lat="54.538885" lon="-3.057806"><ele>254</ele><time>2023-08-09T13:36:09Z</time><name>PT4095</name></trkpt>
<trkpt lat="54.538918" lon="-3.057830"><ele>253</ele><time>2023-08-09T13:36:12Z</time><name>PT4096</name></trkpt>
<trkpt lat="54.538963" lon="-3.057863"><ele>253</ele><time>2023-08-09T13:36:16Z</time><name>PT4097</name></trkpt>
<trkpt lat="54.539014" lon="-3.057893"><ele>253</ele><time>2023-08-09T13:36:20Z</time><name>PT4098</name></trkpt>
<trkpt lat="54.539049" lon="-3.057910"><ele>256</ele><time>2023-08-09T13:36:23Z</time><name>PT4099</name></trkpt>
<trkpt lat="54.539092" lon="-3.057945"><ele>255</ele><time>2023-08-09T13:36:26Z</time><name>PT4100</name></trkpt>
<trkpt lat="54.539123" lon="-3.057969"><ele>255</ele><time>2023-08-09T13:36:29Z</time><name>PT4101</name></trkpt>
<trkpt lat="54.539162" lon="-3.058012"><ele>256</ele><time>2023-08-09T13:36:32Z</time><name>PT4102</name></trkpt>
<trkpt lat="54.539207" lon="-3.058060"><ele>256</ele><time>2023-08-09T13:36:36Z</time><name>PT4103</name></trkpt>
<trkpt lat="54.539244" lon="-3.058104"><ele>255</ele><time>2023-08-09T13:36:40Z</time><name>PT4104</name></trkpt>
<trkpt lat="54.539284" lon="-3.058146"><ele>253</ele><time>2023-08-09T13:36:44Z</time><name>PT4105</name></trkpt>
<trkpt lat="54.539321" lon="-3.058183"><ele>253</ele><time>2023-08-09T13:36:47Z</time><name>PT4106</name></trkpt>
<trkpt lat="54.539363" lon="-3.058207"><ele>253</ele><time>2023-08-09T13:36:51Z</time><name>PT4107</name></trkpt>
<trkpt lat="54.539386" lon="-3.058246"><ele>252</ele><time>2023-08-09T13:36:54Z</time><name>PT4108</name></trkpt>
<trkpt lat="54.539423" lon="-3.058271"><ele>251</ele><time>2023-08-09T13:36:58Z</time><name>PT4109</name></trkpt>
<trkpt lat="54.539456" lon="-3.058316"><ele>249</ele><time>2023-08-09T13:37:02Z</time><name>PT4110</name></trkpt>
<trkpt lat="54.539485" lon="-3.058354"><ele>248</ele><time>2023-08-09T13:37:06Z</time><name>PT4111</name></trkpt>
<trkpt lat="54.539515" lon="-3.058365"><ele>248</ele><time>2023-08-09T13:37:09Z</time><name>PT4112</name></trkpt>
<trkpt lat="54.539569" lon="-3.058387"><ele>249</ele><time>2023-08-09T13:37:13Z</time><name>PT4113</name></trkpt>
<trkpt lat="54.539600" lon="-3.058392"><ele>245</ele><time>2023-08-09T13:37:17Z</time><name>PT4114</name></trkpt>
<trkpt lat="54.539639" lon="-3.058411"><ele>244</ele><time>2023-08-09T13:37:20Z</time><name>PT4115</name></trkpt>
<trkpt lat="54.539665" lon="-3.058423"><ele>241</ele><time>2023-08-09T13:37:24Z</time><name>PT4116</name></trkpt>
<trkpt lat="54.539707" lon="-3.058460"><ele>239</ele><time>2023-08-09T13:37:28Z</time><name>PT4117</name></trkpt>
<trkpt lat="54.539725" lon="-3.058498"><ele>237</ele><time>2023-08-09T13:37:31Z</time><name>PT4118</name></trkpt>
<trkpt lat="54.539759" lon="-3.058524"><ele>237</ele><time>2023-08-09T13:37:34Z</time><name>PT4119</name></trkpt>
<trkpt lat="54.539804" lon="-3.058577"><ele>238</ele><time>2023-08-09T13:37:38Z</time><name>PT4120</name></trkpt>
<trkpt lat="54.539831" lon="-3.058605"><ele>239</ele><time>2023-08-09T13:37:41Z</time><name>PT4121</name></trkpt>
<trkpt lat="54.539877" lon="-3.058623"><ele>238</ele><time>2023-08-09T13:37:45Z</time><name>PT4122</name></trkpt>
<trkpt lat="54.539932" lon="-3.058633"><ele>238</ele><time>2023-08-09T13:37:49Z</time><name>PT4123</name></trkpt>
<trkpt lat="54.539957" lon="-3.058657"><ele>238</ele><time>2023-08-09T13:37:52Z</time><name>PT4124</name></trkpt>
<trkpt lat="54.540016" lon="-3.058691"><ele>239</ele><time>2023-08-09T13:37:56Z</time><name>PT4125</name></trkpt>
<trkpt lat="54.540047" lon="-3.058702"><ele>240</ele><time>2023-08-09T13:37:59Z</time><name>PT4126</name></trkpt>
<trkpt lat="54.540101" lon="-3.058729"><ele>246</ele><time>2023-08-09T13:38:03Z</time><name>PT4127</name></trkpt>
<trkpt lat="54.540138" lon="-3.058757"><ele>249</ele><time>2023-08-09T13:38:07Z</time><name>PT4128</name></trkpt>
<trkpt lat="54.540176" lon="-3.058755"><ele>250</ele><time>2023-08-09T13:38:10Z</time><name>PT4129</name></trkpt>
<trkpt lat="54.540234" lon="-3.058756"><ele>248</ele><time>2023-08-09T13:38:14Z</time><name>PT4130</name></trkpt>
<trkpt lat="54.540275" lon="-3.058740"><ele>246</ele><time>2023-08-09T13:38:17Z</time><name>PT4131</name></trkpt>
<trkpt lat="54.540302" lon="-3.058748"><ele>246</ele><time>2023-08-09T13:38:20Z</time><name>PT4132</name></trkpt>
<trkpt lat="54.540338" lon="-3.058749"><ele>245</ele><time>2023-08-09T13:38:23Z</time><name>PT4133</name></trkpt>
<trkpt lat="54.540376" lon="-3.058743"><ele>245</ele><time>2023-08-09T13:38:27Z</time><name>PT4134</name></trkpt>
<trkpt lat="54.540427" lon="-3.058686"><ele>241</ele><time>2023-08-09T13:38:31Z</time><name>PT4135</name></trkpt>
<trkpt lat="54.540472" lon="-3.058667"><ele>242</ele><time>2023-08-09T13:38:34Z</time><name>PT4136</name></trkpt>
<trkpt lat="54.540496" lon="-3.058637"><ele>238</ele><time>2023-08-09T13:38:37Z</time><name>PT4137</name></trkpt>
<trkpt lat="54.540547" lon="-3.058608"><ele>237</ele><time>2023-08-09T13:38:41Z</time><name>PT4138</name></trkpt>
<trkpt lat="54.540573" lon="-3.058575"><ele>233</ele><time>2023-08-09T13:38:44Z</time><name>PT4139</name></trkpt>
<trkpt lat="54.540618" lon="-3.058554"><ele>232</ele><time>2023-08-09T13:38:47Z</time><name>PT4140</name></trkpt>
<trkpt lat="54.540667" lon="-3.058551"><ele>230</ele><time>2023-08-09T13:38:51Z</time><name>PT4141</name></trkpt>
<trkpt lat="54.540700" lon="-3.058553"><ele>232</ele><time>2023-08-09T13:38:54Z</time><name>PT4142</name></trkpt>
<trkpt lat="54.540752" lon="-3.058565"><ele>230</ele><time>2023-08-09T13:38:57Z</time><name>PT4143</name></trkpt>
<trkpt lat="54.540805" lon="-3.058571"><ele>229</ele><time>2023-08-09T13:39:01Z</time><name>PT4144</name></trkpt>
<trkpt lat="54.540854" lon="-3.058596"><ele>228</ele><time>2023-08-09T13:39:05Z</time><name>PT4145</name></trkpt>
<trkpt lat="54.540902" lon="-3.058608"><ele>229</ele><time>2023-08-09T13:39:08Z</time><name>PT4146</name></trkpt>
<trkpt lat="54.540956" lon="-3.058625"><ele>229</ele><time>2023-08-09T13:39:12Z</time><name>PT4147</name></trkpt>
<trkpt lat="54.541012" lon="-3.058630"><ele>228</ele><time>2023-08-09T13:39:15Z</time><name>PT4148</name></trkpt>
<trkpt lat="54.541057" lon="-3.058638"><ele>228</ele><time>2023-08-09T13:39:19Z</time><name>PT4149</name></trkpt>
<trkpt lat="54.541099" lon="-3.058653"><ele>225</ele><time>2023-08-09T13:39:23Z</time><name>PT4150</name></trkpt>
<trkpt lat="54.541128" lon="-3.058654"><ele>224</ele><time>2023-08-09T13:39:26Z</time><name>PT4151</name></trkpt>
<trkpt lat="54.541167" lon="-3.058659"><ele>226</ele><time>2023-08-09T13:39:29Z</time><name>PT4152</name></trkpt>
<trkpt lat="54.541202" lon="-3.058669"><ele>226</ele><time>2023-08-09T13:39:32Z</time><name>PT4153</name></trkpt>
<trkpt lat="54.541246" lon="-3.058656"><ele>226</ele><time>2023-08-09T13:39:35Z</time><name>PT4154</name></trkpt>
<trkpt lat="54.541301" lon="-3.058677"><ele>226</ele><time>2023-08-09T13:39:38Z</time><name>PT4155</name></trkpt>
<trkpt lat="54.541338" lon="-3.058673"><ele>227</ele><time>2023-08-09T13:39:42Z</time><name>PT4156</name></trkpt>
<trkpt lat="54.541410" lon="-3.058629"><ele>231</ele><time>2023-08-09T13:39:46Z</time><name>PT4157</name></trkpt>
<trkpt lat="54.541444" lon="-3.058585"><ele>232</ele><time>2023-08-09T13:39:49Z</time><name>PT4158</name></trkpt>
<trkpt lat="54.541470" lon="-3.058545"><ele>232</ele><time>2023-08-09T13:39:52Z</time><name>PT4159</name></trkpt>
<trkpt lat="54.541517" lon="-3.058485"><ele>233</ele><time>2023-08-09T13:39:56Z</time><name>PT4160</name></trkpt>
<trkpt lat="54.541535" lon="-3.058451"><ele>232</ele><time>2023-08-09T13:39:59Z</time><name>PT4161</name></trkpt>
<trkpt lat="54.541590" lon="-3.058392"><ele>230</ele><time>2023-08-09T13:40:03Z</time><name>PT4162</name></trkpt>
<trkpt lat="54.541609" lon="-3.058343"><ele>230</ele><time>2023-08-09T13:40:07Z</time><name>PT4163</name></trkpt>
<trkpt lat="54.541637" lon="-3.058278"><ele>226</ele><time>2023-08-09T13:40:11Z</time><name>PT4164</name></trkpt>
<trkpt lat="54.541666" lon="-3.058245"><ele>227</ele><time>2023-08-09T13:40:14Z</time><name>PT4165</name></trkpt>
<trkpt lat="54.541706" lon="-3.058220"><ele>226</ele><time>2023-08-09T13:40:17Z</time><name>PT4166</name></trkpt>
<trkpt lat="54.541776" lon="-3.058220"><ele>227</ele><time>2023-08-09T13:40:21Z</time><name>PT4167</name></trkpt>
<trkpt lat="54.541816" lon="-3.058233"><ele>226</ele><time>2023-08-09T13:40:25Z</time><name>PT4168</name></trkpt>
<trkpt lat="54.541859" lon="-3.058237"><ele>226</ele><time>2023-08-09T13:40:28Z</time><name>PT4169</name></trkpt>
<trkpt lat="54.541906" lon="-3.058249"><ele>228</ele><time>2023-08-09T13:40:32Z</time><name>PT4170</name></trkpt>
<trkpt lat="54.541931" lon="-3.058240"><ele>229</ele><time>2023-08-09T13:40:35Z</time><name>PT4171</name></trkpt>
<trkpt lat="54.541961" lon="-3.058253"><ele>227</ele><time>2023-08-09T13:40:42Z</time><name>PT4172</name></trkpt>
<trkpt lat="54.541987" lon="-3.058242"><ele>226</ele><time>2023-08-09T13:40:45Z</time><name>PT4173</name></trkpt>
<trkpt lat="54.542037" lon="-3.058210"><ele>226</ele><time>2023-08-09T13:40:49Z</time><name>PT4174</name></trkpt>
<trkpt lat="54.542086" lon="-3.058178"><ele>224</ele><time>2023-08-09T13:40:52Z</time><name>PT4175</name></trkpt>
<trkpt lat="54.542111" lon="-3.058165"><ele>223</ele><time>2023-08-09T13:40:55Z</time><name>PT4176</name></trkpt>
<trkpt lat="54.542177" lon="-3.058167"><ele>223</ele><time>2023-08-09T13:40:59Z</time><name>PT4177</name></trkpt>
<trkpt lat="54.542216" lon="-3.058188"><ele>225</ele><time>2023-08-09T13:41:03Z</time><name>PT4178</name></trkpt>
<trkpt lat="54.542259" lon="-3.058190"><ele>224</ele><time>2023-08-09T13:41:06Z</time><name>PT4179</name></trkpt>
<trkpt lat="54.542283" lon="-3.058177"><ele>224</ele><time>2023-08-09T13:41:09Z</time><name>PT4180</name></trkpt>
<trkpt lat="54.542299" lon="-3.058152"><ele>223</ele><time>2023-08-09T13:41:13Z</time><name>PT4181</name></trkpt>
<trkpt lat="54.542305" lon="-3.058138"><ele>222</ele><time>2023-08-09T13:41:16Z</time><name>PT4182</name></trkpt>
<trkpt lat="54.542323" lon="-3.058087"><ele>221</ele><time>2023-08-09T13:41:20Z</time><name>PT4183</name></trkpt>
<trkpt lat="54.542349" lon="-3.058028"><ele>220</ele><time>2023-08-09T13:41:24Z</time><name>PT4184</name></trkpt>
<trkpt lat="54.542391" lon="-3.057979"><ele>222</ele><time>2023-08-09T13:41:28Z</time><name>PT4185</name></trkpt>
<trkpt lat="54.542406" lon="-3.057940"><ele>223</ele><time>2023-08-09T13:41:31Z</time><name>PT4186</name></trkpt>
<trkpt lat="54.542426" lon="-3.057852"><ele>222</ele><time>2023-08-09T13:41:35Z</time><name>PT4187</name></trkpt>
<trkpt lat="54.542439" lon="-3.057805"><ele>222</ele><time>2023-08-09T13:41:38Z</time><name>PT4188</name></trkpt>
<trkpt lat="54.542457" lon="-3.057730"><ele>220</ele><time>2023-08-09T13:41:42Z</time><name>PT4189</name></trkpt>
<trkpt lat="54.542459" lon="-3.057673"><ele>221</ele><time>2023-08-09T13:41:45Z</time><name>PT4190</name></trkpt>
<trkpt lat="54.542482" lon="-3.057617"><ele>221</ele><time>2023-08-09T13:41:49Z</time><name>PT4191</name></trkpt>
<trkpt lat="54.542495" lon="-3.057556"><ele>219</ele><time>2023-08-09T13:41:53Z</time><name>PT4192</name></trkpt>
<trkpt lat="54.542513" lon="-3.057492"><ele>220</ele><time>2023-08-09T13:41:57Z</time><name>PT4193</name></trkpt>
<trkpt lat="54.542505" lon="-3.057439"><ele>217</ele><time>2023-08-09T13:42:01Z</time><name>PT4194</name></trkpt>
<trkpt lat="54.542490" lon="-3.057370"><ele>217</ele><time>2023-08-09T13:42:05Z</time><name>PT4195</name></trkpt>
<trkpt lat="54.542490" lon="-3.057336"><ele>217</ele><time>2023-08-09T13:42:09Z</time><name>PT4196</name></trkpt>
<trkpt lat="54.542491" lon="-3.057336"><ele>216</ele><time>2023-08-09T13:42:12Z</time><name>PT4197</name></trkpt>
<trkpt lat="54.542500" lon="-3.057325"><ele>216</ele><time>2023-08-09T13:42:16Z</time><name>PT4198</name></trkpt>
<trkpt lat="54.542510" lon="-3.057257"><ele>217</ele><time>2023-08-09T13:42:19Z</time><name>PT4199</name></trkpt>
<trkpt lat="54.542502" lon="-3.057220"><ele>217</ele><time>2023-08-09T13:42:22Z</time><name>PT4200</name></trkpt>
<trkpt lat="54.542498" lon="-3.057213"><ele>216</ele><time>2023-08-09T13:42:33Z</time><name>PT4201</name></trkpt>
<trkpt lat="54.542496" lon="-3.057188"><ele>217</ele><time>2023-08-09T13:42:37Z</time><name>PT4202</name></trkpt>
<trkpt lat="54.542502" lon="-3.057181"><ele>217</ele><time>2023-08-09T13:42:44Z</time><name>PT4203</name></trkpt>
<trkpt lat="54.542487" lon="-3.057177"><ele>219</ele><time>2023-08-09T13:42:47Z</time><name>PT4204</name></trkpt>
<trkpt lat="54.542485" lon="-3.057178"><ele>220</ele><time>2023-08-09T13:42:50Z</time><name>PT4205</name></trkpt></trkseg></trk></gpx>